<?xml version="1.0" encoding="UTF-8" standalone="no" ?>
<gpx xmlns="http://www.topografix.com/GPX/1/1" xmlns:xsi="http://www.w3.org/2001/XMLSchema-instance" xsi:schemaLocation="http://www.topografix.com/GPX/1/1 http://www.topografix.com/GPX/1/1/gpx.xsd" version="1.1" creator="VisuGPX - https://www.visugpx.com">
  <metadata>
    <name>Pornichet 28/05/2020</name>
    <desc><![CDATA[Sortie VTT du jeudi 28 mai 2020]]></desc>
  </metadata>
  <trk>
    <name><![CDATA[Pornichet Cyclisme]]></name>
    <trkseg>
      <trkpt lat="47.26405" lon="-2.3156">
        <ele>1.6000000238419</ele>
        <time>2020-05-28T07:26:54.000Z</time>
      </trkpt>
      <trkpt lat="47.26406" lon="-2.31572">
        <ele>1.6000000238419</ele>
        <time>2020-05-28T07:26:57.000Z</time>
      </trkpt>
      <trkpt lat="47.26407" lon="-2.31576">
        <ele>1.3999999761581</ele>
        <time>2020-05-28T07:26:58.000Z</time>
      </trkpt>
      <trkpt lat="47.26407" lon="-2.31585">
        <ele>1.3999999761581</ele>
        <time>2020-05-28T07:27:00.000Z</time>
      </trkpt>
      <trkpt lat="47.26406" lon="-2.31617">
        <ele>1.3999999761581</ele>
        <time>2020-05-28T07:27:07.000Z</time>
      </trkpt>
      <trkpt lat="47.26407" lon="-2.31652">
        <ele>1.3999999761581</ele>
        <time>2020-05-28T07:27:14.000Z</time>
      </trkpt>
      <trkpt lat="47.26401" lon="-2.31655">
        <ele>1.3999999761581</ele>
        <time>2020-05-28T07:27:17.000Z</time>
      </trkpt>
      <trkpt lat="47.26382" lon="-2.31665">
        <ele>1.3999999761581</ele>
        <time>2020-05-28T07:27:25.000Z</time>
      </trkpt>
      <trkpt lat="47.26361" lon="-2.31673">
        <ele>1.3999999761581</ele>
        <time>2020-05-28T07:27:31.000Z</time>
      </trkpt>
      <trkpt lat="47.26351" lon="-2.31679">
        <ele>1</ele>
        <time>2020-05-28T07:27:34.000Z</time>
      </trkpt>
      <trkpt lat="47.26347" lon="-2.3168">
        <ele>0.60000002384186</ele>
        <time>2020-05-28T07:27:35.000Z</time>
      </trkpt>
      <trkpt lat="47.26345" lon="-2.31682">
        <ele>0.20000000298023</ele>
        <time>2020-05-28T07:27:36.000Z</time>
      </trkpt>
      <trkpt lat="47.26342" lon="-2.31683">
        <ele>-0.20000000298023</ele>
        <time>2020-05-28T07:27:37.000Z</time>
      </trkpt>
      <trkpt lat="47.26339" lon="-2.31686">
        <ele>-0.60000002384186</ele>
        <time>2020-05-28T07:27:38.000Z</time>
      </trkpt>
      <trkpt lat="47.26337" lon="-2.3169">
        <ele>-0.60000002384186</ele>
        <time>2020-05-28T07:27:39.000Z</time>
      </trkpt>
      <trkpt lat="47.26332" lon="-2.317">
        <ele>-0.60000002384186</ele>
        <time>2020-05-28T07:27:42.000Z</time>
      </trkpt>
      <trkpt lat="47.26329" lon="-2.31701">
        <ele>-1</ele>
        <time>2020-05-28T07:27:43.000Z</time>
      </trkpt>
      <trkpt lat="47.26324" lon="-2.31704">
        <ele>-1.3999999761581</ele>
        <time>2020-05-28T07:27:44.000Z</time>
      </trkpt>
      <trkpt lat="47.26321" lon="-2.31705">
        <ele>-1.7999999523163</ele>
        <time>2020-05-28T07:27:45.000Z</time>
      </trkpt>
      <trkpt lat="47.26317" lon="-2.31708">
        <ele>-2.2000000476837</ele>
        <time>2020-05-28T07:27:46.000Z</time>
      </trkpt>
      <trkpt lat="47.26313" lon="-2.31709">
        <ele>-2.5999999046326</ele>
        <time>2020-05-28T07:27:47.000Z</time>
      </trkpt>
      <trkpt lat="47.26302" lon="-2.31706">
        <ele>-2.5999999046326</ele>
        <time>2020-05-28T07:27:50.000Z</time>
      </trkpt>
      <trkpt lat="47.26288" lon="-2.31687">
        <ele>-2.5999999046326</ele>
        <time>2020-05-28T07:27:55.000Z</time>
      </trkpt>
      <trkpt lat="47.26272" lon="-2.31659">
        <ele>-2.5999999046326</ele>
        <time>2020-05-28T07:28:02.000Z</time>
      </trkpt>
      <trkpt lat="47.26258" lon="-2.31632">
        <ele>-2.5999999046326</ele>
        <time>2020-05-28T07:28:09.000Z</time>
      </trkpt>
      <trkpt lat="47.2624" lon="-2.31607">
        <ele>-2.5999999046326</ele>
        <time>2020-05-28T07:28:15.000Z</time>
      </trkpt>
      <trkpt lat="47.26214" lon="-2.31594">
        <ele>-2.5999999046326</ele>
        <time>2020-05-28T07:28:22.000Z</time>
      </trkpt>
      <trkpt lat="47.26201" lon="-2.31596">
        <ele>-2.5999999046326</ele>
        <time>2020-05-28T07:28:25.000Z</time>
      </trkpt>
      <trkpt lat="47.26193" lon="-2.31598">
        <ele>-2.5999999046326</ele>
        <time>2020-05-28T07:28:27.000Z</time>
      </trkpt>
      <trkpt lat="47.26161" lon="-2.31606">
        <ele>-2.5999999046326</ele>
        <time>2020-05-28T07:28:35.000Z</time>
      </trkpt>
      <trkpt lat="47.26133" lon="-2.31613">
        <ele>-2.5999999046326</ele>
        <time>2020-05-28T07:28:42.000Z</time>
      </trkpt>
      <trkpt lat="47.26106" lon="-2.31615">
        <ele>-2.5999999046326</ele>
        <time>2020-05-28T07:28:49.000Z</time>
      </trkpt>
      <trkpt lat="47.26097" lon="-2.31605">
        <ele>-2.5999999046326</ele>
        <time>2020-05-28T07:28:52.000Z</time>
      </trkpt>
      <trkpt lat="47.26081" lon="-2.31583">
        <ele>-2.5999999046326</ele>
        <time>2020-05-28T07:28:59.000Z</time>
      </trkpt>
      <trkpt lat="47.2607" lon="-2.31568">
        <ele>-2.5999999046326</ele>
        <time>2020-05-28T07:29:05.000Z</time>
      </trkpt>
      <trkpt lat="47.26055" lon="-2.31532">
        <ele>-2.5999999046326</ele>
        <time>2020-05-28T07:29:13.000Z</time>
      </trkpt>
      <trkpt lat="47.26041" lon="-2.31512">
        <ele>-2.5999999046326</ele>
        <time>2020-05-28T07:29:19.000Z</time>
      </trkpt>
      <trkpt lat="47.26037" lon="-2.31513">
        <ele>-2.5999999046326</ele>
        <time>2020-05-28T07:29:21.000Z</time>
      </trkpt>
      <trkpt lat="47.26034" lon="-2.31517">
        <ele>-2.5999999046326</ele>
        <time>2020-05-28T07:29:23.000Z</time>
      </trkpt>
      <trkpt lat="47.26028" lon="-2.31534">
        <ele>-2.5999999046326</ele>
        <time>2020-05-28T07:29:27.000Z</time>
      </trkpt>
      <trkpt lat="47.26014" lon="-2.31559">
        <ele>-2.5999999046326</ele>
        <time>2020-05-28T07:29:33.000Z</time>
      </trkpt>
      <trkpt lat="47.26013" lon="-2.31563">
        <ele>-2.5999999046326</ele>
        <time>2020-05-28T07:29:35.000Z</time>
      </trkpt>
      <trkpt lat="47.26014" lon="-2.31565">
        <ele>-2.5999999046326</ele>
        <time>2020-05-28T07:29:36.000Z</time>
      </trkpt>
      <trkpt lat="47.26012" lon="-2.31578">
        <ele>-2.5999999046326</ele>
        <time>2020-05-28T07:29:40.000Z</time>
      </trkpt>
      <trkpt lat="47.2601" lon="-2.31581">
        <ele>-2.5999999046326</ele>
        <time>2020-05-28T07:29:41.000Z</time>
      </trkpt>
      <trkpt lat="47.26" lon="-2.31597">
        <ele>-2.2000000476837</ele>
        <time>2020-05-28T07:29:46.000Z</time>
      </trkpt>
      <trkpt lat="47.25998" lon="-2.316">
        <ele>-1.7999999523163</ele>
        <time>2020-05-28T07:29:47.000Z</time>
      </trkpt>
      <trkpt lat="47.25996" lon="-2.31603">
        <ele>-1.3999999761581</ele>
        <time>2020-05-28T07:29:48.000Z</time>
      </trkpt>
      <trkpt lat="47.25993" lon="-2.31606">
        <ele>-1</ele>
        <time>2020-05-28T07:29:49.000Z</time>
      </trkpt>
      <trkpt lat="47.25991" lon="-2.31609">
        <ele>-0.60000002384186</ele>
        <time>2020-05-28T07:29:50.000Z</time>
      </trkpt>
      <trkpt lat="47.25985" lon="-2.31617">
        <ele>-0.60000002384186</ele>
        <time>2020-05-28T07:29:54.000Z</time>
      </trkpt>
      <trkpt lat="47.25984" lon="-2.31616">
        <ele>-0.60000002384186</ele>
        <time>2020-05-28T07:29:59.000Z</time>
      </trkpt>
      <trkpt lat="47.2598" lon="-2.31617">
        <ele>-0.60000002384186</ele>
        <time>2020-05-28T07:30:02.000Z</time>
      </trkpt>
      <trkpt lat="47.25975" lon="-2.31615">
        <ele>-0.60000002384186</ele>
        <time>2020-05-28T07:30:04.000Z</time>
      </trkpt>
      <trkpt lat="47.25974" lon="-2.31612">
        <ele>-0.60000002384186</ele>
        <time>2020-05-28T07:30:05.000Z</time>
      </trkpt>
      <trkpt lat="47.25968" lon="-2.31603">
        <ele>-0.60000002384186</ele>
        <time>2020-05-28T07:30:08.000Z</time>
      </trkpt>
      <trkpt lat="47.25951" lon="-2.31583">
        <ele>-0.60000002384186</ele>
        <time>2020-05-28T07:30:15.000Z</time>
      </trkpt>
      <trkpt lat="47.25939" lon="-2.31556">
        <ele>-0.20000000298023</ele>
        <time>2020-05-28T07:30:22.000Z</time>
      </trkpt>
      <trkpt lat="47.25937" lon="-2.31551">
        <ele>0.20000000298023</ele>
        <time>2020-05-28T07:30:23.000Z</time>
      </trkpt>
      <trkpt lat="47.25935" lon="-2.31546">
        <ele>0.60000002384186</ele>
        <time>2020-05-28T07:30:24.000Z</time>
      </trkpt>
      <trkpt lat="47.25933" lon="-2.31541">
        <ele>1</ele>
        <time>2020-05-28T07:30:25.000Z</time>
      </trkpt>
      <trkpt lat="47.25931" lon="-2.31537">
        <ele>1.3999999761581</ele>
        <time>2020-05-28T07:30:26.000Z</time>
      </trkpt>
      <trkpt lat="47.25923" lon="-2.31527">
        <ele>1.3999999761581</ele>
        <time>2020-05-28T07:30:29.000Z</time>
      </trkpt>
      <trkpt lat="47.25905" lon="-2.31521">
        <ele>1.3999999761581</ele>
        <time>2020-05-28T07:30:34.000Z</time>
      </trkpt>
      <trkpt lat="47.259" lon="-2.31532">
        <ele>1.3999999761581</ele>
        <time>2020-05-28T07:30:37.000Z</time>
      </trkpt>
      <trkpt lat="47.25886" lon="-2.31569">
        <ele>1.3999999761581</ele>
        <time>2020-05-28T07:30:45.000Z</time>
      </trkpt>
      <trkpt lat="47.25872" lon="-2.31584">
        <ele>1.3999999761581</ele>
        <time>2020-05-28T07:30:50.000Z</time>
      </trkpt>
      <trkpt lat="47.25852" lon="-2.31603">
        <ele>1.3999999761581</ele>
        <time>2020-05-28T07:30:57.000Z</time>
      </trkpt>
      <trkpt lat="47.2583" lon="-2.31622">
        <ele>1.7999999523163</ele>
        <time>2020-05-28T07:31:05.000Z</time>
      </trkpt>
      <trkpt lat="47.25827" lon="-2.31624">
        <ele>2.2000000476837</ele>
        <time>2020-05-28T07:31:06.000Z</time>
      </trkpt>
      <trkpt lat="47.25824" lon="-2.31626">
        <ele>2.5999999046326</ele>
        <time>2020-05-28T07:31:07.000Z</time>
      </trkpt>
      <trkpt lat="47.25821" lon="-2.31628">
        <ele>3</ele>
        <time>2020-05-28T07:31:08.000Z</time>
      </trkpt>
      <trkpt lat="47.25818" lon="-2.31631">
        <ele>3.4000000953674</ele>
        <time>2020-05-28T07:31:09.000Z</time>
      </trkpt>
      <trkpt lat="47.25803" lon="-2.31643">
        <ele>3.4000000953674</ele>
        <time>2020-05-28T07:31:13.000Z</time>
      </trkpt>
      <trkpt lat="47.25782" lon="-2.31658">
        <ele>3.4000000953674</ele>
        <time>2020-05-28T07:31:18.000Z</time>
      </trkpt>
      <trkpt lat="47.2577" lon="-2.31668">
        <ele>3.4000000953674</ele>
        <time>2020-05-28T07:31:21.000Z</time>
      </trkpt>
      <trkpt lat="47.2574" lon="-2.3169">
        <ele>3.4000000953674</ele>
        <time>2020-05-28T07:31:27.000Z</time>
      </trkpt>
      <trkpt lat="47.25728" lon="-2.31698">
        <ele>3</ele>
        <time>2020-05-28T07:31:30.000Z</time>
      </trkpt>
      <trkpt lat="47.25724" lon="-2.31699">
        <ele>2.5999999046326</ele>
        <time>2020-05-28T07:31:31.000Z</time>
      </trkpt>
      <trkpt lat="47.25721" lon="-2.31698">
        <ele>2.2000000476837</ele>
        <time>2020-05-28T07:31:32.000Z</time>
      </trkpt>
      <trkpt lat="47.25717" lon="-2.31696">
        <ele>1.7999999523163</ele>
        <time>2020-05-28T07:31:33.000Z</time>
      </trkpt>
      <trkpt lat="47.25714" lon="-2.31693">
        <ele>1.2000000476837</ele>
        <time>2020-05-28T07:31:34.000Z</time>
      </trkpt>
      <trkpt lat="47.2571" lon="-2.31691">
        <ele>1.2000000476837</ele>
        <time>2020-05-28T07:31:35.000Z</time>
      </trkpt>
      <trkpt lat="47.25686" lon="-2.31679">
        <ele>1.2000000476837</ele>
        <time>2020-05-28T07:31:42.000Z</time>
      </trkpt>
      <trkpt lat="47.25669" lon="-2.31682">
        <ele>1.6000000238419</ele>
        <time>2020-05-28T07:31:48.000Z</time>
      </trkpt>
      <trkpt lat="47.25665" lon="-2.31683">
        <ele>2.2000000476837</ele>
        <time>2020-05-28T07:31:49.000Z</time>
      </trkpt>
      <trkpt lat="47.25662" lon="-2.31686">
        <ele>2.5999999046326</ele>
        <time>2020-05-28T07:31:50.000Z</time>
      </trkpt>
      <trkpt lat="47.25659" lon="-2.31688">
        <ele>3</ele>
        <time>2020-05-28T07:31:51.000Z</time>
      </trkpt>
      <trkpt lat="47.25656" lon="-2.3169">
        <ele>3.4000000953674</ele>
        <time>2020-05-28T07:31:52.000Z</time>
      </trkpt>
      <trkpt lat="47.2565" lon="-2.31697">
        <ele>3.4000000953674</ele>
        <time>2020-05-28T07:31:54.000Z</time>
      </trkpt>
      <trkpt lat="47.25631" lon="-2.3172">
        <ele>3.7999999523163</ele>
        <time>2020-05-28T07:32:01.000Z</time>
      </trkpt>
      <trkpt lat="47.25631" lon="-2.31722">
        <ele>4.1999998092651</ele>
        <time>2020-05-28T07:32:02.000Z</time>
      </trkpt>
      <trkpt lat="47.25631" lon="-2.31723">
        <ele>4.5999999046326</ele>
        <time>2020-05-28T07:32:03.000Z</time>
      </trkpt>
      <trkpt lat="47.2563" lon="-2.31724">
        <ele>5</ele>
        <time>2020-05-28T07:32:04.000Z</time>
      </trkpt>
      <trkpt lat="47.2563" lon="-2.31724">
        <ele>5.4000000953674</ele>
        <time>2020-05-28T07:32:05.000Z</time>
      </trkpt>
      <trkpt lat="47.25631" lon="-2.31725">
        <ele>5.4000000953674</ele>
        <time>2020-05-28T07:32:06.000Z</time>
      </trkpt>
      <trkpt lat="47.25628" lon="-2.31738">
        <ele>5.4000000953674</ele>
        <time>2020-05-28T07:32:09.000Z</time>
      </trkpt>
      <trkpt lat="47.25618" lon="-2.3176">
        <ele>5.4000000953674</ele>
        <time>2020-05-28T07:32:13.000Z</time>
      </trkpt>
      <trkpt lat="47.25614" lon="-2.31762">
        <ele>5.4000000953674</ele>
        <time>2020-05-28T07:32:14.000Z</time>
      </trkpt>
      <trkpt lat="47.25595" lon="-2.31764">
        <ele>5.4000000953674</ele>
        <time>2020-05-28T07:32:18.000Z</time>
      </trkpt>
      <trkpt lat="47.2559" lon="-2.31765">
        <ele>5.4000000953674</ele>
        <time>2020-05-28T07:32:19.000Z</time>
      </trkpt>
      <trkpt lat="47.25578" lon="-2.31773">
        <ele>5.4000000953674</ele>
        <time>2020-05-28T07:32:22.000Z</time>
      </trkpt>
      <trkpt lat="47.25569" lon="-2.31787">
        <ele>5.8000001907349</ele>
        <time>2020-05-28T07:32:26.000Z</time>
      </trkpt>
      <trkpt lat="47.25568" lon="-2.31791">
        <ele>6.1999998092651</ele>
        <time>2020-05-28T07:32:27.000Z</time>
      </trkpt>
      <trkpt lat="47.25568" lon="-2.31793">
        <ele>6.5999999046326</ele>
        <time>2020-05-28T07:32:28.000Z</time>
      </trkpt>
      <trkpt lat="47.25568" lon="-2.31795">
        <ele>7.1999998092651</ele>
        <time>2020-05-28T07:32:29.000Z</time>
      </trkpt>
      <trkpt lat="47.25568" lon="-2.31797">
        <ele>7.5999999046326</ele>
        <time>2020-05-28T07:32:30.000Z</time>
      </trkpt>
      <trkpt lat="47.25567" lon="-2.31802">
        <ele>7.5999999046326</ele>
        <time>2020-05-28T07:32:33.000Z</time>
      </trkpt>
      <trkpt lat="47.25562" lon="-2.31801">
        <ele>7.5999999046326</ele>
        <time>2020-05-28T07:32:35.000Z</time>
      </trkpt>
      <trkpt lat="47.25545" lon="-2.31803">
        <ele>7.5999999046326</ele>
        <time>2020-05-28T07:32:40.000Z</time>
      </trkpt>
      <trkpt lat="47.25533" lon="-2.31805">
        <ele>8</ele>
        <time>2020-05-28T07:32:44.000Z</time>
      </trkpt>
      <trkpt lat="47.2553" lon="-2.31806">
        <ele>8.3999996185303</ele>
        <time>2020-05-28T07:32:45.000Z</time>
      </trkpt>
      <trkpt lat="47.25528" lon="-2.31808">
        <ele>8.8000001907349</ele>
        <time>2020-05-28T07:32:46.000Z</time>
      </trkpt>
      <trkpt lat="47.25525" lon="-2.31808">
        <ele>9.1999998092651</ele>
        <time>2020-05-28T07:32:47.000Z</time>
      </trkpt>
      <trkpt lat="47.25516" lon="-2.31811">
        <ele>9.6000003814697</ele>
        <time>2020-05-28T07:32:48.000Z</time>
      </trkpt>
      <trkpt lat="47.25508" lon="-2.31819">
        <ele>9.6000003814697</ele>
        <time>2020-05-28T07:32:54.000Z</time>
      </trkpt>
      <trkpt lat="47.2551" lon="-2.31822">
        <ele>9.6000003814697</ele>
        <time>2020-05-28T07:32:55.000Z</time>
      </trkpt>
      <trkpt lat="47.25516" lon="-2.31821">
        <ele>9.6000003814697</ele>
        <time>2020-05-28T07:32:58.000Z</time>
      </trkpt>
      <trkpt lat="47.25516" lon="-2.31822">
        <ele>9.6000003814697</ele>
        <time>2020-05-28T07:33:00.000Z</time>
      </trkpt>
      <trkpt lat="47.25515" lon="-2.31827">
        <ele>11.60000038147</ele>
        <time>2020-05-28T07:41:18.000Z</time>
      </trkpt>
      <trkpt lat="47.25515" lon="-2.31828">
        <ele>11.60000038147</ele>
        <time>2020-05-28T07:41:19.000Z</time>
      </trkpt>
      <trkpt lat="47.25509" lon="-2.31826">
        <ele>11.60000038147</ele>
        <time>2020-05-28T07:41:24.000Z</time>
      </trkpt>
      <trkpt lat="47.25495" lon="-2.31823">
        <ele>11.60000038147</ele>
        <time>2020-05-28T07:41:30.000Z</time>
      </trkpt>
      <trkpt lat="47.25472" lon="-2.31836">
        <ele>11.60000038147</ele>
        <time>2020-05-28T07:41:37.000Z</time>
      </trkpt>
      <trkpt lat="47.25469" lon="-2.31839">
        <ele>11.60000038147</ele>
        <time>2020-05-28T07:41:38.000Z</time>
      </trkpt>
      <trkpt lat="47.25459" lon="-2.31841">
        <ele>11.60000038147</ele>
        <time>2020-05-28T07:41:41.000Z</time>
      </trkpt>
      <trkpt lat="47.2545" lon="-2.31821">
        <ele>11.60000038147</ele>
        <time>2020-05-28T07:41:45.000Z</time>
      </trkpt>
      <trkpt lat="47.25449" lon="-2.31815">
        <ele>11.60000038147</ele>
        <time>2020-05-28T07:41:46.000Z</time>
      </trkpt>
      <trkpt lat="47.2544" lon="-2.3177">
        <ele>11.60000038147</ele>
        <time>2020-05-28T07:41:54.000Z</time>
      </trkpt>
      <trkpt lat="47.25426" lon="-2.31726">
        <ele>11.60000038147</ele>
        <time>2020-05-28T07:42:02.000Z</time>
      </trkpt>
      <trkpt lat="47.25413" lon="-2.31685">
        <ele>11.60000038147</ele>
        <time>2020-05-28T07:42:09.000Z</time>
      </trkpt>
      <trkpt lat="47.25408" lon="-2.31674">
        <ele>12</ele>
        <time>2020-05-28T07:42:11.000Z</time>
      </trkpt>
      <trkpt lat="47.25405" lon="-2.31668">
        <ele>12.39999961853</ele>
        <time>2020-05-28T07:42:12.000Z</time>
      </trkpt>
      <trkpt lat="47.25402" lon="-2.31663">
        <ele>12.800000190735</ele>
        <time>2020-05-28T07:42:13.000Z</time>
      </trkpt>
      <trkpt lat="47.254" lon="-2.31657">
        <ele>13.199999809265</ele>
        <time>2020-05-28T07:42:14.000Z</time>
      </trkpt>
      <trkpt lat="47.25397" lon="-2.31652">
        <ele>13.60000038147</ele>
        <time>2020-05-28T07:42:15.000Z</time>
      </trkpt>
      <trkpt lat="47.25394" lon="-2.31646">
        <ele>13.60000038147</ele>
        <time>2020-05-28T07:42:16.000Z</time>
      </trkpt>
      <trkpt lat="47.25369" lon="-2.31605">
        <ele>13.60000038147</ele>
        <time>2020-05-28T07:42:24.000Z</time>
      </trkpt>
      <trkpt lat="47.25349" lon="-2.3157">
        <ele>13.60000038147</ele>
        <time>2020-05-28T07:42:31.000Z</time>
      </trkpt>
      <trkpt lat="47.25343" lon="-2.3156">
        <ele>14.199999809265</ele>
        <time>2020-05-28T07:42:33.000Z</time>
      </trkpt>
      <trkpt lat="47.25341" lon="-2.31555">
        <ele>14.60000038147</ele>
        <time>2020-05-28T07:42:34.000Z</time>
      </trkpt>
      <trkpt lat="47.25339" lon="-2.3155">
        <ele>15</ele>
        <time>2020-05-28T07:42:35.000Z</time>
      </trkpt>
      <trkpt lat="47.25337" lon="-2.31544">
        <ele>15.39999961853</ele>
        <time>2020-05-28T07:42:36.000Z</time>
      </trkpt>
      <trkpt lat="47.25335" lon="-2.31538">
        <ele>15.800000190735</ele>
        <time>2020-05-28T07:42:37.000Z</time>
      </trkpt>
      <trkpt lat="47.25333" lon="-2.31532">
        <ele>15.800000190735</ele>
        <time>2020-05-28T07:42:38.000Z</time>
      </trkpt>
      <trkpt lat="47.25323" lon="-2.31486">
        <ele>15.800000190735</ele>
        <time>2020-05-28T07:42:46.000Z</time>
      </trkpt>
      <trkpt lat="47.25317" lon="-2.31441">
        <ele>15.800000190735</ele>
        <time>2020-05-28T07:42:54.000Z</time>
      </trkpt>
      <trkpt lat="47.25305" lon="-2.31428">
        <ele>15.800000190735</ele>
        <time>2020-05-28T07:42:58.000Z</time>
      </trkpt>
      <trkpt lat="47.25302" lon="-2.31427">
        <ele>15.800000190735</ele>
        <time>2020-05-28T07:42:59.000Z</time>
      </trkpt>
      <trkpt lat="47.25289" lon="-2.31429">
        <ele>15.800000190735</ele>
        <time>2020-05-28T07:43:02.000Z</time>
      </trkpt>
      <trkpt lat="47.25285" lon="-2.3143">
        <ele>15.800000190735</ele>
        <time>2020-05-28T07:43:03.000Z</time>
      </trkpt>
      <trkpt lat="47.25254" lon="-2.31445">
        <ele>15.800000190735</ele>
        <time>2020-05-28T07:43:11.000Z</time>
      </trkpt>
      <trkpt lat="47.25232" lon="-2.3146">
        <ele>15.800000190735</ele>
        <time>2020-05-28T07:43:17.000Z</time>
      </trkpt>
      <trkpt lat="47.25214" lon="-2.31474">
        <ele>15.800000190735</ele>
        <time>2020-05-28T07:43:22.000Z</time>
      </trkpt>
      <trkpt lat="47.2521" lon="-2.31477">
        <ele>15.800000190735</ele>
        <time>2020-05-28T07:43:23.000Z</time>
      </trkpt>
      <trkpt lat="47.25187" lon="-2.31501">
        <ele>15.800000190735</ele>
        <time>2020-05-28T07:43:29.000Z</time>
      </trkpt>
      <trkpt lat="47.25166" lon="-2.31528">
        <ele>15.800000190735</ele>
        <time>2020-05-28T07:43:35.000Z</time>
      </trkpt>
      <trkpt lat="47.25163" lon="-2.31532">
        <ele>15.800000190735</ele>
        <time>2020-05-28T07:43:36.000Z</time>
      </trkpt>
      <trkpt lat="47.25152" lon="-2.31548">
        <ele>15.800000190735</ele>
        <time>2020-05-28T07:43:40.000Z</time>
      </trkpt>
      <trkpt lat="47.25138" lon="-2.31562">
        <ele>15.800000190735</ele>
        <time>2020-05-28T07:43:46.000Z</time>
      </trkpt>
      <trkpt lat="47.25115" lon="-2.31577">
        <ele>15.800000190735</ele>
        <time>2020-05-28T07:43:54.000Z</time>
      </trkpt>
      <trkpt lat="47.25112" lon="-2.31579">
        <ele>16.200000762939</ele>
        <time>2020-05-28T07:43:55.000Z</time>
      </trkpt>
      <trkpt lat="47.2511" lon="-2.31581">
        <ele>16.60000038147</ele>
        <time>2020-05-28T07:43:56.000Z</time>
      </trkpt>
      <trkpt lat="47.25107" lon="-2.31584">
        <ele>17</ele>
        <time>2020-05-28T07:43:57.000Z</time>
      </trkpt>
      <trkpt lat="47.25105" lon="-2.31586">
        <ele>17.39999961853</ele>
        <time>2020-05-28T07:43:58.000Z</time>
      </trkpt>
      <trkpt lat="47.25103" lon="-2.31588">
        <ele>17.799999237061</ele>
        <time>2020-05-28T07:43:59.000Z</time>
      </trkpt>
      <trkpt lat="47.25101" lon="-2.3159">
        <ele>17.799999237061</ele>
        <time>2020-05-28T07:44:00.000Z</time>
      </trkpt>
      <trkpt lat="47.25085" lon="-2.31605">
        <ele>17.799999237061</ele>
        <time>2020-05-28T07:44:06.000Z</time>
      </trkpt>
      <trkpt lat="47.25064" lon="-2.31625">
        <ele>17.799999237061</ele>
        <time>2020-05-28T07:44:13.000Z</time>
      </trkpt>
      <trkpt lat="47.25038" lon="-2.31652">
        <ele>17.799999237061</ele>
        <time>2020-05-28T07:44:21.000Z</time>
      </trkpt>
      <trkpt lat="47.25014" lon="-2.31675">
        <ele>17.799999237061</ele>
        <time>2020-05-28T07:44:28.000Z</time>
      </trkpt>
      <trkpt lat="47.2499" lon="-2.31701">
        <ele>17.799999237061</ele>
        <time>2020-05-28T07:44:35.000Z</time>
      </trkpt>
      <trkpt lat="47.2497" lon="-2.31723">
        <ele>17.799999237061</ele>
        <time>2020-05-28T07:44:41.000Z</time>
      </trkpt>
      <trkpt lat="47.24964" lon="-2.31731">
        <ele>17.799999237061</ele>
        <time>2020-05-28T07:44:43.000Z</time>
      </trkpt>
      <trkpt lat="47.24952" lon="-2.31741">
        <ele>17.799999237061</ele>
        <time>2020-05-28T07:44:46.000Z</time>
      </trkpt>
      <trkpt lat="47.2494" lon="-2.3175">
        <ele>17.799999237061</ele>
        <time>2020-05-28T07:44:49.000Z</time>
      </trkpt>
      <trkpt lat="47.24928" lon="-2.31761">
        <ele>17.799999237061</ele>
        <time>2020-05-28T07:44:52.000Z</time>
      </trkpt>
      <trkpt lat="47.24912" lon="-2.31775">
        <ele>17.799999237061</ele>
        <time>2020-05-28T07:44:56.000Z</time>
      </trkpt>
      <trkpt lat="47.24903" lon="-2.31781">
        <ele>17.799999237061</ele>
        <time>2020-05-28T07:44:58.000Z</time>
      </trkpt>
      <trkpt lat="47.24876" lon="-2.31804">
        <ele>17.799999237061</ele>
        <time>2020-05-28T07:45:04.000Z</time>
      </trkpt>
      <trkpt lat="47.24838" lon="-2.31838">
        <ele>17.799999237061</ele>
        <time>2020-05-28T07:45:12.000Z</time>
      </trkpt>
      <trkpt lat="47.24824" lon="-2.31849">
        <ele>17.39999961853</ele>
        <time>2020-05-28T07:45:15.000Z</time>
      </trkpt>
      <trkpt lat="47.2482" lon="-2.31853">
        <ele>17</ele>
        <time>2020-05-28T07:45:16.000Z</time>
      </trkpt>
      <trkpt lat="47.24815" lon="-2.31857">
        <ele>16.60000038147</ele>
        <time>2020-05-28T07:45:17.000Z</time>
      </trkpt>
      <trkpt lat="47.2481" lon="-2.31861">
        <ele>16.200000762939</ele>
        <time>2020-05-28T07:45:18.000Z</time>
      </trkpt>
      <trkpt lat="47.24805" lon="-2.31863">
        <ele>15.800000190735</ele>
        <time>2020-05-28T07:45:19.000Z</time>
      </trkpt>
      <trkpt lat="47.248" lon="-2.31863">
        <ele>15.800000190735</ele>
        <time>2020-05-28T07:45:20.000Z</time>
      </trkpt>
      <trkpt lat="47.24786" lon="-2.31851">
        <ele>15.800000190735</ele>
        <time>2020-05-28T07:45:23.000Z</time>
      </trkpt>
      <trkpt lat="47.24783" lon="-2.31845">
        <ele>15.800000190735</ele>
        <time>2020-05-28T07:45:24.000Z</time>
      </trkpt>
      <trkpt lat="47.2476" lon="-2.31813">
        <ele>15.800000190735</ele>
        <time>2020-05-28T07:45:30.000Z</time>
      </trkpt>
      <trkpt lat="47.24735" lon="-2.31779">
        <ele>15.800000190735</ele>
        <time>2020-05-28T07:45:37.000Z</time>
      </trkpt>
      <trkpt lat="47.24728" lon="-2.31772">
        <ele>15.800000190735</ele>
        <time>2020-05-28T07:45:39.000Z</time>
      </trkpt>
      <trkpt lat="47.24719" lon="-2.31754">
        <ele>15.800000190735</ele>
        <time>2020-05-28T07:45:42.000Z</time>
      </trkpt>
      <trkpt lat="47.24716" lon="-2.31749">
        <ele>15.800000190735</ele>
        <time>2020-05-28T07:45:43.000Z</time>
      </trkpt>
      <trkpt lat="47.24702" lon="-2.31728">
        <ele>15.800000190735</ele>
        <time>2020-05-28T07:45:47.000Z</time>
      </trkpt>
      <trkpt lat="47.24679" lon="-2.3169">
        <ele>15.800000190735</ele>
        <time>2020-05-28T07:45:54.000Z</time>
      </trkpt>
      <trkpt lat="47.24657" lon="-2.31662">
        <ele>15.800000190735</ele>
        <time>2020-05-28T07:46:00.000Z</time>
      </trkpt>
      <trkpt lat="47.24654" lon="-2.31657">
        <ele>15.800000190735</ele>
        <time>2020-05-28T07:46:01.000Z</time>
      </trkpt>
      <trkpt lat="47.24625" lon="-2.31612">
        <ele>15.800000190735</ele>
        <time>2020-05-28T07:46:09.000Z</time>
      </trkpt>
      <trkpt lat="47.24604" lon="-2.31578">
        <ele>15.800000190735</ele>
        <time>2020-05-28T07:46:15.000Z</time>
      </trkpt>
      <trkpt lat="47.246" lon="-2.31573">
        <ele>15.800000190735</ele>
        <time>2020-05-28T07:46:16.000Z</time>
      </trkpt>
      <trkpt lat="47.24594" lon="-2.3156">
        <ele>15.800000190735</ele>
        <time>2020-05-28T07:46:18.000Z</time>
      </trkpt>
      <trkpt lat="47.2459" lon="-2.31538">
        <ele>15.800000190735</ele>
        <time>2020-05-28T07:46:21.000Z</time>
      </trkpt>
      <trkpt lat="47.24585" lon="-2.31489">
        <ele>15.800000190735</ele>
        <time>2020-05-28T07:46:28.000Z</time>
      </trkpt>
      <trkpt lat="47.2458" lon="-2.3143">
        <ele>15.800000190735</ele>
        <time>2020-05-28T07:46:37.000Z</time>
      </trkpt>
      <trkpt lat="47.24577" lon="-2.31393">
        <ele>15.800000190735</ele>
        <time>2020-05-28T07:46:44.000Z</time>
      </trkpt>
      <trkpt lat="47.24574" lon="-2.31388">
        <ele>15.800000190735</ele>
        <time>2020-05-28T07:46:47.000Z</time>
      </trkpt>
      <trkpt lat="47.24572" lon="-2.31388">
        <ele>15.800000190735</ele>
        <time>2020-05-28T07:46:48.000Z</time>
      </trkpt>
      <trkpt lat="47.2456" lon="-2.31392">
        <ele>15.800000190735</ele>
        <time>2020-05-28T07:46:52.000Z</time>
      </trkpt>
      <trkpt lat="47.24549" lon="-2.3139">
        <ele>15.800000190735</ele>
        <time>2020-05-28T07:46:55.000Z</time>
      </trkpt>
      <trkpt lat="47.24541" lon="-2.31389">
        <ele>15.800000190735</ele>
        <time>2020-05-28T07:46:57.000Z</time>
      </trkpt>
      <trkpt lat="47.24521" lon="-2.3138">
        <ele>15.800000190735</ele>
        <time>2020-05-28T07:47:03.000Z</time>
      </trkpt>
      <trkpt lat="47.2451" lon="-2.31372">
        <ele>15.39999961853</ele>
        <time>2020-05-28T07:47:06.000Z</time>
      </trkpt>
      <trkpt lat="47.24506" lon="-2.31368">
        <ele>15</ele>
        <time>2020-05-28T07:47:07.000Z</time>
      </trkpt>
      <trkpt lat="47.24504" lon="-2.31364">
        <ele>14.60000038147</ele>
        <time>2020-05-28T07:47:08.000Z</time>
      </trkpt>
      <trkpt lat="47.24501" lon="-2.31359">
        <ele>14.199999809265</ele>
        <time>2020-05-28T07:47:09.000Z</time>
      </trkpt>
      <trkpt lat="47.24499" lon="-2.31354">
        <ele>13.800000190735</ele>
        <time>2020-05-28T07:47:10.000Z</time>
      </trkpt>
      <trkpt lat="47.24491" lon="-2.3134">
        <ele>13.39999961853</ele>
        <time>2020-05-28T07:47:13.000Z</time>
      </trkpt>
      <trkpt lat="47.24489" lon="-2.31336">
        <ele>13</ele>
        <time>2020-05-28T07:47:14.000Z</time>
      </trkpt>
      <trkpt lat="47.24488" lon="-2.31331">
        <ele>12.39999961853</ele>
        <time>2020-05-28T07:47:15.000Z</time>
      </trkpt>
      <trkpt lat="47.24486" lon="-2.31327">
        <ele>12</ele>
        <time>2020-05-28T07:47:16.000Z</time>
      </trkpt>
      <trkpt lat="47.24484" lon="-2.31322">
        <ele>11.60000038147</ele>
        <time>2020-05-28T07:47:17.000Z</time>
      </trkpt>
      <trkpt lat="47.24475" lon="-2.31296">
        <ele>11.60000038147</ele>
        <time>2020-05-28T07:47:21.000Z</time>
      </trkpt>
      <trkpt lat="47.24462" lon="-2.31263">
        <ele>11.199999809265</ele>
        <time>2020-05-28T07:47:26.000Z</time>
      </trkpt>
      <trkpt lat="47.2446" lon="-2.31256">
        <ele>10.800000190735</ele>
        <time>2020-05-28T07:47:27.000Z</time>
      </trkpt>
      <trkpt lat="47.24458" lon="-2.31251">
        <ele>10.39999961853</ele>
        <time>2020-05-28T07:47:28.000Z</time>
      </trkpt>
      <trkpt lat="47.24455" lon="-2.31246">
        <ele>10</ele>
        <time>2020-05-28T07:47:29.000Z</time>
      </trkpt>
      <trkpt lat="47.24454" lon="-2.31242">
        <ele>9.3999996185303</ele>
        <time>2020-05-28T07:47:30.000Z</time>
      </trkpt>
      <trkpt lat="47.24448" lon="-2.31229">
        <ele>9.3999996185303</ele>
        <time>2020-05-28T07:47:33.000Z</time>
      </trkpt>
      <trkpt lat="47.24441" lon="-2.31217">
        <ele>9</ele>
        <time>2020-05-28T07:47:37.000Z</time>
      </trkpt>
      <trkpt lat="47.24438" lon="-2.31218">
        <ele>8.6000003814697</ele>
        <time>2020-05-28T07:47:38.000Z</time>
      </trkpt>
      <trkpt lat="47.24435" lon="-2.31219">
        <ele>8.1999998092651</ele>
        <time>2020-05-28T07:47:39.000Z</time>
      </trkpt>
      <trkpt lat="47.24431" lon="-2.31222">
        <ele>7.8000001907349</ele>
        <time>2020-05-28T07:47:40.000Z</time>
      </trkpt>
      <trkpt lat="47.24428" lon="-2.31224">
        <ele>7.4000000953674</ele>
        <time>2020-05-28T07:47:41.000Z</time>
      </trkpt>
      <trkpt lat="47.24425" lon="-2.31225">
        <ele>7</ele>
        <time>2020-05-28T07:47:42.000Z</time>
      </trkpt>
      <trkpt lat="47.24424" lon="-2.31225">
        <ele>6.1999998092651</ele>
        <time>2020-05-28T07:47:43.000Z</time>
      </trkpt>
      <trkpt lat="47.24423" lon="-2.31224">
        <ele>5.8000001907349</ele>
        <time>2020-05-28T07:47:44.000Z</time>
      </trkpt>
      <trkpt lat="47.24422" lon="-2.31223">
        <ele>5.1999998092651</ele>
        <time>2020-05-28T07:47:45.000Z</time>
      </trkpt>
      <trkpt lat="47.2442" lon="-2.31219">
        <ele>5.1999998092651</ele>
        <time>2020-05-28T07:47:47.000Z</time>
      </trkpt>
      <trkpt lat="47.24416" lon="-2.31208">
        <ele>5.1999998092651</ele>
        <time>2020-05-28T07:47:51.000Z</time>
      </trkpt>
      <trkpt lat="47.24412" lon="-2.31199">
        <ele>5.8000001907349</ele>
        <time>2020-05-28T07:47:55.000Z</time>
      </trkpt>
      <trkpt lat="47.24411" lon="-2.31196">
        <ele>6.1999998092651</ele>
        <time>2020-05-28T07:47:56.000Z</time>
      </trkpt>
      <trkpt lat="47.2441" lon="-2.31193">
        <ele>6.5999999046326</ele>
        <time>2020-05-28T07:47:57.000Z</time>
      </trkpt>
      <trkpt lat="47.24408" lon="-2.31191">
        <ele>7</ele>
        <time>2020-05-28T07:47:58.000Z</time>
      </trkpt>
      <trkpt lat="47.24406" lon="-2.31189">
        <ele>7.4000000953674</ele>
        <time>2020-05-28T07:47:59.000Z</time>
      </trkpt>
      <trkpt lat="47.24395" lon="-2.31177">
        <ele>7.4000000953674</ele>
        <time>2020-05-28T07:48:03.000Z</time>
      </trkpt>
      <trkpt lat="47.24385" lon="-2.31167">
        <ele>7.8000001907349</ele>
        <time>2020-05-28T07:48:06.000Z</time>
      </trkpt>
      <trkpt lat="47.24382" lon="-2.31163">
        <ele>8.1999998092651</ele>
        <time>2020-05-28T07:48:07.000Z</time>
      </trkpt>
      <trkpt lat="47.24379" lon="-2.31159">
        <ele>9</ele>
        <time>2020-05-28T07:48:08.000Z</time>
      </trkpt>
      <trkpt lat="47.24376" lon="-2.31154">
        <ele>9.3999996185303</ele>
        <time>2020-05-28T07:48:09.000Z</time>
      </trkpt>
      <trkpt lat="47.24373" lon="-2.31149">
        <ele>9.3999996185303</ele>
        <time>2020-05-28T07:48:10.000Z</time>
      </trkpt>
      <trkpt lat="47.2436" lon="-2.31126">
        <ele>9.3999996185303</ele>
        <time>2020-05-28T07:48:15.000Z</time>
      </trkpt>
      <trkpt lat="47.2435" lon="-2.31101">
        <ele>9.3999996185303</ele>
        <time>2020-05-28T07:48:20.000Z</time>
      </trkpt>
      <trkpt lat="47.2434" lon="-2.31071">
        <ele>9.3999996185303</ele>
        <time>2020-05-28T07:48:26.000Z</time>
      </trkpt>
      <trkpt lat="47.24326" lon="-2.31042">
        <ele>9.3999996185303</ele>
        <time>2020-05-28T07:48:33.000Z</time>
      </trkpt>
      <trkpt lat="47.24321" lon="-2.3104">
        <ele>9.3999996185303</ele>
        <time>2020-05-28T07:48:34.000Z</time>
      </trkpt>
      <trkpt lat="47.24312" lon="-2.31038">
        <ele>9.3999996185303</ele>
        <time>2020-05-28T07:48:36.000Z</time>
      </trkpt>
      <trkpt lat="47.24307" lon="-2.31037">
        <ele>9.3999996185303</ele>
        <time>2020-05-28T07:48:37.000Z</time>
      </trkpt>
      <trkpt lat="47.24283" lon="-2.31034">
        <ele>9</ele>
        <time>2020-05-28T07:48:42.000Z</time>
      </trkpt>
      <trkpt lat="47.2428" lon="-2.31032">
        <ele>8.3999996185303</ele>
        <time>2020-05-28T07:48:43.000Z</time>
      </trkpt>
      <trkpt lat="47.24277" lon="-2.31029">
        <ele>8</ele>
        <time>2020-05-28T07:48:44.000Z</time>
      </trkpt>
      <trkpt lat="47.24275" lon="-2.31026">
        <ele>7.5999999046326</ele>
        <time>2020-05-28T07:48:45.000Z</time>
      </trkpt>
      <trkpt lat="47.24274" lon="-2.31023">
        <ele>7</ele>
        <time>2020-05-28T07:48:46.000Z</time>
      </trkpt>
      <trkpt lat="47.24272" lon="-2.31014">
        <ele>7</ele>
        <time>2020-05-28T07:48:49.000Z</time>
      </trkpt>
      <trkpt lat="47.24273" lon="-2.31009">
        <ele>7</ele>
        <time>2020-05-28T07:48:50.000Z</time>
      </trkpt>
      <trkpt lat="47.24278" lon="-2.30984">
        <ele>7</ele>
        <time>2020-05-28T07:48:55.000Z</time>
      </trkpt>
      <trkpt lat="47.24281" lon="-2.30971">
        <ele>7.5999999046326</ele>
        <time>2020-05-28T07:48:58.000Z</time>
      </trkpt>
      <trkpt lat="47.24282" lon="-2.30966">
        <ele>8</ele>
        <time>2020-05-28T07:48:59.000Z</time>
      </trkpt>
      <trkpt lat="47.24283" lon="-2.30961">
        <ele>8.3999996185303</ele>
        <time>2020-05-28T07:49:00.000Z</time>
      </trkpt>
      <trkpt lat="47.24284" lon="-2.30956">
        <ele>8.8000001907349</ele>
        <time>2020-05-28T07:49:01.000Z</time>
      </trkpt>
      <trkpt lat="47.24285" lon="-2.30951">
        <ele>9.1999998092651</ele>
        <time>2020-05-28T07:49:02.000Z</time>
      </trkpt>
      <trkpt lat="47.24288" lon="-2.30932">
        <ele>9.6000003814697</ele>
        <time>2020-05-28T07:49:06.000Z</time>
      </trkpt>
      <trkpt lat="47.24288" lon="-2.30928">
        <ele>10</ele>
        <time>2020-05-28T07:49:07.000Z</time>
      </trkpt>
      <trkpt lat="47.24288" lon="-2.30923">
        <ele>10.60000038147</ele>
        <time>2020-05-28T07:49:08.000Z</time>
      </trkpt>
      <trkpt lat="47.24287" lon="-2.30918">
        <ele>11</ele>
        <time>2020-05-28T07:49:09.000Z</time>
      </trkpt>
      <trkpt lat="47.24287" lon="-2.30912">
        <ele>11.39999961853</ele>
        <time>2020-05-28T07:49:10.000Z</time>
      </trkpt>
      <trkpt lat="47.24284" lon="-2.30892">
        <ele>11.39999961853</ele>
        <time>2020-05-28T07:49:14.000Z</time>
      </trkpt>
      <trkpt lat="47.24283" lon="-2.30856">
        <ele>11.39999961853</ele>
        <time>2020-05-28T07:49:20.000Z</time>
      </trkpt>
      <trkpt lat="47.24284" lon="-2.30851">
        <ele>11.800000190735</ele>
        <time>2020-05-28T07:49:21.000Z</time>
      </trkpt>
      <trkpt lat="47.24285" lon="-2.30846">
        <ele>12.199999809265</ele>
        <time>2020-05-28T07:49:22.000Z</time>
      </trkpt>
      <trkpt lat="47.24287" lon="-2.30842">
        <ele>13.199999809265</ele>
        <time>2020-05-28T07:49:23.000Z</time>
      </trkpt>
      <trkpt lat="47.24288" lon="-2.30837">
        <ele>13.60000038147</ele>
        <time>2020-05-28T07:49:24.000Z</time>
      </trkpt>
      <trkpt lat="47.24298" lon="-2.30819">
        <ele>13.60000038147</ele>
        <time>2020-05-28T07:49:28.000Z</time>
      </trkpt>
      <trkpt lat="47.24301" lon="-2.30816">
        <ele>13.60000038147</ele>
        <time>2020-05-28T07:49:29.000Z</time>
      </trkpt>
      <trkpt lat="47.24312" lon="-2.3081">
        <ele>13.60000038147</ele>
        <time>2020-05-28T07:49:32.000Z</time>
      </trkpt>
      <trkpt lat="47.24323" lon="-2.30805">
        <ele>13.60000038147</ele>
        <time>2020-05-28T07:49:35.000Z</time>
      </trkpt>
      <trkpt lat="47.24331" lon="-2.30802">
        <ele>14</ele>
        <time>2020-05-28T07:49:37.000Z</time>
      </trkpt>
      <trkpt lat="47.24335" lon="-2.30801">
        <ele>14.39999961853</ele>
        <time>2020-05-28T07:49:38.000Z</time>
      </trkpt>
      <trkpt lat="47.24339" lon="-2.30799">
        <ele>14.800000190735</ele>
        <time>2020-05-28T07:49:39.000Z</time>
      </trkpt>
      <trkpt lat="47.24343" lon="-2.30798">
        <ele>15.199999809265</ele>
        <time>2020-05-28T07:49:40.000Z</time>
      </trkpt>
      <trkpt lat="47.24347" lon="-2.30797">
        <ele>15.60000038147</ele>
        <time>2020-05-28T07:49:41.000Z</time>
      </trkpt>
      <trkpt lat="47.24351" lon="-2.30795">
        <ele>15.60000038147</ele>
        <time>2020-05-28T07:49:42.000Z</time>
      </trkpt>
      <trkpt lat="47.24369" lon="-2.30778">
        <ele>16</ele>
        <time>2020-05-28T07:49:48.000Z</time>
      </trkpt>
      <trkpt lat="47.24372" lon="-2.30775">
        <ele>16.39999961853</ele>
        <time>2020-05-28T07:49:49.000Z</time>
      </trkpt>
      <trkpt lat="47.24375" lon="-2.30771">
        <ele>16.799999237061</ele>
        <time>2020-05-28T07:49:50.000Z</time>
      </trkpt>
      <trkpt lat="47.24377" lon="-2.30767">
        <ele>17.200000762939</ele>
        <time>2020-05-28T07:49:51.000Z</time>
      </trkpt>
      <trkpt lat="47.24379" lon="-2.30764">
        <ele>17.60000038147</ele>
        <time>2020-05-28T07:49:52.000Z</time>
      </trkpt>
      <trkpt lat="47.24387" lon="-2.30754">
        <ele>17.60000038147</ele>
        <time>2020-05-28T07:49:55.000Z</time>
      </trkpt>
      <trkpt lat="47.24391" lon="-2.30748">
        <ele>18</ele>
        <time>2020-05-28T07:49:57.000Z</time>
      </trkpt>
      <trkpt lat="47.24394" lon="-2.30745">
        <ele>18.39999961853</ele>
        <time>2020-05-28T07:49:58.000Z</time>
      </trkpt>
      <trkpt lat="47.24396" lon="-2.3074">
        <ele>18.799999237061</ele>
        <time>2020-05-28T07:49:59.000Z</time>
      </trkpt>
      <trkpt lat="47.24397" lon="-2.30735">
        <ele>19.200000762939</ele>
        <time>2020-05-28T07:50:00.000Z</time>
      </trkpt>
      <trkpt lat="47.24397" lon="-2.3073">
        <ele>19.60000038147</ele>
        <time>2020-05-28T07:50:01.000Z</time>
      </trkpt>
      <trkpt lat="47.244" lon="-2.3071">
        <ele>19.60000038147</ele>
        <time>2020-05-28T07:50:05.000Z</time>
      </trkpt>
      <trkpt lat="47.24409" lon="-2.30681">
        <ele>19.60000038147</ele>
        <time>2020-05-28T07:50:11.000Z</time>
      </trkpt>
      <trkpt lat="47.24416" lon="-2.30653">
        <ele>19.60000038147</ele>
        <time>2020-05-28T07:50:17.000Z</time>
      </trkpt>
      <trkpt lat="47.24423" lon="-2.30631">
        <ele>19.60000038147</ele>
        <time>2020-05-28T07:50:22.000Z</time>
      </trkpt>
      <trkpt lat="47.24442" lon="-2.30609">
        <ele>19.60000038147</ele>
        <time>2020-05-28T07:50:27.000Z</time>
      </trkpt>
      <trkpt lat="47.24464" lon="-2.30576">
        <ele>19.60000038147</ele>
        <time>2020-05-28T07:50:34.000Z</time>
      </trkpt>
      <trkpt lat="47.2447" lon="-2.30567">
        <ele>19.200000762939</ele>
        <time>2020-05-28T07:50:36.000Z</time>
      </trkpt>
      <trkpt lat="47.24472" lon="-2.30563">
        <ele>18.39999961853</ele>
        <time>2020-05-28T07:50:37.000Z</time>
      </trkpt>
      <trkpt lat="47.24474" lon="-2.30558">
        <ele>18</ele>
        <time>2020-05-28T07:50:38.000Z</time>
      </trkpt>
      <trkpt lat="47.24475" lon="-2.30554">
        <ele>17.39999961853</ele>
        <time>2020-05-28T07:50:39.000Z</time>
      </trkpt>
      <trkpt lat="47.24475" lon="-2.3055">
        <ele>17.39999961853</ele>
        <time>2020-05-28T07:50:40.000Z</time>
      </trkpt>
      <trkpt lat="47.24475" lon="-2.30548">
        <ele>17.39999961853</ele>
        <time>2020-05-28T07:50:41.000Z</time>
      </trkpt>
      <trkpt lat="47.2447" lon="-2.30545">
        <ele>17.39999961853</ele>
        <time>2020-05-28T07:50:44.000Z</time>
      </trkpt>
      <trkpt lat="47.2446" lon="-2.30552">
        <ele>17</ele>
        <time>2020-05-28T07:50:48.000Z</time>
      </trkpt>
      <trkpt lat="47.24457" lon="-2.30555">
        <ele>16.60000038147</ele>
        <time>2020-05-28T07:50:49.000Z</time>
      </trkpt>
      <trkpt lat="47.24453" lon="-2.30558">
        <ele>16.200000762939</ele>
        <time>2020-05-28T07:50:50.000Z</time>
      </trkpt>
      <trkpt lat="47.2445" lon="-2.30561">
        <ele>15.800000190735</ele>
        <time>2020-05-28T07:50:51.000Z</time>
      </trkpt>
      <trkpt lat="47.24445" lon="-2.30565">
        <ele>15.39999961853</ele>
        <time>2020-05-28T07:50:52.000Z</time>
      </trkpt>
      <trkpt lat="47.24431" lon="-2.30573">
        <ele>15.39999961853</ele>
        <time>2020-05-28T07:50:55.000Z</time>
      </trkpt>
      <trkpt lat="47.24421" lon="-2.30577">
        <ele>15</ele>
        <time>2020-05-28T07:50:57.000Z</time>
      </trkpt>
      <trkpt lat="47.24415" lon="-2.30578">
        <ele>14.39999961853</ele>
        <time>2020-05-28T07:50:58.000Z</time>
      </trkpt>
      <trkpt lat="47.2441" lon="-2.30579">
        <ele>14</ele>
        <time>2020-05-28T07:50:59.000Z</time>
      </trkpt>
      <trkpt lat="47.24405" lon="-2.30577">
        <ele>13.60000038147</ele>
        <time>2020-05-28T07:51:00.000Z</time>
      </trkpt>
      <trkpt lat="47.24401" lon="-2.30575">
        <ele>13.199999809265</ele>
        <time>2020-05-28T07:51:01.000Z</time>
      </trkpt>
      <trkpt lat="47.24382" lon="-2.30564">
        <ele>13.199999809265</ele>
        <time>2020-05-28T07:51:05.000Z</time>
      </trkpt>
      <trkpt lat="47.24378" lon="-2.30561">
        <ele>13.199999809265</ele>
        <time>2020-05-28T07:51:06.000Z</time>
      </trkpt>
      <trkpt lat="47.24367" lon="-2.30553">
        <ele>12.800000190735</ele>
        <time>2020-05-28T07:51:09.000Z</time>
      </trkpt>
      <trkpt lat="47.24365" lon="-2.3055">
        <ele>12.39999961853</ele>
        <time>2020-05-28T07:51:10.000Z</time>
      </trkpt>
      <trkpt lat="47.24364" lon="-2.30546">
        <ele>12</ele>
        <time>2020-05-28T07:51:11.000Z</time>
      </trkpt>
      <trkpt lat="47.24363" lon="-2.30544">
        <ele>11.60000038147</ele>
        <time>2020-05-28T07:51:12.000Z</time>
      </trkpt>
      <trkpt lat="47.24363" lon="-2.30541">
        <ele>11.199999809265</ele>
        <time>2020-05-28T07:51:13.000Z</time>
      </trkpt>
      <trkpt lat="47.24361" lon="-2.30536">
        <ele>11.199999809265</ele>
        <time>2020-05-28T07:51:15.000Z</time>
      </trkpt>
      <trkpt lat="47.24361" lon="-2.30524">
        <ele>11.60000038147</ele>
        <time>2020-05-28T07:51:19.000Z</time>
      </trkpt>
      <trkpt lat="47.24361" lon="-2.30519">
        <ele>12</ele>
        <time>2020-05-28T07:51:20.000Z</time>
      </trkpt>
      <trkpt lat="47.24362" lon="-2.30514">
        <ele>12.39999961853</ele>
        <time>2020-05-28T07:51:21.000Z</time>
      </trkpt>
      <trkpt lat="47.24363" lon="-2.30509">
        <ele>12.800000190735</ele>
        <time>2020-05-28T07:51:22.000Z</time>
      </trkpt>
      <trkpt lat="47.24364" lon="-2.30505">
        <ele>13.199999809265</ele>
        <time>2020-05-28T07:51:23.000Z</time>
      </trkpt>
      <trkpt lat="47.24367" lon="-2.30498">
        <ele>13.60000038147</ele>
        <time>2020-05-28T07:51:25.000Z</time>
      </trkpt>
      <trkpt lat="47.24368" lon="-2.30494">
        <ele>14.39999961853</ele>
        <time>2020-05-28T07:51:26.000Z</time>
      </trkpt>
      <trkpt lat="47.24369" lon="-2.3049">
        <ele>14.800000190735</ele>
        <time>2020-05-28T07:51:27.000Z</time>
      </trkpt>
      <trkpt lat="47.24371" lon="-2.30486">
        <ele>15.199999809265</ele>
        <time>2020-05-28T07:51:28.000Z</time>
      </trkpt>
      <trkpt lat="47.24375" lon="-2.30463">
        <ele>15.199999809265</ele>
        <time>2020-05-28T07:51:33.000Z</time>
      </trkpt>
      <trkpt lat="47.24376" lon="-2.30453">
        <ele>15.800000190735</ele>
        <time>2020-05-28T07:51:36.000Z</time>
      </trkpt>
      <trkpt lat="47.24375" lon="-2.30451">
        <ele>16.200000762939</ele>
        <time>2020-05-28T07:51:37.000Z</time>
      </trkpt>
      <trkpt lat="47.24373" lon="-2.30451">
        <ele>16.60000038147</ele>
        <time>2020-05-28T07:51:38.000Z</time>
      </trkpt>
      <trkpt lat="47.24371" lon="-2.30452">
        <ele>17</ele>
        <time>2020-05-28T07:51:39.000Z</time>
      </trkpt>
      <trkpt lat="47.24368" lon="-2.30453">
        <ele>17.39999961853</ele>
        <time>2020-05-28T07:51:40.000Z</time>
      </trkpt>
      <trkpt lat="47.24362" lon="-2.30453">
        <ele>17.39999961853</ele>
        <time>2020-05-28T07:51:42.000Z</time>
      </trkpt>
      <trkpt lat="47.24356" lon="-2.30451">
        <ele>17.39999961853</ele>
        <time>2020-05-28T07:51:44.000Z</time>
      </trkpt>
      <trkpt lat="47.24343" lon="-2.30444">
        <ele>17.39999961853</ele>
        <time>2020-05-28T07:51:48.000Z</time>
      </trkpt>
      <trkpt lat="47.24319" lon="-2.30432">
        <ele>17.39999961853</ele>
        <time>2020-05-28T07:51:54.000Z</time>
      </trkpt>
      <trkpt lat="47.24316" lon="-2.3043">
        <ele>17.799999237061</ele>
        <time>2020-05-28T07:51:55.000Z</time>
      </trkpt>
      <trkpt lat="47.24314" lon="-2.30429">
        <ele>18.39999961853</ele>
        <time>2020-05-28T07:51:56.000Z</time>
      </trkpt>
      <trkpt lat="47.24311" lon="-2.30428">
        <ele>18.799999237061</ele>
        <time>2020-05-28T07:51:57.000Z</time>
      </trkpt>
      <trkpt lat="47.24308" lon="-2.30426">
        <ele>19.200000762939</ele>
        <time>2020-05-28T07:51:58.000Z</time>
      </trkpt>
      <trkpt lat="47.24306" lon="-2.30425">
        <ele>19.60000038147</ele>
        <time>2020-05-28T07:51:59.000Z</time>
      </trkpt>
      <trkpt lat="47.243" lon="-2.30422">
        <ele>19.60000038147</ele>
        <time>2020-05-28T07:52:01.000Z</time>
      </trkpt>
      <trkpt lat="47.24282" lon="-2.3041">
        <ele>19.60000038147</ele>
        <time>2020-05-28T07:52:07.000Z</time>
      </trkpt>
      <trkpt lat="47.24265" lon="-2.30383">
        <ele>19.60000038147</ele>
        <time>2020-05-28T07:52:13.000Z</time>
      </trkpt>
      <trkpt lat="47.24249" lon="-2.30355">
        <ele>19.60000038147</ele>
        <time>2020-05-28T07:52:19.000Z</time>
      </trkpt>
      <trkpt lat="47.24234" lon="-2.30334">
        <ele>19.60000038147</ele>
        <time>2020-05-28T07:52:24.000Z</time>
      </trkpt>
      <trkpt lat="47.24231" lon="-2.30334">
        <ele>19.60000038147</ele>
        <time>2020-05-28T07:52:25.000Z</time>
      </trkpt>
      <trkpt lat="47.24214" lon="-2.30335">
        <ele>19.60000038147</ele>
        <time>2020-05-28T07:52:29.000Z</time>
      </trkpt>
      <trkpt lat="47.24203" lon="-2.30333">
        <ele>19</ele>
        <time>2020-05-28T07:52:31.000Z</time>
      </trkpt>
      <trkpt lat="47.242" lon="-2.3033">
        <ele>18.60000038147</ele>
        <time>2020-05-28T07:52:32.000Z</time>
      </trkpt>
      <trkpt lat="47.24196" lon="-2.30327">
        <ele>18.200000762939</ele>
        <time>2020-05-28T07:52:33.000Z</time>
      </trkpt>
      <trkpt lat="47.24193" lon="-2.30323">
        <ele>17.799999237061</ele>
        <time>2020-05-28T07:52:34.000Z</time>
      </trkpt>
      <trkpt lat="47.24191" lon="-2.30317">
        <ele>17.200000762939</ele>
        <time>2020-05-28T07:52:35.000Z</time>
      </trkpt>
      <trkpt lat="47.24191" lon="-2.30307">
        <ele>17.200000762939</ele>
        <time>2020-05-28T07:52:36.000Z</time>
      </trkpt>
      <trkpt lat="47.24189" lon="-2.30283">
        <ele>17.200000762939</ele>
        <time>2020-05-28T07:52:39.000Z</time>
      </trkpt>
      <trkpt lat="47.24188" lon="-2.30267">
        <ele>17.200000762939</ele>
        <time>2020-05-28T07:52:41.000Z</time>
      </trkpt>
      <trkpt lat="47.24188" lon="-2.30261">
        <ele>17.200000762939</ele>
        <time>2020-05-28T07:52:42.000Z</time>
      </trkpt>
      <trkpt lat="47.24188" lon="-2.30255">
        <ele>16.799999237061</ele>
        <time>2020-05-28T07:52:43.000Z</time>
      </trkpt>
      <trkpt lat="47.24188" lon="-2.3025">
        <ele>16.39999961853</ele>
        <time>2020-05-28T07:52:44.000Z</time>
      </trkpt>
      <trkpt lat="47.24188" lon="-2.30246">
        <ele>16</ele>
        <time>2020-05-28T07:52:45.000Z</time>
      </trkpt>
      <trkpt lat="47.24188" lon="-2.30243">
        <ele>15.60000038147</ele>
        <time>2020-05-28T07:52:46.000Z</time>
      </trkpt>
      <trkpt lat="47.24188" lon="-2.3024">
        <ele>15.199999809265</ele>
        <time>2020-05-28T07:52:47.000Z</time>
      </trkpt>
      <trkpt lat="47.24186" lon="-2.30237">
        <ele>15.199999809265</ele>
        <time>2020-05-28T07:52:49.000Z</time>
      </trkpt>
      <trkpt lat="47.24184" lon="-2.30238">
        <ele>15.199999809265</ele>
        <time>2020-05-28T07:52:50.000Z</time>
      </trkpt>
      <trkpt lat="47.24173" lon="-2.30248">
        <ele>15.199999809265</ele>
        <time>2020-05-28T07:52:54.000Z</time>
      </trkpt>
      <trkpt lat="47.24169" lon="-2.30249">
        <ele>15.199999809265</ele>
        <time>2020-05-28T07:52:55.000Z</time>
      </trkpt>
      <trkpt lat="47.24164" lon="-2.30252">
        <ele>15.199999809265</ele>
        <time>2020-05-28T07:52:56.000Z</time>
      </trkpt>
      <trkpt lat="47.24157" lon="-2.30254">
        <ele>15.199999809265</ele>
        <time>2020-05-28T07:52:58.000Z</time>
      </trkpt>
      <trkpt lat="47.24138" lon="-2.30261">
        <ele>15.60000038147</ele>
        <time>2020-05-28T07:53:04.000Z</time>
      </trkpt>
      <trkpt lat="47.24136" lon="-2.30262">
        <ele>16.39999961853</ele>
        <time>2020-05-28T07:53:05.000Z</time>
      </trkpt>
      <trkpt lat="47.24134" lon="-2.30264">
        <ele>16.799999237061</ele>
        <time>2020-05-28T07:53:06.000Z</time>
      </trkpt>
      <trkpt lat="47.24132" lon="-2.30265">
        <ele>17.200000762939</ele>
        <time>2020-05-28T07:53:07.000Z</time>
      </trkpt>
      <trkpt lat="47.24125" lon="-2.30268">
        <ele>17.799999237061</ele>
        <time>2020-05-28T07:53:09.000Z</time>
      </trkpt>
      <trkpt lat="47.24121" lon="-2.30269">
        <ele>18.200000762939</ele>
        <time>2020-05-28T07:53:10.000Z</time>
      </trkpt>
      <trkpt lat="47.24118" lon="-2.3027">
        <ele>18.60000038147</ele>
        <time>2020-05-28T07:53:11.000Z</time>
      </trkpt>
      <trkpt lat="47.24115" lon="-2.30271">
        <ele>19</ele>
        <time>2020-05-28T07:53:12.000Z</time>
      </trkpt>
      <trkpt lat="47.24112" lon="-2.30272">
        <ele>19.60000038147</ele>
        <time>2020-05-28T07:53:13.000Z</time>
      </trkpt>
      <trkpt lat="47.24104" lon="-2.30275">
        <ele>19.60000038147</ele>
        <time>2020-05-28T07:53:15.000Z</time>
      </trkpt>
      <trkpt lat="47.24079" lon="-2.30285">
        <ele>20</ele>
        <time>2020-05-28T07:53:21.000Z</time>
      </trkpt>
      <trkpt lat="47.24075" lon="-2.30287">
        <ele>20.39999961853</ele>
        <time>2020-05-28T07:53:22.000Z</time>
      </trkpt>
      <trkpt lat="47.24071" lon="-2.30289">
        <ele>20.799999237061</ele>
        <time>2020-05-28T07:53:23.000Z</time>
      </trkpt>
      <trkpt lat="47.24067" lon="-2.30291">
        <ele>21.200000762939</ele>
        <time>2020-05-28T07:53:24.000Z</time>
      </trkpt>
      <trkpt lat="47.24063" lon="-2.30292">
        <ele>21.60000038147</ele>
        <time>2020-05-28T07:53:25.000Z</time>
      </trkpt>
      <trkpt lat="47.2405" lon="-2.30296">
        <ele>21.60000038147</ele>
        <time>2020-05-28T07:53:28.000Z</time>
      </trkpt>
      <trkpt lat="47.24034" lon="-2.30294">
        <ele>21.60000038147</ele>
        <time>2020-05-28T07:53:32.000Z</time>
      </trkpt>
      <trkpt lat="47.24031" lon="-2.30278">
        <ele>21.60000038147</ele>
        <time>2020-05-28T07:53:35.000Z</time>
      </trkpt>
      <trkpt lat="47.24032" lon="-2.30271">
        <ele>21.60000038147</ele>
        <time>2020-05-28T07:53:36.000Z</time>
      </trkpt>
      <trkpt lat="47.24036" lon="-2.30238">
        <ele>21.60000038147</ele>
        <time>2020-05-28T07:53:41.000Z</time>
      </trkpt>
      <trkpt lat="47.24039" lon="-2.30199">
        <ele>21.60000038147</ele>
        <time>2020-05-28T07:53:48.000Z</time>
      </trkpt>
      <trkpt lat="47.24042" lon="-2.30191">
        <ele>21.60000038147</ele>
        <time>2020-05-28T07:53:53.000Z</time>
      </trkpt>
      <trkpt lat="47.24054" lon="-2.30184">
        <ele>21.60000038147</ele>
        <time>2020-05-28T07:53:57.000Z</time>
      </trkpt>
      <trkpt lat="47.24067" lon="-2.30177">
        <ele>21.60000038147</ele>
        <time>2020-05-28T07:54:01.000Z</time>
      </trkpt>
      <trkpt lat="47.24073" lon="-2.30172">
        <ele>21.60000038147</ele>
        <time>2020-05-28T07:54:03.000Z</time>
      </trkpt>
      <trkpt lat="47.24084" lon="-2.30164">
        <ele>21.60000038147</ele>
        <time>2020-05-28T07:54:07.000Z</time>
      </trkpt>
      <trkpt lat="47.24103" lon="-2.30167">
        <ele>21.60000038147</ele>
        <time>2020-05-28T07:54:12.000Z</time>
      </trkpt>
      <trkpt lat="47.24123" lon="-2.30163">
        <ele>21.60000038147</ele>
        <time>2020-05-28T07:54:18.000Z</time>
      </trkpt>
      <trkpt lat="47.24126" lon="-2.3016">
        <ele>21</ele>
        <time>2020-05-28T07:54:19.000Z</time>
      </trkpt>
      <trkpt lat="47.24128" lon="-2.30157">
        <ele>20.39999961853</ele>
        <time>2020-05-28T07:54:20.000Z</time>
      </trkpt>
      <trkpt lat="47.24129" lon="-2.30153">
        <ele>20</ele>
        <time>2020-05-28T07:54:21.000Z</time>
      </trkpt>
      <trkpt lat="47.2413" lon="-2.3015">
        <ele>19.39999961853</ele>
        <time>2020-05-28T07:54:22.000Z</time>
      </trkpt>
      <trkpt lat="47.2413" lon="-2.30147">
        <ele>18.799999237061</ele>
        <time>2020-05-28T07:54:23.000Z</time>
      </trkpt>
      <trkpt lat="47.24127" lon="-2.30136">
        <ele>18.799999237061</ele>
        <time>2020-05-28T07:54:27.000Z</time>
      </trkpt>
      <trkpt lat="47.24125" lon="-2.30134">
        <ele>19.39999961853</ele>
        <time>2020-05-28T07:54:28.000Z</time>
      </trkpt>
      <trkpt lat="47.24124" lon="-2.30131">
        <ele>19.799999237061</ele>
        <time>2020-05-28T07:54:29.000Z</time>
      </trkpt>
      <trkpt lat="47.24122" lon="-2.30128">
        <ele>20.39999961853</ele>
        <time>2020-05-28T07:54:30.000Z</time>
      </trkpt>
      <trkpt lat="47.24122" lon="-2.30125">
        <ele>20.799999237061</ele>
        <time>2020-05-28T07:54:31.000Z</time>
      </trkpt>
      <trkpt lat="47.24122" lon="-2.30121">
        <ele>21.39999961853</ele>
        <time>2020-05-28T07:54:32.000Z</time>
      </trkpt>
      <trkpt lat="47.24122" lon="-2.30118">
        <ele>21.39999961853</ele>
        <time>2020-05-28T07:54:33.000Z</time>
      </trkpt>
      <trkpt lat="47.24124" lon="-2.30108">
        <ele>21.39999961853</ele>
        <time>2020-05-28T07:54:39.000Z</time>
      </trkpt>
      <trkpt lat="47.24132" lon="-2.30081">
        <ele>21.39999961853</ele>
        <time>2020-05-28T07:55:19.000Z</time>
      </trkpt>
      <trkpt lat="47.2414" lon="-2.30072">
        <ele>21.39999961853</ele>
        <time>2020-05-28T07:55:26.000Z</time>
      </trkpt>
      <trkpt lat="47.24139" lon="-2.30051">
        <ele>21.799999237061</ele>
        <time>2020-05-28T07:55:32.000Z</time>
      </trkpt>
      <trkpt lat="47.24139" lon="-2.30047">
        <ele>22.39999961853</ele>
        <time>2020-05-28T07:55:33.000Z</time>
      </trkpt>
      <trkpt lat="47.24138" lon="-2.30044">
        <ele>22.799999237061</ele>
        <time>2020-05-28T07:55:34.000Z</time>
      </trkpt>
      <trkpt lat="47.24138" lon="-2.30041">
        <ele>23.200000762939</ele>
        <time>2020-05-28T07:55:35.000Z</time>
      </trkpt>
      <trkpt lat="47.24136" lon="-2.30038">
        <ele>23.799999237061</ele>
        <time>2020-05-28T07:55:36.000Z</time>
      </trkpt>
      <trkpt lat="47.24136" lon="-2.30035">
        <ele>23.799999237061</ele>
        <time>2020-05-28T07:55:37.000Z</time>
      </trkpt>
      <trkpt lat="47.24136" lon="-2.30032">
        <ele>23.799999237061</ele>
        <time>2020-05-28T07:55:38.000Z</time>
      </trkpt>
      <trkpt lat="47.24136" lon="-2.30009">
        <ele>23.799999237061</ele>
        <time>2020-05-28T07:55:44.000Z</time>
      </trkpt>
      <trkpt lat="47.24136" lon="-2.29994">
        <ele>23.799999237061</ele>
        <time>2020-05-28T07:55:49.000Z</time>
      </trkpt>
      <trkpt lat="47.24139" lon="-2.29992">
        <ele>23.799999237061</ele>
        <time>2020-05-28T07:55:51.000Z</time>
      </trkpt>
      <trkpt lat="47.2415" lon="-2.29988">
        <ele>24.200000762939</ele>
        <time>2020-05-28T07:55:55.000Z</time>
      </trkpt>
      <trkpt lat="47.24153" lon="-2.29988">
        <ele>24.60000038147</ele>
        <time>2020-05-28T07:55:56.000Z</time>
      </trkpt>
      <trkpt lat="47.24155" lon="-2.29988">
        <ele>25.60000038147</ele>
        <time>2020-05-28T07:55:57.000Z</time>
      </trkpt>
      <trkpt lat="47.24157" lon="-2.29988">
        <ele>26</ele>
        <time>2020-05-28T07:55:58.000Z</time>
      </trkpt>
      <trkpt lat="47.24164" lon="-2.29994">
        <ele>26</ele>
        <time>2020-05-28T07:56:01.000Z</time>
      </trkpt>
      <trkpt lat="47.24174" lon="-2.30013">
        <ele>25.60000038147</ele>
        <time>2020-05-28T07:56:08.000Z</time>
      </trkpt>
      <trkpt lat="47.24175" lon="-2.30016">
        <ele>25.200000762939</ele>
        <time>2020-05-28T07:56:09.000Z</time>
      </trkpt>
      <trkpt lat="47.24176" lon="-2.3002">
        <ele>24.799999237061</ele>
        <time>2020-05-28T07:56:10.000Z</time>
      </trkpt>
      <trkpt lat="47.24176" lon="-2.30022">
        <ele>24.200000762939</ele>
        <time>2020-05-28T07:56:11.000Z</time>
      </trkpt>
      <trkpt lat="47.24176" lon="-2.30023">
        <ele>23.799999237061</ele>
        <time>2020-05-28T07:56:12.000Z</time>
      </trkpt>
      <trkpt lat="47.24176" lon="-2.30025">
        <ele>23.799999237061</ele>
        <time>2020-05-28T07:56:14.000Z</time>
      </trkpt>
      <trkpt lat="47.24173" lon="-2.30024">
        <ele>23.799999237061</ele>
        <time>2020-05-28T07:56:16.000Z</time>
      </trkpt>
      <trkpt lat="47.24165" lon="-2.30023">
        <ele>23.799999237061</ele>
        <time>2020-05-28T07:56:19.000Z</time>
      </trkpt>
      <trkpt lat="47.24159" lon="-2.30022">
        <ele>23.799999237061</ele>
        <time>2020-05-28T07:56:22.000Z</time>
      </trkpt>
      <trkpt lat="47.24154" lon="-2.30023">
        <ele>23.799999237061</ele>
        <time>2020-05-28T07:56:24.000Z</time>
      </trkpt>
      <trkpt lat="47.24137" lon="-2.30023">
        <ele>23.799999237061</ele>
        <time>2020-05-28T07:56:31.000Z</time>
      </trkpt>
      <trkpt lat="47.24139" lon="-2.30014">
        <ele>23.799999237061</ele>
        <time>2020-05-28T07:56:35.000Z</time>
      </trkpt>
      <trkpt lat="47.24141" lon="-2.30009">
        <ele>23.799999237061</ele>
        <time>2020-05-28T07:56:37.000Z</time>
      </trkpt>
      <trkpt lat="47.2415" lon="-2.29985">
        <ele>23.799999237061</ele>
        <time>2020-05-28T07:56:43.000Z</time>
      </trkpt>
      <trkpt lat="47.24153" lon="-2.29964">
        <ele>23.799999237061</ele>
        <time>2020-05-28T07:56:48.000Z</time>
      </trkpt>
      <trkpt lat="47.24158" lon="-2.29942">
        <ele>23.799999237061</ele>
        <time>2020-05-28T07:56:54.000Z</time>
      </trkpt>
      <trkpt lat="47.24162" lon="-2.29926">
        <ele>24.200000762939</ele>
        <time>2020-05-28T07:56:58.000Z</time>
      </trkpt>
      <trkpt lat="47.24163" lon="-2.29922">
        <ele>24.60000038147</ele>
        <time>2020-05-28T07:56:59.000Z</time>
      </trkpt>
      <trkpt lat="47.24165" lon="-2.29918">
        <ele>25.200000762939</ele>
        <time>2020-05-28T07:57:00.000Z</time>
      </trkpt>
      <trkpt lat="47.24167" lon="-2.29914">
        <ele>25.60000038147</ele>
        <time>2020-05-28T07:57:01.000Z</time>
      </trkpt>
      <trkpt lat="47.24168" lon="-2.29911">
        <ele>26</ele>
        <time>2020-05-28T07:57:02.000Z</time>
      </trkpt>
      <trkpt lat="47.24176" lon="-2.29899">
        <ele>26</ele>
        <time>2020-05-28T07:57:07.000Z</time>
      </trkpt>
      <trkpt lat="47.24176" lon="-2.29896">
        <ele>26</ele>
        <time>2020-05-28T07:57:08.000Z</time>
      </trkpt>
      <trkpt lat="47.24175" lon="-2.29887">
        <ele>26</ele>
        <time>2020-05-28T07:57:11.000Z</time>
      </trkpt>
      <trkpt lat="47.24172" lon="-2.29873">
        <ele>26</ele>
        <time>2020-05-28T07:57:17.000Z</time>
      </trkpt>
      <trkpt lat="47.24168" lon="-2.2987">
        <ele>26</ele>
        <time>2020-05-28T07:57:19.000Z</time>
      </trkpt>
      <trkpt lat="47.24162" lon="-2.29865">
        <ele>26</ele>
        <time>2020-05-28T07:57:22.000Z</time>
      </trkpt>
      <trkpt lat="47.24154" lon="-2.29854">
        <ele>26</ele>
        <time>2020-05-28T07:57:27.000Z</time>
      </trkpt>
      <trkpt lat="47.24152" lon="-2.29853">
        <ele>26</ele>
        <time>2020-05-28T07:57:28.000Z</time>
      </trkpt>
      <trkpt lat="47.24142" lon="-2.29853">
        <ele>26</ele>
        <time>2020-05-28T07:57:33.000Z</time>
      </trkpt>
      <trkpt lat="47.24121" lon="-2.29854">
        <ele>26</ele>
        <time>2020-05-28T07:57:39.000Z</time>
      </trkpt>
      <trkpt lat="47.24098" lon="-2.29847">
        <ele>26</ele>
        <time>2020-05-28T07:57:45.000Z</time>
      </trkpt>
      <trkpt lat="47.24085" lon="-2.29853">
        <ele>26</ele>
        <time>2020-05-28T07:57:50.000Z</time>
      </trkpt>
      <trkpt lat="47.24084" lon="-2.29855">
        <ele>26</ele>
        <time>2020-05-28T07:57:51.000Z</time>
      </trkpt>
      <trkpt lat="47.24083" lon="-2.29868">
        <ele>26</ele>
        <time>2020-05-28T07:57:55.000Z</time>
      </trkpt>
      <trkpt lat="47.24078" lon="-2.2989">
        <ele>26</ele>
        <time>2020-05-28T07:58:00.000Z</time>
      </trkpt>
      <trkpt lat="47.24077" lon="-2.29898">
        <ele>26</ele>
        <time>2020-05-28T07:58:02.000Z</time>
      </trkpt>
      <trkpt lat="47.24077" lon="-2.29907">
        <ele>26</ele>
        <time>2020-05-28T07:58:05.000Z</time>
      </trkpt>
      <trkpt lat="47.24074" lon="-2.29916">
        <ele>26</ele>
        <time>2020-05-28T07:58:10.000Z</time>
      </trkpt>
      <trkpt lat="47.24067" lon="-2.29916">
        <ele>26</ele>
        <time>2020-05-28T07:58:15.000Z</time>
      </trkpt>
      <trkpt lat="47.24065" lon="-2.29915">
        <ele>26</ele>
        <time>2020-05-28T07:58:16.000Z</time>
      </trkpt>
      <trkpt lat="47.24055" lon="-2.29906">
        <ele>26</ele>
        <time>2020-05-28T07:58:25.000Z</time>
      </trkpt>
      <trkpt lat="47.24047" lon="-2.299">
        <ele>26</ele>
        <time>2020-05-28T07:58:32.000Z</time>
      </trkpt>
      <trkpt lat="47.24046" lon="-2.29901">
        <ele>26</ele>
        <time>2020-05-28T07:58:33.000Z</time>
      </trkpt>
      <trkpt lat="47.24038" lon="-2.29907">
        <ele>26</ele>
        <time>2020-05-28T07:58:38.000Z</time>
      </trkpt>
      <trkpt lat="47.24035" lon="-2.29908">
        <ele>26</ele>
        <time>2020-05-28T07:58:39.000Z</time>
      </trkpt>
      <trkpt lat="47.24027" lon="-2.2991">
        <ele>26</ele>
        <time>2020-05-28T07:58:42.000Z</time>
      </trkpt>
      <trkpt lat="47.24021" lon="-2.29908">
        <ele>26</ele>
        <time>2020-05-28T07:58:45.000Z</time>
      </trkpt>
      <trkpt lat="47.24007" lon="-2.29899">
        <ele>26</ele>
        <time>2020-05-28T07:58:52.000Z</time>
      </trkpt>
      <trkpt lat="47.24003" lon="-2.29885">
        <ele>26</ele>
        <time>2020-05-28T07:58:58.000Z</time>
      </trkpt>
      <trkpt lat="47.24007" lon="-2.29878">
        <ele>26</ele>
        <time>2020-05-28T07:59:00.000Z</time>
      </trkpt>
      <trkpt lat="47.24012" lon="-2.29866">
        <ele>26</ele>
        <time>2020-05-28T07:59:03.000Z</time>
      </trkpt>
      <trkpt lat="47.24016" lon="-2.29852">
        <ele>26</ele>
        <time>2020-05-28T07:59:09.000Z</time>
      </trkpt>
      <trkpt lat="47.24022" lon="-2.29846">
        <ele>26</ele>
        <time>2020-05-28T07:59:13.000Z</time>
      </trkpt>
      <trkpt lat="47.24027" lon="-2.29842">
        <ele>26</ele>
        <time>2020-05-28T07:59:15.000Z</time>
      </trkpt>
      <trkpt lat="47.24031" lon="-2.29837">
        <ele>26</ele>
        <time>2020-05-28T07:59:17.000Z</time>
      </trkpt>
      <trkpt lat="47.24042" lon="-2.29819">
        <ele>26</ele>
        <time>2020-05-28T07:59:22.000Z</time>
      </trkpt>
      <trkpt lat="47.24058" lon="-2.29798">
        <ele>26</ele>
        <time>2020-05-28T07:59:29.000Z</time>
      </trkpt>
      <trkpt lat="47.24067" lon="-2.29778">
        <ele>26</ele>
        <time>2020-05-28T07:59:33.000Z</time>
      </trkpt>
      <trkpt lat="47.24069" lon="-2.29765">
        <ele>26</ele>
        <time>2020-05-28T07:59:36.000Z</time>
      </trkpt>
      <trkpt lat="47.24068" lon="-2.29758">
        <ele>26</ele>
        <time>2020-05-28T07:59:38.000Z</time>
      </trkpt>
      <trkpt lat="47.24069" lon="-2.29746">
        <ele>26</ele>
        <time>2020-05-28T07:59:41.000Z</time>
      </trkpt>
      <trkpt lat="47.24069" lon="-2.29745">
        <ele>26</ele>
        <time>2020-05-28T07:59:42.000Z</time>
      </trkpt>
      <trkpt lat="47.24073" lon="-2.29751">
        <ele>26</ele>
        <time>2020-05-28T07:59:48.000Z</time>
      </trkpt>
      <trkpt lat="47.24073" lon="-2.29753">
        <ele>26</ele>
        <time>2020-05-28T07:59:49.000Z</time>
      </trkpt>
      <trkpt lat="47.24077" lon="-2.29775">
        <ele>26</ele>
        <time>2020-05-28T07:59:56.000Z</time>
      </trkpt>
      <trkpt lat="47.2408" lon="-2.29797">
        <ele>26</ele>
        <time>2020-05-28T08:00:03.000Z</time>
      </trkpt>
      <trkpt lat="47.24081" lon="-2.29817">
        <ele>26</ele>
        <time>2020-05-28T08:00:10.000Z</time>
      </trkpt>
      <trkpt lat="47.24076" lon="-2.29832">
        <ele>26</ele>
        <time>2020-05-28T08:00:17.000Z</time>
      </trkpt>
      <trkpt lat="47.24072" lon="-2.29834">
        <ele>26</ele>
        <time>2020-05-28T08:00:19.000Z</time>
      </trkpt>
      <trkpt lat="47.24064" lon="-2.29836">
        <ele>26</ele>
        <time>2020-05-28T08:00:23.000Z</time>
      </trkpt>
      <trkpt lat="47.24058" lon="-2.29846">
        <ele>26</ele>
        <time>2020-05-28T08:00:27.000Z</time>
      </trkpt>
      <trkpt lat="47.24057" lon="-2.29851">
        <ele>26</ele>
        <time>2020-05-28T08:00:29.000Z</time>
      </trkpt>
      <trkpt lat="47.24054" lon="-2.2986">
        <ele>26</ele>
        <time>2020-05-28T08:00:33.000Z</time>
      </trkpt>
      <trkpt lat="47.24052" lon="-2.29865">
        <ele>26</ele>
        <time>2020-05-28T08:00:37.000Z</time>
      </trkpt>
      <trkpt lat="47.24052" lon="-2.2986">
        <ele>26</ele>
        <time>2020-05-28T08:00:41.000Z</time>
      </trkpt>
      <trkpt lat="47.24052" lon="-2.29858">
        <ele>26</ele>
        <time>2020-05-28T08:00:42.000Z</time>
      </trkpt>
      <trkpt lat="47.24055" lon="-2.2984">
        <ele>26</ele>
        <time>2020-05-28T08:00:48.000Z</time>
      </trkpt>
      <trkpt lat="47.24059" lon="-2.29837">
        <ele>26</ele>
        <time>2020-05-28T08:00:50.000Z</time>
      </trkpt>
      <trkpt lat="47.24066" lon="-2.29839">
        <ele>26</ele>
        <time>2020-05-28T08:00:53.000Z</time>
      </trkpt>
      <trkpt lat="47.24084" lon="-2.29848">
        <ele>26</ele>
        <time>2020-05-28T08:00:58.000Z</time>
      </trkpt>
      <trkpt lat="47.24109" lon="-2.29847">
        <ele>26</ele>
        <time>2020-05-28T08:01:03.000Z</time>
      </trkpt>
      <trkpt lat="47.24129" lon="-2.29841">
        <ele>26</ele>
        <time>2020-05-28T08:01:08.000Z</time>
      </trkpt>
      <trkpt lat="47.24136" lon="-2.29839">
        <ele>26</ele>
        <time>2020-05-28T08:01:10.000Z</time>
      </trkpt>
      <trkpt lat="47.24149" lon="-2.29843">
        <ele>26</ele>
        <time>2020-05-28T08:01:13.000Z</time>
      </trkpt>
      <trkpt lat="47.2416" lon="-2.29846">
        <ele>26</ele>
        <time>2020-05-28T08:01:16.000Z</time>
      </trkpt>
      <trkpt lat="47.24165" lon="-2.29847">
        <ele>26</ele>
        <time>2020-05-28T08:01:18.000Z</time>
      </trkpt>
      <trkpt lat="47.24168" lon="-2.29853">
        <ele>26</ele>
        <time>2020-05-28T08:01:22.000Z</time>
      </trkpt>
      <trkpt lat="47.24175" lon="-2.29877">
        <ele>26</ele>
        <time>2020-05-28T08:01:29.000Z</time>
      </trkpt>
      <trkpt lat="47.24179" lon="-2.29894">
        <ele>26</ele>
        <time>2020-05-28T08:01:35.000Z</time>
      </trkpt>
      <trkpt lat="47.24178" lon="-2.29898">
        <ele>26</ele>
        <time>2020-05-28T08:01:36.000Z</time>
      </trkpt>
      <trkpt lat="47.24174" lon="-2.29914">
        <ele>26</ele>
        <time>2020-05-28T08:01:40.000Z</time>
      </trkpt>
      <trkpt lat="47.24166" lon="-2.2995">
        <ele>26</ele>
        <time>2020-05-28T08:01:46.000Z</time>
      </trkpt>
      <trkpt lat="47.24166" lon="-2.29959">
        <ele>26</ele>
        <time>2020-05-28T08:01:48.000Z</time>
      </trkpt>
      <trkpt lat="47.24168" lon="-2.29963">
        <ele>26</ele>
        <time>2020-05-28T08:01:50.000Z</time>
      </trkpt>
      <trkpt lat="47.24175" lon="-2.29965">
        <ele>26</ele>
        <time>2020-05-28T08:01:53.000Z</time>
      </trkpt>
      <trkpt lat="47.24183" lon="-2.29966">
        <ele>26</ele>
        <time>2020-05-28T08:01:55.000Z</time>
      </trkpt>
      <trkpt lat="47.24188" lon="-2.29966">
        <ele>26</ele>
        <time>2020-05-28T08:01:56.000Z</time>
      </trkpt>
      <trkpt lat="47.24209" lon="-2.29959">
        <ele>26</ele>
        <time>2020-05-28T08:02:00.000Z</time>
      </trkpt>
      <trkpt lat="47.24215" lon="-2.29958">
        <ele>26</ele>
        <time>2020-05-28T08:02:01.000Z</time>
      </trkpt>
      <trkpt lat="47.24227" lon="-2.29953">
        <ele>25.60000038147</ele>
        <time>2020-05-28T08:02:03.000Z</time>
      </trkpt>
      <trkpt lat="47.24232" lon="-2.29951">
        <ele>25.200000762939</ele>
        <time>2020-05-28T08:02:04.000Z</time>
      </trkpt>
      <trkpt lat="47.24237" lon="-2.29949">
        <ele>24.799999237061</ele>
        <time>2020-05-28T08:02:05.000Z</time>
      </trkpt>
      <trkpt lat="47.24242" lon="-2.29944">
        <ele>24</ele>
        <time>2020-05-28T08:02:06.000Z</time>
      </trkpt>
      <trkpt lat="47.2425" lon="-2.29935">
        <ele>24</ele>
        <time>2020-05-28T08:02:08.000Z</time>
      </trkpt>
      <trkpt lat="47.24253" lon="-2.29931">
        <ele>24</ele>
        <time>2020-05-28T08:02:09.000Z</time>
      </trkpt>
      <trkpt lat="47.24271" lon="-2.2991">
        <ele>24</ele>
        <time>2020-05-28T08:02:14.000Z</time>
      </trkpt>
      <trkpt lat="47.24292" lon="-2.29894">
        <ele>24</ele>
        <time>2020-05-28T08:02:19.000Z</time>
      </trkpt>
      <trkpt lat="47.24301" lon="-2.29886">
        <ele>24</ele>
        <time>2020-05-28T08:02:21.000Z</time>
      </trkpt>
      <trkpt lat="47.2431" lon="-2.29871">
        <ele>24</ele>
        <time>2020-05-28T08:02:24.000Z</time>
      </trkpt>
      <trkpt lat="47.24313" lon="-2.29842">
        <ele>24</ele>
        <time>2020-05-28T08:02:28.000Z</time>
      </trkpt>
      <trkpt lat="47.24314" lon="-2.29829">
        <ele>24</ele>
        <time>2020-05-28T08:02:30.000Z</time>
      </trkpt>
      <trkpt lat="47.2432" lon="-2.29817">
        <ele>24</ele>
        <time>2020-05-28T08:02:32.000Z</time>
      </trkpt>
      <trkpt lat="47.24333" lon="-2.29809">
        <ele>24</ele>
        <time>2020-05-28T08:02:35.000Z</time>
      </trkpt>
      <trkpt lat="47.24338" lon="-2.29806">
        <ele>24</ele>
        <time>2020-05-28T08:02:36.000Z</time>
      </trkpt>
      <trkpt lat="47.24353" lon="-2.29799">
        <ele>24</ele>
        <time>2020-05-28T08:02:39.000Z</time>
      </trkpt>
      <trkpt lat="47.24361" lon="-2.29789">
        <ele>24</ele>
        <time>2020-05-28T08:02:41.000Z</time>
      </trkpt>
      <trkpt lat="47.24372" lon="-2.29773">
        <ele>24</ele>
        <time>2020-05-28T08:02:44.000Z</time>
      </trkpt>
      <trkpt lat="47.24374" lon="-2.29766">
        <ele>24</ele>
        <time>2020-05-28T08:02:45.000Z</time>
      </trkpt>
      <trkpt lat="47.24377" lon="-2.2976">
        <ele>24.39999961853</ele>
        <time>2020-05-28T08:02:46.000Z</time>
      </trkpt>
      <trkpt lat="47.2438" lon="-2.29754">
        <ele>24.799999237061</ele>
        <time>2020-05-28T08:02:47.000Z</time>
      </trkpt>
      <trkpt lat="47.24382" lon="-2.29748">
        <ele>25.200000762939</ele>
        <time>2020-05-28T08:02:48.000Z</time>
      </trkpt>
      <trkpt lat="47.24385" lon="-2.29741">
        <ele>25.60000038147</ele>
        <time>2020-05-28T08:02:49.000Z</time>
      </trkpt>
      <trkpt lat="47.24387" lon="-2.29734">
        <ele>26</ele>
        <time>2020-05-28T08:02:50.000Z</time>
      </trkpt>
      <trkpt lat="47.2439" lon="-2.29726">
        <ele>26</ele>
        <time>2020-05-28T08:02:51.000Z</time>
      </trkpt>
      <trkpt lat="47.24398" lon="-2.29707">
        <ele>26</ele>
        <time>2020-05-28T08:02:54.000Z</time>
      </trkpt>
      <trkpt lat="47.24406" lon="-2.29698">
        <ele>26</ele>
        <time>2020-05-28T08:02:56.000Z</time>
      </trkpt>
      <trkpt lat="47.2442" lon="-2.29691">
        <ele>26</ele>
        <time>2020-05-28T08:02:59.000Z</time>
      </trkpt>
      <trkpt lat="47.24433" lon="-2.29696">
        <ele>26</ele>
        <time>2020-05-28T08:03:02.000Z</time>
      </trkpt>
      <trkpt lat="47.24441" lon="-2.29716">
        <ele>26</ele>
        <time>2020-05-28T08:03:05.000Z</time>
      </trkpt>
      <trkpt lat="47.24443" lon="-2.29723">
        <ele>26</ele>
        <time>2020-05-28T08:03:06.000Z</time>
      </trkpt>
      <trkpt lat="47.24453" lon="-2.2975">
        <ele>26</ele>
        <time>2020-05-28T08:03:10.000Z</time>
      </trkpt>
      <trkpt lat="47.24458" lon="-2.29764">
        <ele>26</ele>
        <time>2020-05-28T08:03:12.000Z</time>
      </trkpt>
      <trkpt lat="47.24463" lon="-2.29786">
        <ele>26</ele>
        <time>2020-05-28T08:03:15.000Z</time>
      </trkpt>
      <trkpt lat="47.24468" lon="-2.29801">
        <ele>26</ele>
        <time>2020-05-28T08:03:17.000Z</time>
      </trkpt>
      <trkpt lat="47.24478" lon="-2.2982">
        <ele>26</ele>
        <time>2020-05-28T08:03:20.000Z</time>
      </trkpt>
      <trkpt lat="47.24486" lon="-2.29832">
        <ele>26</ele>
        <time>2020-05-28T08:03:22.000Z</time>
      </trkpt>
      <trkpt lat="47.245" lon="-2.29846">
        <ele>26</ele>
        <time>2020-05-28T08:03:25.000Z</time>
      </trkpt>
      <trkpt lat="47.24509" lon="-2.29852">
        <ele>26</ele>
        <time>2020-05-28T08:03:27.000Z</time>
      </trkpt>
      <trkpt lat="47.24534" lon="-2.29864">
        <ele>26</ele>
        <time>2020-05-28T08:03:32.000Z</time>
      </trkpt>
      <trkpt lat="47.24554" lon="-2.29873">
        <ele>26</ele>
        <time>2020-05-28T08:03:38.000Z</time>
      </trkpt>
      <trkpt lat="47.24569" lon="-2.29894">
        <ele>26</ele>
        <time>2020-05-28T08:03:43.000Z</time>
      </trkpt>
      <trkpt lat="47.24575" lon="-2.29906">
        <ele>26</ele>
        <time>2020-05-28T08:03:45.000Z</time>
      </trkpt>
      <trkpt lat="47.2458" lon="-2.29917">
        <ele>26</ele>
        <time>2020-05-28T08:03:47.000Z</time>
      </trkpt>
      <trkpt lat="47.24584" lon="-2.29922">
        <ele>26</ele>
        <time>2020-05-28T08:03:48.000Z</time>
      </trkpt>
      <trkpt lat="47.24599" lon="-2.29944">
        <ele>26</ele>
        <time>2020-05-28T08:03:54.000Z</time>
      </trkpt>
      <trkpt lat="47.24605" lon="-2.29948">
        <ele>26</ele>
        <time>2020-05-28T08:03:58.000Z</time>
      </trkpt>
      <trkpt lat="47.24604" lon="-2.29951">
        <ele>26</ele>
        <time>2020-05-28T08:03:59.000Z</time>
      </trkpt>
      <trkpt lat="47.246" lon="-2.29951">
        <ele>26</ele>
        <time>2020-05-28T08:04:03.000Z</time>
      </trkpt>
      <trkpt lat="47.24604" lon="-2.29944">
        <ele>26</ele>
        <time>2020-05-28T08:04:07.000Z</time>
      </trkpt>
      <trkpt lat="47.24616" lon="-2.29938">
        <ele>26</ele>
        <time>2020-05-28T08:04:11.000Z</time>
      </trkpt>
      <trkpt lat="47.24619" lon="-2.29937">
        <ele>26</ele>
        <time>2020-05-28T08:04:12.000Z</time>
      </trkpt>
      <trkpt lat="47.24639" lon="-2.29929">
        <ele>26</ele>
        <time>2020-05-28T08:04:17.000Z</time>
      </trkpt>
      <trkpt lat="47.24666" lon="-2.29921">
        <ele>26</ele>
        <time>2020-05-28T08:04:24.000Z</time>
      </trkpt>
      <trkpt lat="47.2467" lon="-2.2992">
        <ele>26.39999961853</ele>
        <time>2020-05-28T08:04:25.000Z</time>
      </trkpt>
      <trkpt lat="47.24673" lon="-2.29919">
        <ele>26.799999237061</ele>
        <time>2020-05-28T08:04:26.000Z</time>
      </trkpt>
      <trkpt lat="47.24677" lon="-2.29917">
        <ele>27.200000762939</ele>
        <time>2020-05-28T08:04:27.000Z</time>
      </trkpt>
      <trkpt lat="47.2468" lon="-2.29914">
        <ele>27.60000038147</ele>
        <time>2020-05-28T08:04:28.000Z</time>
      </trkpt>
      <trkpt lat="47.24684" lon="-2.29913">
        <ele>28</ele>
        <time>2020-05-28T08:04:29.000Z</time>
      </trkpt>
      <trkpt lat="47.24688" lon="-2.29912">
        <ele>28</ele>
        <time>2020-05-28T08:04:30.000Z</time>
      </trkpt>
      <trkpt lat="47.24713" lon="-2.29904">
        <ele>28</ele>
        <time>2020-05-28T08:04:37.000Z</time>
      </trkpt>
      <trkpt lat="47.24726" lon="-2.299">
        <ele>28</ele>
        <time>2020-05-28T08:04:40.000Z</time>
      </trkpt>
      <trkpt lat="47.2474" lon="-2.29898">
        <ele>28</ele>
        <time>2020-05-28T08:04:43.000Z</time>
      </trkpt>
      <trkpt lat="47.24744" lon="-2.29895">
        <ele>28</ele>
        <time>2020-05-28T08:04:44.000Z</time>
      </trkpt>
      <trkpt lat="47.24756" lon="-2.29884">
        <ele>28</ele>
        <time>2020-05-28T08:04:47.000Z</time>
      </trkpt>
      <trkpt lat="47.2478" lon="-2.29867">
        <ele>28</ele>
        <time>2020-05-28T08:04:53.000Z</time>
      </trkpt>
      <trkpt lat="47.24785" lon="-2.29864">
        <ele>28</ele>
        <time>2020-05-28T08:04:54.000Z</time>
      </trkpt>
      <trkpt lat="47.24798" lon="-2.29854">
        <ele>28.60000038147</ele>
        <time>2020-05-28T08:04:57.000Z</time>
      </trkpt>
      <trkpt lat="47.24803" lon="-2.29851">
        <ele>29</ele>
        <time>2020-05-28T08:04:58.000Z</time>
      </trkpt>
      <trkpt lat="47.24807" lon="-2.29849">
        <ele>29.39999961853</ele>
        <time>2020-05-28T08:04:59.000Z</time>
      </trkpt>
      <trkpt lat="47.24812" lon="-2.29848">
        <ele>30.200000762939</ele>
        <time>2020-05-28T08:05:00.000Z</time>
      </trkpt>
      <trkpt lat="47.24845" lon="-2.2984">
        <ele>30.200000762939</ele>
        <time>2020-05-28T08:05:07.000Z</time>
      </trkpt>
      <trkpt lat="47.24856" lon="-2.29835">
        <ele>30.200000762939</ele>
        <time>2020-05-28T08:05:11.000Z</time>
      </trkpt>
      <trkpt lat="47.24863" lon="-2.29833">
        <ele>30.200000762939</ele>
        <time>2020-05-28T08:05:15.000Z</time>
      </trkpt>
      <trkpt lat="47.24865" lon="-2.29836">
        <ele>30.200000762939</ele>
        <time>2020-05-28T08:05:16.000Z</time>
      </trkpt>
      <trkpt lat="47.24869" lon="-2.29853">
        <ele>30.200000762939</ele>
        <time>2020-05-28T08:05:20.000Z</time>
      </trkpt>
      <trkpt lat="47.24877" lon="-2.29892">
        <ele>30.200000762939</ele>
        <time>2020-05-28T08:05:27.000Z</time>
      </trkpt>
      <trkpt lat="47.24882" lon="-2.29935">
        <ele>30.200000762939</ele>
        <time>2020-05-28T08:05:33.000Z</time>
      </trkpt>
      <trkpt lat="47.24897" lon="-2.29986">
        <ele>30.200000762939</ele>
        <time>2020-05-28T08:05:39.000Z</time>
      </trkpt>
      <trkpt lat="47.24904" lon="-2.30019">
        <ele>30.200000762939</ele>
        <time>2020-05-28T08:05:43.000Z</time>
      </trkpt>
      <trkpt lat="47.24906" lon="-2.30036">
        <ele>30.200000762939</ele>
        <time>2020-05-28T08:05:45.000Z</time>
      </trkpt>
      <trkpt lat="47.24909" lon="-2.30054">
        <ele>30.200000762939</ele>
        <time>2020-05-28T08:05:48.000Z</time>
      </trkpt>
      <trkpt lat="47.24911" lon="-2.30055">
        <ele>30.200000762939</ele>
        <time>2020-05-28T08:05:49.000Z</time>
      </trkpt>
      <trkpt lat="47.24922" lon="-2.30054">
        <ele>30.200000762939</ele>
        <time>2020-05-28T08:05:52.000Z</time>
      </trkpt>
      <trkpt lat="47.24959" lon="-2.30055">
        <ele>30.200000762939</ele>
        <time>2020-05-28T08:06:00.000Z</time>
      </trkpt>
      <trkpt lat="47.24993" lon="-2.30052">
        <ele>30.200000762939</ele>
        <time>2020-05-28T08:06:07.000Z</time>
      </trkpt>
      <trkpt lat="47.25004" lon="-2.30051">
        <ele>30.200000762939</ele>
        <time>2020-05-28T08:06:09.000Z</time>
      </trkpt>
      <trkpt lat="47.25019" lon="-2.30053">
        <ele>30.200000762939</ele>
        <time>2020-05-28T08:06:12.000Z</time>
      </trkpt>
      <trkpt lat="47.25042" lon="-2.30055">
        <ele>30.200000762939</ele>
        <time>2020-05-28T08:06:17.000Z</time>
      </trkpt>
      <trkpt lat="47.25058" lon="-2.30056">
        <ele>29.799999237061</ele>
        <time>2020-05-28T08:06:20.000Z</time>
      </trkpt>
      <trkpt lat="47.25062" lon="-2.30057">
        <ele>29.39999961853</ele>
        <time>2020-05-28T08:06:21.000Z</time>
      </trkpt>
      <trkpt lat="47.25065" lon="-2.30058">
        <ele>29</ele>
        <time>2020-05-28T08:06:22.000Z</time>
      </trkpt>
      <trkpt lat="47.25068" lon="-2.30059">
        <ele>28.60000038147</ele>
        <time>2020-05-28T08:06:23.000Z</time>
      </trkpt>
      <trkpt lat="47.25071" lon="-2.30063">
        <ele>28.200000762939</ele>
        <time>2020-05-28T08:06:24.000Z</time>
      </trkpt>
      <trkpt lat="47.2507" lon="-2.30069">
        <ele>28.200000762939</ele>
        <time>2020-05-28T08:06:25.000Z</time>
      </trkpt>
      <trkpt lat="47.25067" lon="-2.30105">
        <ele>28.200000762939</ele>
        <time>2020-05-28T08:06:30.000Z</time>
      </trkpt>
      <trkpt lat="47.25066" lon="-2.30134">
        <ele>28.200000762939</ele>
        <time>2020-05-28T08:06:34.000Z</time>
      </trkpt>
      <trkpt lat="47.25069" lon="-2.30137">
        <ele>28.200000762939</ele>
        <time>2020-05-28T08:06:35.000Z</time>
      </trkpt>
      <trkpt lat="47.2508" lon="-2.30137">
        <ele>28.200000762939</ele>
        <time>2020-05-28T08:06:37.000Z</time>
      </trkpt>
      <trkpt lat="47.25084" lon="-2.30136">
        <ele>28.200000762939</ele>
        <time>2020-05-28T08:06:38.000Z</time>
      </trkpt>
      <trkpt lat="47.25095" lon="-2.30134">
        <ele>28.200000762939</ele>
        <time>2020-05-28T08:06:40.000Z</time>
      </trkpt>
      <trkpt lat="47.25106" lon="-2.30131">
        <ele>28.200000762939</ele>
        <time>2020-05-28T08:06:42.000Z</time>
      </trkpt>
      <trkpt lat="47.25135" lon="-2.30129">
        <ele>28.200000762939</ele>
        <time>2020-05-28T08:06:47.000Z</time>
      </trkpt>
      <trkpt lat="47.25148" lon="-2.30125">
        <ele>28.200000762939</ele>
        <time>2020-05-28T08:06:49.000Z</time>
      </trkpt>
      <trkpt lat="47.25154" lon="-2.30123">
        <ele>27.799999237061</ele>
        <time>2020-05-28T08:06:50.000Z</time>
      </trkpt>
      <trkpt lat="47.25161" lon="-2.30121">
        <ele>27.39999961853</ele>
        <time>2020-05-28T08:06:51.000Z</time>
      </trkpt>
      <trkpt lat="47.25167" lon="-2.30119">
        <ele>27</ele>
        <time>2020-05-28T08:06:52.000Z</time>
      </trkpt>
      <trkpt lat="47.25173" lon="-2.30119">
        <ele>26.60000038147</ele>
        <time>2020-05-28T08:06:53.000Z</time>
      </trkpt>
      <trkpt lat="47.25179" lon="-2.30122">
        <ele>26.200000762939</ele>
        <time>2020-05-28T08:06:54.000Z</time>
      </trkpt>
      <trkpt lat="47.25183" lon="-2.30129">
        <ele>26.200000762939</ele>
        <time>2020-05-28T08:06:55.000Z</time>
      </trkpt>
      <trkpt lat="47.25191" lon="-2.30147">
        <ele>26.200000762939</ele>
        <time>2020-05-28T08:06:57.000Z</time>
      </trkpt>
      <trkpt lat="47.25195" lon="-2.30153">
        <ele>26.200000762939</ele>
        <time>2020-05-28T08:06:58.000Z</time>
      </trkpt>
      <trkpt lat="47.25217" lon="-2.30177">
        <ele>26.200000762939</ele>
        <time>2020-05-28T08:07:02.000Z</time>
      </trkpt>
      <trkpt lat="47.2523" lon="-2.30183">
        <ele>25.200000762939</ele>
        <time>2020-05-28T08:07:04.000Z</time>
      </trkpt>
      <trkpt lat="47.25236" lon="-2.30185">
        <ele>24.799999237061</ele>
        <time>2020-05-28T08:07:05.000Z</time>
      </trkpt>
      <trkpt lat="47.25243" lon="-2.30188">
        <ele>24.39999961853</ele>
        <time>2020-05-28T08:07:06.000Z</time>
      </trkpt>
      <trkpt lat="47.25249" lon="-2.30191">
        <ele>23.799999237061</ele>
        <time>2020-05-28T08:07:07.000Z</time>
      </trkpt>
      <trkpt lat="47.25285" lon="-2.30207">
        <ele>23.39999961853</ele>
        <time>2020-05-28T08:07:13.000Z</time>
      </trkpt>
      <trkpt lat="47.2529" lon="-2.30209">
        <ele>23</ele>
        <time>2020-05-28T08:07:14.000Z</time>
      </trkpt>
      <trkpt lat="47.25294" lon="-2.30212">
        <ele>22.60000038147</ele>
        <time>2020-05-28T08:07:15.000Z</time>
      </trkpt>
      <trkpt lat="47.25297" lon="-2.30213">
        <ele>22.200000762939</ele>
        <time>2020-05-28T08:07:16.000Z</time>
      </trkpt>
      <trkpt lat="47.25299" lon="-2.3021">
        <ele>21.799999237061</ele>
        <time>2020-05-28T08:07:17.000Z</time>
      </trkpt>
      <trkpt lat="47.25308" lon="-2.30205">
        <ele>21.799999237061</ele>
        <time>2020-05-28T08:07:21.000Z</time>
      </trkpt>
      <trkpt lat="47.25323" lon="-2.30208">
        <ele>21.799999237061</ele>
        <time>2020-05-28T08:07:24.000Z</time>
      </trkpt>
      <trkpt lat="47.25329" lon="-2.30208">
        <ele>21.39999961853</ele>
        <time>2020-05-28T08:07:25.000Z</time>
      </trkpt>
      <trkpt lat="47.25335" lon="-2.30208">
        <ele>21</ele>
        <time>2020-05-28T08:07:26.000Z</time>
      </trkpt>
      <trkpt lat="47.25342" lon="-2.30208">
        <ele>20.60000038147</ele>
        <time>2020-05-28T08:07:27.000Z</time>
      </trkpt>
      <trkpt lat="47.25348" lon="-2.30209">
        <ele>19.799999237061</ele>
        <time>2020-05-28T08:07:28.000Z</time>
      </trkpt>
      <trkpt lat="47.25354" lon="-2.3021">
        <ele>19.799999237061</ele>
        <time>2020-05-28T08:07:29.000Z</time>
      </trkpt>
      <trkpt lat="47.25382" lon="-2.30214">
        <ele>19.799999237061</ele>
        <time>2020-05-28T08:07:34.000Z</time>
      </trkpt>
      <trkpt lat="47.25387" lon="-2.30216">
        <ele>19.799999237061</ele>
        <time>2020-05-28T08:07:35.000Z</time>
      </trkpt>
      <trkpt lat="47.25403" lon="-2.30225">
        <ele>19.799999237061</ele>
        <time>2020-05-28T08:07:38.000Z</time>
      </trkpt>
      <trkpt lat="47.25414" lon="-2.30227">
        <ele>19.799999237061</ele>
        <time>2020-05-28T08:07:40.000Z</time>
      </trkpt>
      <trkpt lat="47.25431" lon="-2.30232">
        <ele>19.799999237061</ele>
        <time>2020-05-28T08:07:43.000Z</time>
      </trkpt>
      <trkpt lat="47.25441" lon="-2.30236">
        <ele>19.799999237061</ele>
        <time>2020-05-28T08:07:45.000Z</time>
      </trkpt>
      <trkpt lat="47.25462" lon="-2.30244">
        <ele>19.200000762939</ele>
        <time>2020-05-28T08:07:49.000Z</time>
      </trkpt>
      <trkpt lat="47.25466" lon="-2.30245">
        <ele>18.799999237061</ele>
        <time>2020-05-28T08:07:50.000Z</time>
      </trkpt>
      <trkpt lat="47.2547" lon="-2.30244">
        <ele>18.39999961853</ele>
        <time>2020-05-28T08:07:51.000Z</time>
      </trkpt>
      <trkpt lat="47.25472" lon="-2.30241">
        <ele>17.799999237061</ele>
        <time>2020-05-28T08:07:52.000Z</time>
      </trkpt>
      <trkpt lat="47.25474" lon="-2.30235">
        <ele>17.39999961853</ele>
        <time>2020-05-28T08:07:53.000Z</time>
      </trkpt>
      <trkpt lat="47.25484" lon="-2.30207">
        <ele>17.39999961853</ele>
        <time>2020-05-28T08:07:58.000Z</time>
      </trkpt>
      <trkpt lat="47.25495" lon="-2.30198">
        <ele>17</ele>
        <time>2020-05-28T08:08:02.000Z</time>
      </trkpt>
      <trkpt lat="47.25498" lon="-2.30199">
        <ele>16.60000038147</ele>
        <time>2020-05-28T08:08:03.000Z</time>
      </trkpt>
      <trkpt lat="47.25502" lon="-2.302">
        <ele>16.200000762939</ele>
        <time>2020-05-28T08:08:04.000Z</time>
      </trkpt>
      <trkpt lat="47.25506" lon="-2.30201">
        <ele>15.800000190735</ele>
        <time>2020-05-28T08:08:05.000Z</time>
      </trkpt>
      <trkpt lat="47.25509" lon="-2.30201">
        <ele>15.199999809265</ele>
        <time>2020-05-28T08:08:06.000Z</time>
      </trkpt>
      <trkpt lat="47.25514" lon="-2.302">
        <ele>15.199999809265</ele>
        <time>2020-05-28T08:08:07.000Z</time>
      </trkpt>
      <trkpt lat="47.25531" lon="-2.30194">
        <ele>15.199999809265</ele>
        <time>2020-05-28T08:08:11.000Z</time>
      </trkpt>
      <trkpt lat="47.2554" lon="-2.30191">
        <ele>15.199999809265</ele>
        <time>2020-05-28T08:08:13.000Z</time>
      </trkpt>
      <trkpt lat="47.25545" lon="-2.30191">
        <ele>15.199999809265</ele>
        <time>2020-05-28T08:08:14.000Z</time>
      </trkpt>
      <trkpt lat="47.2556" lon="-2.30197">
        <ele>15.199999809265</ele>
        <time>2020-05-28T08:08:17.000Z</time>
      </trkpt>
      <trkpt lat="47.25572" lon="-2.30206">
        <ele>15.199999809265</ele>
        <time>2020-05-28T08:08:19.000Z</time>
      </trkpt>
      <trkpt lat="47.2558" lon="-2.30212">
        <ele>15.199999809265</ele>
        <time>2020-05-28T08:08:20.000Z</time>
      </trkpt>
      <trkpt lat="47.25587" lon="-2.30219">
        <ele>15.199999809265</ele>
        <time>2020-05-28T08:08:21.000Z</time>
      </trkpt>
      <trkpt lat="47.25605" lon="-2.30241">
        <ele>15.199999809265</ele>
        <time>2020-05-28T08:08:24.000Z</time>
      </trkpt>
      <trkpt lat="47.25614" lon="-2.30257">
        <ele>15.199999809265</ele>
        <time>2020-05-28T08:08:26.000Z</time>
      </trkpt>
      <trkpt lat="47.25619" lon="-2.30273">
        <ele>15.199999809265</ele>
        <time>2020-05-28T08:08:28.000Z</time>
      </trkpt>
      <trkpt lat="47.25623" lon="-2.30288">
        <ele>15.199999809265</ele>
        <time>2020-05-28T08:08:30.000Z</time>
      </trkpt>
      <trkpt lat="47.25629" lon="-2.30335">
        <ele>15.199999809265</ele>
        <time>2020-05-28T08:08:36.000Z</time>
      </trkpt>
      <trkpt lat="47.25632" lon="-2.30341">
        <ele>15.199999809265</ele>
        <time>2020-05-28T08:08:38.000Z</time>
      </trkpt>
      <trkpt lat="47.25635" lon="-2.30341">
        <ele>15.199999809265</ele>
        <time>2020-05-28T08:08:39.000Z</time>
      </trkpt>
      <trkpt lat="47.2564" lon="-2.30337">
        <ele>15.199999809265</ele>
        <time>2020-05-28T08:08:42.000Z</time>
      </trkpt>
      <trkpt lat="47.25642" lon="-2.30333">
        <ele>15.199999809265</ele>
        <time>2020-05-28T08:08:43.000Z</time>
      </trkpt>
      <trkpt lat="47.25651" lon="-2.30314">
        <ele>15.199999809265</ele>
        <time>2020-05-28T08:08:48.000Z</time>
      </trkpt>
      <trkpt lat="47.25655" lon="-2.30288">
        <ele>15.199999809265</ele>
        <time>2020-05-28T08:08:54.000Z</time>
      </trkpt>
      <trkpt lat="47.25662" lon="-2.3027">
        <ele>15.199999809265</ele>
        <time>2020-05-28T08:08:59.000Z</time>
      </trkpt>
      <trkpt lat="47.25675" lon="-2.30254">
        <ele>15.199999809265</ele>
        <time>2020-05-28T08:09:05.000Z</time>
      </trkpt>
      <trkpt lat="47.25686" lon="-2.30229">
        <ele>14.800000190735</ele>
        <time>2020-05-28T08:09:11.000Z</time>
      </trkpt>
      <trkpt lat="47.25688" lon="-2.30224">
        <ele>14.39999961853</ele>
        <time>2020-05-28T08:09:12.000Z</time>
      </trkpt>
      <trkpt lat="47.2569" lon="-2.30219">
        <ele>14</ele>
        <time>2020-05-28T08:09:13.000Z</time>
      </trkpt>
      <trkpt lat="47.25692" lon="-2.30215">
        <ele>13.60000038147</ele>
        <time>2020-05-28T08:09:14.000Z</time>
      </trkpt>
      <trkpt lat="47.25695" lon="-2.30212">
        <ele>13.199999809265</ele>
        <time>2020-05-28T08:09:15.000Z</time>
      </trkpt>
      <trkpt lat="47.25701" lon="-2.30206">
        <ele>13.199999809265</ele>
        <time>2020-05-28T08:09:17.000Z</time>
      </trkpt>
      <trkpt lat="47.2571" lon="-2.30203">
        <ele>13.199999809265</ele>
        <time>2020-05-28T08:09:19.000Z</time>
      </trkpt>
      <trkpt lat="47.25719" lon="-2.30204">
        <ele>13.199999809265</ele>
        <time>2020-05-28T08:09:21.000Z</time>
      </trkpt>
      <trkpt lat="47.25736" lon="-2.3021">
        <ele>13.199999809265</ele>
        <time>2020-05-28T08:09:24.000Z</time>
      </trkpt>
      <trkpt lat="47.25747" lon="-2.30215">
        <ele>13.199999809265</ele>
        <time>2020-05-28T08:09:26.000Z</time>
      </trkpt>
      <trkpt lat="47.25759" lon="-2.30222">
        <ele>12.800000190735</ele>
        <time>2020-05-28T08:09:28.000Z</time>
      </trkpt>
      <trkpt lat="47.25765" lon="-2.30225">
        <ele>12.39999961853</ele>
        <time>2020-05-28T08:09:29.000Z</time>
      </trkpt>
      <trkpt lat="47.25771" lon="-2.30227">
        <ele>12</ele>
        <time>2020-05-28T08:09:30.000Z</time>
      </trkpt>
      <trkpt lat="47.25777" lon="-2.3023">
        <ele>11.60000038147</ele>
        <time>2020-05-28T08:09:31.000Z</time>
      </trkpt>
      <trkpt lat="47.25783" lon="-2.30233">
        <ele>11.199999809265</ele>
        <time>2020-05-28T08:09:32.000Z</time>
      </trkpt>
      <trkpt lat="47.25816" lon="-2.30252">
        <ele>11.199999809265</ele>
        <time>2020-05-28T08:09:38.000Z</time>
      </trkpt>
      <trkpt lat="47.25846" lon="-2.30265">
        <ele>11.199999809265</ele>
        <time>2020-05-28T08:09:44.000Z</time>
      </trkpt>
      <trkpt lat="47.25868" lon="-2.30269">
        <ele>11.199999809265</ele>
        <time>2020-05-28T08:09:49.000Z</time>
      </trkpt>
      <trkpt lat="47.25871" lon="-2.30267">
        <ele>11.199999809265</ele>
        <time>2020-05-28T08:09:50.000Z</time>
      </trkpt>
      <trkpt lat="47.25879" lon="-2.3026">
        <ele>11.199999809265</ele>
        <time>2020-05-28T08:09:52.000Z</time>
      </trkpt>
      <trkpt lat="47.2589" lon="-2.30239">
        <ele>11.199999809265</ele>
        <time>2020-05-28T08:09:56.000Z</time>
      </trkpt>
      <trkpt lat="47.2589" lon="-2.30218">
        <ele>11.199999809265</ele>
        <time>2020-05-28T08:09:59.000Z</time>
      </trkpt>
      <trkpt lat="47.25884" lon="-2.30191">
        <ele>11.199999809265</ele>
        <time>2020-05-28T08:10:04.000Z</time>
      </trkpt>
      <trkpt lat="47.2588" lon="-2.30173">
        <ele>11.199999809265</ele>
        <time>2020-05-28T08:10:09.000Z</time>
      </trkpt>
      <trkpt lat="47.25882" lon="-2.30171">
        <ele>11.199999809265</ele>
        <time>2020-05-28T08:10:10.000Z</time>
      </trkpt>
      <trkpt lat="47.2589" lon="-2.30174">
        <ele>11.199999809265</ele>
        <time>2020-05-28T08:10:13.000Z</time>
      </trkpt>
      <trkpt lat="47.25892" lon="-2.30175">
        <ele>11.199999809265</ele>
        <time>2020-05-28T08:10:14.000Z</time>
      </trkpt>
      <trkpt lat="47.25906" lon="-2.30173">
        <ele>11.199999809265</ele>
        <time>2020-05-28T08:10:18.000Z</time>
      </trkpt>
      <trkpt lat="47.2592" lon="-2.30169">
        <ele>11.199999809265</ele>
        <time>2020-05-28T08:10:21.000Z</time>
      </trkpt>
      <trkpt lat="47.25934" lon="-2.30167">
        <ele>11.199999809265</ele>
        <time>2020-05-28T08:10:24.000Z</time>
      </trkpt>
      <trkpt lat="47.25945" lon="-2.30163">
        <ele>10.800000190735</ele>
        <time>2020-05-28T08:10:26.000Z</time>
      </trkpt>
      <trkpt lat="47.2595" lon="-2.30157">
        <ele>10.39999961853</ele>
        <time>2020-05-28T08:10:27.000Z</time>
      </trkpt>
      <trkpt lat="47.25955" lon="-2.3015">
        <ele>10</ele>
        <time>2020-05-28T08:10:28.000Z</time>
      </trkpt>
      <trkpt lat="47.2596" lon="-2.30139">
        <ele>9.6000003814697</ele>
        <time>2020-05-28T08:10:29.000Z</time>
      </trkpt>
      <trkpt lat="47.25962" lon="-2.30133">
        <ele>9.1999998092651</ele>
        <time>2020-05-28T08:10:30.000Z</time>
      </trkpt>
      <trkpt lat="47.25964" lon="-2.30123">
        <ele>9.1999998092651</ele>
        <time>2020-05-28T08:10:31.000Z</time>
      </trkpt>
      <trkpt lat="47.25966" lon="-2.30085">
        <ele>9.1999998092651</ele>
        <time>2020-05-28T08:10:35.000Z</time>
      </trkpt>
      <trkpt lat="47.2597" lon="-2.30004">
        <ele>9.1999998092651</ele>
        <time>2020-05-28T08:10:44.000Z</time>
      </trkpt>
      <trkpt lat="47.25974" lon="-2.29966">
        <ele>9.1999998092651</ele>
        <time>2020-05-28T08:10:50.000Z</time>
      </trkpt>
      <trkpt lat="47.25974" lon="-2.29948">
        <ele>9.1999998092651</ele>
        <time>2020-05-28T08:10:55.000Z</time>
      </trkpt>
      <trkpt lat="47.25975" lon="-2.29944">
        <ele>9.1999998092651</ele>
        <time>2020-05-28T08:10:57.000Z</time>
      </trkpt>
      <trkpt lat="47.25977" lon="-2.29939">
        <ele>9.1999998092651</ele>
        <time>2020-05-28T08:11:00.000Z</time>
      </trkpt>
      <trkpt lat="47.25979" lon="-2.29937">
        <ele>9.1999998092651</ele>
        <time>2020-05-28T08:11:01.000Z</time>
      </trkpt>
      <trkpt lat="47.25984" lon="-2.29931">
        <ele>9.1999998092651</ele>
        <time>2020-05-28T08:11:04.000Z</time>
      </trkpt>
      <trkpt lat="47.25989" lon="-2.29924">
        <ele>9.1999998092651</ele>
        <time>2020-05-28T08:11:09.000Z</time>
      </trkpt>
      <trkpt lat="47.25989" lon="-2.29923">
        <ele>9.1999998092651</ele>
        <time>2020-05-28T08:11:10.000Z</time>
      </trkpt>
      <trkpt lat="47.25987" lon="-2.2992">
        <ele>9.1999998092651</ele>
        <time>2020-05-28T08:11:12.000Z</time>
      </trkpt>
      <trkpt lat="47.25982" lon="-2.29913">
        <ele>9.1999998092651</ele>
        <time>2020-05-28T08:11:15.000Z</time>
      </trkpt>
      <trkpt lat="47.25969" lon="-2.29889">
        <ele>9.1999998092651</ele>
        <time>2020-05-28T08:11:21.000Z</time>
      </trkpt>
      <trkpt lat="47.25963" lon="-2.29875">
        <ele>9.1999998092651</ele>
        <time>2020-05-28T08:11:27.000Z</time>
      </trkpt>
      <trkpt lat="47.25963" lon="-2.2987">
        <ele>9.1999998092651</ele>
        <time>2020-05-28T08:11:30.000Z</time>
      </trkpt>
      <trkpt lat="47.25963" lon="-2.29868">
        <ele>9.1999998092651</ele>
        <time>2020-05-28T08:11:33.000Z</time>
      </trkpt>
      <trkpt lat="47.25961" lon="-2.29862">
        <ele>9.1999998092651</ele>
        <time>2020-05-28T08:11:38.000Z</time>
      </trkpt>
      <trkpt lat="47.2596" lon="-2.29859">
        <ele>9.1999998092651</ele>
        <time>2020-05-28T08:11:39.000Z</time>
      </trkpt>
      <trkpt lat="47.25956" lon="-2.29833">
        <ele>9.1999998092651</ele>
        <time>2020-05-28T08:11:45.000Z</time>
      </trkpt>
      <trkpt lat="47.25953" lon="-2.29819">
        <ele>9.1999998092651</ele>
        <time>2020-05-28T08:11:49.000Z</time>
      </trkpt>
      <trkpt lat="47.25952" lon="-2.29814">
        <ele>9.1999998092651</ele>
        <time>2020-05-28T08:11:50.000Z</time>
      </trkpt>
      <trkpt lat="47.25947" lon="-2.2979">
        <ele>9.1999998092651</ele>
        <time>2020-05-28T08:11:56.000Z</time>
      </trkpt>
      <trkpt lat="47.25944" lon="-2.2978">
        <ele>9.1999998092651</ele>
        <time>2020-05-28T08:11:58.000Z</time>
      </trkpt>
      <trkpt lat="47.2594" lon="-2.29767">
        <ele>9.1999998092651</ele>
        <time>2020-05-28T08:12:02.000Z</time>
      </trkpt>
      <trkpt lat="47.25937" lon="-2.29761">
        <ele>9.1999998092651</ele>
        <time>2020-05-28T08:12:04.000Z</time>
      </trkpt>
      <trkpt lat="47.25932" lon="-2.29744">
        <ele>9.1999998092651</ele>
        <time>2020-05-28T08:12:09.000Z</time>
      </trkpt>
      <trkpt lat="47.2593" lon="-2.29719">
        <ele>9.6000003814697</ele>
        <time>2020-05-28T08:12:15.000Z</time>
      </trkpt>
      <trkpt lat="47.2593" lon="-2.29714">
        <ele>10</ele>
        <time>2020-05-28T08:12:16.000Z</time>
      </trkpt>
      <trkpt lat="47.2593" lon="-2.29708">
        <ele>10.39999961853</ele>
        <time>2020-05-28T08:12:17.000Z</time>
      </trkpt>
      <trkpt lat="47.25931" lon="-2.29703">
        <ele>11</ele>
        <time>2020-05-28T08:12:18.000Z</time>
      </trkpt>
      <trkpt lat="47.25932" lon="-2.29697">
        <ele>11.39999961853</ele>
        <time>2020-05-28T08:12:19.000Z</time>
      </trkpt>
      <trkpt lat="47.25932" lon="-2.2969">
        <ele>11.39999961853</ele>
        <time>2020-05-28T08:12:20.000Z</time>
      </trkpt>
      <trkpt lat="47.25932" lon="-2.29651">
        <ele>11.39999961853</ele>
        <time>2020-05-28T08:12:27.000Z</time>
      </trkpt>
      <trkpt lat="47.25932" lon="-2.29639">
        <ele>11.800000190735</ele>
        <time>2020-05-28T08:12:29.000Z</time>
      </trkpt>
      <trkpt lat="47.25933" lon="-2.29635">
        <ele>12.199999809265</ele>
        <time>2020-05-28T08:12:30.000Z</time>
      </trkpt>
      <trkpt lat="47.25934" lon="-2.29631">
        <ele>12.60000038147</ele>
        <time>2020-05-28T08:12:31.000Z</time>
      </trkpt>
      <trkpt lat="47.25937" lon="-2.29629">
        <ele>13</ele>
        <time>2020-05-28T08:12:32.000Z</time>
      </trkpt>
      <trkpt lat="47.2594" lon="-2.29629">
        <ele>13.39999961853</ele>
        <time>2020-05-28T08:12:33.000Z</time>
      </trkpt>
      <trkpt lat="47.25942" lon="-2.29631">
        <ele>13.39999961853</ele>
        <time>2020-05-28T08:12:34.000Z</time>
      </trkpt>
      <trkpt lat="47.2596" lon="-2.29644">
        <ele>13.39999961853</ele>
        <time>2020-05-28T08:12:39.000Z</time>
      </trkpt>
      <trkpt lat="47.25975" lon="-2.29638">
        <ele>13.39999961853</ele>
        <time>2020-05-28T08:12:42.000Z</time>
      </trkpt>
      <trkpt lat="47.2598" lon="-2.29635">
        <ele>13.39999961853</ele>
        <time>2020-05-28T08:12:43.000Z</time>
      </trkpt>
      <trkpt lat="47.26002" lon="-2.29627">
        <ele>13.39999961853</ele>
        <time>2020-05-28T08:12:48.000Z</time>
      </trkpt>
      <trkpt lat="47.2603" lon="-2.29622">
        <ele>13.39999961853</ele>
        <time>2020-05-28T08:12:54.000Z</time>
      </trkpt>
      <trkpt lat="47.26061" lon="-2.29621">
        <ele>13.39999961853</ele>
        <time>2020-05-28T08:13:01.000Z</time>
      </trkpt>
      <trkpt lat="47.26064" lon="-2.2962">
        <ele>13.800000190735</ele>
        <time>2020-05-28T08:13:02.000Z</time>
      </trkpt>
      <trkpt lat="47.26068" lon="-2.29619">
        <ele>14.199999809265</ele>
        <time>2020-05-28T08:13:03.000Z</time>
      </trkpt>
      <trkpt lat="47.26071" lon="-2.29619">
        <ele>14.60000038147</ele>
        <time>2020-05-28T08:13:04.000Z</time>
      </trkpt>
      <trkpt lat="47.26075" lon="-2.29617">
        <ele>15</ele>
        <time>2020-05-28T08:13:05.000Z</time>
      </trkpt>
      <trkpt lat="47.26078" lon="-2.29616">
        <ele>15.39999961853</ele>
        <time>2020-05-28T08:13:06.000Z</time>
      </trkpt>
      <trkpt lat="47.26081" lon="-2.29615">
        <ele>15.39999961853</ele>
        <time>2020-05-28T08:13:07.000Z</time>
      </trkpt>
      <trkpt lat="47.26098" lon="-2.29611">
        <ele>16</ele>
        <time>2020-05-28T08:13:12.000Z</time>
      </trkpt>
      <trkpt lat="47.26101" lon="-2.2961">
        <ele>16.799999237061</ele>
        <time>2020-05-28T08:13:13.000Z</time>
      </trkpt>
      <trkpt lat="47.26105" lon="-2.29609">
        <ele>17.39999961853</ele>
        <time>2020-05-28T08:13:14.000Z</time>
      </trkpt>
      <trkpt lat="47.26108" lon="-2.29608">
        <ele>17.799999237061</ele>
        <time>2020-05-28T08:13:15.000Z</time>
      </trkpt>
      <trkpt lat="47.26118" lon="-2.29602">
        <ele>18.200000762939</ele>
        <time>2020-05-28T08:13:18.000Z</time>
      </trkpt>
      <trkpt lat="47.26122" lon="-2.296">
        <ele>18.60000038147</ele>
        <time>2020-05-28T08:13:19.000Z</time>
      </trkpt>
      <trkpt lat="47.26126" lon="-2.29597">
        <ele>19</ele>
        <time>2020-05-28T08:13:20.000Z</time>
      </trkpt>
      <trkpt lat="47.26129" lon="-2.29595">
        <ele>19.39999961853</ele>
        <time>2020-05-28T08:13:21.000Z</time>
      </trkpt>
      <trkpt lat="47.26133" lon="-2.29592">
        <ele>19.799999237061</ele>
        <time>2020-05-28T08:13:22.000Z</time>
      </trkpt>
      <trkpt lat="47.26148" lon="-2.29584">
        <ele>20.200000762939</ele>
        <time>2020-05-28T08:13:26.000Z</time>
      </trkpt>
      <trkpt lat="47.26151" lon="-2.29582">
        <ele>20.799999237061</ele>
        <time>2020-05-28T08:13:27.000Z</time>
      </trkpt>
      <trkpt lat="47.26154" lon="-2.29581">
        <ele>21.200000762939</ele>
        <time>2020-05-28T08:13:28.000Z</time>
      </trkpt>
      <trkpt lat="47.26158" lon="-2.29579">
        <ele>21.60000038147</ele>
        <time>2020-05-28T08:13:29.000Z</time>
      </trkpt>
      <trkpt lat="47.26162" lon="-2.29577">
        <ele>22</ele>
        <time>2020-05-28T08:13:30.000Z</time>
      </trkpt>
      <trkpt lat="47.26176" lon="-2.29572">
        <ele>22.39999961853</ele>
        <time>2020-05-28T08:13:34.000Z</time>
      </trkpt>
      <trkpt lat="47.2618" lon="-2.29571">
        <ele>22.799999237061</ele>
        <time>2020-05-28T08:13:35.000Z</time>
      </trkpt>
      <trkpt lat="47.26183" lon="-2.29571">
        <ele>23.39999961853</ele>
        <time>2020-05-28T08:13:36.000Z</time>
      </trkpt>
      <trkpt lat="47.26186" lon="-2.2957">
        <ele>23.799999237061</ele>
        <time>2020-05-28T08:13:37.000Z</time>
      </trkpt>
      <trkpt lat="47.26189" lon="-2.29569">
        <ele>24.200000762939</ele>
        <time>2020-05-28T08:13:38.000Z</time>
      </trkpt>
      <trkpt lat="47.26191" lon="-2.29566">
        <ele>24.200000762939</ele>
        <time>2020-05-28T08:13:39.000Z</time>
      </trkpt>
      <trkpt lat="47.26192" lon="-2.29562">
        <ele>24.200000762939</ele>
        <time>2020-05-28T08:13:40.000Z</time>
      </trkpt>
      <trkpt lat="47.26187" lon="-2.29546">
        <ele>24.200000762939</ele>
        <time>2020-05-28T08:13:44.000Z</time>
      </trkpt>
      <trkpt lat="47.26168" lon="-2.29529">
        <ele>24.200000762939</ele>
        <time>2020-05-28T08:13:49.000Z</time>
      </trkpt>
      <trkpt lat="47.26163" lon="-2.29527">
        <ele>24.200000762939</ele>
        <time>2020-05-28T08:13:50.000Z</time>
      </trkpt>
      <trkpt lat="47.26158" lon="-2.29524">
        <ele>24.200000762939</ele>
        <time>2020-05-28T08:13:51.000Z</time>
      </trkpt>
      <trkpt lat="47.26145" lon="-2.2951">
        <ele>24.200000762939</ele>
        <time>2020-05-28T08:13:54.000Z</time>
      </trkpt>
      <trkpt lat="47.26138" lon="-2.29497">
        <ele>24.200000762939</ele>
        <time>2020-05-28T08:13:56.000Z</time>
      </trkpt>
      <trkpt lat="47.26135" lon="-2.2949">
        <ele>24.200000762939</ele>
        <time>2020-05-28T08:13:57.000Z</time>
      </trkpt>
      <trkpt lat="47.26129" lon="-2.29475">
        <ele>24.200000762939</ele>
        <time>2020-05-28T08:13:59.000Z</time>
      </trkpt>
      <trkpt lat="47.26124" lon="-2.29459">
        <ele>24.200000762939</ele>
        <time>2020-05-28T08:14:01.000Z</time>
      </trkpt>
      <trkpt lat="47.26122" lon="-2.29437">
        <ele>24.200000762939</ele>
        <time>2020-05-28T08:14:04.000Z</time>
      </trkpt>
      <trkpt lat="47.26122" lon="-2.29423">
        <ele>24.200000762939</ele>
        <time>2020-05-28T08:14:06.000Z</time>
      </trkpt>
      <trkpt lat="47.26122" lon="-2.29416">
        <ele>24.200000762939</ele>
        <time>2020-05-28T08:14:07.000Z</time>
      </trkpt>
      <trkpt lat="47.26125" lon="-2.29403">
        <ele>24.200000762939</ele>
        <time>2020-05-28T08:14:09.000Z</time>
      </trkpt>
      <trkpt lat="47.26134" lon="-2.29358">
        <ele>24.200000762939</ele>
        <time>2020-05-28T08:14:17.000Z</time>
      </trkpt>
      <trkpt lat="47.26135" lon="-2.29354">
        <ele>24.200000762939</ele>
        <time>2020-05-28T08:14:18.000Z</time>
      </trkpt>
      <trkpt lat="47.2614" lon="-2.29351">
        <ele>24.200000762939</ele>
        <time>2020-05-28T08:14:20.000Z</time>
      </trkpt>
      <trkpt lat="47.26143" lon="-2.29352">
        <ele>23.799999237061</ele>
        <time>2020-05-28T08:14:21.000Z</time>
      </trkpt>
      <trkpt lat="47.26144" lon="-2.29353">
        <ele>23.39999961853</ele>
        <time>2020-05-28T08:14:22.000Z</time>
      </trkpt>
      <trkpt lat="47.26146" lon="-2.29353">
        <ele>23</ele>
        <time>2020-05-28T08:14:23.000Z</time>
      </trkpt>
      <trkpt lat="47.26148" lon="-2.29354">
        <ele>22.60000038147</ele>
        <time>2020-05-28T08:14:24.000Z</time>
      </trkpt>
      <trkpt lat="47.2615" lon="-2.29356">
        <ele>22.200000762939</ele>
        <time>2020-05-28T08:14:25.000Z</time>
      </trkpt>
      <trkpt lat="47.26164" lon="-2.29361">
        <ele>22.200000762939</ele>
        <time>2020-05-28T08:14:30.000Z</time>
      </trkpt>
      <trkpt lat="47.26171" lon="-2.29361">
        <ele>22.60000038147</ele>
        <time>2020-05-28T08:14:32.000Z</time>
      </trkpt>
      <trkpt lat="47.26174" lon="-2.29359">
        <ele>23</ele>
        <time>2020-05-28T08:14:33.000Z</time>
      </trkpt>
      <trkpt lat="47.26178" lon="-2.29357">
        <ele>23.39999961853</ele>
        <time>2020-05-28T08:14:34.000Z</time>
      </trkpt>
      <trkpt lat="47.26182" lon="-2.29355">
        <ele>23.799999237061</ele>
        <time>2020-05-28T08:14:35.000Z</time>
      </trkpt>
      <trkpt lat="47.26185" lon="-2.29352">
        <ele>24.200000762939</ele>
        <time>2020-05-28T08:14:36.000Z</time>
      </trkpt>
      <trkpt lat="47.26197" lon="-2.29339">
        <ele>24.200000762939</ele>
        <time>2020-05-28T08:14:40.000Z</time>
      </trkpt>
      <trkpt lat="47.262" lon="-2.29335">
        <ele>24.60000038147</ele>
        <time>2020-05-28T08:14:41.000Z</time>
      </trkpt>
      <trkpt lat="47.26203" lon="-2.29332">
        <ele>25</ele>
        <time>2020-05-28T08:14:42.000Z</time>
      </trkpt>
      <trkpt lat="47.26205" lon="-2.29328">
        <ele>25.39999961853</ele>
        <time>2020-05-28T08:14:43.000Z</time>
      </trkpt>
      <trkpt lat="47.26208" lon="-2.29324">
        <ele>25.799999237061</ele>
        <time>2020-05-28T08:14:44.000Z</time>
      </trkpt>
      <trkpt lat="47.26211" lon="-2.2932">
        <ele>26.200000762939</ele>
        <time>2020-05-28T08:14:45.000Z</time>
      </trkpt>
      <trkpt lat="47.26214" lon="-2.29316">
        <ele>26.200000762939</ele>
        <time>2020-05-28T08:14:46.000Z</time>
      </trkpt>
      <trkpt lat="47.26237" lon="-2.29295">
        <ele>26.200000762939</ele>
        <time>2020-05-28T08:14:51.000Z</time>
      </trkpt>
      <trkpt lat="47.26267" lon="-2.2928">
        <ele>26.60000038147</ele>
        <time>2020-05-28T08:14:56.000Z</time>
      </trkpt>
      <trkpt lat="47.26272" lon="-2.29277">
        <ele>27</ele>
        <time>2020-05-28T08:14:57.000Z</time>
      </trkpt>
      <trkpt lat="47.26278" lon="-2.29275">
        <ele>27.39999961853</ele>
        <time>2020-05-28T08:14:58.000Z</time>
      </trkpt>
      <trkpt lat="47.26284" lon="-2.29273">
        <ele>27.799999237061</ele>
        <time>2020-05-28T08:14:59.000Z</time>
      </trkpt>
      <trkpt lat="47.26291" lon="-2.29271">
        <ele>28.200000762939</ele>
        <time>2020-05-28T08:15:00.000Z</time>
      </trkpt>
      <trkpt lat="47.26314" lon="-2.29268">
        <ele>28.200000762939</ele>
        <time>2020-05-28T08:15:04.000Z</time>
      </trkpt>
      <trkpt lat="47.26354" lon="-2.29276">
        <ele>28.200000762939</ele>
        <time>2020-05-28T08:15:11.000Z</time>
      </trkpt>
      <trkpt lat="47.2636" lon="-2.29279">
        <ele>28.60000038147</ele>
        <time>2020-05-28T08:15:12.000Z</time>
      </trkpt>
      <trkpt lat="47.26366" lon="-2.29282">
        <ele>29</ele>
        <time>2020-05-28T08:15:13.000Z</time>
      </trkpt>
      <trkpt lat="47.26372" lon="-2.29285">
        <ele>29.39999961853</ele>
        <time>2020-05-28T08:15:14.000Z</time>
      </trkpt>
      <trkpt lat="47.26378" lon="-2.29288">
        <ele>29.799999237061</ele>
        <time>2020-05-28T08:15:15.000Z</time>
      </trkpt>
      <trkpt lat="47.26384" lon="-2.29291">
        <ele>30.200000762939</ele>
        <time>2020-05-28T08:15:16.000Z</time>
      </trkpt>
      <trkpt lat="47.26395" lon="-2.29299">
        <ele>30.200000762939</ele>
        <time>2020-05-28T08:15:18.000Z</time>
      </trkpt>
      <trkpt lat="47.2643" lon="-2.29315">
        <ele>30.200000762939</ele>
        <time>2020-05-28T08:15:24.000Z</time>
      </trkpt>
      <trkpt lat="47.26464" lon="-2.29334">
        <ele>30.200000762939</ele>
        <time>2020-05-28T08:15:30.000Z</time>
      </trkpt>
      <trkpt lat="47.2647" lon="-2.29336">
        <ele>30.200000762939</ele>
        <time>2020-05-28T08:15:31.000Z</time>
      </trkpt>
      <trkpt lat="47.26482" lon="-2.29339">
        <ele>30.200000762939</ele>
        <time>2020-05-28T08:15:33.000Z</time>
      </trkpt>
      <trkpt lat="47.265" lon="-2.29338">
        <ele>30.200000762939</ele>
        <time>2020-05-28T08:15:36.000Z</time>
      </trkpt>
      <trkpt lat="47.26532" lon="-2.29324">
        <ele>30.200000762939</ele>
        <time>2020-05-28T08:15:41.000Z</time>
      </trkpt>
      <trkpt lat="47.26578" lon="-2.29298">
        <ele>30.200000762939</ele>
        <time>2020-05-28T08:15:48.000Z</time>
      </trkpt>
      <trkpt lat="47.26619" lon="-2.29272">
        <ele>30.200000762939</ele>
        <time>2020-05-28T08:15:54.000Z</time>
      </trkpt>
      <trkpt lat="47.26658" lon="-2.29239">
        <ele>30.200000762939</ele>
        <time>2020-05-28T08:16:00.000Z</time>
      </trkpt>
      <trkpt lat="47.26696" lon="-2.29201">
        <ele>29.799999237061</ele>
        <time>2020-05-28T08:16:06.000Z</time>
      </trkpt>
      <trkpt lat="47.26702" lon="-2.29195">
        <ele>29.39999961853</ele>
        <time>2020-05-28T08:16:07.000Z</time>
      </trkpt>
      <trkpt lat="47.26707" lon="-2.29189">
        <ele>29</ele>
        <time>2020-05-28T08:16:08.000Z</time>
      </trkpt>
      <trkpt lat="47.26714" lon="-2.29183">
        <ele>28.60000038147</ele>
        <time>2020-05-28T08:16:09.000Z</time>
      </trkpt>
      <trkpt lat="47.2672" lon="-2.29177">
        <ele>28.200000762939</ele>
        <time>2020-05-28T08:16:10.000Z</time>
      </trkpt>
      <trkpt lat="47.26743" lon="-2.29153">
        <ele>27.799999237061</ele>
        <time>2020-05-28T08:16:14.000Z</time>
      </trkpt>
      <trkpt lat="47.26749" lon="-2.29146">
        <ele>27.39999961853</ele>
        <time>2020-05-28T08:16:15.000Z</time>
      </trkpt>
      <trkpt lat="47.26756" lon="-2.2914">
        <ele>27</ele>
        <time>2020-05-28T08:16:16.000Z</time>
      </trkpt>
      <trkpt lat="47.26762" lon="-2.29134">
        <ele>26.60000038147</ele>
        <time>2020-05-28T08:16:17.000Z</time>
      </trkpt>
      <trkpt lat="47.26768" lon="-2.29127">
        <ele>26.200000762939</ele>
        <time>2020-05-28T08:16:18.000Z</time>
      </trkpt>
      <trkpt lat="47.26795" lon="-2.291">
        <ele>26.200000762939</ele>
        <time>2020-05-28T08:16:22.000Z</time>
      </trkpt>
      <trkpt lat="47.26801" lon="-2.29094">
        <ele>25.60000038147</ele>
        <time>2020-05-28T08:16:23.000Z</time>
      </trkpt>
      <trkpt lat="47.26809" lon="-2.29087">
        <ele>25.200000762939</ele>
        <time>2020-05-28T08:16:24.000Z</time>
      </trkpt>
      <trkpt lat="47.26815" lon="-2.2908">
        <ele>24.799999237061</ele>
        <time>2020-05-28T08:16:25.000Z</time>
      </trkpt>
      <trkpt lat="47.26822" lon="-2.29073">
        <ele>24.39999961853</ele>
        <time>2020-05-28T08:16:26.000Z</time>
      </trkpt>
      <trkpt lat="47.26829" lon="-2.29066">
        <ele>24</ele>
        <time>2020-05-28T08:16:27.000Z</time>
      </trkpt>
      <trkpt lat="47.26842" lon="-2.29053">
        <ele>24</ele>
        <time>2020-05-28T08:16:29.000Z</time>
      </trkpt>
      <trkpt lat="47.26887" lon="-2.2901">
        <ele>24</ele>
        <time>2020-05-28T08:16:36.000Z</time>
      </trkpt>
      <trkpt lat="47.26907" lon="-2.28996">
        <ele>24</ele>
        <time>2020-05-28T08:16:39.000Z</time>
      </trkpt>
      <trkpt lat="47.26914" lon="-2.28993">
        <ele>23.60000038147</ele>
        <time>2020-05-28T08:16:40.000Z</time>
      </trkpt>
      <trkpt lat="47.2692" lon="-2.2899">
        <ele>23</ele>
        <time>2020-05-28T08:16:41.000Z</time>
      </trkpt>
      <trkpt lat="47.26927" lon="-2.28988">
        <ele>22.60000038147</ele>
        <time>2020-05-28T08:16:42.000Z</time>
      </trkpt>
      <trkpt lat="47.26934" lon="-2.28987">
        <ele>22.200000762939</ele>
        <time>2020-05-28T08:16:43.000Z</time>
      </trkpt>
      <trkpt lat="47.26942" lon="-2.28987">
        <ele>21.799999237061</ele>
        <time>2020-05-28T08:16:44.000Z</time>
      </trkpt>
      <trkpt lat="47.26956" lon="-2.2899">
        <ele>21.799999237061</ele>
        <time>2020-05-28T08:16:46.000Z</time>
      </trkpt>
      <trkpt lat="47.27001" lon="-2.29003">
        <ele>21.799999237061</ele>
        <time>2020-05-28T08:16:52.000Z</time>
      </trkpt>
      <trkpt lat="47.27027" lon="-2.29011">
        <ele>21.39999961853</ele>
        <time>2020-05-28T08:16:56.000Z</time>
      </trkpt>
      <trkpt lat="47.2703" lon="-2.29012">
        <ele>20.799999237061</ele>
        <time>2020-05-28T08:16:57.000Z</time>
      </trkpt>
      <trkpt lat="47.27032" lon="-2.29013">
        <ele>20.39999961853</ele>
        <time>2020-05-28T08:16:58.000Z</time>
      </trkpt>
      <trkpt lat="47.27034" lon="-2.29014">
        <ele>20</ele>
        <time>2020-05-28T08:16:59.000Z</time>
      </trkpt>
      <trkpt lat="47.27035" lon="-2.29014">
        <ele>19.60000038147</ele>
        <time>2020-05-28T08:17:00.000Z</time>
      </trkpt>
      <trkpt lat="47.27041" lon="-2.29019">
        <ele>19.60000038147</ele>
        <time>2020-05-28T08:17:04.000Z</time>
      </trkpt>
      <trkpt lat="47.27047" lon="-2.29034">
        <ele>19.60000038147</ele>
        <time>2020-05-28T08:17:11.000Z</time>
      </trkpt>
      <trkpt lat="47.27052" lon="-2.29049">
        <ele>19.60000038147</ele>
        <time>2020-05-28T08:17:18.000Z</time>
      </trkpt>
      <trkpt lat="47.27055" lon="-2.29052">
        <ele>19.60000038147</ele>
        <time>2020-05-28T08:17:20.000Z</time>
      </trkpt>
      <trkpt lat="47.27058" lon="-2.29054">
        <ele>19.60000038147</ele>
        <time>2020-05-28T08:17:22.000Z</time>
      </trkpt>
      <trkpt lat="47.27062" lon="-2.29055">
        <ele>19.60000038147</ele>
        <time>2020-05-28T08:17:26.000Z</time>
      </trkpt>
      <trkpt lat="47.27066" lon="-2.29057">
        <ele>19.60000038147</ele>
        <time>2020-05-28T08:17:58.000Z</time>
      </trkpt>
      <trkpt lat="47.27075" lon="-2.29057">
        <ele>19.60000038147</ele>
        <time>2020-05-28T08:18:04.000Z</time>
      </trkpt>
      <trkpt lat="47.27079" lon="-2.29061">
        <ele>19.60000038147</ele>
        <time>2020-05-28T08:18:10.000Z</time>
      </trkpt>
      <trkpt lat="47.27087" lon="-2.29061">
        <ele>19.60000038147</ele>
        <time>2020-05-28T08:18:18.000Z</time>
      </trkpt>
      <trkpt lat="47.27088" lon="-2.29062">
        <ele>19.60000038147</ele>
        <time>2020-05-28T08:18:19.000Z</time>
      </trkpt>
      <trkpt lat="47.27096" lon="-2.29067">
        <ele>19.60000038147</ele>
        <time>2020-05-28T08:18:23.000Z</time>
      </trkpt>
      <trkpt lat="47.27119" lon="-2.2908">
        <ele>19.60000038147</ele>
        <time>2020-05-28T08:18:30.000Z</time>
      </trkpt>
      <trkpt lat="47.27142" lon="-2.29091">
        <ele>19.60000038147</ele>
        <time>2020-05-28T08:18:36.000Z</time>
      </trkpt>
      <trkpt lat="47.27168" lon="-2.29106">
        <ele>19.60000038147</ele>
        <time>2020-05-28T08:18:43.000Z</time>
      </trkpt>
      <trkpt lat="47.27183" lon="-2.29104">
        <ele>19.60000038147</ele>
        <time>2020-05-28T08:18:47.000Z</time>
      </trkpt>
      <trkpt lat="47.27203" lon="-2.29088">
        <ele>19.60000038147</ele>
        <time>2020-05-28T08:18:53.000Z</time>
      </trkpt>
      <trkpt lat="47.27209" lon="-2.29081">
        <ele>19.200000762939</ele>
        <time>2020-05-28T08:18:55.000Z</time>
      </trkpt>
      <trkpt lat="47.27212" lon="-2.29078">
        <ele>18.799999237061</ele>
        <time>2020-05-28T08:18:56.000Z</time>
      </trkpt>
      <trkpt lat="47.27215" lon="-2.29075">
        <ele>18.39999961853</ele>
        <time>2020-05-28T08:18:57.000Z</time>
      </trkpt>
      <trkpt lat="47.27218" lon="-2.29073">
        <ele>17.60000038147</ele>
        <time>2020-05-28T08:18:58.000Z</time>
      </trkpt>
      <trkpt lat="47.27223" lon="-2.29069">
        <ele>17.60000038147</ele>
        <time>2020-05-28T08:19:00.000Z</time>
      </trkpt>
      <trkpt lat="47.27235" lon="-2.29051">
        <ele>17.60000038147</ele>
        <time>2020-05-28T08:19:06.000Z</time>
      </trkpt>
      <trkpt lat="47.2725" lon="-2.29038">
        <ele>17.60000038147</ele>
        <time>2020-05-28T08:19:12.000Z</time>
      </trkpt>
      <trkpt lat="47.27262" lon="-2.29025">
        <ele>17.60000038147</ele>
        <time>2020-05-28T08:19:17.000Z</time>
      </trkpt>
      <trkpt lat="47.27277" lon="-2.29">
        <ele>17.60000038147</ele>
        <time>2020-05-28T08:19:23.000Z</time>
      </trkpt>
      <trkpt lat="47.27294" lon="-2.28978">
        <ele>17.60000038147</ele>
        <time>2020-05-28T08:19:30.000Z</time>
      </trkpt>
      <trkpt lat="47.27303" lon="-2.28961">
        <ele>17.60000038147</ele>
        <time>2020-05-28T08:19:35.000Z</time>
      </trkpt>
      <trkpt lat="47.27313" lon="-2.28947">
        <ele>17.60000038147</ele>
        <time>2020-05-28T08:19:40.000Z</time>
      </trkpt>
      <trkpt lat="47.27319" lon="-2.28953">
        <ele>17.60000038147</ele>
        <time>2020-05-28T08:19:43.000Z</time>
      </trkpt>
      <trkpt lat="47.27321" lon="-2.28952">
        <ele>17.60000038147</ele>
        <time>2020-05-28T08:19:44.000Z</time>
      </trkpt>
      <trkpt lat="47.27328" lon="-2.28946">
        <ele>17.60000038147</ele>
        <time>2020-05-28T08:19:46.000Z</time>
      </trkpt>
      <trkpt lat="47.27336" lon="-2.2892">
        <ele>17.60000038147</ele>
        <time>2020-05-28T08:19:50.000Z</time>
      </trkpt>
      <trkpt lat="47.27345" lon="-2.28876">
        <ele>17.60000038147</ele>
        <time>2020-05-28T08:19:56.000Z</time>
      </trkpt>
      <trkpt lat="47.27355" lon="-2.28825">
        <ele>17.60000038147</ele>
        <time>2020-05-28T08:20:03.000Z</time>
      </trkpt>
      <trkpt lat="47.27355" lon="-2.2881">
        <ele>17.60000038147</ele>
        <time>2020-05-28T08:20:05.000Z</time>
      </trkpt>
      <trkpt lat="47.27352" lon="-2.28799">
        <ele>17.60000038147</ele>
        <time>2020-05-28T08:20:07.000Z</time>
      </trkpt>
      <trkpt lat="47.27343" lon="-2.28788">
        <ele>17.60000038147</ele>
        <time>2020-05-28T08:20:10.000Z</time>
      </trkpt>
      <trkpt lat="47.27338" lon="-2.28785">
        <ele>17.60000038147</ele>
        <time>2020-05-28T08:20:11.000Z</time>
      </trkpt>
      <trkpt lat="47.27329" lon="-2.28779">
        <ele>17.60000038147</ele>
        <time>2020-05-28T08:20:13.000Z</time>
      </trkpt>
      <trkpt lat="47.27321" lon="-2.28767">
        <ele>17.60000038147</ele>
        <time>2020-05-28T08:20:16.000Z</time>
      </trkpt>
      <trkpt lat="47.27319" lon="-2.28755">
        <ele>17.60000038147</ele>
        <time>2020-05-28T08:20:18.000Z</time>
      </trkpt>
      <trkpt lat="47.27319" lon="-2.28747">
        <ele>17.60000038147</ele>
        <time>2020-05-28T08:20:19.000Z</time>
      </trkpt>
      <trkpt lat="47.27325" lon="-2.28715">
        <ele>17.60000038147</ele>
        <time>2020-05-28T08:20:23.000Z</time>
      </trkpt>
      <trkpt lat="47.27327" lon="-2.28706">
        <ele>17.60000038147</ele>
        <time>2020-05-28T08:20:24.000Z</time>
      </trkpt>
      <trkpt lat="47.27329" lon="-2.28698">
        <ele>17.60000038147</ele>
        <time>2020-05-28T08:20:25.000Z</time>
      </trkpt>
      <trkpt lat="47.27341" lon="-2.2866">
        <ele>17.60000038147</ele>
        <time>2020-05-28T08:20:30.000Z</time>
      </trkpt>
      <trkpt lat="47.27351" lon="-2.28627">
        <ele>17.60000038147</ele>
        <time>2020-05-28T08:20:35.000Z</time>
      </trkpt>
      <trkpt lat="47.2735" lon="-2.28616">
        <ele>17.60000038147</ele>
        <time>2020-05-28T08:20:37.000Z</time>
      </trkpt>
      <trkpt lat="47.27347" lon="-2.28613">
        <ele>17.60000038147</ele>
        <time>2020-05-28T08:20:38.000Z</time>
      </trkpt>
      <trkpt lat="47.27336" lon="-2.2861">
        <ele>17.60000038147</ele>
        <time>2020-05-28T08:20:41.000Z</time>
      </trkpt>
      <trkpt lat="47.27331" lon="-2.28609">
        <ele>17.60000038147</ele>
        <time>2020-05-28T08:20:42.000Z</time>
      </trkpt>
      <trkpt lat="47.27326" lon="-2.28607">
        <ele>17.60000038147</ele>
        <time>2020-05-28T08:20:43.000Z</time>
      </trkpt>
      <trkpt lat="47.27309" lon="-2.286">
        <ele>17.60000038147</ele>
        <time>2020-05-28T08:20:47.000Z</time>
      </trkpt>
      <trkpt lat="47.27281" lon="-2.28593">
        <ele>17.60000038147</ele>
        <time>2020-05-28T08:20:54.000Z</time>
      </trkpt>
      <trkpt lat="47.27264" lon="-2.28589">
        <ele>18</ele>
        <time>2020-05-28T08:20:58.000Z</time>
      </trkpt>
      <trkpt lat="47.27259" lon="-2.28588">
        <ele>18.39999961853</ele>
        <time>2020-05-28T08:20:59.000Z</time>
      </trkpt>
      <trkpt lat="47.27254" lon="-2.28588">
        <ele>18.799999237061</ele>
        <time>2020-05-28T08:21:00.000Z</time>
      </trkpt>
      <trkpt lat="47.2725" lon="-2.28588">
        <ele>19.200000762939</ele>
        <time>2020-05-28T08:21:01.000Z</time>
      </trkpt>
      <trkpt lat="47.27245" lon="-2.28588">
        <ele>19.60000038147</ele>
        <time>2020-05-28T08:21:02.000Z</time>
      </trkpt>
      <trkpt lat="47.27235" lon="-2.2859">
        <ele>19.60000038147</ele>
        <time>2020-05-28T08:21:04.000Z</time>
      </trkpt>
      <trkpt lat="47.27211" lon="-2.28593">
        <ele>19.60000038147</ele>
        <time>2020-05-28T08:21:08.000Z</time>
      </trkpt>
      <trkpt lat="47.272" lon="-2.28596">
        <ele>19.60000038147</ele>
        <time>2020-05-28T08:21:10.000Z</time>
      </trkpt>
      <trkpt lat="47.27181" lon="-2.28586">
        <ele>20</ele>
        <time>2020-05-28T08:21:14.000Z</time>
      </trkpt>
      <trkpt lat="47.27178" lon="-2.2858">
        <ele>20.39999961853</ele>
        <time>2020-05-28T08:21:15.000Z</time>
      </trkpt>
      <trkpt lat="47.27176" lon="-2.28574">
        <ele>20.799999237061</ele>
        <time>2020-05-28T08:21:16.000Z</time>
      </trkpt>
      <trkpt lat="47.27174" lon="-2.28567">
        <ele>21.200000762939</ele>
        <time>2020-05-28T08:21:17.000Z</time>
      </trkpt>
      <trkpt lat="47.27172" lon="-2.28559">
        <ele>21.60000038147</ele>
        <time>2020-05-28T08:21:18.000Z</time>
      </trkpt>
      <trkpt lat="47.2717" lon="-2.28552">
        <ele>21.60000038147</ele>
        <time>2020-05-28T08:21:19.000Z</time>
      </trkpt>
      <trkpt lat="47.27164" lon="-2.28533">
        <ele>21.60000038147</ele>
        <time>2020-05-28T08:21:22.000Z</time>
      </trkpt>
      <trkpt lat="47.27162" lon="-2.28521">
        <ele>21.60000038147</ele>
        <time>2020-05-28T08:21:24.000Z</time>
      </trkpt>
      <trkpt lat="47.27158" lon="-2.28497">
        <ele>21.60000038147</ele>
        <time>2020-05-28T08:21:28.000Z</time>
      </trkpt>
      <trkpt lat="47.27156" lon="-2.28478">
        <ele>22.200000762939</ele>
        <time>2020-05-28T08:21:31.000Z</time>
      </trkpt>
      <trkpt lat="47.27155" lon="-2.28472">
        <ele>22.60000038147</ele>
        <time>2020-05-28T08:21:32.000Z</time>
      </trkpt>
      <trkpt lat="47.27155" lon="-2.28465">
        <ele>23</ele>
        <time>2020-05-28T08:21:33.000Z</time>
      </trkpt>
      <trkpt lat="47.27154" lon="-2.28458">
        <ele>23.39999961853</ele>
        <time>2020-05-28T08:21:34.000Z</time>
      </trkpt>
      <trkpt lat="47.27153" lon="-2.28451">
        <ele>23.799999237061</ele>
        <time>2020-05-28T08:21:35.000Z</time>
      </trkpt>
      <trkpt lat="47.27147" lon="-2.28396">
        <ele>23.799999237061</ele>
        <time>2020-05-28T08:21:42.000Z</time>
      </trkpt>
      <trkpt lat="47.27147" lon="-2.28387">
        <ele>23.799999237061</ele>
        <time>2020-05-28T08:21:43.000Z</time>
      </trkpt>
      <trkpt lat="47.27145" lon="-2.28369">
        <ele>24.200000762939</ele>
        <time>2020-05-28T08:21:45.000Z</time>
      </trkpt>
      <trkpt lat="47.27144" lon="-2.2836">
        <ele>24.60000038147</ele>
        <time>2020-05-28T08:21:46.000Z</time>
      </trkpt>
      <trkpt lat="47.27142" lon="-2.2835">
        <ele>25</ele>
        <time>2020-05-28T08:21:47.000Z</time>
      </trkpt>
      <trkpt lat="47.27141" lon="-2.2834">
        <ele>25.39999961853</ele>
        <time>2020-05-28T08:21:48.000Z</time>
      </trkpt>
      <trkpt lat="47.27139" lon="-2.2833">
        <ele>25.799999237061</ele>
        <time>2020-05-28T08:21:49.000Z</time>
      </trkpt>
      <trkpt lat="47.27129" lon="-2.28294">
        <ele>25.799999237061</ele>
        <time>2020-05-28T08:21:53.000Z</time>
      </trkpt>
      <trkpt lat="47.27114" lon="-2.28237">
        <ele>25.799999237061</ele>
        <time>2020-05-28T08:22:00.000Z</time>
      </trkpt>
      <trkpt lat="47.27118" lon="-2.28199">
        <ele>25.799999237061</ele>
        <time>2020-05-28T08:22:04.000Z</time>
      </trkpt>
      <trkpt lat="47.27124" lon="-2.28158">
        <ele>25.799999237061</ele>
        <time>2020-05-28T08:22:09.000Z</time>
      </trkpt>
      <trkpt lat="47.27127" lon="-2.28152">
        <ele>25.799999237061</ele>
        <time>2020-05-28T08:22:10.000Z</time>
      </trkpt>
      <trkpt lat="47.27137" lon="-2.28147">
        <ele>25.799999237061</ele>
        <time>2020-05-28T08:22:13.000Z</time>
      </trkpt>
      <trkpt lat="47.27141" lon="-2.28147">
        <ele>25.799999237061</ele>
        <time>2020-05-28T08:22:14.000Z</time>
      </trkpt>
      <trkpt lat="47.27149" lon="-2.28145">
        <ele>25.799999237061</ele>
        <time>2020-05-28T08:22:16.000Z</time>
      </trkpt>
      <trkpt lat="47.27153" lon="-2.28136">
        <ele>25.799999237061</ele>
        <time>2020-05-28T08:22:18.000Z</time>
      </trkpt>
      <trkpt lat="47.2715" lon="-2.28116">
        <ele>25.799999237061</ele>
        <time>2020-05-28T08:22:21.000Z</time>
      </trkpt>
      <trkpt lat="47.27149" lon="-2.28109">
        <ele>25.799999237061</ele>
        <time>2020-05-28T08:22:22.000Z</time>
      </trkpt>
      <trkpt lat="47.27143" lon="-2.28068">
        <ele>25.799999237061</ele>
        <time>2020-05-28T08:22:28.000Z</time>
      </trkpt>
      <trkpt lat="47.2714" lon="-2.28056">
        <ele>25.799999237061</ele>
        <time>2020-05-28T08:22:30.000Z</time>
      </trkpt>
      <trkpt lat="47.27134" lon="-2.2805">
        <ele>25.799999237061</ele>
        <time>2020-05-28T08:22:32.000Z</time>
      </trkpt>
      <trkpt lat="47.27119" lon="-2.28043">
        <ele>25.799999237061</ele>
        <time>2020-05-28T08:22:36.000Z</time>
      </trkpt>
      <trkpt lat="47.27116" lon="-2.28028">
        <ele>26.200000762939</ele>
        <time>2020-05-28T08:22:38.000Z</time>
      </trkpt>
      <trkpt lat="47.27115" lon="-2.28021">
        <ele>26.60000038147</ele>
        <time>2020-05-28T08:22:39.000Z</time>
      </trkpt>
      <trkpt lat="47.27114" lon="-2.28013">
        <ele>27</ele>
        <time>2020-05-28T08:22:40.000Z</time>
      </trkpt>
      <trkpt lat="47.27113" lon="-2.28006">
        <ele>28</ele>
        <time>2020-05-28T08:22:41.000Z</time>
      </trkpt>
      <trkpt lat="47.27111" lon="-2.27999">
        <ele>28</ele>
        <time>2020-05-28T08:22:42.000Z</time>
      </trkpt>
      <trkpt lat="47.27104" lon="-2.27988">
        <ele>28</ele>
        <time>2020-05-28T08:22:44.000Z</time>
      </trkpt>
      <trkpt lat="47.2709" lon="-2.27982">
        <ele>28</ele>
        <time>2020-05-28T08:22:47.000Z</time>
      </trkpt>
      <trkpt lat="47.27086" lon="-2.2798">
        <ele>28</ele>
        <time>2020-05-28T08:22:48.000Z</time>
      </trkpt>
      <trkpt lat="47.27077" lon="-2.27974">
        <ele>28</ele>
        <time>2020-05-28T08:22:50.000Z</time>
      </trkpt>
      <trkpt lat="47.27074" lon="-2.27969">
        <ele>28.39999961853</ele>
        <time>2020-05-28T08:22:51.000Z</time>
      </trkpt>
      <trkpt lat="47.27071" lon="-2.27964">
        <ele>28.799999237061</ele>
        <time>2020-05-28T08:22:52.000Z</time>
      </trkpt>
      <trkpt lat="47.27069" lon="-2.27957">
        <ele>29.200000762939</ele>
        <time>2020-05-28T08:22:53.000Z</time>
      </trkpt>
      <trkpt lat="47.27067" lon="-2.27951">
        <ele>29.60000038147</ele>
        <time>2020-05-28T08:22:54.000Z</time>
      </trkpt>
      <trkpt lat="47.27066" lon="-2.27943">
        <ele>30</ele>
        <time>2020-05-28T08:22:55.000Z</time>
      </trkpt>
      <trkpt lat="47.27065" lon="-2.27936">
        <ele>30</ele>
        <time>2020-05-28T08:22:56.000Z</time>
      </trkpt>
      <trkpt lat="47.2707" lon="-2.27906">
        <ele>30</ele>
        <time>2020-05-28T08:23:00.000Z</time>
      </trkpt>
      <trkpt lat="47.27082" lon="-2.27889">
        <ele>30</ele>
        <time>2020-05-28T08:23:03.000Z</time>
      </trkpt>
      <trkpt lat="47.27086" lon="-2.27884">
        <ele>30</ele>
        <time>2020-05-28T08:23:04.000Z</time>
      </trkpt>
      <trkpt lat="47.27095" lon="-2.27871">
        <ele>30</ele>
        <time>2020-05-28T08:23:06.000Z</time>
      </trkpt>
      <trkpt lat="47.271" lon="-2.27854">
        <ele>30</ele>
        <time>2020-05-28T08:23:08.000Z</time>
      </trkpt>
      <trkpt lat="47.27107" lon="-2.27827">
        <ele>29.60000038147</ele>
        <time>2020-05-28T08:23:11.000Z</time>
      </trkpt>
      <trkpt lat="47.27109" lon="-2.27818">
        <ele>29</ele>
        <time>2020-05-28T08:23:12.000Z</time>
      </trkpt>
      <trkpt lat="47.27111" lon="-2.2781">
        <ele>28.60000038147</ele>
        <time>2020-05-28T08:23:13.000Z</time>
      </trkpt>
      <trkpt lat="47.27111" lon="-2.27802">
        <ele>28.200000762939</ele>
        <time>2020-05-28T08:23:14.000Z</time>
      </trkpt>
      <trkpt lat="47.2711" lon="-2.27794">
        <ele>27.60000038147</ele>
        <time>2020-05-28T08:23:15.000Z</time>
      </trkpt>
      <trkpt lat="47.27104" lon="-2.27781">
        <ele>27.60000038147</ele>
        <time>2020-05-28T08:23:17.000Z</time>
      </trkpt>
      <trkpt lat="47.271" lon="-2.27769">
        <ele>27.200000762939</ele>
        <time>2020-05-28T08:23:19.000Z</time>
      </trkpt>
      <trkpt lat="47.27098" lon="-2.27764">
        <ele>26.799999237061</ele>
        <time>2020-05-28T08:23:20.000Z</time>
      </trkpt>
      <trkpt lat="47.27095" lon="-2.27759">
        <ele>26.39999961853</ele>
        <time>2020-05-28T08:23:21.000Z</time>
      </trkpt>
      <trkpt lat="47.27091" lon="-2.27755">
        <ele>26</ele>
        <time>2020-05-28T08:23:22.000Z</time>
      </trkpt>
      <trkpt lat="47.27086" lon="-2.27751">
        <ele>25.60000038147</ele>
        <time>2020-05-28T08:23:23.000Z</time>
      </trkpt>
      <trkpt lat="47.27075" lon="-2.27745">
        <ele>25.60000038147</ele>
        <time>2020-05-28T08:23:25.000Z</time>
      </trkpt>
      <trkpt lat="47.27038" lon="-2.27731">
        <ele>25</ele>
        <time>2020-05-28T08:23:31.000Z</time>
      </trkpt>
      <trkpt lat="47.27032" lon="-2.27729">
        <ele>24.60000038147</ele>
        <time>2020-05-28T08:23:32.000Z</time>
      </trkpt>
      <trkpt lat="47.27027" lon="-2.27726">
        <ele>24.200000762939</ele>
        <time>2020-05-28T08:23:33.000Z</time>
      </trkpt>
      <trkpt lat="47.27022" lon="-2.27721">
        <ele>23.799999237061</ele>
        <time>2020-05-28T08:23:34.000Z</time>
      </trkpt>
      <trkpt lat="47.2702" lon="-2.27716">
        <ele>23.39999961853</ele>
        <time>2020-05-28T08:23:35.000Z</time>
      </trkpt>
      <trkpt lat="47.27024" lon="-2.27695">
        <ele>23.39999961853</ele>
        <time>2020-05-28T08:23:38.000Z</time>
      </trkpt>
      <trkpt lat="47.27036" lon="-2.27676">
        <ele>23.39999961853</ele>
        <time>2020-05-28T08:23:41.000Z</time>
      </trkpt>
      <trkpt lat="47.27046" lon="-2.27663">
        <ele>23.39999961853</ele>
        <time>2020-05-28T08:23:43.000Z</time>
      </trkpt>
      <trkpt lat="47.27083" lon="-2.27632">
        <ele>23.39999961853</ele>
        <time>2020-05-28T08:23:49.000Z</time>
      </trkpt>
      <trkpt lat="47.27123" lon="-2.27606">
        <ele>23.39999961853</ele>
        <time>2020-05-28T08:23:55.000Z</time>
      </trkpt>
      <trkpt lat="47.27136" lon="-2.27593">
        <ele>23.39999961853</ele>
        <time>2020-05-28T08:23:57.000Z</time>
      </trkpt>
      <trkpt lat="47.27145" lon="-2.27576">
        <ele>23.39999961853</ele>
        <time>2020-05-28T08:23:59.000Z</time>
      </trkpt>
      <trkpt lat="47.27151" lon="-2.27548">
        <ele>23.39999961853</ele>
        <time>2020-05-28T08:24:02.000Z</time>
      </trkpt>
      <trkpt lat="47.27149" lon="-2.27517">
        <ele>23.39999961853</ele>
        <time>2020-05-28T08:24:05.000Z</time>
      </trkpt>
      <trkpt lat="47.27149" lon="-2.27507">
        <ele>23.39999961853</ele>
        <time>2020-05-28T08:24:06.000Z</time>
      </trkpt>
      <trkpt lat="47.27147" lon="-2.2748">
        <ele>23.39999961853</ele>
        <time>2020-05-28T08:24:09.000Z</time>
      </trkpt>
      <trkpt lat="47.27144" lon="-2.27461">
        <ele>23.39999961853</ele>
        <time>2020-05-28T08:24:11.000Z</time>
      </trkpt>
      <trkpt lat="47.27135" lon="-2.27404">
        <ele>23.39999961853</ele>
        <time>2020-05-28T08:24:17.000Z</time>
      </trkpt>
      <trkpt lat="47.27124" lon="-2.27341">
        <ele>23.39999961853</ele>
        <time>2020-05-28T08:24:23.000Z</time>
      </trkpt>
      <trkpt lat="47.27121" lon="-2.27309">
        <ele>22.799999237061</ele>
        <time>2020-05-28T08:24:26.000Z</time>
      </trkpt>
      <trkpt lat="47.27119" lon="-2.27299">
        <ele>22.39999961853</ele>
        <time>2020-05-28T08:24:27.000Z</time>
      </trkpt>
      <trkpt lat="47.27117" lon="-2.27289">
        <ele>22</ele>
        <time>2020-05-28T08:24:28.000Z</time>
      </trkpt>
      <trkpt lat="47.27114" lon="-2.2728">
        <ele>21.60000038147</ele>
        <time>2020-05-28T08:24:29.000Z</time>
      </trkpt>
      <trkpt lat="47.27111" lon="-2.27272">
        <ele>21.200000762939</ele>
        <time>2020-05-28T08:24:30.000Z</time>
      </trkpt>
      <trkpt lat="47.27102" lon="-2.27254">
        <ele>21.200000762939</ele>
        <time>2020-05-28T08:24:32.000Z</time>
      </trkpt>
      <trkpt lat="47.27097" lon="-2.27246">
        <ele>21.200000762939</ele>
        <time>2020-05-28T08:24:33.000Z</time>
      </trkpt>
      <trkpt lat="47.27082" lon="-2.27221">
        <ele>20.799999237061</ele>
        <time>2020-05-28T08:24:36.000Z</time>
      </trkpt>
      <trkpt lat="47.27077" lon="-2.27212">
        <ele>20.200000762939</ele>
        <time>2020-05-28T08:24:37.000Z</time>
      </trkpt>
      <trkpt lat="47.27072" lon="-2.27204">
        <ele>19.799999237061</ele>
        <time>2020-05-28T08:24:38.000Z</time>
      </trkpt>
      <trkpt lat="47.27068" lon="-2.27196">
        <ele>19.39999961853</ele>
        <time>2020-05-28T08:24:39.000Z</time>
      </trkpt>
      <trkpt lat="47.27063" lon="-2.27189">
        <ele>18.799999237061</ele>
        <time>2020-05-28T08:24:40.000Z</time>
      </trkpt>
      <trkpt lat="47.27059" lon="-2.27182">
        <ele>18.39999961853</ele>
        <time>2020-05-28T08:24:41.000Z</time>
      </trkpt>
      <trkpt lat="47.27055" lon="-2.27176">
        <ele>18</ele>
        <time>2020-05-28T08:24:42.000Z</time>
      </trkpt>
      <trkpt lat="47.27052" lon="-2.27172">
        <ele>17.60000038147</ele>
        <time>2020-05-28T08:24:43.000Z</time>
      </trkpt>
      <trkpt lat="47.27049" lon="-2.27167">
        <ele>16.39999961853</ele>
        <time>2020-05-28T08:24:44.000Z</time>
      </trkpt>
      <trkpt lat="47.27046" lon="-2.27164">
        <ele>15.800000190735</ele>
        <time>2020-05-28T08:24:45.000Z</time>
      </trkpt>
      <trkpt lat="47.27043" lon="-2.2716">
        <ele>15.199999809265</ele>
        <time>2020-05-28T08:24:46.000Z</time>
      </trkpt>
      <trkpt lat="47.27041" lon="-2.27156">
        <ele>14.60000038147</ele>
        <time>2020-05-28T08:24:47.000Z</time>
      </trkpt>
      <trkpt lat="47.27039" lon="-2.27153">
        <ele>14.199999809265</ele>
        <time>2020-05-28T08:24:48.000Z</time>
      </trkpt>
      <trkpt lat="47.27038" lon="-2.27151">
        <ele>13.800000190735</ele>
        <time>2020-05-28T08:24:49.000Z</time>
      </trkpt>
      <trkpt lat="47.27037" lon="-2.27149">
        <ele>13.39999961853</ele>
        <time>2020-05-28T08:24:50.000Z</time>
      </trkpt>
      <trkpt lat="47.27036" lon="-2.27148">
        <ele>13</ele>
        <time>2020-05-28T08:24:51.000Z</time>
      </trkpt>
      <trkpt lat="47.27035" lon="-2.27147">
        <ele>12.60000038147</ele>
        <time>2020-05-28T08:24:52.000Z</time>
      </trkpt>
      <trkpt lat="47.27034" lon="-2.27148">
        <ele>12.60000038147</ele>
        <time>2020-05-28T08:24:53.000Z</time>
      </trkpt>
      <trkpt lat="47.27029" lon="-2.27157">
        <ele>12.60000038147</ele>
        <time>2020-05-28T08:24:58.000Z</time>
      </trkpt>
      <trkpt lat="47.27023" lon="-2.27163">
        <ele>12.60000038147</ele>
        <time>2020-05-28T08:25:04.000Z</time>
      </trkpt>
      <trkpt lat="47.27019" lon="-2.27169">
        <ele>12.60000038147</ele>
        <time>2020-05-28T08:25:10.000Z</time>
      </trkpt>
      <trkpt lat="47.26999" lon="-2.27171">
        <ele>14.800000190735</ele>
        <time>2020-05-28T08:25:39.000Z</time>
      </trkpt>
      <trkpt lat="47.26993" lon="-2.27172">
        <ele>14.800000190735</ele>
        <time>2020-05-28T08:25:42.000Z</time>
      </trkpt>
      <trkpt lat="47.26992" lon="-2.27176">
        <ele>14.800000190735</ele>
        <time>2020-05-28T08:25:44.000Z</time>
      </trkpt>
      <trkpt lat="47.26992" lon="-2.2718">
        <ele>14.800000190735</ele>
        <time>2020-05-28T08:25:46.000Z</time>
      </trkpt>
      <trkpt lat="47.26988" lon="-2.27189">
        <ele>14.800000190735</ele>
        <time>2020-05-28T08:25:52.000Z</time>
      </trkpt>
      <trkpt lat="47.26986" lon="-2.27198">
        <ele>14.800000190735</ele>
        <time>2020-05-28T08:25:56.000Z</time>
      </trkpt>
      <trkpt lat="47.26988" lon="-2.27216">
        <ele>14.800000190735</ele>
        <time>2020-05-28T08:26:01.000Z</time>
      </trkpt>
      <trkpt lat="47.26983" lon="-2.27231">
        <ele>14.800000190735</ele>
        <time>2020-05-28T08:26:06.000Z</time>
      </trkpt>
      <trkpt lat="47.26979" lon="-2.27239">
        <ele>14.800000190735</ele>
        <time>2020-05-28T08:26:08.000Z</time>
      </trkpt>
      <trkpt lat="47.26976" lon="-2.27242">
        <ele>14.800000190735</ele>
        <time>2020-05-28T08:26:10.000Z</time>
      </trkpt>
      <trkpt lat="47.26969" lon="-2.27246">
        <ele>14.800000190735</ele>
        <time>2020-05-28T08:26:13.000Z</time>
      </trkpt>
      <trkpt lat="47.26962" lon="-2.27248">
        <ele>14.800000190735</ele>
        <time>2020-05-28T08:26:15.000Z</time>
      </trkpt>
      <trkpt lat="47.26951" lon="-2.27258">
        <ele>15.199999809265</ele>
        <time>2020-05-28T08:26:19.000Z</time>
      </trkpt>
      <trkpt lat="47.26949" lon="-2.27261">
        <ele>15.60000038147</ele>
        <time>2020-05-28T08:26:20.000Z</time>
      </trkpt>
      <trkpt lat="47.26947" lon="-2.27264">
        <ele>16</ele>
        <time>2020-05-28T08:26:21.000Z</time>
      </trkpt>
      <trkpt lat="47.26945" lon="-2.27267">
        <ele>16.799999237061</ele>
        <time>2020-05-28T08:26:22.000Z</time>
      </trkpt>
      <trkpt lat="47.26944" lon="-2.27273">
        <ele>16.799999237061</ele>
        <time>2020-05-28T08:26:25.000Z</time>
      </trkpt>
      <trkpt lat="47.26943" lon="-2.2729">
        <ele>16.799999237061</ele>
        <time>2020-05-28T08:26:31.000Z</time>
      </trkpt>
      <trkpt lat="47.26939" lon="-2.27308">
        <ele>16.799999237061</ele>
        <time>2020-05-28T08:26:37.000Z</time>
      </trkpt>
      <trkpt lat="47.26929" lon="-2.2733">
        <ele>16.799999237061</ele>
        <time>2020-05-28T08:26:43.000Z</time>
      </trkpt>
      <trkpt lat="47.26922" lon="-2.27353">
        <ele>16.799999237061</ele>
        <time>2020-05-28T08:26:49.000Z</time>
      </trkpt>
      <trkpt lat="47.2692" lon="-2.27356">
        <ele>16.799999237061</ele>
        <time>2020-05-28T08:26:50.000Z</time>
      </trkpt>
      <trkpt lat="47.26912" lon="-2.27365">
        <ele>16.799999237061</ele>
        <time>2020-05-28T08:26:53.000Z</time>
      </trkpt>
      <trkpt lat="47.26886" lon="-2.27385">
        <ele>16.799999237061</ele>
        <time>2020-05-28T08:27:01.000Z</time>
      </trkpt>
      <trkpt lat="47.26867" lon="-2.27397">
        <ele>16.799999237061</ele>
        <time>2020-05-28T08:27:07.000Z</time>
      </trkpt>
      <trkpt lat="47.26849" lon="-2.27405">
        <ele>17.200000762939</ele>
        <time>2020-05-28T08:27:12.000Z</time>
      </trkpt>
      <trkpt lat="47.26845" lon="-2.27406">
        <ele>17.60000038147</ele>
        <time>2020-05-28T08:27:13.000Z</time>
      </trkpt>
      <trkpt lat="47.26842" lon="-2.27407">
        <ele>18.200000762939</ele>
        <time>2020-05-28T08:27:14.000Z</time>
      </trkpt>
      <trkpt lat="47.26838" lon="-2.27408">
        <ele>18.60000038147</ele>
        <time>2020-05-28T08:27:15.000Z</time>
      </trkpt>
      <trkpt lat="47.26834" lon="-2.27409">
        <ele>19</ele>
        <time>2020-05-28T08:27:16.000Z</time>
      </trkpt>
      <trkpt lat="47.26818" lon="-2.27412">
        <ele>19</ele>
        <time>2020-05-28T08:27:20.000Z</time>
      </trkpt>
      <trkpt lat="47.26786" lon="-2.27413">
        <ele>19</ele>
        <time>2020-05-28T08:27:29.000Z</time>
      </trkpt>
      <trkpt lat="47.26773" lon="-2.27412">
        <ele>19</ele>
        <time>2020-05-28T08:27:34.000Z</time>
      </trkpt>
      <trkpt lat="47.26761" lon="-2.27412">
        <ele>19</ele>
        <time>2020-05-28T08:27:40.000Z</time>
      </trkpt>
      <trkpt lat="47.2676" lon="-2.27412">
        <ele>19</ele>
        <time>2020-05-28T08:27:42.000Z</time>
      </trkpt>
      <trkpt lat="47.26754" lon="-2.27414">
        <ele>19</ele>
        <time>2020-05-28T08:29:49.000Z</time>
      </trkpt>
      <trkpt lat="47.26751" lon="-2.27413">
        <ele>19</ele>
        <time>2020-05-28T08:29:50.000Z</time>
      </trkpt>
      <trkpt lat="47.26748" lon="-2.27404">
        <ele>19.39999961853</ele>
        <time>2020-05-28T08:29:52.000Z</time>
      </trkpt>
      <trkpt lat="47.26747" lon="-2.27398">
        <ele>19.799999237061</ele>
        <time>2020-05-28T08:29:53.000Z</time>
      </trkpt>
      <trkpt lat="47.26746" lon="-2.27393">
        <ele>20.200000762939</ele>
        <time>2020-05-28T08:29:54.000Z</time>
      </trkpt>
      <trkpt lat="47.26745" lon="-2.27387">
        <ele>20.799999237061</ele>
        <time>2020-05-28T08:29:55.000Z</time>
      </trkpt>
      <trkpt lat="47.26744" lon="-2.2738">
        <ele>21.200000762939</ele>
        <time>2020-05-28T08:29:56.000Z</time>
      </trkpt>
      <trkpt lat="47.26738" lon="-2.27344">
        <ele>21.200000762939</ele>
        <time>2020-05-28T08:30:02.000Z</time>
      </trkpt>
      <trkpt lat="47.26729" lon="-2.27285">
        <ele>21.200000762939</ele>
        <time>2020-05-28T08:30:11.000Z</time>
      </trkpt>
      <trkpt lat="47.26723" lon="-2.27248">
        <ele>21.60000038147</ele>
        <time>2020-05-28T08:30:17.000Z</time>
      </trkpt>
      <trkpt lat="47.26722" lon="-2.27242">
        <ele>22</ele>
        <time>2020-05-28T08:30:18.000Z</time>
      </trkpt>
      <trkpt lat="47.26721" lon="-2.27236">
        <ele>22.39999961853</ele>
        <time>2020-05-28T08:30:19.000Z</time>
      </trkpt>
      <trkpt lat="47.26721" lon="-2.2723">
        <ele>22.799999237061</ele>
        <time>2020-05-28T08:30:20.000Z</time>
      </trkpt>
      <trkpt lat="47.26721" lon="-2.27225">
        <ele>23.200000762939</ele>
        <time>2020-05-28T08:30:21.000Z</time>
      </trkpt>
      <trkpt lat="47.26721" lon="-2.27208">
        <ele>23.200000762939</ele>
        <time>2020-05-28T08:30:25.000Z</time>
      </trkpt>
      <trkpt lat="47.26721" lon="-2.27189">
        <ele>23.200000762939</ele>
        <time>2020-05-28T08:30:30.000Z</time>
      </trkpt>
      <trkpt lat="47.2673" lon="-2.27173">
        <ele>23.200000762939</ele>
        <time>2020-05-28T08:30:33.000Z</time>
      </trkpt>
      <trkpt lat="47.26735" lon="-2.27167">
        <ele>23.200000762939</ele>
        <time>2020-05-28T08:30:34.000Z</time>
      </trkpt>
      <trkpt lat="47.26751" lon="-2.27152">
        <ele>23.200000762939</ele>
        <time>2020-05-28T08:30:37.000Z</time>
      </trkpt>
      <trkpt lat="47.26763" lon="-2.27143">
        <ele>23.200000762939</ele>
        <time>2020-05-28T08:30:39.000Z</time>
      </trkpt>
      <trkpt lat="47.26769" lon="-2.2714">
        <ele>22.799999237061</ele>
        <time>2020-05-28T08:30:40.000Z</time>
      </trkpt>
      <trkpt lat="47.26775" lon="-2.27138">
        <ele>22.200000762939</ele>
        <time>2020-05-28T08:30:41.000Z</time>
      </trkpt>
      <trkpt lat="47.26781" lon="-2.27136">
        <ele>21.799999237061</ele>
        <time>2020-05-28T08:30:42.000Z</time>
      </trkpt>
      <trkpt lat="47.26786" lon="-2.27134">
        <ele>21.39999961853</ele>
        <time>2020-05-28T08:30:43.000Z</time>
      </trkpt>
      <trkpt lat="47.26792" lon="-2.27132">
        <ele>21</ele>
        <time>2020-05-28T08:30:44.000Z</time>
      </trkpt>
      <trkpt lat="47.26821" lon="-2.27125">
        <ele>21</ele>
        <time>2020-05-28T08:30:49.000Z</time>
      </trkpt>
      <trkpt lat="47.26827" lon="-2.27124">
        <ele>21</ele>
        <time>2020-05-28T08:30:50.000Z</time>
      </trkpt>
      <trkpt lat="47.26848" lon="-2.27117">
        <ele>20.60000038147</ele>
        <time>2020-05-28T08:30:54.000Z</time>
      </trkpt>
      <trkpt lat="47.26853" lon="-2.27114">
        <ele>20.200000762939</ele>
        <time>2020-05-28T08:30:55.000Z</time>
      </trkpt>
      <trkpt lat="47.26858" lon="-2.2711">
        <ele>19.799999237061</ele>
        <time>2020-05-28T08:30:56.000Z</time>
      </trkpt>
      <trkpt lat="47.26863" lon="-2.27105">
        <ele>19.39999961853</ele>
        <time>2020-05-28T08:30:57.000Z</time>
      </trkpt>
      <trkpt lat="47.26868" lon="-2.271">
        <ele>19</ele>
        <time>2020-05-28T08:30:58.000Z</time>
      </trkpt>
      <trkpt lat="47.26877" lon="-2.27089">
        <ele>19</ele>
        <time>2020-05-28T08:31:00.000Z</time>
      </trkpt>
      <trkpt lat="47.26893" lon="-2.27068">
        <ele>18.39999961853</ele>
        <time>2020-05-28T08:31:03.000Z</time>
      </trkpt>
      <trkpt lat="47.26898" lon="-2.27061">
        <ele>18</ele>
        <time>2020-05-28T08:31:04.000Z</time>
      </trkpt>
      <trkpt lat="47.26903" lon="-2.27053">
        <ele>17.60000038147</ele>
        <time>2020-05-28T08:31:05.000Z</time>
      </trkpt>
      <trkpt lat="47.26907" lon="-2.27047">
        <ele>17.200000762939</ele>
        <time>2020-05-28T08:31:06.000Z</time>
      </trkpt>
      <trkpt lat="47.26912" lon="-2.27039">
        <ele>16.799999237061</ele>
        <time>2020-05-28T08:31:07.000Z</time>
      </trkpt>
      <trkpt lat="47.26921" lon="-2.27025">
        <ele>16.39999961853</ele>
        <time>2020-05-28T08:31:09.000Z</time>
      </trkpt>
      <trkpt lat="47.26925" lon="-2.27018">
        <ele>15.800000190735</ele>
        <time>2020-05-28T08:31:10.000Z</time>
      </trkpt>
      <trkpt lat="47.2693" lon="-2.2701">
        <ele>15.39999961853</ele>
        <time>2020-05-28T08:31:11.000Z</time>
      </trkpt>
      <trkpt lat="47.26935" lon="-2.27002">
        <ele>15</ele>
        <time>2020-05-28T08:31:12.000Z</time>
      </trkpt>
      <trkpt lat="47.2694" lon="-2.26994">
        <ele>14.60000038147</ele>
        <time>2020-05-28T08:31:13.000Z</time>
      </trkpt>
      <trkpt lat="47.26948" lon="-2.26977">
        <ele>14.60000038147</ele>
        <time>2020-05-28T08:31:15.000Z</time>
      </trkpt>
      <trkpt lat="47.2695" lon="-2.26967">
        <ele>14.60000038147</ele>
        <time>2020-05-28T08:31:16.000Z</time>
      </trkpt>
      <trkpt lat="47.26956" lon="-2.26936">
        <ele>14.199999809265</ele>
        <time>2020-05-28T08:31:19.000Z</time>
      </trkpt>
      <trkpt lat="47.26957" lon="-2.26925">
        <ele>13.800000190735</ele>
        <time>2020-05-28T08:31:20.000Z</time>
      </trkpt>
      <trkpt lat="47.26958" lon="-2.26914">
        <ele>13.199999809265</ele>
        <time>2020-05-28T08:31:21.000Z</time>
      </trkpt>
      <trkpt lat="47.26958" lon="-2.26903">
        <ele>12.800000190735</ele>
        <time>2020-05-28T08:31:22.000Z</time>
      </trkpt>
      <trkpt lat="47.26958" lon="-2.26892">
        <ele>12.39999961853</ele>
        <time>2020-05-28T08:31:23.000Z</time>
      </trkpt>
      <trkpt lat="47.26955" lon="-2.26869">
        <ele>12.39999961853</ele>
        <time>2020-05-28T08:31:25.000Z</time>
      </trkpt>
      <trkpt lat="47.26954" lon="-2.26858">
        <ele>12.39999961853</ele>
        <time>2020-05-28T08:31:26.000Z</time>
      </trkpt>
      <trkpt lat="47.26944" lon="-2.26809">
        <ele>12.39999961853</ele>
        <time>2020-05-28T08:31:31.000Z</time>
      </trkpt>
      <trkpt lat="47.2694" lon="-2.26801">
        <ele>12.39999961853</ele>
        <time>2020-05-28T08:31:32.000Z</time>
      </trkpt>
      <trkpt lat="47.26934" lon="-2.26782">
        <ele>12.39999961853</ele>
        <time>2020-05-28T08:31:34.000Z</time>
      </trkpt>
      <trkpt lat="47.26922" lon="-2.26737">
        <ele>12.39999961853</ele>
        <time>2020-05-28T08:31:39.000Z</time>
      </trkpt>
      <trkpt lat="47.26919" lon="-2.2672">
        <ele>12.39999961853</ele>
        <time>2020-05-28T08:31:41.000Z</time>
      </trkpt>
      <trkpt lat="47.26908" lon="-2.26678">
        <ele>12.39999961853</ele>
        <time>2020-05-28T08:31:47.000Z</time>
      </trkpt>
      <trkpt lat="47.26901" lon="-2.26657">
        <ele>12.800000190735</ele>
        <time>2020-05-28T08:31:50.000Z</time>
      </trkpt>
      <trkpt lat="47.26898" lon="-2.26649">
        <ele>13.199999809265</ele>
        <time>2020-05-28T08:31:51.000Z</time>
      </trkpt>
      <trkpt lat="47.26895" lon="-2.26641">
        <ele>13.60000038147</ele>
        <time>2020-05-28T08:31:52.000Z</time>
      </trkpt>
      <trkpt lat="47.26892" lon="-2.26633">
        <ele>14</ele>
        <time>2020-05-28T08:31:53.000Z</time>
      </trkpt>
      <trkpt lat="47.2689" lon="-2.26625">
        <ele>14.39999961853</ele>
        <time>2020-05-28T08:31:54.000Z</time>
      </trkpt>
      <trkpt lat="47.26876" lon="-2.26588">
        <ele>14.39999961853</ele>
        <time>2020-05-28T08:31:59.000Z</time>
      </trkpt>
      <trkpt lat="47.26867" lon="-2.26561">
        <ele>14.39999961853</ele>
        <time>2020-05-28T08:32:04.000Z</time>
      </trkpt>
      <trkpt lat="47.26867" lon="-2.26555">
        <ele>14.39999961853</ele>
        <time>2020-05-28T08:32:08.000Z</time>
      </trkpt>
      <trkpt lat="47.26868" lon="-2.26554">
        <ele>14.39999961853</ele>
        <time>2020-05-28T08:32:10.000Z</time>
      </trkpt>
      <trkpt lat="47.26869" lon="-2.26551">
        <ele>14.39999961853</ele>
        <time>2020-05-28T08:32:14.000Z</time>
      </trkpt>
      <trkpt lat="47.2687" lon="-2.26548">
        <ele>14.39999961853</ele>
        <time>2020-05-28T08:32:15.000Z</time>
      </trkpt>
      <trkpt lat="47.26882" lon="-2.26537">
        <ele>14.39999961853</ele>
        <time>2020-05-28T08:32:19.000Z</time>
      </trkpt>
      <trkpt lat="47.26908" lon="-2.26523">
        <ele>14.39999961853</ele>
        <time>2020-05-28T08:32:24.000Z</time>
      </trkpt>
      <trkpt lat="47.26945" lon="-2.26509">
        <ele>14.39999961853</ele>
        <time>2020-05-28T08:32:30.000Z</time>
      </trkpt>
      <trkpt lat="47.26977" lon="-2.26486">
        <ele>14.39999961853</ele>
        <time>2020-05-28T08:32:36.000Z</time>
      </trkpt>
      <trkpt lat="47.27008" lon="-2.26448">
        <ele>14.39999961853</ele>
        <time>2020-05-28T08:32:42.000Z</time>
      </trkpt>
      <trkpt lat="47.27037" lon="-2.26408">
        <ele>14.39999961853</ele>
        <time>2020-05-28T08:32:48.000Z</time>
      </trkpt>
      <trkpt lat="47.27064" lon="-2.26368">
        <ele>14.39999961853</ele>
        <time>2020-05-28T08:32:54.000Z</time>
      </trkpt>
      <trkpt lat="47.27098" lon="-2.26319">
        <ele>14.39999961853</ele>
        <time>2020-05-28T08:33:01.000Z</time>
      </trkpt>
      <trkpt lat="47.27134" lon="-2.26271">
        <ele>14.39999961853</ele>
        <time>2020-05-28T08:33:08.000Z</time>
      </trkpt>
      <trkpt lat="47.27165" lon="-2.26228">
        <ele>14</ele>
        <time>2020-05-28T08:33:14.000Z</time>
      </trkpt>
      <trkpt lat="47.27171" lon="-2.26221">
        <ele>13.60000038147</ele>
        <time>2020-05-28T08:33:15.000Z</time>
      </trkpt>
      <trkpt lat="47.27177" lon="-2.26215">
        <ele>13.199999809265</ele>
        <time>2020-05-28T08:33:16.000Z</time>
      </trkpt>
      <trkpt lat="47.27183" lon="-2.26209">
        <ele>12.800000190735</ele>
        <time>2020-05-28T08:33:17.000Z</time>
      </trkpt>
      <trkpt lat="47.27189" lon="-2.26203">
        <ele>12.199999809265</ele>
        <time>2020-05-28T08:33:18.000Z</time>
      </trkpt>
      <trkpt lat="47.27214" lon="-2.26182">
        <ele>12.199999809265</ele>
        <time>2020-05-28T08:33:22.000Z</time>
      </trkpt>
      <trkpt lat="47.27251" lon="-2.26158">
        <ele>11.800000190735</ele>
        <time>2020-05-28T08:33:28.000Z</time>
      </trkpt>
      <trkpt lat="47.27257" lon="-2.26155">
        <ele>11.39999961853</ele>
        <time>2020-05-28T08:33:29.000Z</time>
      </trkpt>
      <trkpt lat="47.27263" lon="-2.26152">
        <ele>11</ele>
        <time>2020-05-28T08:33:30.000Z</time>
      </trkpt>
      <trkpt lat="47.27269" lon="-2.26149">
        <ele>10.60000038147</ele>
        <time>2020-05-28T08:33:31.000Z</time>
      </trkpt>
      <trkpt lat="47.27275" lon="-2.26146">
        <ele>10.199999809265</ele>
        <time>2020-05-28T08:33:32.000Z</time>
      </trkpt>
      <trkpt lat="47.27307" lon="-2.26135">
        <ele>10.199999809265</ele>
        <time>2020-05-28T08:33:37.000Z</time>
      </trkpt>
      <trkpt lat="47.27346" lon="-2.26123">
        <ele>10.199999809265</ele>
        <time>2020-05-28T08:33:44.000Z</time>
      </trkpt>
      <trkpt lat="47.27352" lon="-2.26122">
        <ele>10.199999809265</ele>
        <time>2020-05-28T08:33:45.000Z</time>
      </trkpt>
      <trkpt lat="47.27362" lon="-2.2613">
        <ele>10.199999809265</ele>
        <time>2020-05-28T08:33:47.000Z</time>
      </trkpt>
      <trkpt lat="47.27375" lon="-2.26149">
        <ele>10.199999809265</ele>
        <time>2020-05-28T08:33:50.000Z</time>
      </trkpt>
      <trkpt lat="47.2738" lon="-2.26156">
        <ele>10.199999809265</ele>
        <time>2020-05-28T08:33:51.000Z</time>
      </trkpt>
      <trkpt lat="47.27393" lon="-2.26176">
        <ele>10.199999809265</ele>
        <time>2020-05-28T08:33:54.000Z</time>
      </trkpt>
      <trkpt lat="47.27402" lon="-2.26191">
        <ele>10.199999809265</ele>
        <time>2020-05-28T08:33:56.000Z</time>
      </trkpt>
      <trkpt lat="47.27431" lon="-2.26235">
        <ele>10.199999809265</ele>
        <time>2020-05-28T08:34:02.000Z</time>
      </trkpt>
      <trkpt lat="47.27455" lon="-2.2626">
        <ele>9.8000001907349</ele>
        <time>2020-05-28T08:34:06.000Z</time>
      </trkpt>
      <trkpt lat="47.27462" lon="-2.26265">
        <ele>9.3999996185303</ele>
        <time>2020-05-28T08:34:07.000Z</time>
      </trkpt>
      <trkpt lat="47.27468" lon="-2.2627">
        <ele>9</ele>
        <time>2020-05-28T08:34:08.000Z</time>
      </trkpt>
      <trkpt lat="47.27475" lon="-2.26274">
        <ele>8.6000003814697</ele>
        <time>2020-05-28T08:34:09.000Z</time>
      </trkpt>
      <trkpt lat="47.27482" lon="-2.26278">
        <ele>8.1999998092651</ele>
        <time>2020-05-28T08:34:10.000Z</time>
      </trkpt>
      <trkpt lat="47.2749" lon="-2.26281">
        <ele>7.8000001907349</ele>
        <time>2020-05-28T08:34:11.000Z</time>
      </trkpt>
      <trkpt lat="47.27497" lon="-2.26283">
        <ele>7.4000000953674</ele>
        <time>2020-05-28T08:34:12.000Z</time>
      </trkpt>
      <trkpt lat="47.27505" lon="-2.26285">
        <ele>7</ele>
        <time>2020-05-28T08:34:13.000Z</time>
      </trkpt>
      <trkpt lat="47.27513" lon="-2.26286">
        <ele>6.5999999046326</ele>
        <time>2020-05-28T08:34:14.000Z</time>
      </trkpt>
      <trkpt lat="47.27521" lon="-2.26287">
        <ele>6</ele>
        <time>2020-05-28T08:34:15.000Z</time>
      </trkpt>
      <trkpt lat="47.27553" lon="-2.26289">
        <ele>6</ele>
        <time>2020-05-28T08:34:19.000Z</time>
      </trkpt>
      <trkpt lat="47.27593" lon="-2.26288">
        <ele>6</ele>
        <time>2020-05-28T08:34:24.000Z</time>
      </trkpt>
      <trkpt lat="47.27621" lon="-2.26298">
        <ele>6</ele>
        <time>2020-05-28T08:34:28.000Z</time>
      </trkpt>
      <trkpt lat="47.27627" lon="-2.26303">
        <ele>6</ele>
        <time>2020-05-28T08:34:29.000Z</time>
      </trkpt>
      <trkpt lat="47.27647" lon="-2.26322">
        <ele>5.5999999046326</ele>
        <time>2020-05-28T08:34:33.000Z</time>
      </trkpt>
      <trkpt lat="47.2765" lon="-2.26328">
        <ele>5.1999998092651</ele>
        <time>2020-05-28T08:34:34.000Z</time>
      </trkpt>
      <trkpt lat="47.27652" lon="-2.26333">
        <ele>4.4000000953674</ele>
        <time>2020-05-28T08:34:35.000Z</time>
      </trkpt>
      <trkpt lat="47.27655" lon="-2.26337">
        <ele>4</ele>
        <time>2020-05-28T08:34:36.000Z</time>
      </trkpt>
      <trkpt lat="47.2766" lon="-2.2634">
        <ele>4</ele>
        <time>2020-05-28T08:34:38.000Z</time>
      </trkpt>
      <trkpt lat="47.27664" lon="-2.26328">
        <ele>4</ele>
        <time>2020-05-28T08:34:41.000Z</time>
      </trkpt>
      <trkpt lat="47.27661" lon="-2.26307">
        <ele>4</ele>
        <time>2020-05-28T08:34:46.000Z</time>
      </trkpt>
      <trkpt lat="47.2766" lon="-2.26301">
        <ele>4</ele>
        <time>2020-05-28T08:34:47.000Z</time>
      </trkpt>
      <trkpt lat="47.27657" lon="-2.26289">
        <ele>4</ele>
        <time>2020-05-28T08:34:49.000Z</time>
      </trkpt>
      <trkpt lat="47.27652" lon="-2.26271">
        <ele>4</ele>
        <time>2020-05-28T08:34:52.000Z</time>
      </trkpt>
      <trkpt lat="47.27644" lon="-2.26249">
        <ele>4</ele>
        <time>2020-05-28T08:34:57.000Z</time>
      </trkpt>
      <trkpt lat="47.27632" lon="-2.26228">
        <ele>4</ele>
        <time>2020-05-28T08:35:02.000Z</time>
      </trkpt>
      <trkpt lat="47.27627" lon="-2.26199">
        <ele>4</ele>
        <time>2020-05-28T08:35:07.000Z</time>
      </trkpt>
      <trkpt lat="47.27625" lon="-2.26194">
        <ele>4</ele>
        <time>2020-05-28T08:35:08.000Z</time>
      </trkpt>
      <trkpt lat="47.27621" lon="-2.26187">
        <ele>4</ele>
        <time>2020-05-28T08:35:10.000Z</time>
      </trkpt>
      <trkpt lat="47.27622" lon="-2.26173">
        <ele>4</ele>
        <time>2020-05-28T08:35:14.000Z</time>
      </trkpt>
      <trkpt lat="47.27632" lon="-2.26167">
        <ele>4</ele>
        <time>2020-05-28T08:35:17.000Z</time>
      </trkpt>
      <trkpt lat="47.27634" lon="-2.26165">
        <ele>4</ele>
        <time>2020-05-28T08:35:18.000Z</time>
      </trkpt>
      <trkpt lat="47.27652" lon="-2.26151">
        <ele>4</ele>
        <time>2020-05-28T08:35:23.000Z</time>
      </trkpt>
      <trkpt lat="47.2767" lon="-2.2613">
        <ele>4</ele>
        <time>2020-05-28T08:35:29.000Z</time>
      </trkpt>
      <trkpt lat="47.27689" lon="-2.26114">
        <ele>4</ele>
        <time>2020-05-28T08:35:34.000Z</time>
      </trkpt>
      <trkpt lat="47.27698" lon="-2.26106">
        <ele>4</ele>
        <time>2020-05-28T08:35:36.000Z</time>
      </trkpt>
      <trkpt lat="47.27713" lon="-2.26091">
        <ele>4</ele>
        <time>2020-05-28T08:35:39.000Z</time>
      </trkpt>
      <trkpt lat="47.27728" lon="-2.26081">
        <ele>4</ele>
        <time>2020-05-28T08:35:42.000Z</time>
      </trkpt>
      <trkpt lat="47.27733" lon="-2.26075">
        <ele>4</ele>
        <time>2020-05-28T08:35:43.000Z</time>
      </trkpt>
      <trkpt lat="47.27744" lon="-2.26051">
        <ele>4</ele>
        <time>2020-05-28T08:35:47.000Z</time>
      </trkpt>
      <trkpt lat="47.27759" lon="-2.26016">
        <ele>4</ele>
        <time>2020-05-28T08:35:54.000Z</time>
      </trkpt>
      <trkpt lat="47.27763" lon="-2.26004">
        <ele>4</ele>
        <time>2020-05-28T08:35:59.000Z</time>
      </trkpt>
      <trkpt lat="47.27771" lon="-2.25998">
        <ele>4</ele>
        <time>2020-05-28T08:36:05.000Z</time>
      </trkpt>
      <trkpt lat="47.27778" lon="-2.2599">
        <ele>4</ele>
        <time>2020-05-28T08:36:11.000Z</time>
      </trkpt>
      <trkpt lat="47.27779" lon="-2.25989">
        <ele>4</ele>
        <time>2020-05-28T08:36:12.000Z</time>
      </trkpt>
      <trkpt lat="47.27783" lon="-2.25978">
        <ele>4</ele>
        <time>2020-05-28T08:36:18.000Z</time>
      </trkpt>
      <trkpt lat="47.27783" lon="-2.25974">
        <ele>4</ele>
        <time>2020-05-28T08:36:19.000Z</time>
      </trkpt>
      <trkpt lat="47.2778" lon="-2.25955">
        <ele>4</ele>
        <time>2020-05-28T08:36:23.000Z</time>
      </trkpt>
      <trkpt lat="47.27774" lon="-2.25936">
        <ele>4</ele>
        <time>2020-05-28T08:36:26.000Z</time>
      </trkpt>
      <trkpt lat="47.27771" lon="-2.25923">
        <ele>4</ele>
        <time>2020-05-28T08:36:28.000Z</time>
      </trkpt>
      <trkpt lat="47.27763" lon="-2.25887">
        <ele>4</ele>
        <time>2020-05-28T08:36:33.000Z</time>
      </trkpt>
      <trkpt lat="47.2776" lon="-2.25881">
        <ele>4</ele>
        <time>2020-05-28T08:36:34.000Z</time>
      </trkpt>
      <trkpt lat="47.27756" lon="-2.2587">
        <ele>4</ele>
        <time>2020-05-28T08:36:36.000Z</time>
      </trkpt>
      <trkpt lat="47.27747" lon="-2.25857">
        <ele>4</ele>
        <time>2020-05-28T08:36:39.000Z</time>
      </trkpt>
      <trkpt lat="47.27734" lon="-2.25856">
        <ele>4</ele>
        <time>2020-05-28T08:36:42.000Z</time>
      </trkpt>
      <trkpt lat="47.27721" lon="-2.25854">
        <ele>4</ele>
        <time>2020-05-28T08:36:45.000Z</time>
      </trkpt>
      <trkpt lat="47.27709" lon="-2.25848">
        <ele>4</ele>
        <time>2020-05-28T08:36:48.000Z</time>
      </trkpt>
      <trkpt lat="47.27696" lon="-2.2583">
        <ele>4</ele>
        <time>2020-05-28T08:36:53.000Z</time>
      </trkpt>
      <trkpt lat="47.27699" lon="-2.25811">
        <ele>4</ele>
        <time>2020-05-28T08:36:57.000Z</time>
      </trkpt>
      <trkpt lat="47.27698" lon="-2.25798">
        <ele>4</ele>
        <time>2020-05-28T08:37:02.000Z</time>
      </trkpt>
      <trkpt lat="47.27692" lon="-2.25788">
        <ele>4</ele>
        <time>2020-05-28T08:37:07.000Z</time>
      </trkpt>
      <trkpt lat="47.27685" lon="-2.25777">
        <ele>4</ele>
        <time>2020-05-28T08:37:10.000Z</time>
      </trkpt>
      <trkpt lat="47.27678" lon="-2.25782">
        <ele>4</ele>
        <time>2020-05-28T08:37:13.000Z</time>
      </trkpt>
      <trkpt lat="47.27678" lon="-2.2579">
        <ele>4</ele>
        <time>2020-05-28T08:37:16.000Z</time>
      </trkpt>
      <trkpt lat="47.27683" lon="-2.25814">
        <ele>4</ele>
        <time>2020-05-28T08:37:21.000Z</time>
      </trkpt>
      <trkpt lat="47.27681" lon="-2.25829">
        <ele>4</ele>
        <time>2020-05-28T08:37:25.000Z</time>
      </trkpt>
      <trkpt lat="47.27678" lon="-2.2583">
        <ele>4</ele>
        <time>2020-05-28T08:37:29.000Z</time>
      </trkpt>
      <trkpt lat="47.27673" lon="-2.2582">
        <ele>4</ele>
        <time>2020-05-28T08:37:36.000Z</time>
      </trkpt>
      <trkpt lat="47.27673" lon="-2.25815">
        <ele>4</ele>
        <time>2020-05-28T08:37:38.000Z</time>
      </trkpt>
      <trkpt lat="47.27669" lon="-2.25808">
        <ele>4</ele>
        <time>2020-05-28T08:37:41.000Z</time>
      </trkpt>
      <trkpt lat="47.27669" lon="-2.25796">
        <ele>4</ele>
        <time>2020-05-28T08:37:45.000Z</time>
      </trkpt>
      <trkpt lat="47.27668" lon="-2.25793">
        <ele>4</ele>
        <time>2020-05-28T08:37:47.000Z</time>
      </trkpt>
      <trkpt lat="47.27668" lon="-2.25791">
        <ele>4</ele>
        <time>2020-05-28T08:37:49.000Z</time>
      </trkpt>
      <trkpt lat="47.2767" lon="-2.25777">
        <ele>3.7999999523163</ele>
        <time>2020-05-28T08:38:26.000Z</time>
      </trkpt>
      <trkpt lat="47.27672" lon="-2.25769">
        <ele>3.7999999523163</ele>
        <time>2020-05-28T08:38:31.000Z</time>
      </trkpt>
      <trkpt lat="47.27672" lon="-2.25766">
        <ele>3.7999999523163</ele>
        <time>2020-05-28T08:38:32.000Z</time>
      </trkpt>
      <trkpt lat="47.27669" lon="-2.25758">
        <ele>3.7999999523163</ele>
        <time>2020-05-28T08:38:35.000Z</time>
      </trkpt>
      <trkpt lat="47.27665" lon="-2.25747">
        <ele>3.7999999523163</ele>
        <time>2020-05-28T08:38:38.000Z</time>
      </trkpt>
      <trkpt lat="47.27663" lon="-2.25744">
        <ele>3.7999999523163</ele>
        <time>2020-05-28T08:38:40.000Z</time>
      </trkpt>
      <trkpt lat="47.2766" lon="-2.25742">
        <ele>3.7999999523163</ele>
        <time>2020-05-28T08:38:42.000Z</time>
      </trkpt>
      <trkpt lat="47.27654" lon="-2.25733">
        <ele>3.7999999523163</ele>
        <time>2020-05-28T08:38:48.000Z</time>
      </trkpt>
      <trkpt lat="47.27654" lon="-2.2573">
        <ele>3.7999999523163</ele>
        <time>2020-05-28T08:38:49.000Z</time>
      </trkpt>
      <trkpt lat="47.27654" lon="-2.25712">
        <ele>3.7999999523163</ele>
        <time>2020-05-28T08:38:53.000Z</time>
      </trkpt>
      <trkpt lat="47.2765" lon="-2.25685">
        <ele>3.7999999523163</ele>
        <time>2020-05-28T08:38:58.000Z</time>
      </trkpt>
      <trkpt lat="47.27648" lon="-2.25677">
        <ele>3.7999999523163</ele>
        <time>2020-05-28T08:39:01.000Z</time>
      </trkpt>
      <trkpt lat="47.27647" lon="-2.25671">
        <ele>3.7999999523163</ele>
        <time>2020-05-28T08:39:03.000Z</time>
      </trkpt>
      <trkpt lat="47.27645" lon="-2.2566">
        <ele>3.7999999523163</ele>
        <time>2020-05-28T08:39:06.000Z</time>
      </trkpt>
      <trkpt lat="47.27641" lon="-2.25653">
        <ele>3.7999999523163</ele>
        <time>2020-05-28T08:39:08.000Z</time>
      </trkpt>
      <trkpt lat="47.27625" lon="-2.25645">
        <ele>3.7999999523163</ele>
        <time>2020-05-28T08:39:13.000Z</time>
      </trkpt>
      <trkpt lat="47.27607" lon="-2.25635">
        <ele>3.7999999523163</ele>
        <time>2020-05-28T08:39:19.000Z</time>
      </trkpt>
      <trkpt lat="47.27592" lon="-2.25622">
        <ele>3.7999999523163</ele>
        <time>2020-05-28T08:39:24.000Z</time>
      </trkpt>
      <trkpt lat="47.27578" lon="-2.25613">
        <ele>3.7999999523163</ele>
        <time>2020-05-28T08:39:29.000Z</time>
      </trkpt>
      <trkpt lat="47.27566" lon="-2.25603">
        <ele>3.7999999523163</ele>
        <time>2020-05-28T08:39:33.000Z</time>
      </trkpt>
      <trkpt lat="47.27564" lon="-2.25598">
        <ele>3.7999999523163</ele>
        <time>2020-05-28T08:39:34.000Z</time>
      </trkpt>
      <trkpt lat="47.27564" lon="-2.25593">
        <ele>3.7999999523163</ele>
        <time>2020-05-28T08:39:35.000Z</time>
      </trkpt>
      <trkpt lat="47.27561" lon="-2.25573">
        <ele>3.7999999523163</ele>
        <time>2020-05-28T08:39:38.000Z</time>
      </trkpt>
      <trkpt lat="47.2756" lon="-2.25558">
        <ele>3.7999999523163</ele>
        <time>2020-05-28T08:39:40.000Z</time>
      </trkpt>
      <trkpt lat="47.27553" lon="-2.25535">
        <ele>3.7999999523163</ele>
        <time>2020-05-28T08:39:43.000Z</time>
      </trkpt>
      <trkpt lat="47.27548" lon="-2.25522">
        <ele>3.7999999523163</ele>
        <time>2020-05-28T08:39:45.000Z</time>
      </trkpt>
      <trkpt lat="47.27539" lon="-2.25506">
        <ele>3.7999999523163</ele>
        <time>2020-05-28T08:39:48.000Z</time>
      </trkpt>
      <trkpt lat="47.27537" lon="-2.25501">
        <ele>3.7999999523163</ele>
        <time>2020-05-28T08:39:49.000Z</time>
      </trkpt>
      <trkpt lat="47.27518" lon="-2.25474">
        <ele>3.7999999523163</ele>
        <time>2020-05-28T08:39:55.000Z</time>
      </trkpt>
      <trkpt lat="47.27503" lon="-2.25456">
        <ele>3.7999999523163</ele>
        <time>2020-05-28T08:40:00.000Z</time>
      </trkpt>
      <trkpt lat="47.27487" lon="-2.25451">
        <ele>3.7999999523163</ele>
        <time>2020-05-28T08:40:04.000Z</time>
      </trkpt>
      <trkpt lat="47.27462" lon="-2.25453">
        <ele>3.7999999523163</ele>
        <time>2020-05-28T08:40:09.000Z</time>
      </trkpt>
      <trkpt lat="47.2744" lon="-2.25442">
        <ele>3.7999999523163</ele>
        <time>2020-05-28T08:40:14.000Z</time>
      </trkpt>
      <trkpt lat="47.27429" lon="-2.25426">
        <ele>3.7999999523163</ele>
        <time>2020-05-28T08:40:18.000Z</time>
      </trkpt>
      <trkpt lat="47.27427" lon="-2.25424">
        <ele>3.7999999523163</ele>
        <time>2020-05-28T08:40:19.000Z</time>
      </trkpt>
      <trkpt lat="47.27416" lon="-2.25406">
        <ele>3.7999999523163</ele>
        <time>2020-05-28T08:40:24.000Z</time>
      </trkpt>
      <trkpt lat="47.27405" lon="-2.25381">
        <ele>3.7999999523163</ele>
        <time>2020-05-28T08:40:30.000Z</time>
      </trkpt>
      <trkpt lat="47.274" lon="-2.25363">
        <ele>3.7999999523163</ele>
        <time>2020-05-28T08:40:34.000Z</time>
      </trkpt>
      <trkpt lat="47.274" lon="-2.25359">
        <ele>3.7999999523163</ele>
        <time>2020-05-28T08:40:35.000Z</time>
      </trkpt>
      <trkpt lat="47.274" lon="-2.25333">
        <ele>3.7999999523163</ele>
        <time>2020-05-28T08:40:40.000Z</time>
      </trkpt>
      <trkpt lat="47.27392" lon="-2.25309">
        <ele>3.7999999523163</ele>
        <time>2020-05-28T08:40:45.000Z</time>
      </trkpt>
      <trkpt lat="47.27391" lon="-2.25304">
        <ele>3.7999999523163</ele>
        <time>2020-05-28T08:40:46.000Z</time>
      </trkpt>
      <trkpt lat="47.27392" lon="-2.253">
        <ele>3.7999999523163</ele>
        <time>2020-05-28T08:40:47.000Z</time>
      </trkpt>
      <trkpt lat="47.27396" lon="-2.25288">
        <ele>3.7999999523163</ele>
        <time>2020-05-28T08:40:50.000Z</time>
      </trkpt>
      <trkpt lat="47.274" lon="-2.25287">
        <ele>3.7999999523163</ele>
        <time>2020-05-28T08:40:52.000Z</time>
      </trkpt>
      <trkpt lat="47.27407" lon="-2.25291">
        <ele>3.7999999523163</ele>
        <time>2020-05-28T08:40:54.000Z</time>
      </trkpt>
      <trkpt lat="47.27408" lon="-2.25308">
        <ele>3.7999999523163</ele>
        <time>2020-05-28T08:40:59.000Z</time>
      </trkpt>
      <trkpt lat="47.27406" lon="-2.2533">
        <ele>3.7999999523163</ele>
        <time>2020-05-28T08:41:05.000Z</time>
      </trkpt>
      <trkpt lat="47.27409" lon="-2.25346">
        <ele>3.7999999523163</ele>
        <time>2020-05-28T08:41:10.000Z</time>
      </trkpt>
      <trkpt lat="47.27416" lon="-2.25366">
        <ele>3.7999999523163</ele>
        <time>2020-05-28T08:41:16.000Z</time>
      </trkpt>
      <trkpt lat="47.27419" lon="-2.25384">
        <ele>3.7999999523163</ele>
        <time>2020-05-28T08:41:21.000Z</time>
      </trkpt>
      <trkpt lat="47.27425" lon="-2.25404">
        <ele>3.7999999523163</ele>
        <time>2020-05-28T08:41:26.000Z</time>
      </trkpt>
      <trkpt lat="47.27429" lon="-2.25404">
        <ele>3.7999999523163</ele>
        <time>2020-05-28T08:41:28.000Z</time>
      </trkpt>
      <trkpt lat="47.27431" lon="-2.25402">
        <ele>3.7999999523163</ele>
        <time>2020-05-28T08:41:29.000Z</time>
      </trkpt>
      <trkpt lat="47.27435" lon="-2.2539">
        <ele>3.7999999523163</ele>
        <time>2020-05-28T08:41:33.000Z</time>
      </trkpt>
      <trkpt lat="47.27434" lon="-2.25387">
        <ele>3.7999999523163</ele>
        <time>2020-05-28T08:41:34.000Z</time>
      </trkpt>
      <trkpt lat="47.27431" lon="-2.25369">
        <ele>3.7999999523163</ele>
        <time>2020-05-28T08:41:39.000Z</time>
      </trkpt>
      <trkpt lat="47.27431" lon="-2.25344">
        <ele>3.7999999523163</ele>
        <time>2020-05-28T08:41:45.000Z</time>
      </trkpt>
      <trkpt lat="47.2743" lon="-2.25328">
        <ele>3.7999999523163</ele>
        <time>2020-05-28T08:41:49.000Z</time>
      </trkpt>
      <trkpt lat="47.27429" lon="-2.25327">
        <ele>3.7999999523163</ele>
        <time>2020-05-28T08:41:50.000Z</time>
      </trkpt>
      <trkpt lat="47.27427" lon="-2.25327">
        <ele>3.4000000953674</ele>
        <time>2020-05-28T08:41:51.000Z</time>
      </trkpt>
      <trkpt lat="47.27426" lon="-2.25327">
        <ele>3</ele>
        <time>2020-05-28T08:41:52.000Z</time>
      </trkpt>
      <trkpt lat="47.27425" lon="-2.25325">
        <ele>2.5999999046326</ele>
        <time>2020-05-28T08:41:53.000Z</time>
      </trkpt>
      <trkpt lat="47.27425" lon="-2.25323">
        <ele>2.2000000476837</ele>
        <time>2020-05-28T08:41:54.000Z</time>
      </trkpt>
      <trkpt lat="47.27425" lon="-2.25321">
        <ele>1.7999999523163</ele>
        <time>2020-05-28T08:41:55.000Z</time>
      </trkpt>
      <trkpt lat="47.27424" lon="-2.25319">
        <ele>1.7999999523163</ele>
        <time>2020-05-28T08:41:56.000Z</time>
      </trkpt>
      <trkpt lat="47.27422" lon="-2.25317">
        <ele>1.7999999523163</ele>
        <time>2020-05-28T08:41:58.000Z</time>
      </trkpt>
      <trkpt lat="47.27422" lon="-2.25313">
        <ele>1.7999999523163</ele>
        <time>2020-05-28T08:42:00.000Z</time>
      </trkpt>
      <trkpt lat="47.27416" lon="-2.25301">
        <ele>1.7999999523163</ele>
        <time>2020-05-28T08:42:05.000Z</time>
      </trkpt>
      <trkpt lat="47.27412" lon="-2.25292">
        <ele>1.7999999523163</ele>
        <time>2020-05-28T08:42:07.000Z</time>
      </trkpt>
      <trkpt lat="47.27408" lon="-2.25282">
        <ele>1.7999999523163</ele>
        <time>2020-05-28T08:42:10.000Z</time>
      </trkpt>
      <trkpt lat="47.27399" lon="-2.25263">
        <ele>1.7999999523163</ele>
        <time>2020-05-28T08:42:15.000Z</time>
      </trkpt>
      <trkpt lat="47.27392" lon="-2.2524">
        <ele>1.7999999523163</ele>
        <time>2020-05-28T08:42:20.000Z</time>
      </trkpt>
      <trkpt lat="47.27395" lon="-2.25208">
        <ele>1.7999999523163</ele>
        <time>2020-05-28T08:42:25.000Z</time>
      </trkpt>
      <trkpt lat="47.27389" lon="-2.25175">
        <ele>1.7999999523163</ele>
        <time>2020-05-28T08:42:30.000Z</time>
      </trkpt>
      <trkpt lat="47.27376" lon="-2.25139">
        <ele>1.7999999523163</ele>
        <time>2020-05-28T08:42:36.000Z</time>
      </trkpt>
      <trkpt lat="47.27366" lon="-2.25117">
        <ele>1.7999999523163</ele>
        <time>2020-05-28T08:42:42.000Z</time>
      </trkpt>
      <trkpt lat="47.27358" lon="-2.25101">
        <ele>1.7999999523163</ele>
        <time>2020-05-28T08:42:45.000Z</time>
      </trkpt>
      <trkpt lat="47.27353" lon="-2.25088">
        <ele>1.7999999523163</ele>
        <time>2020-05-28T08:42:47.000Z</time>
      </trkpt>
      <trkpt lat="47.27342" lon="-2.25055">
        <ele>1.7999999523163</ele>
        <time>2020-05-28T08:42:52.000Z</time>
      </trkpt>
      <trkpt lat="47.27337" lon="-2.25035">
        <ele>1.7999999523163</ele>
        <time>2020-05-28T08:42:55.000Z</time>
      </trkpt>
      <trkpt lat="47.2733" lon="-2.25002">
        <ele>1.7999999523163</ele>
        <time>2020-05-28T08:43:00.000Z</time>
      </trkpt>
      <trkpt lat="47.27331" lon="-2.24996">
        <ele>1.7999999523163</ele>
        <time>2020-05-28T08:43:01.000Z</time>
      </trkpt>
      <trkpt lat="47.27337" lon="-2.24973">
        <ele>1.7999999523163</ele>
        <time>2020-05-28T08:43:05.000Z</time>
      </trkpt>
      <trkpt lat="47.2735" lon="-2.24954">
        <ele>1.7999999523163</ele>
        <time>2020-05-28T08:43:09.000Z</time>
      </trkpt>
      <trkpt lat="47.27354" lon="-2.24948">
        <ele>1.7999999523163</ele>
        <time>2020-05-28T08:43:10.000Z</time>
      </trkpt>
      <trkpt lat="47.27372" lon="-2.24934">
        <ele>1.7999999523163</ele>
        <time>2020-05-28T08:43:15.000Z</time>
      </trkpt>
      <trkpt lat="47.27385" lon="-2.24948">
        <ele>1.7999999523163</ele>
        <time>2020-05-28T08:43:19.000Z</time>
      </trkpt>
      <trkpt lat="47.27393" lon="-2.24957">
        <ele>1.7999999523163</ele>
        <time>2020-05-28T08:43:21.000Z</time>
      </trkpt>
      <trkpt lat="47.27402" lon="-2.24961">
        <ele>1.7999999523163</ele>
        <time>2020-05-28T08:43:23.000Z</time>
      </trkpt>
      <trkpt lat="47.27405" lon="-2.24962">
        <ele>1.7999999523163</ele>
        <time>2020-05-28T08:43:24.000Z</time>
      </trkpt>
      <trkpt lat="47.27409" lon="-2.24961">
        <ele>1.7999999523163</ele>
        <time>2020-05-28T08:43:25.000Z</time>
      </trkpt>
      <trkpt lat="47.27417" lon="-2.24955">
        <ele>1.7999999523163</ele>
        <time>2020-05-28T08:43:27.000Z</time>
      </trkpt>
      <trkpt lat="47.27434" lon="-2.2495">
        <ele>1.7999999523163</ele>
        <time>2020-05-28T08:43:31.000Z</time>
      </trkpt>
      <trkpt lat="47.27449" lon="-2.24958">
        <ele>1.7999999523163</ele>
        <time>2020-05-28T08:43:34.000Z</time>
      </trkpt>
      <trkpt lat="47.27454" lon="-2.2496">
        <ele>1.7999999523163</ele>
        <time>2020-05-28T08:43:35.000Z</time>
      </trkpt>
      <trkpt lat="47.27459" lon="-2.24965">
        <ele>1.7999999523163</ele>
        <time>2020-05-28T08:43:36.000Z</time>
      </trkpt>
      <trkpt lat="47.27478" lon="-2.24979">
        <ele>1.7999999523163</ele>
        <time>2020-05-28T08:43:40.000Z</time>
      </trkpt>
      <trkpt lat="47.27498" lon="-2.24999">
        <ele>1.7999999523163</ele>
        <time>2020-05-28T08:43:45.000Z</time>
      </trkpt>
      <trkpt lat="47.2752" lon="-2.25019">
        <ele>1.7999999523163</ele>
        <time>2020-05-28T08:43:50.000Z</time>
      </trkpt>
      <trkpt lat="47.27524" lon="-2.25023">
        <ele>1.7999999523163</ele>
        <time>2020-05-28T08:43:51.000Z</time>
      </trkpt>
      <trkpt lat="47.27553" lon="-2.25057">
        <ele>1.7999999523163</ele>
        <time>2020-05-28T08:43:58.000Z</time>
      </trkpt>
      <trkpt lat="47.27559" lon="-2.2506">
        <ele>1.7999999523163</ele>
        <time>2020-05-28T08:43:59.000Z</time>
      </trkpt>
      <trkpt lat="47.27581" lon="-2.25072">
        <ele>1.7999999523163</ele>
        <time>2020-05-28T08:44:03.000Z</time>
      </trkpt>
      <trkpt lat="47.27606" lon="-2.25083">
        <ele>1.7999999523163</ele>
        <time>2020-05-28T08:44:08.000Z</time>
      </trkpt>
      <trkpt lat="47.27611" lon="-2.25086">
        <ele>1.7999999523163</ele>
        <time>2020-05-28T08:44:09.000Z</time>
      </trkpt>
      <trkpt lat="47.27639" lon="-2.25097">
        <ele>1.7999999523163</ele>
        <time>2020-05-28T08:44:15.000Z</time>
      </trkpt>
      <trkpt lat="47.27644" lon="-2.25097">
        <ele>1.7999999523163</ele>
        <time>2020-05-28T08:44:16.000Z</time>
      </trkpt>
      <trkpt lat="47.27655" lon="-2.25093">
        <ele>1.7999999523163</ele>
        <time>2020-05-28T08:44:19.000Z</time>
      </trkpt>
      <trkpt lat="47.27663" lon="-2.2509">
        <ele>1.7999999523163</ele>
        <time>2020-05-28T08:44:21.000Z</time>
      </trkpt>
      <trkpt lat="47.27678" lon="-2.25083">
        <ele>1.7999999523163</ele>
        <time>2020-05-28T08:44:25.000Z</time>
      </trkpt>
      <trkpt lat="47.27687" lon="-2.25082">
        <ele>1.7999999523163</ele>
        <time>2020-05-28T08:44:27.000Z</time>
      </trkpt>
      <trkpt lat="47.27695" lon="-2.25079">
        <ele>1.7999999523163</ele>
        <time>2020-05-28T08:44:29.000Z</time>
      </trkpt>
      <trkpt lat="47.27708" lon="-2.25066">
        <ele>1.7999999523163</ele>
        <time>2020-05-28T08:44:32.000Z</time>
      </trkpt>
      <trkpt lat="47.27739" lon="-2.2504">
        <ele>1.7999999523163</ele>
        <time>2020-05-28T08:44:38.000Z</time>
      </trkpt>
      <trkpt lat="47.27761" lon="-2.25026">
        <ele>1.7999999523163</ele>
        <time>2020-05-28T08:44:42.000Z</time>
      </trkpt>
      <trkpt lat="47.27765" lon="-2.25024">
        <ele>1.7999999523163</ele>
        <time>2020-05-28T08:44:43.000Z</time>
      </trkpt>
      <trkpt lat="47.27784" lon="-2.25019">
        <ele>1.7999999523163</ele>
        <time>2020-05-28T08:44:46.000Z</time>
      </trkpt>
      <trkpt lat="47.27795" lon="-2.25022">
        <ele>1.7999999523163</ele>
        <time>2020-05-28T08:44:48.000Z</time>
      </trkpt>
      <trkpt lat="47.27817" lon="-2.25035">
        <ele>1.7999999523163</ele>
        <time>2020-05-28T08:44:52.000Z</time>
      </trkpt>
      <trkpt lat="47.27823" lon="-2.25039">
        <ele>1.7999999523163</ele>
        <time>2020-05-28T08:44:53.000Z</time>
      </trkpt>
      <trkpt lat="47.27851" lon="-2.25055">
        <ele>1.7999999523163</ele>
        <time>2020-05-28T08:44:58.000Z</time>
      </trkpt>
      <trkpt lat="47.27857" lon="-2.25056">
        <ele>1.7999999523163</ele>
        <time>2020-05-28T08:44:59.000Z</time>
      </trkpt>
      <trkpt lat="47.27883" lon="-2.25072">
        <ele>1.7999999523163</ele>
        <time>2020-05-28T08:45:04.000Z</time>
      </trkpt>
      <trkpt lat="47.27904" lon="-2.25083">
        <ele>1.7999999523163</ele>
        <time>2020-05-28T08:45:08.000Z</time>
      </trkpt>
      <trkpt lat="47.27909" lon="-2.25081">
        <ele>1.7999999523163</ele>
        <time>2020-05-28T08:45:09.000Z</time>
      </trkpt>
      <trkpt lat="47.2793" lon="-2.25074">
        <ele>1.7999999523163</ele>
        <time>2020-05-28T08:45:13.000Z</time>
      </trkpt>
      <trkpt lat="47.27936" lon="-2.25073">
        <ele>1.7999999523163</ele>
        <time>2020-05-28T08:45:14.000Z</time>
      </trkpt>
      <trkpt lat="47.27963" lon="-2.25071">
        <ele>1.7999999523163</ele>
        <time>2020-05-28T08:45:19.000Z</time>
      </trkpt>
      <trkpt lat="47.27986" lon="-2.2507">
        <ele>1.7999999523163</ele>
        <time>2020-05-28T08:45:25.000Z</time>
      </trkpt>
      <trkpt lat="47.28003" lon="-2.25084">
        <ele>1.7999999523163</ele>
        <time>2020-05-28T08:45:30.000Z</time>
      </trkpt>
      <trkpt lat="47.28032" lon="-2.25107">
        <ele>1.7999999523163</ele>
        <time>2020-05-28T08:45:37.000Z</time>
      </trkpt>
      <trkpt lat="47.28074" lon="-2.25141">
        <ele>1.7999999523163</ele>
        <time>2020-05-28T08:45:46.000Z</time>
      </trkpt>
      <trkpt lat="47.28088" lon="-2.25156">
        <ele>1.7999999523163</ele>
        <time>2020-05-28T08:45:49.000Z</time>
      </trkpt>
      <trkpt lat="47.281" lon="-2.25175">
        <ele>1.7999999523163</ele>
        <time>2020-05-28T08:45:52.000Z</time>
      </trkpt>
      <trkpt lat="47.281" lon="-2.25181">
        <ele>1.7999999523163</ele>
        <time>2020-05-28T08:45:53.000Z</time>
      </trkpt>
      <trkpt lat="47.281" lon="-2.25193">
        <ele>1.7999999523163</ele>
        <time>2020-05-28T08:45:55.000Z</time>
      </trkpt>
      <trkpt lat="47.28099" lon="-2.25201">
        <ele>1.7999999523163</ele>
        <time>2020-05-28T08:45:56.000Z</time>
      </trkpt>
      <trkpt lat="47.28097" lon="-2.25222">
        <ele>1.7999999523163</ele>
        <time>2020-05-28T08:45:59.000Z</time>
      </trkpt>
      <trkpt lat="47.28096" lon="-2.25228">
        <ele>1.7999999523163</ele>
        <time>2020-05-28T08:46:00.000Z</time>
      </trkpt>
      <trkpt lat="47.28085" lon="-2.25266">
        <ele>1.7999999523163</ele>
        <time>2020-05-28T08:46:05.000Z</time>
      </trkpt>
      <trkpt lat="47.28083" lon="-2.25276">
        <ele>1.7999999523163</ele>
        <time>2020-05-28T08:46:06.000Z</time>
      </trkpt>
      <trkpt lat="47.28081" lon="-2.25302">
        <ele>1.7999999523163</ele>
        <time>2020-05-28T08:46:09.000Z</time>
      </trkpt>
      <trkpt lat="47.28082" lon="-2.25364">
        <ele>1.7999999523163</ele>
        <time>2020-05-28T08:46:16.000Z</time>
      </trkpt>
      <trkpt lat="47.28081" lon="-2.254">
        <ele>1.7999999523163</ele>
        <time>2020-05-28T08:46:20.000Z</time>
      </trkpt>
      <trkpt lat="47.28082" lon="-2.25417">
        <ele>1.7999999523163</ele>
        <time>2020-05-28T08:46:22.000Z</time>
      </trkpt>
      <trkpt lat="47.28088" lon="-2.25462">
        <ele>1.7999999523163</ele>
        <time>2020-05-28T08:46:28.000Z</time>
      </trkpt>
      <trkpt lat="47.28093" lon="-2.25474">
        <ele>1.7999999523163</ele>
        <time>2020-05-28T08:46:32.000Z</time>
      </trkpt>
      <trkpt lat="47.28105" lon="-2.25473">
        <ele>1.7999999523163</ele>
        <time>2020-05-28T08:46:37.000Z</time>
      </trkpt>
      <trkpt lat="47.28109" lon="-2.2547">
        <ele>1.7999999523163</ele>
        <time>2020-05-28T08:46:39.000Z</time>
      </trkpt>
      <trkpt lat="47.28114" lon="-2.25464">
        <ele>1.7999999523163</ele>
        <time>2020-05-28T08:46:41.000Z</time>
      </trkpt>
      <trkpt lat="47.28123" lon="-2.25459">
        <ele>2.2000000476837</ele>
        <time>2020-05-28T08:46:43.000Z</time>
      </trkpt>
      <trkpt lat="47.28127" lon="-2.25456">
        <ele>2.5999999046326</ele>
        <time>2020-05-28T08:46:44.000Z</time>
      </trkpt>
      <trkpt lat="47.2813" lon="-2.25454">
        <ele>3.2000000476837</ele>
        <time>2020-05-28T08:46:45.000Z</time>
      </trkpt>
      <trkpt lat="47.28134" lon="-2.25453">
        <ele>3.5999999046326</ele>
        <time>2020-05-28T08:46:46.000Z</time>
      </trkpt>
      <trkpt lat="47.28137" lon="-2.25452">
        <ele>4</ele>
        <time>2020-05-28T08:46:47.000Z</time>
      </trkpt>
      <trkpt lat="47.2815" lon="-2.25442">
        <ele>4</ele>
        <time>2020-05-28T08:46:51.000Z</time>
      </trkpt>
      <trkpt lat="47.28169" lon="-2.25433">
        <ele>4</ele>
        <time>2020-05-28T08:46:57.000Z</time>
      </trkpt>
      <trkpt lat="47.28181" lon="-2.25424">
        <ele>4.4000000953674</ele>
        <time>2020-05-28T08:47:01.000Z</time>
      </trkpt>
      <trkpt lat="47.28184" lon="-2.25423">
        <ele>4.8000001907349</ele>
        <time>2020-05-28T08:47:02.000Z</time>
      </trkpt>
      <trkpt lat="47.28186" lon="-2.2542">
        <ele>5.1999998092651</ele>
        <time>2020-05-28T08:47:03.000Z</time>
      </trkpt>
      <trkpt lat="47.28189" lon="-2.25417">
        <ele>5.5999999046326</ele>
        <time>2020-05-28T08:47:04.000Z</time>
      </trkpt>
      <trkpt lat="47.28193" lon="-2.25413">
        <ele>6</ele>
        <time>2020-05-28T08:47:05.000Z</time>
      </trkpt>
      <trkpt lat="47.28203" lon="-2.25405">
        <ele>6</ele>
        <time>2020-05-28T08:47:08.000Z</time>
      </trkpt>
      <trkpt lat="47.28215" lon="-2.25398">
        <ele>6.4000000953674</ele>
        <time>2020-05-28T08:47:12.000Z</time>
      </trkpt>
      <trkpt lat="47.28219" lon="-2.25394">
        <ele>6.8000001907349</ele>
        <time>2020-05-28T08:47:13.000Z</time>
      </trkpt>
      <trkpt lat="47.28221" lon="-2.25392">
        <ele>7.4000000953674</ele>
        <time>2020-05-28T08:47:14.000Z</time>
      </trkpt>
      <trkpt lat="47.28223" lon="-2.25391">
        <ele>7.8000001907349</ele>
        <time>2020-05-28T08:47:15.000Z</time>
      </trkpt>
      <trkpt lat="47.28224" lon="-2.25389">
        <ele>8.1999998092651</ele>
        <time>2020-05-28T08:47:16.000Z</time>
      </trkpt>
      <trkpt lat="47.28228" lon="-2.25384">
        <ele>8.1999998092651</ele>
        <time>2020-05-28T08:47:19.000Z</time>
      </trkpt>
      <trkpt lat="47.28235" lon="-2.25379">
        <ele>8.6000003814697</ele>
        <time>2020-05-28T08:47:22.000Z</time>
      </trkpt>
      <trkpt lat="47.28237" lon="-2.25377">
        <ele>9</ele>
        <time>2020-05-28T08:47:23.000Z</time>
      </trkpt>
      <trkpt lat="47.28239" lon="-2.25375">
        <ele>9.3999996185303</ele>
        <time>2020-05-28T08:47:24.000Z</time>
      </trkpt>
      <trkpt lat="47.28242" lon="-2.25372">
        <ele>9.8000001907349</ele>
        <time>2020-05-28T08:47:25.000Z</time>
      </trkpt>
      <trkpt lat="47.28244" lon="-2.2537">
        <ele>10.39999961853</ele>
        <time>2020-05-28T08:47:26.000Z</time>
      </trkpt>
      <trkpt lat="47.28265" lon="-2.25361">
        <ele>10.39999961853</ele>
        <time>2020-05-28T08:47:32.000Z</time>
      </trkpt>
      <trkpt lat="47.28285" lon="-2.25361">
        <ele>10.39999961853</ele>
        <time>2020-05-28T08:47:38.000Z</time>
      </trkpt>
      <trkpt lat="47.28289" lon="-2.25361">
        <ele>10.800000190735</ele>
        <time>2020-05-28T08:47:39.000Z</time>
      </trkpt>
      <trkpt lat="47.28292" lon="-2.2536">
        <ele>11.199999809265</ele>
        <time>2020-05-28T08:47:40.000Z</time>
      </trkpt>
      <trkpt lat="47.28295" lon="-2.25358">
        <ele>11.60000038147</ele>
        <time>2020-05-28T08:47:41.000Z</time>
      </trkpt>
      <trkpt lat="47.28299" lon="-2.25355">
        <ele>12</ele>
        <time>2020-05-28T08:47:42.000Z</time>
      </trkpt>
      <trkpt lat="47.283" lon="-2.25354">
        <ele>12.60000038147</ele>
        <time>2020-05-28T08:47:43.000Z</time>
      </trkpt>
      <trkpt lat="47.28304" lon="-2.25352">
        <ele>12.60000038147</ele>
        <time>2020-05-28T08:47:44.000Z</time>
      </trkpt>
      <trkpt lat="47.28322" lon="-2.25345">
        <ele>12.60000038147</ele>
        <time>2020-05-28T08:47:50.000Z</time>
      </trkpt>
      <trkpt lat="47.28324" lon="-2.25343">
        <ele>12.60000038147</ele>
        <time>2020-05-28T08:47:51.000Z</time>
      </trkpt>
      <trkpt lat="47.28338" lon="-2.25333">
        <ele>12.60000038147</ele>
        <time>2020-05-28T08:47:57.000Z</time>
      </trkpt>
      <trkpt lat="47.28345" lon="-2.25329">
        <ele>13</ele>
        <time>2020-05-28T08:48:00.000Z</time>
      </trkpt>
      <trkpt lat="47.28347" lon="-2.25328">
        <ele>13.39999961853</ele>
        <time>2020-05-28T08:48:01.000Z</time>
      </trkpt>
      <trkpt lat="47.28349" lon="-2.25326">
        <ele>13.800000190735</ele>
        <time>2020-05-28T08:48:02.000Z</time>
      </trkpt>
      <trkpt lat="47.28351" lon="-2.25324">
        <ele>14.199999809265</ele>
        <time>2020-05-28T08:48:03.000Z</time>
      </trkpt>
      <trkpt lat="47.28354" lon="-2.25321">
        <ele>14.60000038147</ele>
        <time>2020-05-28T08:48:04.000Z</time>
      </trkpt>
      <trkpt lat="47.28373" lon="-2.25312">
        <ele>14.60000038147</ele>
        <time>2020-05-28T08:48:11.000Z</time>
      </trkpt>
      <trkpt lat="47.28381" lon="-2.25315">
        <ele>14.60000038147</ele>
        <time>2020-05-28T08:48:13.000Z</time>
      </trkpt>
      <trkpt lat="47.28383" lon="-2.25319">
        <ele>14.60000038147</ele>
        <time>2020-05-28T08:48:14.000Z</time>
      </trkpt>
      <trkpt lat="47.28385" lon="-2.2534">
        <ele>14.60000038147</ele>
        <time>2020-05-28T08:48:19.000Z</time>
      </trkpt>
      <trkpt lat="47.28383" lon="-2.25372">
        <ele>14.60000038147</ele>
        <time>2020-05-28T08:48:25.000Z</time>
      </trkpt>
      <trkpt lat="47.28378" lon="-2.25414">
        <ele>14.60000038147</ele>
        <time>2020-05-28T08:48:32.000Z</time>
      </trkpt>
      <trkpt lat="47.28376" lon="-2.25459">
        <ele>14.60000038147</ele>
        <time>2020-05-28T08:48:38.000Z</time>
      </trkpt>
      <trkpt lat="47.28375" lon="-2.25466">
        <ele>14.60000038147</ele>
        <time>2020-05-28T08:48:39.000Z</time>
      </trkpt>
      <trkpt lat="47.28373" lon="-2.25481">
        <ele>14.60000038147</ele>
        <time>2020-05-28T08:48:41.000Z</time>
      </trkpt>
      <trkpt lat="47.28372" lon="-2.25497">
        <ele>14.60000038147</ele>
        <time>2020-05-28T08:48:43.000Z</time>
      </trkpt>
      <trkpt lat="47.28372" lon="-2.25504">
        <ele>14.60000038147</ele>
        <time>2020-05-28T08:48:44.000Z</time>
      </trkpt>
      <trkpt lat="47.28372" lon="-2.25529">
        <ele>14.60000038147</ele>
        <time>2020-05-28T08:48:48.000Z</time>
      </trkpt>
      <trkpt lat="47.28372" lon="-2.25536">
        <ele>14.60000038147</ele>
        <time>2020-05-28T08:48:49.000Z</time>
      </trkpt>
      <trkpt lat="47.28368" lon="-2.25565">
        <ele>14.60000038147</ele>
        <time>2020-05-28T08:48:53.000Z</time>
      </trkpt>
      <trkpt lat="47.28365" lon="-2.25607">
        <ele>14.60000038147</ele>
        <time>2020-05-28T08:48:59.000Z</time>
      </trkpt>
      <trkpt lat="47.28364" lon="-2.25614">
        <ele>14.60000038147</ele>
        <time>2020-05-28T08:49:00.000Z</time>
      </trkpt>
      <trkpt lat="47.28364" lon="-2.2562">
        <ele>14.60000038147</ele>
        <time>2020-05-28T08:49:01.000Z</time>
      </trkpt>
      <trkpt lat="47.28367" lon="-2.25639">
        <ele>14.60000038147</ele>
        <time>2020-05-28T08:49:04.000Z</time>
      </trkpt>
      <trkpt lat="47.28378" lon="-2.25669">
        <ele>14.60000038147</ele>
        <time>2020-05-28T08:49:10.000Z</time>
      </trkpt>
      <trkpt lat="47.28379" lon="-2.25681">
        <ele>14.60000038147</ele>
        <time>2020-05-28T08:49:12.000Z</time>
      </trkpt>
      <trkpt lat="47.28381" lon="-2.25698">
        <ele>14.60000038147</ele>
        <time>2020-05-28T08:49:15.000Z</time>
      </trkpt>
      <trkpt lat="47.28382" lon="-2.25712">
        <ele>14.60000038147</ele>
        <time>2020-05-28T08:49:19.000Z</time>
      </trkpt>
      <trkpt lat="47.28381" lon="-2.25719">
        <ele>15.39999961853</ele>
        <time>2020-05-28T08:49:24.000Z</time>
      </trkpt>
      <trkpt lat="47.28381" lon="-2.2572">
        <ele>15.800000190735</ele>
        <time>2020-05-28T08:49:25.000Z</time>
      </trkpt>
      <trkpt lat="47.28382" lon="-2.25721">
        <ele>16.200000762939</ele>
        <time>2020-05-28T08:49:26.000Z</time>
      </trkpt>
      <trkpt lat="47.28382" lon="-2.25723">
        <ele>16.60000038147</ele>
        <time>2020-05-28T08:49:27.000Z</time>
      </trkpt>
      <trkpt lat="47.28382" lon="-2.25729">
        <ele>16.60000038147</ele>
        <time>2020-05-28T08:49:31.000Z</time>
      </trkpt>
      <trkpt lat="47.28381" lon="-2.25749">
        <ele>16.60000038147</ele>
        <time>2020-05-28T08:49:36.000Z</time>
      </trkpt>
      <trkpt lat="47.28378" lon="-2.25784">
        <ele>16.60000038147</ele>
        <time>2020-05-28T08:49:45.000Z</time>
      </trkpt>
      <trkpt lat="47.28377" lon="-2.25799">
        <ele>16.60000038147</ele>
        <time>2020-05-28T08:49:50.000Z</time>
      </trkpt>
      <trkpt lat="47.28377" lon="-2.25801">
        <ele>16.60000038147</ele>
        <time>2020-05-28T08:49:51.000Z</time>
      </trkpt>
      <trkpt lat="47.28378" lon="-2.25811">
        <ele>16.60000038147</ele>
        <time>2020-05-28T08:49:54.000Z</time>
      </trkpt>
      <trkpt lat="47.28387" lon="-2.25837">
        <ele>16.60000038147</ele>
        <time>2020-05-28T08:49:59.000Z</time>
      </trkpt>
      <trkpt lat="47.28388" lon="-2.25843">
        <ele>16.60000038147</ele>
        <time>2020-05-28T08:50:00.000Z</time>
      </trkpt>
      <trkpt lat="47.28394" lon="-2.25865">
        <ele>16.60000038147</ele>
        <time>2020-05-28T08:50:05.000Z</time>
      </trkpt>
      <trkpt lat="47.28405" lon="-2.25874">
        <ele>16.60000038147</ele>
        <time>2020-05-28T08:50:10.000Z</time>
      </trkpt>
      <trkpt lat="47.28407" lon="-2.25875">
        <ele>16.60000038147</ele>
        <time>2020-05-28T08:50:11.000Z</time>
      </trkpt>
      <trkpt lat="47.28407" lon="-2.25885">
        <ele>16.60000038147</ele>
        <time>2020-05-28T08:50:14.000Z</time>
      </trkpt>
      <trkpt lat="47.28406" lon="-2.25895">
        <ele>16.60000038147</ele>
        <time>2020-05-28T08:50:16.000Z</time>
      </trkpt>
      <trkpt lat="47.28404" lon="-2.2591">
        <ele>16.60000038147</ele>
        <time>2020-05-28T08:50:18.000Z</time>
      </trkpt>
      <trkpt lat="47.28402" lon="-2.2594">
        <ele>16.60000038147</ele>
        <time>2020-05-28T08:50:22.000Z</time>
      </trkpt>
      <trkpt lat="47.28404" lon="-2.25952">
        <ele>16.60000038147</ele>
        <time>2020-05-28T08:50:24.000Z</time>
      </trkpt>
      <trkpt lat="47.28414" lon="-2.25957">
        <ele>16.60000038147</ele>
        <time>2020-05-28T08:50:27.000Z</time>
      </trkpt>
      <trkpt lat="47.28424" lon="-2.25956">
        <ele>16.60000038147</ele>
        <time>2020-05-28T08:50:29.000Z</time>
      </trkpt>
      <trkpt lat="47.2844" lon="-2.25957">
        <ele>16.60000038147</ele>
        <time>2020-05-28T08:50:32.000Z</time>
      </trkpt>
      <trkpt lat="47.28451" lon="-2.25957">
        <ele>16.60000038147</ele>
        <time>2020-05-28T08:50:34.000Z</time>
      </trkpt>
      <trkpt lat="47.28462" lon="-2.2596">
        <ele>16.60000038147</ele>
        <time>2020-05-28T08:50:36.000Z</time>
      </trkpt>
      <trkpt lat="47.28507" lon="-2.25965">
        <ele>16.60000038147</ele>
        <time>2020-05-28T08:50:44.000Z</time>
      </trkpt>
      <trkpt lat="47.28513" lon="-2.25965">
        <ele>16.200000762939</ele>
        <time>2020-05-28T08:50:45.000Z</time>
      </trkpt>
      <trkpt lat="47.2852" lon="-2.25966">
        <ele>15.800000190735</ele>
        <time>2020-05-28T08:50:46.000Z</time>
      </trkpt>
      <trkpt lat="47.28526" lon="-2.25966">
        <ele>15.39999961853</ele>
        <time>2020-05-28T08:50:47.000Z</time>
      </trkpt>
      <trkpt lat="47.28532" lon="-2.25967">
        <ele>15</ele>
        <time>2020-05-28T08:50:48.000Z</time>
      </trkpt>
      <trkpt lat="47.28538" lon="-2.25967">
        <ele>14.60000038147</ele>
        <time>2020-05-28T08:50:49.000Z</time>
      </trkpt>
      <trkpt lat="47.28545" lon="-2.25968">
        <ele>14.60000038147</ele>
        <time>2020-05-28T08:50:50.000Z</time>
      </trkpt>
      <trkpt lat="47.28556" lon="-2.25969">
        <ele>14.60000038147</ele>
        <time>2020-05-28T08:50:52.000Z</time>
      </trkpt>
      <trkpt lat="47.28573" lon="-2.25971">
        <ele>14.60000038147</ele>
        <time>2020-05-28T08:50:55.000Z</time>
      </trkpt>
      <trkpt lat="47.286" lon="-2.25978">
        <ele>14.60000038147</ele>
        <time>2020-05-28T08:51:00.000Z</time>
      </trkpt>
      <trkpt lat="47.28604" lon="-2.25982">
        <ele>14.60000038147</ele>
        <time>2020-05-28T08:51:01.000Z</time>
      </trkpt>
      <trkpt lat="47.28607" lon="-2.25994">
        <ele>13.800000190735</ele>
        <time>2020-05-28T08:51:03.000Z</time>
      </trkpt>
      <trkpt lat="47.28606" lon="-2.26">
        <ele>13.39999961853</ele>
        <time>2020-05-28T08:51:04.000Z</time>
      </trkpt>
      <trkpt lat="47.28605" lon="-2.26007">
        <ele>13</ele>
        <time>2020-05-28T08:51:05.000Z</time>
      </trkpt>
      <trkpt lat="47.28605" lon="-2.26014">
        <ele>12.60000038147</ele>
        <time>2020-05-28T08:51:06.000Z</time>
      </trkpt>
      <trkpt lat="47.28605" lon="-2.26036">
        <ele>12.60000038147</ele>
        <time>2020-05-28T08:51:09.000Z</time>
      </trkpt>
      <trkpt lat="47.28603" lon="-2.26085">
        <ele>12.60000038147</ele>
        <time>2020-05-28T08:51:16.000Z</time>
      </trkpt>
      <trkpt lat="47.286" lon="-2.26143">
        <ele>12.60000038147</ele>
        <time>2020-05-28T08:51:24.000Z</time>
      </trkpt>
      <trkpt lat="47.286" lon="-2.26193">
        <ele>12.60000038147</ele>
        <time>2020-05-28T08:51:30.000Z</time>
      </trkpt>
      <trkpt lat="47.28601" lon="-2.26203">
        <ele>12.60000038147</ele>
        <time>2020-05-28T08:51:31.000Z</time>
      </trkpt>
      <trkpt lat="47.28607" lon="-2.26228">
        <ele>12.60000038147</ele>
        <time>2020-05-28T08:51:34.000Z</time>
      </trkpt>
      <trkpt lat="47.28613" lon="-2.26241">
        <ele>12.60000038147</ele>
        <time>2020-05-28T08:51:36.000Z</time>
      </trkpt>
      <trkpt lat="47.28621" lon="-2.26254">
        <ele>12.60000038147</ele>
        <time>2020-05-28T08:51:38.000Z</time>
      </trkpt>
      <trkpt lat="47.28635" lon="-2.26279">
        <ele>12.60000038147</ele>
        <time>2020-05-28T08:51:42.000Z</time>
      </trkpt>
      <trkpt lat="47.2864" lon="-2.26293">
        <ele>12.60000038147</ele>
        <time>2020-05-28T08:51:44.000Z</time>
      </trkpt>
      <trkpt lat="47.28649" lon="-2.26318">
        <ele>12.60000038147</ele>
        <time>2020-05-28T08:51:48.000Z</time>
      </trkpt>
      <trkpt lat="47.2866" lon="-2.26344">
        <ele>12.60000038147</ele>
        <time>2020-05-28T08:51:52.000Z</time>
      </trkpt>
      <trkpt lat="47.28677" lon="-2.26366">
        <ele>12.60000038147</ele>
        <time>2020-05-28T08:51:56.000Z</time>
      </trkpt>
      <trkpt lat="47.28682" lon="-2.2637">
        <ele>12.60000038147</ele>
        <time>2020-05-28T08:51:57.000Z</time>
      </trkpt>
      <trkpt lat="47.28699" lon="-2.26386">
        <ele>12.60000038147</ele>
        <time>2020-05-28T08:52:01.000Z</time>
      </trkpt>
      <trkpt lat="47.28712" lon="-2.26398">
        <ele>12.60000038147</ele>
        <time>2020-05-28T08:52:06.000Z</time>
      </trkpt>
      <trkpt lat="47.28719" lon="-2.26393">
        <ele>12.60000038147</ele>
        <time>2020-05-28T08:52:10.000Z</time>
      </trkpt>
      <trkpt lat="47.2872" lon="-2.2639">
        <ele>12.60000038147</ele>
        <time>2020-05-28T08:52:11.000Z</time>
      </trkpt>
      <trkpt lat="47.28726" lon="-2.26366">
        <ele>12.60000038147</ele>
        <time>2020-05-28T08:52:16.000Z</time>
      </trkpt>
      <trkpt lat="47.28727" lon="-2.26362">
        <ele>12.60000038147</ele>
        <time>2020-05-28T08:52:17.000Z</time>
      </trkpt>
      <trkpt lat="47.28729" lon="-2.26359">
        <ele>12.60000038147</ele>
        <time>2020-05-28T08:52:18.000Z</time>
      </trkpt>
      <trkpt lat="47.28734" lon="-2.26359">
        <ele>12.60000038147</ele>
        <time>2020-05-28T08:52:20.000Z</time>
      </trkpt>
      <trkpt lat="47.28752" lon="-2.26359">
        <ele>12.60000038147</ele>
        <time>2020-05-28T08:52:25.000Z</time>
      </trkpt>
      <trkpt lat="47.28779" lon="-2.2636">
        <ele>13</ele>
        <time>2020-05-28T08:52:31.000Z</time>
      </trkpt>
      <trkpt lat="47.28784" lon="-2.26361">
        <ele>13.39999961853</ele>
        <time>2020-05-28T08:52:32.000Z</time>
      </trkpt>
      <trkpt lat="47.28788" lon="-2.26362">
        <ele>13.800000190735</ele>
        <time>2020-05-28T08:52:33.000Z</time>
      </trkpt>
      <trkpt lat="47.28792" lon="-2.26363">
        <ele>14.199999809265</ele>
        <time>2020-05-28T08:52:34.000Z</time>
      </trkpt>
      <trkpt lat="47.28796" lon="-2.26363">
        <ele>14.60000038147</ele>
        <time>2020-05-28T08:52:35.000Z</time>
      </trkpt>
      <trkpt lat="47.28801" lon="-2.26364">
        <ele>14.60000038147</ele>
        <time>2020-05-28T08:52:36.000Z</time>
      </trkpt>
      <trkpt lat="47.28809" lon="-2.26362">
        <ele>14.60000038147</ele>
        <time>2020-05-28T08:52:38.000Z</time>
      </trkpt>
      <trkpt lat="47.2883" lon="-2.26364">
        <ele>14.60000038147</ele>
        <time>2020-05-28T08:52:43.000Z</time>
      </trkpt>
      <trkpt lat="47.28834" lon="-2.26366">
        <ele>14.60000038147</ele>
        <time>2020-05-28T08:52:44.000Z</time>
      </trkpt>
      <trkpt lat="47.28839" lon="-2.26367">
        <ele>14.60000038147</ele>
        <time>2020-05-28T08:52:45.000Z</time>
      </trkpt>
      <trkpt lat="47.28853" lon="-2.26365">
        <ele>14.60000038147</ele>
        <time>2020-05-28T08:52:48.000Z</time>
      </trkpt>
      <trkpt lat="47.28879" lon="-2.26359">
        <ele>15</ele>
        <time>2020-05-28T08:52:54.000Z</time>
      </trkpt>
      <trkpt lat="47.28884" lon="-2.26359">
        <ele>15.39999961853</ele>
        <time>2020-05-28T08:52:55.000Z</time>
      </trkpt>
      <trkpt lat="47.28888" lon="-2.26359">
        <ele>15.800000190735</ele>
        <time>2020-05-28T08:52:56.000Z</time>
      </trkpt>
      <trkpt lat="47.28893" lon="-2.2636">
        <ele>16.200000762939</ele>
        <time>2020-05-28T08:52:57.000Z</time>
      </trkpt>
      <trkpt lat="47.28898" lon="-2.26361">
        <ele>16.60000038147</ele>
        <time>2020-05-28T08:52:58.000Z</time>
      </trkpt>
      <trkpt lat="47.28932" lon="-2.26369">
        <ele>16.60000038147</ele>
        <time>2020-05-28T08:53:05.000Z</time>
      </trkpt>
      <trkpt lat="47.28946" lon="-2.26372">
        <ele>16.60000038147</ele>
        <time>2020-05-28T08:53:08.000Z</time>
      </trkpt>
      <trkpt lat="47.28958" lon="-2.26369">
        <ele>16.60000038147</ele>
        <time>2020-05-28T08:53:11.000Z</time>
      </trkpt>
      <trkpt lat="47.28983" lon="-2.26362">
        <ele>16.60000038147</ele>
        <time>2020-05-28T08:53:16.000Z</time>
      </trkpt>
      <trkpt lat="47.28993" lon="-2.2637">
        <ele>16.60000038147</ele>
        <time>2020-05-28T08:53:18.000Z</time>
      </trkpt>
      <trkpt lat="47.29001" lon="-2.26381">
        <ele>16.60000038147</ele>
        <time>2020-05-28T08:53:20.000Z</time>
      </trkpt>
      <trkpt lat="47.2901" lon="-2.26393">
        <ele>16.60000038147</ele>
        <time>2020-05-28T08:53:22.000Z</time>
      </trkpt>
      <trkpt lat="47.29016" lon="-2.26421">
        <ele>16.60000038147</ele>
        <time>2020-05-28T08:53:25.000Z</time>
      </trkpt>
      <trkpt lat="47.29017" lon="-2.26432">
        <ele>16.200000762939</ele>
        <time>2020-05-28T08:53:26.000Z</time>
      </trkpt>
      <trkpt lat="47.29019" lon="-2.26443">
        <ele>15.800000190735</ele>
        <time>2020-05-28T08:53:27.000Z</time>
      </trkpt>
      <trkpt lat="47.2902" lon="-2.26455">
        <ele>15.39999961853</ele>
        <time>2020-05-28T08:53:28.000Z</time>
      </trkpt>
      <trkpt lat="47.29021" lon="-2.26467">
        <ele>15</ele>
        <time>2020-05-28T08:53:29.000Z</time>
      </trkpt>
      <trkpt lat="47.29022" lon="-2.26479">
        <ele>14.60000038147</ele>
        <time>2020-05-28T08:53:30.000Z</time>
      </trkpt>
      <trkpt lat="47.29024" lon="-2.2649">
        <ele>14.60000038147</ele>
        <time>2020-05-28T08:53:31.000Z</time>
      </trkpt>
      <trkpt lat="47.29027" lon="-2.26511">
        <ele>14.60000038147</ele>
        <time>2020-05-28T08:53:33.000Z</time>
      </trkpt>
      <trkpt lat="47.29029" lon="-2.2652">
        <ele>14</ele>
        <time>2020-05-28T08:53:34.000Z</time>
      </trkpt>
      <trkpt lat="47.2903" lon="-2.26529">
        <ele>13.60000038147</ele>
        <time>2020-05-28T08:53:35.000Z</time>
      </trkpt>
      <trkpt lat="47.29032" lon="-2.26537">
        <ele>13.199999809265</ele>
        <time>2020-05-28T08:53:36.000Z</time>
      </trkpt>
      <trkpt lat="47.29034" lon="-2.26544">
        <ele>12.800000190735</ele>
        <time>2020-05-28T08:53:37.000Z</time>
      </trkpt>
      <trkpt lat="47.29036" lon="-2.26552">
        <ele>12.199999809265</ele>
        <time>2020-05-28T08:53:38.000Z</time>
      </trkpt>
      <trkpt lat="47.29039" lon="-2.26565">
        <ele>12.199999809265</ele>
        <time>2020-05-28T08:53:40.000Z</time>
      </trkpt>
      <trkpt lat="47.29043" lon="-2.26584">
        <ele>12.199999809265</ele>
        <time>2020-05-28T08:53:43.000Z</time>
      </trkpt>
      <trkpt lat="47.29045" lon="-2.26603">
        <ele>11.800000190735</ele>
        <time>2020-05-28T08:53:46.000Z</time>
      </trkpt>
      <trkpt lat="47.29045" lon="-2.26609">
        <ele>11.39999961853</ele>
        <time>2020-05-28T08:53:47.000Z</time>
      </trkpt>
      <trkpt lat="47.29046" lon="-2.26616">
        <ele>11</ele>
        <time>2020-05-28T08:53:48.000Z</time>
      </trkpt>
      <trkpt lat="47.29046" lon="-2.26622">
        <ele>10.60000038147</ele>
        <time>2020-05-28T08:53:49.000Z</time>
      </trkpt>
      <trkpt lat="47.29047" lon="-2.26628">
        <ele>10.199999809265</ele>
        <time>2020-05-28T08:53:50.000Z</time>
      </trkpt>
      <trkpt lat="47.29048" lon="-2.26642">
        <ele>10.199999809265</ele>
        <time>2020-05-28T08:53:52.000Z</time>
      </trkpt>
      <trkpt lat="47.29048" lon="-2.26657">
        <ele>10.199999809265</ele>
        <time>2020-05-28T08:53:54.000Z</time>
      </trkpt>
      <trkpt lat="47.29048" lon="-2.26666">
        <ele>10.199999809265</ele>
        <time>2020-05-28T08:53:55.000Z</time>
      </trkpt>
      <trkpt lat="47.2905" lon="-2.26692">
        <ele>10.199999809265</ele>
        <time>2020-05-28T08:53:58.000Z</time>
      </trkpt>
      <trkpt lat="47.29054" lon="-2.26723">
        <ele>9.8000001907349</ele>
        <time>2020-05-28T08:54:01.000Z</time>
      </trkpt>
      <trkpt lat="47.29056" lon="-2.26735">
        <ele>9.3999996185303</ele>
        <time>2020-05-28T08:54:02.000Z</time>
      </trkpt>
      <trkpt lat="47.29058" lon="-2.26747">
        <ele>9</ele>
        <time>2020-05-28T08:54:03.000Z</time>
      </trkpt>
      <trkpt lat="47.2906" lon="-2.26759">
        <ele>8.3999996185303</ele>
        <time>2020-05-28T08:54:04.000Z</time>
      </trkpt>
      <trkpt lat="47.29061" lon="-2.26772">
        <ele>8</ele>
        <time>2020-05-28T08:54:05.000Z</time>
      </trkpt>
      <trkpt lat="47.29064" lon="-2.2681">
        <ele>7.5999999046326</ele>
        <time>2020-05-28T08:54:08.000Z</time>
      </trkpt>
      <trkpt lat="47.29064" lon="-2.26822">
        <ele>7.1999998092651</ele>
        <time>2020-05-28T08:54:09.000Z</time>
      </trkpt>
      <trkpt lat="47.29063" lon="-2.26834">
        <ele>6.8000001907349</ele>
        <time>2020-05-28T08:54:10.000Z</time>
      </trkpt>
      <trkpt lat="47.29063" lon="-2.26845">
        <ele>6.4000000953674</ele>
        <time>2020-05-28T08:54:11.000Z</time>
      </trkpt>
      <trkpt lat="47.29063" lon="-2.26856">
        <ele>6</ele>
        <time>2020-05-28T08:54:12.000Z</time>
      </trkpt>
      <trkpt lat="47.29061" lon="-2.26874">
        <ele>6</ele>
        <time>2020-05-28T08:54:14.000Z</time>
      </trkpt>
      <trkpt lat="47.29061" lon="-2.2688">
        <ele>5.5999999046326</ele>
        <time>2020-05-28T08:54:15.000Z</time>
      </trkpt>
      <trkpt lat="47.29061" lon="-2.26883">
        <ele>5</ele>
        <time>2020-05-28T08:54:16.000Z</time>
      </trkpt>
      <trkpt lat="47.29061" lon="-2.26884">
        <ele>4.5999999046326</ele>
        <time>2020-05-28T08:54:17.000Z</time>
      </trkpt>
      <trkpt lat="47.29062" lon="-2.26886">
        <ele>4.1999998092651</ele>
        <time>2020-05-28T08:54:18.000Z</time>
      </trkpt>
      <trkpt lat="47.29062" lon="-2.26888">
        <ele>3.7999999523163</ele>
        <time>2020-05-28T08:54:19.000Z</time>
      </trkpt>
      <trkpt lat="47.29063" lon="-2.26892">
        <ele>3.7999999523163</ele>
        <time>2020-05-28T08:54:21.000Z</time>
      </trkpt>
      <trkpt lat="47.29064" lon="-2.26893">
        <ele>3.7999999523163</ele>
        <time>2020-05-28T08:54:22.000Z</time>
      </trkpt>
      <trkpt lat="47.29072" lon="-2.26904">
        <ele>3.7999999523163</ele>
        <time>2020-05-28T08:54:27.000Z</time>
      </trkpt>
      <trkpt lat="47.29076" lon="-2.26916">
        <ele>3.7999999523163</ele>
        <time>2020-05-28T08:54:32.000Z</time>
      </trkpt>
      <trkpt lat="47.29078" lon="-2.26922">
        <ele>3.7999999523163</ele>
        <time>2020-05-28T08:54:35.000Z</time>
      </trkpt>
      <trkpt lat="47.29077" lon="-2.26927">
        <ele>3.7999999523163</ele>
        <time>2020-05-28T08:54:37.000Z</time>
      </trkpt>
      <trkpt lat="47.29075" lon="-2.26949">
        <ele>3.7999999523163</ele>
        <time>2020-05-28T08:54:44.000Z</time>
      </trkpt>
      <trkpt lat="47.29074" lon="-2.26977">
        <ele>3.7999999523163</ele>
        <time>2020-05-28T08:54:49.000Z</time>
      </trkpt>
      <trkpt lat="47.29073" lon="-2.27005">
        <ele>3.7999999523163</ele>
        <time>2020-05-28T08:54:54.000Z</time>
      </trkpt>
      <trkpt lat="47.29074" lon="-2.2702">
        <ele>3.7999999523163</ele>
        <time>2020-05-28T08:54:58.000Z</time>
      </trkpt>
      <trkpt lat="47.29072" lon="-2.27043">
        <ele>3.7999999523163</ele>
        <time>2020-05-28T08:55:03.000Z</time>
      </trkpt>
      <trkpt lat="47.29071" lon="-2.27058">
        <ele>3.7999999523163</ele>
        <time>2020-05-28T08:55:06.000Z</time>
      </trkpt>
      <trkpt lat="47.29071" lon="-2.27062">
        <ele>3.7999999523163</ele>
        <time>2020-05-28T08:55:07.000Z</time>
      </trkpt>
      <trkpt lat="47.29069" lon="-2.27078">
        <ele>3.7999999523163</ele>
        <time>2020-05-28T08:55:12.000Z</time>
      </trkpt>
      <trkpt lat="47.29065" lon="-2.27076">
        <ele>3.7999999523163</ele>
        <time>2020-05-28T08:55:17.000Z</time>
      </trkpt>
      <trkpt lat="47.29063" lon="-2.27075">
        <ele>3.7999999523163</ele>
        <time>2020-05-28T08:55:18.000Z</time>
      </trkpt>
      <trkpt lat="47.29059" lon="-2.27078">
        <ele>3.7999999523163</ele>
        <time>2020-05-28T08:55:21.000Z</time>
      </trkpt>
      <trkpt lat="47.29044" lon="-2.27094">
        <ele>3.7999999523163</ele>
        <time>2020-05-28T08:55:26.000Z</time>
      </trkpt>
      <trkpt lat="47.29029" lon="-2.27105">
        <ele>3.7999999523163</ele>
        <time>2020-05-28T08:55:30.000Z</time>
      </trkpt>
      <trkpt lat="47.29019" lon="-2.27129">
        <ele>3.7999999523163</ele>
        <time>2020-05-28T08:55:36.000Z</time>
      </trkpt>
      <trkpt lat="47.2902" lon="-2.27133">
        <ele>3.7999999523163</ele>
        <time>2020-05-28T08:55:37.000Z</time>
      </trkpt>
      <trkpt lat="47.29023" lon="-2.27136">
        <ele>4.1999998092651</ele>
        <time>2020-05-28T08:55:38.000Z</time>
      </trkpt>
      <trkpt lat="47.29026" lon="-2.27139">
        <ele>4.5999999046326</ele>
        <time>2020-05-28T08:55:39.000Z</time>
      </trkpt>
      <trkpt lat="47.2903" lon="-2.27143">
        <ele>5</ele>
        <time>2020-05-28T08:55:40.000Z</time>
      </trkpt>
      <trkpt lat="47.29033" lon="-2.27146">
        <ele>5.4000000953674</ele>
        <time>2020-05-28T08:55:41.000Z</time>
      </trkpt>
      <trkpt lat="47.29035" lon="-2.27151">
        <ele>5.8000001907349</ele>
        <time>2020-05-28T08:55:42.000Z</time>
      </trkpt>
      <trkpt lat="47.29042" lon="-2.27169">
        <ele>5.8000001907349</ele>
        <time>2020-05-28T08:55:45.000Z</time>
      </trkpt>
      <trkpt lat="47.2905" lon="-2.27183">
        <ele>5.8000001907349</ele>
        <time>2020-05-28T08:55:48.000Z</time>
      </trkpt>
      <trkpt lat="47.29055" lon="-2.27188">
        <ele>5.8000001907349</ele>
        <time>2020-05-28T08:55:49.000Z</time>
      </trkpt>
      <trkpt lat="47.29061" lon="-2.27191">
        <ele>5.4000000953674</ele>
        <time>2020-05-28T08:55:50.000Z</time>
      </trkpt>
      <trkpt lat="47.2907" lon="-2.27193">
        <ele>5</ele>
        <time>2020-05-28T08:55:51.000Z</time>
      </trkpt>
      <trkpt lat="47.29076" lon="-2.27194">
        <ele>4.4000000953674</ele>
        <time>2020-05-28T08:55:52.000Z</time>
      </trkpt>
      <trkpt lat="47.29083" lon="-2.27195">
        <ele>4</ele>
        <time>2020-05-28T08:55:53.000Z</time>
      </trkpt>
      <trkpt lat="47.29087" lon="-2.27196">
        <ele>3.5999999046326</ele>
        <time>2020-05-28T08:55:54.000Z</time>
      </trkpt>
      <trkpt lat="47.29102" lon="-2.27198">
        <ele>3.5999999046326</ele>
        <time>2020-05-28T08:55:57.000Z</time>
      </trkpt>
      <trkpt lat="47.29111" lon="-2.27202">
        <ele>3.5999999046326</ele>
        <time>2020-05-28T08:56:00.000Z</time>
      </trkpt>
      <trkpt lat="47.29113" lon="-2.27205">
        <ele>3.5999999046326</ele>
        <time>2020-05-28T08:56:02.000Z</time>
      </trkpt>
      <trkpt lat="47.29113" lon="-2.27209">
        <ele>3.5999999046326</ele>
        <time>2020-05-28T08:56:04.000Z</time>
      </trkpt>
      <trkpt lat="47.29113" lon="-2.2722">
        <ele>3.5999999046326</ele>
        <time>2020-05-28T08:56:08.000Z</time>
      </trkpt>
      <trkpt lat="47.29109" lon="-2.27241">
        <ele>3.5999999046326</ele>
        <time>2020-05-28T08:56:13.000Z</time>
      </trkpt>
      <trkpt lat="47.29104" lon="-2.27277">
        <ele>3.5999999046326</ele>
        <time>2020-05-28T08:56:20.000Z</time>
      </trkpt>
      <trkpt lat="47.29101" lon="-2.27303">
        <ele>3.5999999046326</ele>
        <time>2020-05-28T08:56:25.000Z</time>
      </trkpt>
      <trkpt lat="47.29094" lon="-2.2733">
        <ele>3.5999999046326</ele>
        <time>2020-05-28T08:56:30.000Z</time>
      </trkpt>
      <trkpt lat="47.29094" lon="-2.27348">
        <ele>3.5999999046326</ele>
        <time>2020-05-28T08:56:34.000Z</time>
      </trkpt>
      <trkpt lat="47.291" lon="-2.27364">
        <ele>3.5999999046326</ele>
        <time>2020-05-28T08:56:39.000Z</time>
      </trkpt>
      <trkpt lat="47.29103" lon="-2.27396">
        <ele>3.5999999046326</ele>
        <time>2020-05-28T08:56:44.000Z</time>
      </trkpt>
      <trkpt lat="47.29104" lon="-2.27449">
        <ele>3.5999999046326</ele>
        <time>2020-05-28T08:56:49.000Z</time>
      </trkpt>
      <trkpt lat="47.29103" lon="-2.275">
        <ele>3.5999999046326</ele>
        <time>2020-05-28T08:56:55.000Z</time>
      </trkpt>
      <trkpt lat="47.291" lon="-2.27523">
        <ele>3.5999999046326</ele>
        <time>2020-05-28T08:56:59.000Z</time>
      </trkpt>
      <trkpt lat="47.29097" lon="-2.27525">
        <ele>3.5999999046326</ele>
        <time>2020-05-28T08:57:00.000Z</time>
      </trkpt>
      <trkpt lat="47.29084" lon="-2.27525">
        <ele>3.5999999046326</ele>
        <time>2020-05-28T08:57:03.000Z</time>
      </trkpt>
      <trkpt lat="47.29066" lon="-2.27524">
        <ele>4</ele>
        <time>2020-05-28T08:57:06.000Z</time>
      </trkpt>
      <trkpt lat="47.29059" lon="-2.27524">
        <ele>4.4000000953674</ele>
        <time>2020-05-28T08:57:07.000Z</time>
      </trkpt>
      <trkpt lat="47.29051" lon="-2.27523">
        <ele>4.8000001907349</ele>
        <time>2020-05-28T08:57:08.000Z</time>
      </trkpt>
      <trkpt lat="47.29044" lon="-2.27523">
        <ele>5.1999998092651</ele>
        <time>2020-05-28T08:57:09.000Z</time>
      </trkpt>
      <trkpt lat="47.29036" lon="-2.27523">
        <ele>5.5999999046326</ele>
        <time>2020-05-28T08:57:10.000Z</time>
      </trkpt>
      <trkpt lat="47.29004" lon="-2.27522">
        <ele>5.5999999046326</ele>
        <time>2020-05-28T08:57:14.000Z</time>
      </trkpt>
      <trkpt lat="47.28947" lon="-2.27525">
        <ele>5.5999999046326</ele>
        <time>2020-05-28T08:57:21.000Z</time>
      </trkpt>
      <trkpt lat="47.28891" lon="-2.27529">
        <ele>5.5999999046326</ele>
        <time>2020-05-28T08:57:28.000Z</time>
      </trkpt>
      <trkpt lat="47.28838" lon="-2.27538">
        <ele>5.5999999046326</ele>
        <time>2020-05-28T08:57:35.000Z</time>
      </trkpt>
      <trkpt lat="47.28818" lon="-2.27543">
        <ele>5.5999999046326</ele>
        <time>2020-05-28T08:57:38.000Z</time>
      </trkpt>
      <trkpt lat="47.28805" lon="-2.27551">
        <ele>5.5999999046326</ele>
        <time>2020-05-28T08:57:40.000Z</time>
      </trkpt>
      <trkpt lat="47.28783" lon="-2.27575">
        <ele>5.5999999046326</ele>
        <time>2020-05-28T08:57:44.000Z</time>
      </trkpt>
      <trkpt lat="47.28749" lon="-2.27616">
        <ele>5.5999999046326</ele>
        <time>2020-05-28T08:57:51.000Z</time>
      </trkpt>
      <trkpt lat="47.28722" lon="-2.27656">
        <ele>5.5999999046326</ele>
        <time>2020-05-28T08:57:57.000Z</time>
      </trkpt>
      <trkpt lat="47.28692" lon="-2.27707">
        <ele>5.5999999046326</ele>
        <time>2020-05-28T08:58:04.000Z</time>
      </trkpt>
      <trkpt lat="47.28664" lon="-2.27759">
        <ele>5.5999999046326</ele>
        <time>2020-05-28T08:58:11.000Z</time>
      </trkpt>
      <trkpt lat="47.28661" lon="-2.27768">
        <ele>5.5999999046326</ele>
        <time>2020-05-28T08:58:12.000Z</time>
      </trkpt>
      <trkpt lat="47.28651" lon="-2.27805">
        <ele>5.5999999046326</ele>
        <time>2020-05-28T08:58:16.000Z</time>
      </trkpt>
      <trkpt lat="47.28645" lon="-2.27835">
        <ele>6</ele>
        <time>2020-05-28T08:58:19.000Z</time>
      </trkpt>
      <trkpt lat="47.28643" lon="-2.27844">
        <ele>6.4000000953674</ele>
        <time>2020-05-28T08:58:20.000Z</time>
      </trkpt>
      <trkpt lat="47.28641" lon="-2.27854">
        <ele>6.8000001907349</ele>
        <time>2020-05-28T08:58:21.000Z</time>
      </trkpt>
      <trkpt lat="47.28639" lon="-2.27863">
        <ele>7.1999998092651</ele>
        <time>2020-05-28T08:58:22.000Z</time>
      </trkpt>
      <trkpt lat="47.28638" lon="-2.27872">
        <ele>7.5999999046326</ele>
        <time>2020-05-28T08:58:23.000Z</time>
      </trkpt>
      <trkpt lat="47.28631" lon="-2.27918">
        <ele>7.5999999046326</ele>
        <time>2020-05-28T08:58:29.000Z</time>
      </trkpt>
      <trkpt lat="47.28628" lon="-2.27937">
        <ele>7.5999999046326</ele>
        <time>2020-05-28T08:58:32.000Z</time>
      </trkpt>
      <trkpt lat="47.28623" lon="-2.27947">
        <ele>7.5999999046326</ele>
        <time>2020-05-28T08:58:34.000Z</time>
      </trkpt>
      <trkpt lat="47.28612" lon="-2.27967">
        <ele>7.5999999046326</ele>
        <time>2020-05-28T08:58:38.000Z</time>
      </trkpt>
      <trkpt lat="47.28608" lon="-2.2798">
        <ele>7.5999999046326</ele>
        <time>2020-05-28T08:58:40.000Z</time>
      </trkpt>
      <trkpt lat="47.28607" lon="-2.27986">
        <ele>7.5999999046326</ele>
        <time>2020-05-28T08:58:41.000Z</time>
      </trkpt>
      <trkpt lat="47.286" lon="-2.28011">
        <ele>7.5999999046326</ele>
        <time>2020-05-28T08:58:45.000Z</time>
      </trkpt>
      <trkpt lat="47.28588" lon="-2.28025">
        <ele>7.5999999046326</ele>
        <time>2020-05-28T08:58:49.000Z</time>
      </trkpt>
      <trkpt lat="47.28579" lon="-2.28036">
        <ele>7.5999999046326</ele>
        <time>2020-05-28T08:58:53.000Z</time>
      </trkpt>
      <trkpt lat="47.28565" lon="-2.28047">
        <ele>7.5999999046326</ele>
        <time>2020-05-28T08:58:59.000Z</time>
      </trkpt>
      <trkpt lat="47.28552" lon="-2.28049">
        <ele>7.5999999046326</ele>
        <time>2020-05-28T08:59:04.000Z</time>
      </trkpt>
      <trkpt lat="47.28544" lon="-2.28045">
        <ele>7.5999999046326</ele>
        <time>2020-05-28T08:59:08.000Z</time>
      </trkpt>
      <trkpt lat="47.2854" lon="-2.28046">
        <ele>8</ele>
        <time>2020-05-28T08:59:10.000Z</time>
      </trkpt>
      <trkpt lat="47.28538" lon="-2.28046">
        <ele>8.3999996185303</ele>
        <time>2020-05-28T08:59:11.000Z</time>
      </trkpt>
      <trkpt lat="47.28536" lon="-2.28046">
        <ele>8.8000001907349</ele>
        <time>2020-05-28T08:59:12.000Z</time>
      </trkpt>
      <trkpt lat="47.28535" lon="-2.28045">
        <ele>9.1999998092651</ele>
        <time>2020-05-28T08:59:13.000Z</time>
      </trkpt>
      <trkpt lat="47.28533" lon="-2.28044">
        <ele>9.6000003814697</ele>
        <time>2020-05-28T08:59:14.000Z</time>
      </trkpt>
      <trkpt lat="47.28527" lon="-2.28044">
        <ele>10</ele>
        <time>2020-05-28T08:59:16.000Z</time>
      </trkpt>
      <trkpt lat="47.28525" lon="-2.28045">
        <ele>11</ele>
        <time>2020-05-28T08:59:17.000Z</time>
      </trkpt>
      <trkpt lat="47.28522" lon="-2.28045">
        <ele>11.39999961853</ele>
        <time>2020-05-28T08:59:18.000Z</time>
      </trkpt>
      <trkpt lat="47.2852" lon="-2.28045">
        <ele>11.800000190735</ele>
        <time>2020-05-28T08:59:19.000Z</time>
      </trkpt>
      <trkpt lat="47.28513" lon="-2.28044">
        <ele>12.199999809265</ele>
        <time>2020-05-28T08:59:22.000Z</time>
      </trkpt>
      <trkpt lat="47.28511" lon="-2.28042">
        <ele>12.60000038147</ele>
        <time>2020-05-28T08:59:23.000Z</time>
      </trkpt>
      <trkpt lat="47.2851" lon="-2.2804">
        <ele>13</ele>
        <time>2020-05-28T08:59:24.000Z</time>
      </trkpt>
      <trkpt lat="47.28508" lon="-2.28039">
        <ele>13.60000038147</ele>
        <time>2020-05-28T08:59:25.000Z</time>
      </trkpt>
      <trkpt lat="47.28506" lon="-2.28038">
        <ele>14</ele>
        <time>2020-05-28T08:59:26.000Z</time>
      </trkpt>
      <trkpt lat="47.28498" lon="-2.28036">
        <ele>14</ele>
        <time>2020-05-28T08:59:30.000Z</time>
      </trkpt>
      <trkpt lat="47.28496" lon="-2.28036">
        <ele>14</ele>
        <time>2020-05-28T08:59:31.000Z</time>
      </trkpt>
      <trkpt lat="47.28488" lon="-2.28039">
        <ele>14</ele>
        <time>2020-05-28T08:59:34.000Z</time>
      </trkpt>
      <trkpt lat="47.28485" lon="-2.28042">
        <ele>14.39999961853</ele>
        <time>2020-05-28T08:59:35.000Z</time>
      </trkpt>
      <trkpt lat="47.28484" lon="-2.28044">
        <ele>14.800000190735</ele>
        <time>2020-05-28T08:59:36.000Z</time>
      </trkpt>
      <trkpt lat="47.28483" lon="-2.28047">
        <ele>15.199999809265</ele>
        <time>2020-05-28T08:59:37.000Z</time>
      </trkpt>
      <trkpt lat="47.28482" lon="-2.28051">
        <ele>15.60000038147</ele>
        <time>2020-05-28T08:59:38.000Z</time>
      </trkpt>
      <trkpt lat="47.28482" lon="-2.28056">
        <ele>16</ele>
        <time>2020-05-28T08:59:39.000Z</time>
      </trkpt>
      <trkpt lat="47.28488" lon="-2.28074">
        <ele>16</ele>
        <time>2020-05-28T08:59:44.000Z</time>
      </trkpt>
      <trkpt lat="47.28489" lon="-2.28081">
        <ele>16</ele>
        <time>2020-05-28T08:59:46.000Z</time>
      </trkpt>
      <trkpt lat="47.28485" lon="-2.28086">
        <ele>16</ele>
        <time>2020-05-28T08:59:48.000Z</time>
      </trkpt>
      <trkpt lat="47.28483" lon="-2.28087">
        <ele>15.60000038147</ele>
        <time>2020-05-28T08:59:49.000Z</time>
      </trkpt>
      <trkpt lat="47.28482" lon="-2.28088">
        <ele>15</ele>
        <time>2020-05-28T08:59:50.000Z</time>
      </trkpt>
      <trkpt lat="47.2848" lon="-2.28089">
        <ele>14.60000038147</ele>
        <time>2020-05-28T08:59:51.000Z</time>
      </trkpt>
      <trkpt lat="47.2848" lon="-2.28089">
        <ele>14.199999809265</ele>
        <time>2020-05-28T08:59:52.000Z</time>
      </trkpt>
      <trkpt lat="47.28479" lon="-2.28089">
        <ele>13.60000038147</ele>
        <time>2020-05-28T08:59:53.000Z</time>
      </trkpt>
      <trkpt lat="47.28479" lon="-2.28089">
        <ele>13.60000038147</ele>
        <time>2020-05-28T08:59:54.000Z</time>
      </trkpt>
      <trkpt lat="47.28477" lon="-2.28091">
        <ele>13.60000038147</ele>
        <time>2020-05-28T09:00:01.000Z</time>
      </trkpt>
      <trkpt lat="47.28472" lon="-2.28094">
        <ele>13.60000038147</ele>
        <time>2020-05-28T09:00:03.000Z</time>
      </trkpt>
      <trkpt lat="47.28468" lon="-2.28095">
        <ele>13.60000038147</ele>
        <time>2020-05-28T09:00:05.000Z</time>
      </trkpt>
      <trkpt lat="47.28464" lon="-2.28094">
        <ele>13.60000038147</ele>
        <time>2020-05-28T09:00:07.000Z</time>
      </trkpt>
      <trkpt lat="47.28455" lon="-2.28091">
        <ele>13.60000038147</ele>
        <time>2020-05-28T09:00:11.000Z</time>
      </trkpt>
      <trkpt lat="47.28452" lon="-2.28089">
        <ele>13.60000038147</ele>
        <time>2020-05-28T09:00:12.000Z</time>
      </trkpt>
      <trkpt lat="47.28443" lon="-2.2809">
        <ele>13.60000038147</ele>
        <time>2020-05-28T09:00:16.000Z</time>
      </trkpt>
      <trkpt lat="47.2844" lon="-2.2809">
        <ele>13.60000038147</ele>
        <time>2020-05-28T09:00:17.000Z</time>
      </trkpt>
      <trkpt lat="47.28431" lon="-2.28087">
        <ele>13.60000038147</ele>
        <time>2020-05-28T09:00:20.000Z</time>
      </trkpt>
      <trkpt lat="47.28413" lon="-2.28082">
        <ele>13.60000038147</ele>
        <time>2020-05-28T09:00:25.000Z</time>
      </trkpt>
      <trkpt lat="47.28394" lon="-2.28079">
        <ele>13.60000038147</ele>
        <time>2020-05-28T09:00:32.000Z</time>
      </trkpt>
      <trkpt lat="47.28382" lon="-2.28078">
        <ele>13.60000038147</ele>
        <time>2020-05-28T09:00:38.000Z</time>
      </trkpt>
      <trkpt lat="47.28377" lon="-2.28077">
        <ele>13.60000038147</ele>
        <time>2020-05-28T09:00:42.000Z</time>
      </trkpt>
      <trkpt lat="47.28372" lon="-2.2806">
        <ele>13.60000038147</ele>
        <time>2020-05-28T09:00:53.000Z</time>
      </trkpt>
      <trkpt lat="47.28369" lon="-2.28064">
        <ele>13.60000038147</ele>
        <time>2020-05-28T09:00:55.000Z</time>
      </trkpt>
      <trkpt lat="47.28368" lon="-2.2807">
        <ele>13.60000038147</ele>
        <time>2020-05-28T09:00:57.000Z</time>
      </trkpt>
      <trkpt lat="47.28366" lon="-2.28083">
        <ele>13.199999809265</ele>
        <time>2020-05-28T09:01:01.000Z</time>
      </trkpt>
      <trkpt lat="47.28366" lon="-2.28087">
        <ele>12.800000190735</ele>
        <time>2020-05-28T09:01:02.000Z</time>
      </trkpt>
      <trkpt lat="47.28366" lon="-2.2809">
        <ele>12.39999961853</ele>
        <time>2020-05-28T09:01:03.000Z</time>
      </trkpt>
      <trkpt lat="47.28366" lon="-2.28093">
        <ele>12</ele>
        <time>2020-05-28T09:01:04.000Z</time>
      </trkpt>
      <trkpt lat="47.28366" lon="-2.28095">
        <ele>11.60000038147</ele>
        <time>2020-05-28T09:01:05.000Z</time>
      </trkpt>
      <trkpt lat="47.28365" lon="-2.28098">
        <ele>11.60000038147</ele>
        <time>2020-05-28T09:01:06.000Z</time>
      </trkpt>
      <trkpt lat="47.28366" lon="-2.28107">
        <ele>11.60000038147</ele>
        <time>2020-05-28T09:01:09.000Z</time>
      </trkpt>
      <trkpt lat="47.28367" lon="-2.28131">
        <ele>11.60000038147</ele>
        <time>2020-05-28T09:01:15.000Z</time>
      </trkpt>
      <trkpt lat="47.28369" lon="-2.28157">
        <ele>12</ele>
        <time>2020-05-28T09:01:21.000Z</time>
      </trkpt>
      <trkpt lat="47.28369" lon="-2.28162">
        <ele>12.39999961853</ele>
        <time>2020-05-28T09:01:22.000Z</time>
      </trkpt>
      <trkpt lat="47.28369" lon="-2.28167">
        <ele>12.800000190735</ele>
        <time>2020-05-28T09:01:23.000Z</time>
      </trkpt>
      <trkpt lat="47.28369" lon="-2.28173">
        <ele>13.39999961853</ele>
        <time>2020-05-28T09:01:24.000Z</time>
      </trkpt>
      <trkpt lat="47.28369" lon="-2.28179">
        <ele>13.800000190735</ele>
        <time>2020-05-28T09:01:25.000Z</time>
      </trkpt>
      <trkpt lat="47.28368" lon="-2.28189">
        <ele>13.800000190735</ele>
        <time>2020-05-28T09:01:27.000Z</time>
      </trkpt>
      <trkpt lat="47.28368" lon="-2.28195">
        <ele>14.199999809265</ele>
        <time>2020-05-28T09:01:28.000Z</time>
      </trkpt>
      <trkpt lat="47.28368" lon="-2.282">
        <ele>14.60000038147</ele>
        <time>2020-05-28T09:01:29.000Z</time>
      </trkpt>
      <trkpt lat="47.28368" lon="-2.28205">
        <ele>15</ele>
        <time>2020-05-28T09:01:30.000Z</time>
      </trkpt>
      <trkpt lat="47.28368" lon="-2.2821">
        <ele>15.39999961853</ele>
        <time>2020-05-28T09:01:31.000Z</time>
      </trkpt>
      <trkpt lat="47.28368" lon="-2.28216">
        <ele>15.800000190735</ele>
        <time>2020-05-28T09:01:32.000Z</time>
      </trkpt>
      <trkpt lat="47.28368" lon="-2.28221">
        <ele>15.800000190735</ele>
        <time>2020-05-28T09:01:33.000Z</time>
      </trkpt>
      <trkpt lat="47.28368" lon="-2.28248">
        <ele>15.800000190735</ele>
        <time>2020-05-28T09:01:38.000Z</time>
      </trkpt>
      <trkpt lat="47.28368" lon="-2.28261">
        <ele>16.200000762939</ele>
        <time>2020-05-28T09:01:40.000Z</time>
      </trkpt>
      <trkpt lat="47.28368" lon="-2.28267">
        <ele>16.60000038147</ele>
        <time>2020-05-28T09:01:41.000Z</time>
      </trkpt>
      <trkpt lat="47.28368" lon="-2.28272">
        <ele>17</ele>
        <time>2020-05-28T09:01:42.000Z</time>
      </trkpt>
      <trkpt lat="47.28368" lon="-2.28278">
        <ele>17.39999961853</ele>
        <time>2020-05-28T09:01:43.000Z</time>
      </trkpt>
      <trkpt lat="47.28368" lon="-2.28283">
        <ele>17.799999237061</ele>
        <time>2020-05-28T09:01:44.000Z</time>
      </trkpt>
      <trkpt lat="47.28368" lon="-2.28288">
        <ele>17.799999237061</ele>
        <time>2020-05-28T09:01:45.000Z</time>
      </trkpt>
      <trkpt lat="47.28369" lon="-2.28329">
        <ele>18.200000762939</ele>
        <time>2020-05-28T09:01:52.000Z</time>
      </trkpt>
      <trkpt lat="47.28369" lon="-2.28334">
        <ele>18.60000038147</ele>
        <time>2020-05-28T09:01:53.000Z</time>
      </trkpt>
      <trkpt lat="47.28369" lon="-2.2834">
        <ele>19</ele>
        <time>2020-05-28T09:01:54.000Z</time>
      </trkpt>
      <trkpt lat="47.28369" lon="-2.28346">
        <ele>19.39999961853</ele>
        <time>2020-05-28T09:01:55.000Z</time>
      </trkpt>
      <trkpt lat="47.28369" lon="-2.28351">
        <ele>19.799999237061</ele>
        <time>2020-05-28T09:01:56.000Z</time>
      </trkpt>
      <trkpt lat="47.2837" lon="-2.28375">
        <ele>19.799999237061</ele>
        <time>2020-05-28T09:02:00.000Z</time>
      </trkpt>
      <trkpt lat="47.28372" lon="-2.28404">
        <ele>19.799999237061</ele>
        <time>2020-05-28T09:02:05.000Z</time>
      </trkpt>
      <trkpt lat="47.28372" lon="-2.2841">
        <ele>19.799999237061</ele>
        <time>2020-05-28T09:02:06.000Z</time>
      </trkpt>
      <trkpt lat="47.28373" lon="-2.28441">
        <ele>19.799999237061</ele>
        <time>2020-05-28T09:02:10.000Z</time>
      </trkpt>
      <trkpt lat="47.28373" lon="-2.28449">
        <ele>19.799999237061</ele>
        <time>2020-05-28T09:02:11.000Z</time>
      </trkpt>
      <trkpt lat="47.28376" lon="-2.28521">
        <ele>19.799999237061</ele>
        <time>2020-05-28T09:02:19.000Z</time>
      </trkpt>
      <trkpt lat="47.28379" lon="-2.28605">
        <ele>19.799999237061</ele>
        <time>2020-05-28T09:02:28.000Z</time>
      </trkpt>
      <trkpt lat="47.28382" lon="-2.28684">
        <ele>19.799999237061</ele>
        <time>2020-05-28T09:02:36.000Z</time>
      </trkpt>
      <trkpt lat="47.28384" lon="-2.28746">
        <ele>19.799999237061</ele>
        <time>2020-05-28T09:02:42.000Z</time>
      </trkpt>
      <trkpt lat="47.28386" lon="-2.2881">
        <ele>19.799999237061</ele>
        <time>2020-05-28T09:02:48.000Z</time>
      </trkpt>
      <trkpt lat="47.2839" lon="-2.28898">
        <ele>19.799999237061</ele>
        <time>2020-05-28T09:02:56.000Z</time>
      </trkpt>
      <trkpt lat="47.28391" lon="-2.28949">
        <ele>19.799999237061</ele>
        <time>2020-05-28T09:03:01.000Z</time>
      </trkpt>
      <trkpt lat="47.28394" lon="-2.28987">
        <ele>19.799999237061</ele>
        <time>2020-05-28T09:03:06.000Z</time>
      </trkpt>
      <trkpt lat="47.28396" lon="-2.28989">
        <ele>19.799999237061</ele>
        <time>2020-05-28T09:03:07.000Z</time>
      </trkpt>
      <trkpt lat="47.28402" lon="-2.28991">
        <ele>19.799999237061</ele>
        <time>2020-05-28T09:03:09.000Z</time>
      </trkpt>
      <trkpt lat="47.28405" lon="-2.28992">
        <ele>19.39999961853</ele>
        <time>2020-05-28T09:03:10.000Z</time>
      </trkpt>
      <trkpt lat="47.28407" lon="-2.28993">
        <ele>19</ele>
        <time>2020-05-28T09:03:11.000Z</time>
      </trkpt>
      <trkpt lat="47.2841" lon="-2.28994">
        <ele>18.60000038147</ele>
        <time>2020-05-28T09:03:12.000Z</time>
      </trkpt>
      <trkpt lat="47.28413" lon="-2.28994">
        <ele>18.200000762939</ele>
        <time>2020-05-28T09:03:13.000Z</time>
      </trkpt>
      <trkpt lat="47.28417" lon="-2.28994">
        <ele>17.799999237061</ele>
        <time>2020-05-28T09:03:14.000Z</time>
      </trkpt>
      <trkpt lat="47.28437" lon="-2.28994">
        <ele>17.799999237061</ele>
        <time>2020-05-28T09:03:18.000Z</time>
      </trkpt>
      <trkpt lat="47.28454" lon="-2.28996">
        <ele>17.799999237061</ele>
        <time>2020-05-28T09:03:21.000Z</time>
      </trkpt>
      <trkpt lat="47.28465" lon="-2.28998">
        <ele>17.39999961853</ele>
        <time>2020-05-28T09:03:23.000Z</time>
      </trkpt>
      <trkpt lat="47.2847" lon="-2.28999">
        <ele>16.60000038147</ele>
        <time>2020-05-28T09:03:24.000Z</time>
      </trkpt>
      <trkpt lat="47.28476" lon="-2.29001">
        <ele>16.200000762939</ele>
        <time>2020-05-28T09:03:25.000Z</time>
      </trkpt>
      <trkpt lat="47.28481" lon="-2.29003">
        <ele>15.60000038147</ele>
        <time>2020-05-28T09:03:26.000Z</time>
      </trkpt>
      <trkpt lat="47.28495" lon="-2.29008">
        <ele>15.60000038147</ele>
        <time>2020-05-28T09:03:29.000Z</time>
      </trkpt>
      <trkpt lat="47.28501" lon="-2.29011">
        <ele>15.60000038147</ele>
        <time>2020-05-28T09:03:30.000Z</time>
      </trkpt>
      <trkpt lat="47.28527" lon="-2.29022">
        <ele>15.60000038147</ele>
        <time>2020-05-28T09:03:34.000Z</time>
      </trkpt>
      <trkpt lat="47.28533" lon="-2.29023">
        <ele>15.60000038147</ele>
        <time>2020-05-28T09:03:35.000Z</time>
      </trkpt>
      <trkpt lat="47.28538" lon="-2.29024">
        <ele>15.199999809265</ele>
        <time>2020-05-28T09:03:36.000Z</time>
      </trkpt>
      <trkpt lat="47.28545" lon="-2.29026">
        <ele>14.800000190735</ele>
        <time>2020-05-28T09:03:37.000Z</time>
      </trkpt>
      <trkpt lat="47.28551" lon="-2.29028">
        <ele>14.39999961853</ele>
        <time>2020-05-28T09:03:38.000Z</time>
      </trkpt>
      <trkpt lat="47.28557" lon="-2.29031">
        <ele>14</ele>
        <time>2020-05-28T09:03:39.000Z</time>
      </trkpt>
      <trkpt lat="47.28563" lon="-2.29032">
        <ele>13.60000038147</ele>
        <time>2020-05-28T09:03:40.000Z</time>
      </trkpt>
      <trkpt lat="47.28579" lon="-2.29033">
        <ele>13.60000038147</ele>
        <time>2020-05-28T09:03:43.000Z</time>
      </trkpt>
      <trkpt lat="47.28589" lon="-2.29037">
        <ele>13.60000038147</ele>
        <time>2020-05-28T09:03:45.000Z</time>
      </trkpt>
      <trkpt lat="47.28599" lon="-2.29045">
        <ele>13.60000038147</ele>
        <time>2020-05-28T09:03:47.000Z</time>
      </trkpt>
      <trkpt lat="47.28602" lon="-2.29049">
        <ele>13.199999809265</ele>
        <time>2020-05-28T09:03:48.000Z</time>
      </trkpt>
      <trkpt lat="47.28605" lon="-2.29054">
        <ele>12.800000190735</ele>
        <time>2020-05-28T09:03:49.000Z</time>
      </trkpt>
      <trkpt lat="47.28606" lon="-2.29059">
        <ele>12.39999961853</ele>
        <time>2020-05-28T09:03:50.000Z</time>
      </trkpt>
      <trkpt lat="47.28606" lon="-2.29063">
        <ele>11.800000190735</ele>
        <time>2020-05-28T09:03:51.000Z</time>
      </trkpt>
      <trkpt lat="47.28605" lon="-2.29067">
        <ele>11.39999961853</ele>
        <time>2020-05-28T09:03:52.000Z</time>
      </trkpt>
      <trkpt lat="47.28604" lon="-2.29079">
        <ele>11.39999961853</ele>
        <time>2020-05-28T09:03:57.000Z</time>
      </trkpt>
      <trkpt lat="47.28606" lon="-2.29089">
        <ele>11.39999961853</ele>
        <time>2020-05-28T09:18:25.000Z</time>
      </trkpt>
      <trkpt lat="47.28603" lon="-2.29094">
        <ele>11.39999961853</ele>
        <time>2020-05-28T09:18:28.000Z</time>
      </trkpt>
      <trkpt lat="47.28602" lon="-2.29096">
        <ele>11.39999961853</ele>
        <time>2020-05-28T09:18:29.000Z</time>
      </trkpt>
      <trkpt lat="47.28598" lon="-2.29109">
        <ele>11.39999961853</ele>
        <time>2020-05-28T09:18:35.000Z</time>
      </trkpt>
      <trkpt lat="47.28589" lon="-2.2913">
        <ele>11.39999961853</ele>
        <time>2020-05-28T09:18:43.000Z</time>
      </trkpt>
      <trkpt lat="47.28574" lon="-2.29157">
        <ele>11.39999961853</ele>
        <time>2020-05-28T09:18:50.000Z</time>
      </trkpt>
      <trkpt lat="47.28558" lon="-2.29173">
        <ele>11.39999961853</ele>
        <time>2020-05-28T09:18:55.000Z</time>
      </trkpt>
      <trkpt lat="47.28537" lon="-2.29192">
        <ele>11.39999961853</ele>
        <time>2020-05-28T09:19:02.000Z</time>
      </trkpt>
      <trkpt lat="47.2852" lon="-2.29212">
        <ele>11.39999961853</ele>
        <time>2020-05-28T09:19:08.000Z</time>
      </trkpt>
      <trkpt lat="47.2852" lon="-2.29217">
        <ele>11.39999961853</ele>
        <time>2020-05-28T09:19:09.000Z</time>
      </trkpt>
      <trkpt lat="47.2852" lon="-2.29234">
        <ele>11.39999961853</ele>
        <time>2020-05-28T09:19:12.000Z</time>
      </trkpt>
      <trkpt lat="47.2852" lon="-2.29259">
        <ele>11.39999961853</ele>
        <time>2020-05-28T09:19:18.000Z</time>
      </trkpt>
      <trkpt lat="47.28521" lon="-2.29279">
        <ele>11.39999961853</ele>
        <time>2020-05-28T09:19:26.000Z</time>
      </trkpt>
      <trkpt lat="47.28521" lon="-2.2928">
        <ele>11.39999961853</ele>
        <time>2020-05-28T09:19:28.000Z</time>
      </trkpt>
      <trkpt lat="47.2852" lon="-2.29285">
        <ele>11.800000190735</ele>
        <time>2020-05-28T09:19:36.000Z</time>
      </trkpt>
      <trkpt lat="47.28519" lon="-2.29288">
        <ele>12.60000038147</ele>
        <time>2020-05-28T09:19:37.000Z</time>
      </trkpt>
      <trkpt lat="47.28519" lon="-2.2929">
        <ele>13</ele>
        <time>2020-05-28T09:19:38.000Z</time>
      </trkpt>
      <trkpt lat="47.2852" lon="-2.29293">
        <ele>13.39999961853</ele>
        <time>2020-05-28T09:19:39.000Z</time>
      </trkpt>
      <trkpt lat="47.2852" lon="-2.29305">
        <ele>13.39999961853</ele>
        <time>2020-05-28T09:19:43.000Z</time>
      </trkpt>
      <trkpt lat="47.28515" lon="-2.29304">
        <ele>13.39999961853</ele>
        <time>2020-05-28T09:19:47.000Z</time>
      </trkpt>
      <trkpt lat="47.28512" lon="-2.29303">
        <ele>13.39999961853</ele>
        <time>2020-05-28T09:19:48.000Z</time>
      </trkpt>
      <trkpt lat="47.2851" lon="-2.29303">
        <ele>13.39999961853</ele>
        <time>2020-05-28T09:19:49.000Z</time>
      </trkpt>
      <trkpt lat="47.28501" lon="-2.29307">
        <ele>13.39999961853</ele>
        <time>2020-05-28T09:19:52.000Z</time>
      </trkpt>
      <trkpt lat="47.28484" lon="-2.29323">
        <ele>13.39999961853</ele>
        <time>2020-05-28T09:19:58.000Z</time>
      </trkpt>
      <trkpt lat="47.28459" lon="-2.29336">
        <ele>13.39999961853</ele>
        <time>2020-05-28T09:20:05.000Z</time>
      </trkpt>
      <trkpt lat="47.28438" lon="-2.29345">
        <ele>13.39999961853</ele>
        <time>2020-05-28T09:20:11.000Z</time>
      </trkpt>
      <trkpt lat="47.28418" lon="-2.29357">
        <ele>13.39999961853</ele>
        <time>2020-05-28T09:20:16.000Z</time>
      </trkpt>
      <trkpt lat="47.28413" lon="-2.29366">
        <ele>13.39999961853</ele>
        <time>2020-05-28T09:20:18.000Z</time>
      </trkpt>
      <trkpt lat="47.28412" lon="-2.29377">
        <ele>13.800000190735</ele>
        <time>2020-05-28T09:20:20.000Z</time>
      </trkpt>
      <trkpt lat="47.28412" lon="-2.29384">
        <ele>14.199999809265</ele>
        <time>2020-05-28T09:20:21.000Z</time>
      </trkpt>
      <trkpt lat="47.28413" lon="-2.29391">
        <ele>14.60000038147</ele>
        <time>2020-05-28T09:20:22.000Z</time>
      </trkpt>
      <trkpt lat="47.28414" lon="-2.29398">
        <ele>15.199999809265</ele>
        <time>2020-05-28T09:20:23.000Z</time>
      </trkpt>
      <trkpt lat="47.28414" lon="-2.29404">
        <ele>15.60000038147</ele>
        <time>2020-05-28T09:20:24.000Z</time>
      </trkpt>
      <trkpt lat="47.28416" lon="-2.29438">
        <ele>15.60000038147</ele>
        <time>2020-05-28T09:20:29.000Z</time>
      </trkpt>
      <trkpt lat="47.28416" lon="-2.29445">
        <ele>15.60000038147</ele>
        <time>2020-05-28T09:20:30.000Z</time>
      </trkpt>
      <trkpt lat="47.28416" lon="-2.29489">
        <ele>15.60000038147</ele>
        <time>2020-05-28T09:20:36.000Z</time>
      </trkpt>
      <trkpt lat="47.28428" lon="-2.29505">
        <ele>15.60000038147</ele>
        <time>2020-05-28T09:20:39.000Z</time>
      </trkpt>
      <trkpt lat="47.28428" lon="-2.29505">
        <ele>15.60000038147</ele>
        <time>2020-05-28T09:20:42.000Z</time>
      </trkpt>
      <trkpt lat="47.28452" lon="-2.29504">
        <ele>15.60000038147</ele>
        <time>2020-05-28T09:20:47.000Z</time>
      </trkpt>
      <trkpt lat="47.28497" lon="-2.29503">
        <ele>15.60000038147</ele>
        <time>2020-05-28T09:20:57.000Z</time>
      </trkpt>
      <trkpt lat="47.28524" lon="-2.29499">
        <ele>15.60000038147</ele>
        <time>2020-05-28T09:21:03.000Z</time>
      </trkpt>
      <trkpt lat="47.28529" lon="-2.29498">
        <ele>15.60000038147</ele>
        <time>2020-05-28T09:21:04.000Z</time>
      </trkpt>
      <trkpt lat="47.2854" lon="-2.29487">
        <ele>15.60000038147</ele>
        <time>2020-05-28T09:21:07.000Z</time>
      </trkpt>
      <trkpt lat="47.28552" lon="-2.2948">
        <ele>15.60000038147</ele>
        <time>2020-05-28T09:21:10.000Z</time>
      </trkpt>
      <trkpt lat="47.28556" lon="-2.29479">
        <ele>15.60000038147</ele>
        <time>2020-05-28T09:21:11.000Z</time>
      </trkpt>
      <trkpt lat="47.2858" lon="-2.29471">
        <ele>15.60000038147</ele>
        <time>2020-05-28T09:21:17.000Z</time>
      </trkpt>
      <trkpt lat="47.28592" lon="-2.29484">
        <ele>15.60000038147</ele>
        <time>2020-05-28T09:21:21.000Z</time>
      </trkpt>
      <trkpt lat="47.28598" lon="-2.29514">
        <ele>15.60000038147</ele>
        <time>2020-05-28T09:21:25.000Z</time>
      </trkpt>
      <trkpt lat="47.286" lon="-2.29569">
        <ele>15.60000038147</ele>
        <time>2020-05-28T09:21:31.000Z</time>
      </trkpt>
      <trkpt lat="47.28597" lon="-2.29624">
        <ele>15.60000038147</ele>
        <time>2020-05-28T09:21:36.000Z</time>
      </trkpt>
      <trkpt lat="47.28598" lon="-2.29636">
        <ele>15</ele>
        <time>2020-05-28T09:21:37.000Z</time>
      </trkpt>
      <trkpt lat="47.28599" lon="-2.29647">
        <ele>14.60000038147</ele>
        <time>2020-05-28T09:21:38.000Z</time>
      </trkpt>
      <trkpt lat="47.28601" lon="-2.29657">
        <ele>14.199999809265</ele>
        <time>2020-05-28T09:21:39.000Z</time>
      </trkpt>
      <trkpt lat="47.28603" lon="-2.29668">
        <ele>13.800000190735</ele>
        <time>2020-05-28T09:21:40.000Z</time>
      </trkpt>
      <trkpt lat="47.28606" lon="-2.29678">
        <ele>13.199999809265</ele>
        <time>2020-05-28T09:21:41.000Z</time>
      </trkpt>
      <trkpt lat="47.28612" lon="-2.29697">
        <ele>13.199999809265</ele>
        <time>2020-05-28T09:21:43.000Z</time>
      </trkpt>
      <trkpt lat="47.28625" lon="-2.29735">
        <ele>13.199999809265</ele>
        <time>2020-05-28T09:21:47.000Z</time>
      </trkpt>
      <trkpt lat="47.28644" lon="-2.29786">
        <ele>13.199999809265</ele>
        <time>2020-05-28T09:21:53.000Z</time>
      </trkpt>
      <trkpt lat="47.28646" lon="-2.29794">
        <ele>13.199999809265</ele>
        <time>2020-05-28T09:21:54.000Z</time>
      </trkpt>
      <trkpt lat="47.28647" lon="-2.2982">
        <ele>12.800000190735</ele>
        <time>2020-05-28T09:21:57.000Z</time>
      </trkpt>
      <trkpt lat="47.28647" lon="-2.29829">
        <ele>12.39999961853</ele>
        <time>2020-05-28T09:21:58.000Z</time>
      </trkpt>
      <trkpt lat="47.28647" lon="-2.29838">
        <ele>12</ele>
        <time>2020-05-28T09:21:59.000Z</time>
      </trkpt>
      <trkpt lat="47.28647" lon="-2.29847">
        <ele>11.60000038147</ele>
        <time>2020-05-28T09:22:00.000Z</time>
      </trkpt>
      <trkpt lat="47.28647" lon="-2.29856">
        <ele>11.199999809265</ele>
        <time>2020-05-28T09:22:01.000Z</time>
      </trkpt>
      <trkpt lat="47.28649" lon="-2.29874">
        <ele>11.199999809265</ele>
        <time>2020-05-28T09:22:03.000Z</time>
      </trkpt>
      <trkpt lat="47.28651" lon="-2.29883">
        <ele>11.199999809265</ele>
        <time>2020-05-28T09:22:04.000Z</time>
      </trkpt>
      <trkpt lat="47.28662" lon="-2.29905">
        <ele>11.199999809265</ele>
        <time>2020-05-28T09:22:07.000Z</time>
      </trkpt>
      <trkpt lat="47.28672" lon="-2.29913">
        <ele>11.199999809265</ele>
        <time>2020-05-28T09:22:09.000Z</time>
      </trkpt>
      <trkpt lat="47.28683" lon="-2.2992">
        <ele>11.199999809265</ele>
        <time>2020-05-28T09:22:11.000Z</time>
      </trkpt>
      <trkpt lat="47.28689" lon="-2.2992">
        <ele>10.800000190735</ele>
        <time>2020-05-28T09:22:12.000Z</time>
      </trkpt>
      <trkpt lat="47.28696" lon="-2.29919">
        <ele>10.39999961853</ele>
        <time>2020-05-28T09:22:13.000Z</time>
      </trkpt>
      <trkpt lat="47.28702" lon="-2.29918">
        <ele>10</ele>
        <time>2020-05-28T09:22:14.000Z</time>
      </trkpt>
      <trkpt lat="47.28708" lon="-2.29919">
        <ele>9.6000003814697</ele>
        <time>2020-05-28T09:22:15.000Z</time>
      </trkpt>
      <trkpt lat="47.28712" lon="-2.29922">
        <ele>9.1999998092651</ele>
        <time>2020-05-28T09:22:16.000Z</time>
      </trkpt>
      <trkpt lat="47.28716" lon="-2.29926">
        <ele>9.1999998092651</ele>
        <time>2020-05-28T09:22:17.000Z</time>
      </trkpt>
      <trkpt lat="47.28723" lon="-2.2994">
        <ele>9.1999998092651</ele>
        <time>2020-05-28T09:22:19.000Z</time>
      </trkpt>
      <trkpt lat="47.28726" lon="-2.29947">
        <ele>9.1999998092651</ele>
        <time>2020-05-28T09:22:20.000Z</time>
      </trkpt>
      <trkpt lat="47.28747" lon="-2.29972">
        <ele>9.1999998092651</ele>
        <time>2020-05-28T09:22:24.000Z</time>
      </trkpt>
      <trkpt lat="47.28765" lon="-2.29988">
        <ele>8.8000001907349</ele>
        <time>2020-05-28T09:22:27.000Z</time>
      </trkpt>
      <trkpt lat="47.28772" lon="-2.29992">
        <ele>8.1999998092651</ele>
        <time>2020-05-28T09:22:28.000Z</time>
      </trkpt>
      <trkpt lat="47.28778" lon="-2.29996">
        <ele>7.8000001907349</ele>
        <time>2020-05-28T09:22:29.000Z</time>
      </trkpt>
      <trkpt lat="47.28784" lon="-2.3">
        <ele>7.4000000953674</ele>
        <time>2020-05-28T09:22:30.000Z</time>
      </trkpt>
      <trkpt lat="47.28789" lon="-2.30006">
        <ele>7</ele>
        <time>2020-05-28T09:22:31.000Z</time>
      </trkpt>
      <trkpt lat="47.28793" lon="-2.30015">
        <ele>7</ele>
        <time>2020-05-28T09:22:32.000Z</time>
      </trkpt>
      <trkpt lat="47.28801" lon="-2.30032">
        <ele>6.5999999046326</ele>
        <time>2020-05-28T09:22:34.000Z</time>
      </trkpt>
      <trkpt lat="47.28806" lon="-2.30041">
        <ele>6.1999998092651</ele>
        <time>2020-05-28T09:22:35.000Z</time>
      </trkpt>
      <trkpt lat="47.28811" lon="-2.30049">
        <ele>5.8000001907349</ele>
        <time>2020-05-28T09:22:36.000Z</time>
      </trkpt>
      <trkpt lat="47.28817" lon="-2.30057">
        <ele>5.4000000953674</ele>
        <time>2020-05-28T09:22:37.000Z</time>
      </trkpt>
      <trkpt lat="47.28823" lon="-2.30064">
        <ele>4.8000001907349</ele>
        <time>2020-05-28T09:22:38.000Z</time>
      </trkpt>
      <trkpt lat="47.28846" lon="-2.30092">
        <ele>4.8000001907349</ele>
        <time>2020-05-28T09:22:42.000Z</time>
      </trkpt>
      <trkpt lat="47.28885" lon="-2.30138">
        <ele>4.8000001907349</ele>
        <time>2020-05-28T09:22:49.000Z</time>
      </trkpt>
      <trkpt lat="47.28891" lon="-2.30145">
        <ele>4.4000000953674</ele>
        <time>2020-05-28T09:22:50.000Z</time>
      </trkpt>
      <trkpt lat="47.28896" lon="-2.30151">
        <ele>4</ele>
        <time>2020-05-28T09:22:51.000Z</time>
      </trkpt>
      <trkpt lat="47.28902" lon="-2.30158">
        <ele>3.5999999046326</ele>
        <time>2020-05-28T09:22:52.000Z</time>
      </trkpt>
      <trkpt lat="47.28908" lon="-2.30165">
        <ele>3.2000000476837</ele>
        <time>2020-05-28T09:22:53.000Z</time>
      </trkpt>
      <trkpt lat="47.28914" lon="-2.30172">
        <ele>2.7999999523163</ele>
        <time>2020-05-28T09:22:54.000Z</time>
      </trkpt>
      <trkpt lat="47.28926" lon="-2.30186">
        <ele>2.7999999523163</ele>
        <time>2020-05-28T09:22:56.000Z</time>
      </trkpt>
      <trkpt lat="47.28944" lon="-2.30206">
        <ele>2.4000000953674</ele>
        <time>2020-05-28T09:22:59.000Z</time>
      </trkpt>
      <trkpt lat="47.28949" lon="-2.30213">
        <ele>2</ele>
        <time>2020-05-28T09:23:00.000Z</time>
      </trkpt>
      <trkpt lat="47.28955" lon="-2.30219">
        <ele>1.6000000238419</ele>
        <time>2020-05-28T09:23:01.000Z</time>
      </trkpt>
      <trkpt lat="47.2896" lon="-2.30225">
        <ele>1.2000000476837</ele>
        <time>2020-05-28T09:23:02.000Z</time>
      </trkpt>
      <trkpt lat="47.28966" lon="-2.3023">
        <ele>0.60000002384186</ele>
        <time>2020-05-28T09:23:03.000Z</time>
      </trkpt>
      <trkpt lat="47.28972" lon="-2.30234">
        <ele>0.60000002384186</ele>
        <time>2020-05-28T09:23:04.000Z</time>
      </trkpt>
      <trkpt lat="47.28999" lon="-2.30243">
        <ele>0.60000002384186</ele>
        <time>2020-05-28T09:23:08.000Z</time>
      </trkpt>
      <trkpt lat="47.29005" lon="-2.30242">
        <ele>0.60000002384186</ele>
        <time>2020-05-28T09:23:09.000Z</time>
      </trkpt>
      <trkpt lat="47.29026" lon="-2.30234">
        <ele>0.60000002384186</ele>
        <time>2020-05-28T09:23:12.000Z</time>
      </trkpt>
      <trkpt lat="47.29033" lon="-2.3023">
        <ele>0.60000002384186</ele>
        <time>2020-05-28T09:23:13.000Z</time>
      </trkpt>
      <trkpt lat="47.29083" lon="-2.30206">
        <ele>0.60000002384186</ele>
        <time>2020-05-28T09:23:20.000Z</time>
      </trkpt>
      <trkpt lat="47.2913" lon="-2.30181">
        <ele>0.60000002384186</ele>
        <time>2020-05-28T09:23:27.000Z</time>
      </trkpt>
      <trkpt lat="47.29156" lon="-2.30167">
        <ele>0.20000000298023</ele>
        <time>2020-05-28T09:23:31.000Z</time>
      </trkpt>
      <trkpt lat="47.29163" lon="-2.30163">
        <ele>-0.20000000298023</ele>
        <time>2020-05-28T09:23:32.000Z</time>
      </trkpt>
      <trkpt lat="47.29169" lon="-2.3016">
        <ele>-0.60000002384186</ele>
        <time>2020-05-28T09:23:33.000Z</time>
      </trkpt>
      <trkpt lat="47.29175" lon="-2.30157">
        <ele>-1</ele>
        <time>2020-05-28T09:23:34.000Z</time>
      </trkpt>
      <trkpt lat="47.29181" lon="-2.30154">
        <ele>-1.3999999761581</ele>
        <time>2020-05-28T09:23:35.000Z</time>
      </trkpt>
      <trkpt lat="47.29187" lon="-2.3015">
        <ele>-1.3999999761581</ele>
        <time>2020-05-28T09:23:36.000Z</time>
      </trkpt>
      <trkpt lat="47.29234" lon="-2.30124">
        <ele>-1.3999999761581</ele>
        <time>2020-05-28T09:23:44.000Z</time>
      </trkpt>
      <trkpt lat="47.29241" lon="-2.30122">
        <ele>-1.3999999761581</ele>
        <time>2020-05-28T09:23:45.000Z</time>
      </trkpt>
      <trkpt lat="47.2926" lon="-2.30118">
        <ele>-1.3999999761581</ele>
        <time>2020-05-28T09:23:48.000Z</time>
      </trkpt>
      <trkpt lat="47.29279" lon="-2.30118">
        <ele>-1.3999999761581</ele>
        <time>2020-05-28T09:23:51.000Z</time>
      </trkpt>
      <trkpt lat="47.29313" lon="-2.30119">
        <ele>-1.3999999761581</ele>
        <time>2020-05-28T09:23:57.000Z</time>
      </trkpt>
      <trkpt lat="47.29317" lon="-2.30123">
        <ele>-1.3999999761581</ele>
        <time>2020-05-28T09:23:58.000Z</time>
      </trkpt>
      <trkpt lat="47.29322" lon="-2.30137">
        <ele>-1.3999999761581</ele>
        <time>2020-05-28T09:24:00.000Z</time>
      </trkpt>
      <trkpt lat="47.29321" lon="-2.30145">
        <ele>-2</ele>
        <time>2020-05-28T09:24:01.000Z</time>
      </trkpt>
      <trkpt lat="47.29319" lon="-2.30154">
        <ele>-2.4000000953674</ele>
        <time>2020-05-28T09:24:02.000Z</time>
      </trkpt>
      <trkpt lat="47.29316" lon="-2.30164">
        <ele>-2.7999999523163</ele>
        <time>2020-05-28T09:24:03.000Z</time>
      </trkpt>
      <trkpt lat="47.29313" lon="-2.30174">
        <ele>-3.2000000476837</ele>
        <time>2020-05-28T09:24:04.000Z</time>
      </trkpt>
      <trkpt lat="47.2931" lon="-2.30183">
        <ele>-3.5999999046326</ele>
        <time>2020-05-28T09:24:05.000Z</time>
      </trkpt>
      <trkpt lat="47.293" lon="-2.30212">
        <ele>-3.5999999046326</ele>
        <time>2020-05-28T09:24:08.000Z</time>
      </trkpt>
      <trkpt lat="47.29282" lon="-2.30258">
        <ele>-3.5999999046326</ele>
        <time>2020-05-28T09:24:13.000Z</time>
      </trkpt>
      <trkpt lat="47.29274" lon="-2.30274">
        <ele>-3.5999999046326</ele>
        <time>2020-05-28T09:24:15.000Z</time>
      </trkpt>
      <trkpt lat="47.29244" lon="-2.30337">
        <ele>-3.5999999046326</ele>
        <time>2020-05-28T09:24:22.000Z</time>
      </trkpt>
      <trkpt lat="47.29231" lon="-2.30364">
        <ele>-3.2000000476837</ele>
        <time>2020-05-28T09:24:25.000Z</time>
      </trkpt>
      <trkpt lat="47.29227" lon="-2.30373">
        <ele>-2.7999999523163</ele>
        <time>2020-05-28T09:24:26.000Z</time>
      </trkpt>
      <trkpt lat="47.29223" lon="-2.30382">
        <ele>-2.4000000953674</ele>
        <time>2020-05-28T09:24:27.000Z</time>
      </trkpt>
      <trkpt lat="47.29219" lon="-2.3039">
        <ele>-2</ele>
        <time>2020-05-28T09:24:28.000Z</time>
      </trkpt>
      <trkpt lat="47.29215" lon="-2.30398">
        <ele>-1.6000000238419</ele>
        <time>2020-05-28T09:24:29.000Z</time>
      </trkpt>
      <trkpt lat="47.29182" lon="-2.30469">
        <ele>-1.6000000238419</ele>
        <time>2020-05-28T09:24:38.000Z</time>
      </trkpt>
      <trkpt lat="47.29174" lon="-2.30491">
        <ele>-1.6000000238419</ele>
        <time>2020-05-28T09:24:41.000Z</time>
      </trkpt>
      <trkpt lat="47.29174" lon="-2.30497">
        <ele>-1.6000000238419</ele>
        <time>2020-05-28T09:24:42.000Z</time>
      </trkpt>
      <trkpt lat="47.29182" lon="-2.30501">
        <ele>-1.6000000238419</ele>
        <time>2020-05-28T09:24:44.000Z</time>
      </trkpt>
      <trkpt lat="47.29198" lon="-2.30493">
        <ele>-1.6000000238419</ele>
        <time>2020-05-28T09:24:47.000Z</time>
      </trkpt>
      <trkpt lat="47.2921" lon="-2.30488">
        <ele>-1.6000000238419</ele>
        <time>2020-05-28T09:24:49.000Z</time>
      </trkpt>
      <trkpt lat="47.29229" lon="-2.30482">
        <ele>-1.6000000238419</ele>
        <time>2020-05-28T09:24:52.000Z</time>
      </trkpt>
      <trkpt lat="47.29241" lon="-2.30482">
        <ele>-1.6000000238419</ele>
        <time>2020-05-28T09:24:54.000Z</time>
      </trkpt>
      <trkpt lat="47.29255" lon="-2.30487">
        <ele>-1.6000000238419</ele>
        <time>2020-05-28T09:24:56.000Z</time>
      </trkpt>
      <trkpt lat="47.29296" lon="-2.30509">
        <ele>-1.6000000238419</ele>
        <time>2020-05-28T09:25:02.000Z</time>
      </trkpt>
      <trkpt lat="47.29334" lon="-2.30534">
        <ele>-1.6000000238419</ele>
        <time>2020-05-28T09:25:08.000Z</time>
      </trkpt>
      <trkpt lat="47.29379" lon="-2.30561">
        <ele>-1.2000000476837</ele>
        <time>2020-05-28T09:25:15.000Z</time>
      </trkpt>
      <trkpt lat="47.29385" lon="-2.30565">
        <ele>-0.80000001192093</ele>
        <time>2020-05-28T09:25:16.000Z</time>
      </trkpt>
      <trkpt lat="47.29391" lon="-2.30568">
        <ele>-0.40000000596046</ele>
        <time>2020-05-28T09:25:17.000Z</time>
      </trkpt>
      <trkpt lat="47.29398" lon="-2.30571">
        <ele>0.20000000298023</ele>
        <time>2020-05-28T09:25:18.000Z</time>
      </trkpt>
      <trkpt lat="47.29404" lon="-2.30574">
        <ele>0.60000002384186</ele>
        <time>2020-05-28T09:25:19.000Z</time>
      </trkpt>
      <trkpt lat="47.29417" lon="-2.30577">
        <ele>0.60000002384186</ele>
        <time>2020-05-28T09:25:21.000Z</time>
      </trkpt>
      <trkpt lat="47.29429" lon="-2.30578">
        <ele>1</ele>
        <time>2020-05-28T09:25:23.000Z</time>
      </trkpt>
      <trkpt lat="47.29435" lon="-2.30578">
        <ele>1.3999999761581</ele>
        <time>2020-05-28T09:25:24.000Z</time>
      </trkpt>
      <trkpt lat="47.29441" lon="-2.30577">
        <ele>1.7999999523163</ele>
        <time>2020-05-28T09:25:25.000Z</time>
      </trkpt>
      <trkpt lat="47.29448" lon="-2.30576">
        <ele>2.4000000953674</ele>
        <time>2020-05-28T09:25:26.000Z</time>
      </trkpt>
      <trkpt lat="47.29454" lon="-2.30575">
        <ele>2.7999999523163</ele>
        <time>2020-05-28T09:25:27.000Z</time>
      </trkpt>
      <trkpt lat="47.29492" lon="-2.3057">
        <ele>2.7999999523163</ele>
        <time>2020-05-28T09:25:33.000Z</time>
      </trkpt>
      <trkpt lat="47.29505" lon="-2.30568">
        <ele>3.2000000476837</ele>
        <time>2020-05-28T09:25:35.000Z</time>
      </trkpt>
      <trkpt lat="47.29511" lon="-2.30567">
        <ele>3.5999999046326</ele>
        <time>2020-05-28T09:25:36.000Z</time>
      </trkpt>
      <trkpt lat="47.29517" lon="-2.30567">
        <ele>4</ele>
        <time>2020-05-28T09:25:37.000Z</time>
      </trkpt>
      <trkpt lat="47.29523" lon="-2.30566">
        <ele>4.5999999046326</ele>
        <time>2020-05-28T09:25:38.000Z</time>
      </trkpt>
      <trkpt lat="47.29529" lon="-2.30566">
        <ele>5</ele>
        <time>2020-05-28T09:25:39.000Z</time>
      </trkpt>
      <trkpt lat="47.2957" lon="-2.3056">
        <ele>5</ele>
        <time>2020-05-28T09:25:45.000Z</time>
      </trkpt>
      <trkpt lat="47.29626" lon="-2.30548">
        <ele>5</ele>
        <time>2020-05-28T09:25:53.000Z</time>
      </trkpt>
      <trkpt lat="47.29684" lon="-2.30526">
        <ele>5</ele>
        <time>2020-05-28T09:26:01.000Z</time>
      </trkpt>
      <trkpt lat="47.29691" lon="-2.30524">
        <ele>5</ele>
        <time>2020-05-28T09:26:02.000Z</time>
      </trkpt>
      <trkpt lat="47.29744" lon="-2.30508">
        <ele>5</ele>
        <time>2020-05-28T09:26:09.000Z</time>
      </trkpt>
      <trkpt lat="47.29751" lon="-2.30505">
        <ele>5</ele>
        <time>2020-05-28T09:26:10.000Z</time>
      </trkpt>
      <trkpt lat="47.29791" lon="-2.30493">
        <ele>4.4000000953674</ele>
        <time>2020-05-28T09:26:15.000Z</time>
      </trkpt>
      <trkpt lat="47.298" lon="-2.30491">
        <ele>4</ele>
        <time>2020-05-28T09:26:16.000Z</time>
      </trkpt>
      <trkpt lat="47.29808" lon="-2.30489">
        <ele>3.5999999046326</ele>
        <time>2020-05-28T09:26:17.000Z</time>
      </trkpt>
      <trkpt lat="47.29815" lon="-2.30487">
        <ele>3</ele>
        <time>2020-05-28T09:26:18.000Z</time>
      </trkpt>
      <trkpt lat="47.29823" lon="-2.30486">
        <ele>2.5999999046326</ele>
        <time>2020-05-28T09:26:19.000Z</time>
      </trkpt>
      <trkpt lat="47.29871" lon="-2.30478">
        <ele>2.5999999046326</ele>
        <time>2020-05-28T09:26:25.000Z</time>
      </trkpt>
      <trkpt lat="47.29879" lon="-2.30477">
        <ele>2</ele>
        <time>2020-05-28T09:26:26.000Z</time>
      </trkpt>
      <trkpt lat="47.29888" lon="-2.30477">
        <ele>1.6000000238419</ele>
        <time>2020-05-28T09:26:27.000Z</time>
      </trkpt>
      <trkpt lat="47.29896" lon="-2.30478">
        <ele>1.2000000476837</ele>
        <time>2020-05-28T09:26:28.000Z</time>
      </trkpt>
      <trkpt lat="47.29904" lon="-2.3048">
        <ele>0.60000002384186</ele>
        <time>2020-05-28T09:26:29.000Z</time>
      </trkpt>
      <trkpt lat="47.29912" lon="-2.30483">
        <ele>0.20000000298023</ele>
        <time>2020-05-28T09:26:30.000Z</time>
      </trkpt>
      <trkpt lat="47.29929" lon="-2.30493">
        <ele>0.20000000298023</ele>
        <time>2020-05-28T09:26:32.000Z</time>
      </trkpt>
      <trkpt lat="47.29937" lon="-2.30499">
        <ele>-0.20000000298023</ele>
        <time>2020-05-28T09:26:33.000Z</time>
      </trkpt>
      <trkpt lat="47.29946" lon="-2.30504">
        <ele>-0.60000002384186</ele>
        <time>2020-05-28T09:26:34.000Z</time>
      </trkpt>
      <trkpt lat="47.29955" lon="-2.30509">
        <ele>-1</ele>
        <time>2020-05-28T09:26:35.000Z</time>
      </trkpt>
      <trkpt lat="47.29964" lon="-2.30514">
        <ele>-1.7999999523163</ele>
        <time>2020-05-28T09:26:36.000Z</time>
      </trkpt>
      <trkpt lat="47.30014" lon="-2.30539">
        <ele>-1.7999999523163</ele>
        <time>2020-05-28T09:26:42.000Z</time>
      </trkpt>
      <trkpt lat="47.30032" lon="-2.30541">
        <ele>-2.2000000476837</ele>
        <time>2020-05-28T09:26:44.000Z</time>
      </trkpt>
      <trkpt lat="47.3004" lon="-2.30541">
        <ele>-2.5999999046326</ele>
        <time>2020-05-28T09:26:45.000Z</time>
      </trkpt>
      <trkpt lat="47.30048" lon="-2.3054">
        <ele>-3</ele>
        <time>2020-05-28T09:26:46.000Z</time>
      </trkpt>
      <trkpt lat="47.30057" lon="-2.3054">
        <ele>-3.4000000953674</ele>
        <time>2020-05-28T09:26:47.000Z</time>
      </trkpt>
      <trkpt lat="47.30065" lon="-2.30539">
        <ele>-3.7999999523163</ele>
        <time>2020-05-28T09:26:48.000Z</time>
      </trkpt>
      <trkpt lat="47.30104" lon="-2.30542">
        <ele>-3.7999999523163</ele>
        <time>2020-05-28T09:26:53.000Z</time>
      </trkpt>
      <trkpt lat="47.30125" lon="-2.30559">
        <ele>-3.7999999523163</ele>
        <time>2020-05-28T09:26:56.000Z</time>
      </trkpt>
      <trkpt lat="47.30139" lon="-2.30585">
        <ele>-3.7999999523163</ele>
        <time>2020-05-28T09:26:59.000Z</time>
      </trkpt>
      <trkpt lat="47.30143" lon="-2.30594">
        <ele>-3.7999999523163</ele>
        <time>2020-05-28T09:27:00.000Z</time>
      </trkpt>
      <trkpt lat="47.30145" lon="-2.30603">
        <ele>-3.7999999523163</ele>
        <time>2020-05-28T09:27:01.000Z</time>
      </trkpt>
      <trkpt lat="47.30151" lon="-2.30619">
        <ele>-4.1999998092651</ele>
        <time>2020-05-28T09:27:03.000Z</time>
      </trkpt>
      <trkpt lat="47.30153" lon="-2.30628">
        <ele>-4.8000001907349</ele>
        <time>2020-05-28T09:27:04.000Z</time>
      </trkpt>
      <trkpt lat="47.30156" lon="-2.30636">
        <ele>-5.1999998092651</ele>
        <time>2020-05-28T09:27:05.000Z</time>
      </trkpt>
      <trkpt lat="47.30158" lon="-2.30644">
        <ele>-5.5999999046326</ele>
        <time>2020-05-28T09:27:06.000Z</time>
      </trkpt>
      <trkpt lat="47.30161" lon="-2.30653">
        <ele>-6</ele>
        <time>2020-05-28T09:27:07.000Z</time>
      </trkpt>
      <trkpt lat="47.30167" lon="-2.30681">
        <ele>-6</ele>
        <time>2020-05-28T09:27:10.000Z</time>
      </trkpt>
      <trkpt lat="47.30168" lon="-2.3069">
        <ele>-6</ele>
        <time>2020-05-28T09:27:11.000Z</time>
      </trkpt>
      <trkpt lat="47.30171" lon="-2.30729">
        <ele>-6</ele>
        <time>2020-05-28T09:27:15.000Z</time>
      </trkpt>
      <trkpt lat="47.30173" lon="-2.30745">
        <ele>-6</ele>
        <time>2020-05-28T09:27:17.000Z</time>
      </trkpt>
      <trkpt lat="47.30177" lon="-2.30756">
        <ele>-6</ele>
        <time>2020-05-28T09:27:19.000Z</time>
      </trkpt>
      <trkpt lat="47.30177" lon="-2.30762">
        <ele>-6</ele>
        <time>2020-05-28T09:27:20.000Z</time>
      </trkpt>
      <trkpt lat="47.30176" lon="-2.30804">
        <ele>-6</ele>
        <time>2020-05-28T09:27:26.000Z</time>
      </trkpt>
      <trkpt lat="47.30185" lon="-2.30822">
        <ele>-6</ele>
        <time>2020-05-28T09:27:29.000Z</time>
      </trkpt>
      <trkpt lat="47.30192" lon="-2.3083">
        <ele>-6</ele>
        <time>2020-05-28T09:27:31.000Z</time>
      </trkpt>
      <trkpt lat="47.30205" lon="-2.30843">
        <ele>-6</ele>
        <time>2020-05-28T09:27:34.000Z</time>
      </trkpt>
      <trkpt lat="47.3024" lon="-2.30879">
        <ele>-6</ele>
        <time>2020-05-28T09:27:41.000Z</time>
      </trkpt>
      <trkpt lat="47.30267" lon="-2.3091">
        <ele>-6</ele>
        <time>2020-05-28T09:27:47.000Z</time>
      </trkpt>
      <trkpt lat="47.30271" lon="-2.30916">
        <ele>-5.5999999046326</ele>
        <time>2020-05-28T09:27:48.000Z</time>
      </trkpt>
      <trkpt lat="47.30275" lon="-2.30921">
        <ele>-5.1999998092651</ele>
        <time>2020-05-28T09:27:49.000Z</time>
      </trkpt>
      <trkpt lat="47.30279" lon="-2.30926">
        <ele>-4.4000000953674</ele>
        <time>2020-05-28T09:27:50.000Z</time>
      </trkpt>
      <trkpt lat="47.30282" lon="-2.30931">
        <ele>-4</ele>
        <time>2020-05-28T09:27:51.000Z</time>
      </trkpt>
      <trkpt lat="47.30293" lon="-2.30949">
        <ele>-4</ele>
        <time>2020-05-28T09:27:54.000Z</time>
      </trkpt>
      <trkpt lat="47.30308" lon="-2.30973">
        <ele>-3.5999999046326</ele>
        <time>2020-05-28T09:27:58.000Z</time>
      </trkpt>
      <trkpt lat="47.30311" lon="-2.30979">
        <ele>-3</ele>
        <time>2020-05-28T09:27:59.000Z</time>
      </trkpt>
      <trkpt lat="47.30315" lon="-2.30984">
        <ele>-2.5999999046326</ele>
        <time>2020-05-28T09:28:00.000Z</time>
      </trkpt>
      <trkpt lat="47.30318" lon="-2.30989">
        <ele>-2.2000000476837</ele>
        <time>2020-05-28T09:28:01.000Z</time>
      </trkpt>
      <trkpt lat="47.30321" lon="-2.30994">
        <ele>-1.6000000238419</ele>
        <time>2020-05-28T09:28:02.000Z</time>
      </trkpt>
      <trkpt lat="47.30335" lon="-2.31013">
        <ele>-1.6000000238419</ele>
        <time>2020-05-28T09:28:06.000Z</time>
      </trkpt>
      <trkpt lat="47.30342" lon="-2.31022">
        <ele>-1.2000000476837</ele>
        <time>2020-05-28T09:28:08.000Z</time>
      </trkpt>
      <trkpt lat="47.30346" lon="-2.31026">
        <ele>-0.80000001192093</ele>
        <time>2020-05-28T09:28:09.000Z</time>
      </trkpt>
      <trkpt lat="47.3035" lon="-2.3103">
        <ele>-0.40000000596046</ele>
        <time>2020-05-28T09:28:10.000Z</time>
      </trkpt>
      <trkpt lat="47.30354" lon="-2.31035">
        <ele>13.6</ele>
        <time>2020-05-28T09:28:11.000Z</time>
      </trkpt>
      <trkpt lat="47.30357" lon="-2.3104">
        <ele>0.40000000596046</ele>
        <time>2020-05-28T09:28:12.000Z</time>
      </trkpt>
      <trkpt lat="47.30365" lon="-2.31051">
        <ele>0.40000000596046</ele>
        <time>2020-05-28T09:28:14.000Z</time>
      </trkpt>
      <trkpt lat="47.30382" lon="-2.31072">
        <ele>0.80000001192093</ele>
        <time>2020-05-28T09:28:18.000Z</time>
      </trkpt>
      <trkpt lat="47.30387" lon="-2.31078">
        <ele>1.2000000476837</ele>
        <time>2020-05-28T09:28:19.000Z</time>
      </trkpt>
      <trkpt lat="47.30392" lon="-2.31083">
        <ele>1.6000000238419</ele>
        <time>2020-05-28T09:28:20.000Z</time>
      </trkpt>
      <trkpt lat="47.30397" lon="-2.31087">
        <ele>2</ele>
        <time>2020-05-28T09:28:21.000Z</time>
      </trkpt>
      <trkpt lat="47.30402" lon="-2.31092">
        <ele>2.5999999046326</ele>
        <time>2020-05-28T09:28:22.000Z</time>
      </trkpt>
      <trkpt lat="47.30434" lon="-2.31118">
        <ele>2.5999999046326</ele>
        <time>2020-05-28T09:28:28.000Z</time>
      </trkpt>
      <trkpt lat="47.30438" lon="-2.31122">
        <ele>2.5999999046326</ele>
        <time>2020-05-28T09:28:29.000Z</time>
      </trkpt>
      <trkpt lat="47.30453" lon="-2.31147">
        <ele>2.5999999046326</ele>
        <time>2020-05-28T09:28:33.000Z</time>
      </trkpt>
      <trkpt lat="47.30458" lon="-2.31163">
        <ele>2.5999999046326</ele>
        <time>2020-05-28T09:28:35.000Z</time>
      </trkpt>
      <trkpt lat="47.30465" lon="-2.31187">
        <ele>2.5999999046326</ele>
        <time>2020-05-28T09:28:38.000Z</time>
      </trkpt>
      <trkpt lat="47.30481" lon="-2.31239">
        <ele>2.5999999046326</ele>
        <time>2020-05-28T09:28:44.000Z</time>
      </trkpt>
      <trkpt lat="47.30485" lon="-2.31247">
        <ele>3</ele>
        <time>2020-05-28T09:28:45.000Z</time>
      </trkpt>
      <trkpt lat="47.30489" lon="-2.31255">
        <ele>3.4000000953674</ele>
        <time>2020-05-28T09:28:46.000Z</time>
      </trkpt>
      <trkpt lat="47.30493" lon="-2.31263">
        <ele>3.7999999523163</ele>
        <time>2020-05-28T09:28:47.000Z</time>
      </trkpt>
      <trkpt lat="47.30498" lon="-2.31272">
        <ele>4.1999998092651</ele>
        <time>2020-05-28T09:28:48.000Z</time>
      </trkpt>
      <trkpt lat="47.30502" lon="-2.3128">
        <ele>4.5999999046326</ele>
        <time>2020-05-28T09:28:49.000Z</time>
      </trkpt>
      <trkpt lat="47.30508" lon="-2.31288">
        <ele>4.5999999046326</ele>
        <time>2020-05-28T09:28:50.000Z</time>
      </trkpt>
      <trkpt lat="47.30548" lon="-2.31352">
        <ele>4.5999999046326</ele>
        <time>2020-05-28T09:28:58.000Z</time>
      </trkpt>
      <trkpt lat="47.30576" lon="-2.31399">
        <ele>4.5999999046326</ele>
        <time>2020-05-28T09:29:04.000Z</time>
      </trkpt>
      <trkpt lat="47.30601" lon="-2.31454">
        <ele>4.5999999046326</ele>
        <time>2020-05-28T09:29:11.000Z</time>
      </trkpt>
      <trkpt lat="47.30613" lon="-2.3148">
        <ele>4.5999999046326</ele>
        <time>2020-05-28T09:29:16.000Z</time>
      </trkpt>
      <trkpt lat="47.30625" lon="-2.31511">
        <ele>4.5999999046326</ele>
        <time>2020-05-28T09:29:23.000Z</time>
      </trkpt>
      <trkpt lat="47.30629" lon="-2.31521">
        <ele>4.1999998092651</ele>
        <time>2020-05-28T09:29:25.000Z</time>
      </trkpt>
      <trkpt lat="47.30631" lon="-2.31526">
        <ele>3.7999999523163</ele>
        <time>2020-05-28T09:29:26.000Z</time>
      </trkpt>
      <trkpt lat="47.30634" lon="-2.31531">
        <ele>3.4000000953674</ele>
        <time>2020-05-28T09:29:27.000Z</time>
      </trkpt>
      <trkpt lat="47.30637" lon="-2.31537">
        <ele>3</ele>
        <time>2020-05-28T09:29:28.000Z</time>
      </trkpt>
      <trkpt lat="47.30639" lon="-2.31543">
        <ele>2.5999999046326</ele>
        <time>2020-05-28T09:29:29.000Z</time>
      </trkpt>
      <trkpt lat="47.30655" lon="-2.31581">
        <ele>2.5999999046326</ele>
        <time>2020-05-28T09:29:35.000Z</time>
      </trkpt>
      <trkpt lat="47.30667" lon="-2.31606">
        <ele>2.2000000476837</ele>
        <time>2020-05-28T09:29:39.000Z</time>
      </trkpt>
      <trkpt lat="47.3067" lon="-2.31613">
        <ele>1.7999999523163</ele>
        <time>2020-05-28T09:29:40.000Z</time>
      </trkpt>
      <trkpt lat="47.30673" lon="-2.31621">
        <ele>1.2000000476837</ele>
        <time>2020-05-28T09:29:41.000Z</time>
      </trkpt>
      <trkpt lat="47.30676" lon="-2.31628">
        <ele>0.80000001192093</ele>
        <time>2020-05-28T09:29:42.000Z</time>
      </trkpt>
      <trkpt lat="47.30679" lon="-2.31636">
        <ele>0.40000000596046</ele>
        <time>2020-05-28T09:29:43.000Z</time>
      </trkpt>
      <trkpt lat="47.30688" lon="-2.31665">
        <ele>0.40000000596046</ele>
        <time>2020-05-28T09:29:47.000Z</time>
      </trkpt>
      <trkpt lat="47.30695" lon="-2.31683">
        <ele>0.40000000596046</ele>
        <time>2020-05-28T09:29:50.000Z</time>
      </trkpt>
      <trkpt lat="47.30701" lon="-2.31693">
        <ele>0.40000000596046</ele>
        <time>2020-05-28T09:29:52.000Z</time>
      </trkpt>
      <trkpt lat="47.30713" lon="-2.3172">
        <ele>0.40000000596046</ele>
        <time>2020-05-28T09:29:58.000Z</time>
      </trkpt>
      <trkpt lat="47.30726" lon="-2.31752">
        <ele>0.40000000596046</ele>
        <time>2020-05-28T09:30:05.000Z</time>
      </trkpt>
      <trkpt lat="47.30729" lon="-2.31762">
        <ele>0.40000000596046</ele>
        <time>2020-05-28T09:30:09.000Z</time>
      </trkpt>
      <trkpt lat="47.3073" lon="-2.31776">
        <ele>0.40000000596046</ele>
        <time>2020-05-28T09:30:14.000Z</time>
      </trkpt>
      <trkpt lat="47.3073" lon="-2.31785">
        <ele>0.40000000596046</ele>
        <time>2020-05-28T09:30:16.000Z</time>
      </trkpt>
      <trkpt lat="47.30732" lon="-2.318">
        <ele>0.40000000596046</ele>
        <time>2020-05-28T09:30:19.000Z</time>
      </trkpt>
      <trkpt lat="47.30735" lon="-2.31818">
        <ele>0.40000000596046</ele>
        <time>2020-05-28T09:30:22.000Z</time>
      </trkpt>
      <trkpt lat="47.30736" lon="-2.31836">
        <ele>0.40000000596046</ele>
        <time>2020-05-28T09:30:25.000Z</time>
      </trkpt>
      <trkpt lat="47.30737" lon="-2.31842">
        <ele>0.40000000596046</ele>
        <time>2020-05-28T09:30:26.000Z</time>
      </trkpt>
      <trkpt lat="47.3074" lon="-2.31874">
        <ele>10.5</ele>
        <time>2020-05-28T09:30:31.000Z</time>
      </trkpt>
      <trkpt lat="47.3074" lon="-2.31881">
        <ele>-0.40000000596046</ele>
        <time>2020-05-28T09:30:32.000Z</time>
      </trkpt>
      <trkpt lat="47.30741" lon="-2.31889">
        <ele>-0.80000001192093</ele>
        <time>2020-05-28T09:30:33.000Z</time>
      </trkpt>
      <trkpt lat="47.30742" lon="-2.31896">
        <ele>-1.2000000476837</ele>
        <time>2020-05-28T09:30:34.000Z</time>
      </trkpt>
      <trkpt lat="47.30743" lon="-2.31904">
        <ele>-1.6000000238419</ele>
        <time>2020-05-28T09:30:35.000Z</time>
      </trkpt>
      <trkpt lat="47.30747" lon="-2.31928">
        <ele>-1.6000000238419</ele>
        <time>2020-05-28T09:30:38.000Z</time>
      </trkpt>
      <trkpt lat="47.30764" lon="-2.31989">
        <ele>-1.6000000238419</ele>
        <time>2020-05-28T09:30:46.000Z</time>
      </trkpt>
      <trkpt lat="47.30783" lon="-2.32041">
        <ele>-1.6000000238419</ele>
        <time>2020-05-28T09:30:54.000Z</time>
      </trkpt>
      <trkpt lat="47.30795" lon="-2.32088">
        <ele>-1.6000000238419</ele>
        <time>2020-05-28T09:31:00.000Z</time>
      </trkpt>
      <trkpt lat="47.30806" lon="-2.32127">
        <ele>-1.2000000476837</ele>
        <time>2020-05-28T09:31:05.000Z</time>
      </trkpt>
      <trkpt lat="47.30808" lon="-2.32135">
        <ele>-0.80000001192093</ele>
        <time>2020-05-28T09:31:06.000Z</time>
      </trkpt>
      <trkpt lat="47.3081" lon="-2.32141">
        <ele>14.2</ele>
        <time>2020-05-28T09:31:07.000Z</time>
      </trkpt>
      <trkpt lat="47.30812" lon="-2.32148">
        <ele>0.40000000596046</ele>
        <time>2020-05-28T09:31:08.000Z</time>
      </trkpt>
      <trkpt lat="47.30822" lon="-2.3218">
        <ele>0.40000000596046</ele>
        <time>2020-05-28T09:31:13.000Z</time>
      </trkpt>
      <trkpt lat="47.3083" lon="-2.32208">
        <ele>1</ele>
        <time>2020-05-28T09:31:17.000Z</time>
      </trkpt>
      <trkpt lat="47.30833" lon="-2.32214">
        <ele>1.3999999761581</ele>
        <time>2020-05-28T09:31:18.000Z</time>
      </trkpt>
      <trkpt lat="47.30835" lon="-2.32221">
        <ele>1.7999999523163</ele>
        <time>2020-05-28T09:31:19.000Z</time>
      </trkpt>
      <trkpt lat="47.30838" lon="-2.32228">
        <ele>2.2000000476837</ele>
        <time>2020-05-28T09:31:20.000Z</time>
      </trkpt>
      <trkpt lat="47.3084" lon="-2.32235">
        <ele>2.5999999046326</ele>
        <time>2020-05-28T09:31:21.000Z</time>
      </trkpt>
      <trkpt lat="47.30858" lon="-2.32287">
        <ele>2.5999999046326</ele>
        <time>2020-05-28T09:31:29.000Z</time>
      </trkpt>
      <trkpt lat="47.30865" lon="-2.32307">
        <ele>3</ele>
        <time>2020-05-28T09:31:32.000Z</time>
      </trkpt>
      <trkpt lat="47.30867" lon="-2.32315">
        <ele>3.4000000953674</ele>
        <time>2020-05-28T09:31:33.000Z</time>
      </trkpt>
      <trkpt lat="47.30869" lon="-2.32322">
        <ele>3.7999999523163</ele>
        <time>2020-05-28T09:31:34.000Z</time>
      </trkpt>
      <trkpt lat="47.30871" lon="-2.32329">
        <ele>4.1999998092651</ele>
        <time>2020-05-28T09:31:35.000Z</time>
      </trkpt>
      <trkpt lat="47.30874" lon="-2.32336">
        <ele>4.8000001907349</ele>
        <time>2020-05-28T09:31:36.000Z</time>
      </trkpt>
      <trkpt lat="47.30891" lon="-2.32394">
        <ele>4.8000001907349</ele>
        <time>2020-05-28T09:31:44.000Z</time>
      </trkpt>
      <trkpt lat="47.30893" lon="-2.32401">
        <ele>5.1999998092651</ele>
        <time>2020-05-28T09:31:45.000Z</time>
      </trkpt>
      <trkpt lat="47.30895" lon="-2.32408">
        <ele>5.5999999046326</ele>
        <time>2020-05-28T09:31:46.000Z</time>
      </trkpt>
      <trkpt lat="47.30898" lon="-2.32415">
        <ele>6</ele>
        <time>2020-05-28T09:31:47.000Z</time>
      </trkpt>
      <trkpt lat="47.309" lon="-2.32422">
        <ele>6.4000000953674</ele>
        <time>2020-05-28T09:31:48.000Z</time>
      </trkpt>
      <trkpt lat="47.30902" lon="-2.32429">
        <ele>6.8000001907349</ele>
        <time>2020-05-28T09:31:49.000Z</time>
      </trkpt>
      <trkpt lat="47.3091" lon="-2.3245">
        <ele>6.8000001907349</ele>
        <time>2020-05-28T09:31:52.000Z</time>
      </trkpt>
      <trkpt lat="47.30919" lon="-2.3247">
        <ele>7.1999998092651</ele>
        <time>2020-05-28T09:31:55.000Z</time>
      </trkpt>
      <trkpt lat="47.30922" lon="-2.32476">
        <ele>8</ele>
        <time>2020-05-28T09:31:56.000Z</time>
      </trkpt>
      <trkpt lat="47.30924" lon="-2.32483">
        <ele>8.3999996185303</ele>
        <time>2020-05-28T09:31:57.000Z</time>
      </trkpt>
      <trkpt lat="47.30928" lon="-2.32488">
        <ele>8.8000001907349</ele>
        <time>2020-05-28T09:31:58.000Z</time>
      </trkpt>
      <trkpt lat="47.30942" lon="-2.32515">
        <ele>9.3999996185303</ele>
        <time>2020-05-28T09:32:03.000Z</time>
      </trkpt>
      <trkpt lat="47.30944" lon="-2.3252">
        <ele>9.8000001907349</ele>
        <time>2020-05-28T09:32:04.000Z</time>
      </trkpt>
      <trkpt lat="47.30945" lon="-2.32525">
        <ele>10.199999809265</ele>
        <time>2020-05-28T09:32:05.000Z</time>
      </trkpt>
      <trkpt lat="47.30947" lon="-2.32528">
        <ele>10.60000038147</ele>
        <time>2020-05-28T09:32:06.000Z</time>
      </trkpt>
      <trkpt lat="47.3095" lon="-2.32531">
        <ele>11</ele>
        <time>2020-05-28T09:32:07.000Z</time>
      </trkpt>
      <trkpt lat="47.30955" lon="-2.32531">
        <ele>11</ele>
        <time>2020-05-28T09:32:09.000Z</time>
      </trkpt>
      <trkpt lat="47.30967" lon="-2.3252">
        <ele>11</ele>
        <time>2020-05-28T09:32:13.000Z</time>
      </trkpt>
      <trkpt lat="47.3099" lon="-2.32505">
        <ele>11.39999961853</ele>
        <time>2020-05-28T09:32:18.000Z</time>
      </trkpt>
      <trkpt lat="47.30995" lon="-2.32501">
        <ele>11.800000190735</ele>
        <time>2020-05-28T09:32:19.000Z</time>
      </trkpt>
      <trkpt lat="47.31" lon="-2.32496">
        <ele>12.199999809265</ele>
        <time>2020-05-28T09:32:20.000Z</time>
      </trkpt>
      <trkpt lat="47.31004" lon="-2.32492">
        <ele>12.60000038147</ele>
        <time>2020-05-28T09:32:21.000Z</time>
      </trkpt>
      <trkpt lat="47.31007" lon="-2.32488">
        <ele>13</ele>
        <time>2020-05-28T09:32:22.000Z</time>
      </trkpt>
      <trkpt lat="47.31011" lon="-2.32484">
        <ele>13</ele>
        <time>2020-05-28T09:32:23.000Z</time>
      </trkpt>
      <trkpt lat="47.31019" lon="-2.32475">
        <ele>13</ele>
        <time>2020-05-28T09:32:25.000Z</time>
      </trkpt>
      <trkpt lat="47.31031" lon="-2.32459">
        <ele>13</ele>
        <time>2020-05-28T09:32:28.000Z</time>
      </trkpt>
      <trkpt lat="47.31041" lon="-2.32442">
        <ele>13</ele>
        <time>2020-05-28T09:32:31.000Z</time>
      </trkpt>
      <trkpt lat="47.31047" lon="-2.32432">
        <ele>13</ele>
        <time>2020-05-28T09:32:33.000Z</time>
      </trkpt>
      <trkpt lat="47.31065" lon="-2.3242">
        <ele>13</ele>
        <time>2020-05-28T09:32:36.000Z</time>
      </trkpt>
      <trkpt lat="47.31088" lon="-2.32416">
        <ele>13</ele>
        <time>2020-05-28T09:32:40.000Z</time>
      </trkpt>
      <trkpt lat="47.31094" lon="-2.32416">
        <ele>13</ele>
        <time>2020-05-28T09:32:41.000Z</time>
      </trkpt>
      <trkpt lat="47.31129" lon="-2.3242">
        <ele>13</ele>
        <time>2020-05-28T09:32:47.000Z</time>
      </trkpt>
      <trkpt lat="47.31142" lon="-2.32423">
        <ele>13</ele>
        <time>2020-05-28T09:32:51.000Z</time>
      </trkpt>
      <trkpt lat="47.31162" lon="-2.32428">
        <ele>13</ele>
        <time>2020-05-28T09:32:56.000Z</time>
      </trkpt>
      <trkpt lat="47.31173" lon="-2.3243">
        <ele>13</ele>
        <time>2020-05-28T09:32:58.000Z</time>
      </trkpt>
      <trkpt lat="47.31184" lon="-2.32426">
        <ele>13</ele>
        <time>2020-05-28T09:33:00.000Z</time>
      </trkpt>
      <trkpt lat="47.31196" lon="-2.32422">
        <ele>13</ele>
        <time>2020-05-28T09:33:02.000Z</time>
      </trkpt>
      <trkpt lat="47.31218" lon="-2.32409">
        <ele>13</ele>
        <time>2020-05-28T09:33:06.000Z</time>
      </trkpt>
      <trkpt lat="47.31248" lon="-2.32391">
        <ele>13</ele>
        <time>2020-05-28T09:33:12.000Z</time>
      </trkpt>
      <trkpt lat="47.31281" lon="-2.3236">
        <ele>13</ele>
        <time>2020-05-28T09:33:20.000Z</time>
      </trkpt>
      <trkpt lat="47.31307" lon="-2.32333">
        <ele>13</ele>
        <time>2020-05-28T09:33:25.000Z</time>
      </trkpt>
      <trkpt lat="47.3133" lon="-2.3231">
        <ele>13</ele>
        <time>2020-05-28T09:33:29.000Z</time>
      </trkpt>
      <trkpt lat="47.31342" lon="-2.323">
        <ele>13</ele>
        <time>2020-05-28T09:33:31.000Z</time>
      </trkpt>
      <trkpt lat="47.31349" lon="-2.32296">
        <ele>13</ele>
        <time>2020-05-28T09:33:32.000Z</time>
      </trkpt>
      <trkpt lat="47.3137" lon="-2.32285">
        <ele>13</ele>
        <time>2020-05-28T09:33:35.000Z</time>
      </trkpt>
      <trkpt lat="47.31377" lon="-2.32283">
        <ele>13</ele>
        <time>2020-05-28T09:33:36.000Z</time>
      </trkpt>
      <trkpt lat="47.31418" lon="-2.32271">
        <ele>13</ele>
        <time>2020-05-28T09:33:42.000Z</time>
      </trkpt>
      <trkpt lat="47.31438" lon="-2.32265">
        <ele>13</ele>
        <time>2020-05-28T09:33:45.000Z</time>
      </trkpt>
      <trkpt lat="47.3145" lon="-2.32254">
        <ele>13</ele>
        <time>2020-05-28T09:33:47.000Z</time>
      </trkpt>
      <trkpt lat="47.3146" lon="-2.32231">
        <ele>13</ele>
        <time>2020-05-28T09:33:50.000Z</time>
      </trkpt>
      <trkpt lat="47.31479" lon="-2.32175">
        <ele>13</ele>
        <time>2020-05-28T09:33:57.000Z</time>
      </trkpt>
      <trkpt lat="47.31483" lon="-2.32171">
        <ele>13</ele>
        <time>2020-05-28T09:33:58.000Z</time>
      </trkpt>
      <trkpt lat="47.31491" lon="-2.32172">
        <ele>13</ele>
        <time>2020-05-28T09:34:00.000Z</time>
      </trkpt>
      <trkpt lat="47.31505" lon="-2.32183">
        <ele>13</ele>
        <time>2020-05-28T09:34:04.000Z</time>
      </trkpt>
      <trkpt lat="47.31514" lon="-2.32177">
        <ele>13</ele>
        <time>2020-05-28T09:34:07.000Z</time>
      </trkpt>
      <trkpt lat="47.31515" lon="-2.32172">
        <ele>13.39999961853</ele>
        <time>2020-05-28T09:34:08.000Z</time>
      </trkpt>
      <trkpt lat="47.31514" lon="-2.32168">
        <ele>13.800000190735</ele>
        <time>2020-05-28T09:34:09.000Z</time>
      </trkpt>
      <trkpt lat="47.31512" lon="-2.32163">
        <ele>14.39999961853</ele>
        <time>2020-05-28T09:34:10.000Z</time>
      </trkpt>
      <trkpt lat="47.31509" lon="-2.32158">
        <ele>14.800000190735</ele>
        <time>2020-05-28T09:34:11.000Z</time>
      </trkpt>
      <trkpt lat="47.31507" lon="-2.32153">
        <ele>15.199999809265</ele>
        <time>2020-05-28T09:34:12.000Z</time>
      </trkpt>
      <trkpt lat="47.31498" lon="-2.32136">
        <ele>15.199999809265</ele>
        <time>2020-05-28T09:34:15.000Z</time>
      </trkpt>
      <trkpt lat="47.31493" lon="-2.32124">
        <ele>15.199999809265</ele>
        <time>2020-05-28T09:34:17.000Z</time>
      </trkpt>
      <trkpt lat="47.31494" lon="-2.32109">
        <ele>15.199999809265</ele>
        <time>2020-05-28T09:34:20.000Z</time>
      </trkpt>
      <trkpt lat="47.31499" lon="-2.32108">
        <ele>15.199999809265</ele>
        <time>2020-05-28T09:34:23.000Z</time>
      </trkpt>
      <trkpt lat="47.31506" lon="-2.32108">
        <ele>15.199999809265</ele>
        <time>2020-05-28T09:34:28.000Z</time>
      </trkpt>
      <trkpt lat="47.3152" lon="-2.32114">
        <ele>15.199999809265</ele>
        <time>2020-05-28T09:34:32.000Z</time>
      </trkpt>
      <trkpt lat="47.31524" lon="-2.32115">
        <ele>15.199999809265</ele>
        <time>2020-05-28T09:34:33.000Z</time>
      </trkpt>
      <trkpt lat="47.31554" lon="-2.32119">
        <ele>15.199999809265</ele>
        <time>2020-05-28T09:34:39.000Z</time>
      </trkpt>
      <trkpt lat="47.31593" lon="-2.3213">
        <ele>15.199999809265</ele>
        <time>2020-05-28T09:34:46.000Z</time>
      </trkpt>
      <trkpt lat="47.31611" lon="-2.32135">
        <ele>15.60000038147</ele>
        <time>2020-05-28T09:34:49.000Z</time>
      </trkpt>
      <trkpt lat="47.31618" lon="-2.32136">
        <ele>16.39999961853</ele>
        <time>2020-05-28T09:34:50.000Z</time>
      </trkpt>
      <trkpt lat="47.31624" lon="-2.32139">
        <ele>16.799999237061</ele>
        <time>2020-05-28T09:34:51.000Z</time>
      </trkpt>
      <trkpt lat="47.31629" lon="-2.3214">
        <ele>17.200000762939</ele>
        <time>2020-05-28T09:34:52.000Z</time>
      </trkpt>
      <trkpt lat="47.31636" lon="-2.32142">
        <ele>17.200000762939</ele>
        <time>2020-05-28T09:34:53.000Z</time>
      </trkpt>
      <trkpt lat="47.31676" lon="-2.32152">
        <ele>17.200000762939</ele>
        <time>2020-05-28T09:35:00.000Z</time>
      </trkpt>
      <trkpt lat="47.31709" lon="-2.32159">
        <ele>17.200000762939</ele>
        <time>2020-05-28T09:35:06.000Z</time>
      </trkpt>
      <trkpt lat="47.31744" lon="-2.32167">
        <ele>17.200000762939</ele>
        <time>2020-05-28T09:35:12.000Z</time>
      </trkpt>
      <trkpt lat="47.31757" lon="-2.3217">
        <ele>17.60000038147</ele>
        <time>2020-05-28T09:35:14.000Z</time>
      </trkpt>
      <trkpt lat="47.31763" lon="-2.32171">
        <ele>18.39999961853</ele>
        <time>2020-05-28T09:35:15.000Z</time>
      </trkpt>
      <trkpt lat="47.31769" lon="-2.32173">
        <ele>18.799999237061</ele>
        <time>2020-05-28T09:35:16.000Z</time>
      </trkpt>
      <trkpt lat="47.31776" lon="-2.32175">
        <ele>19.200000762939</ele>
        <time>2020-05-28T09:35:17.000Z</time>
      </trkpt>
      <trkpt lat="47.31797" lon="-2.3218">
        <ele>18.799999237061</ele>
        <time>2020-05-28T09:35:20.000Z</time>
      </trkpt>
      <trkpt lat="47.31804" lon="-2.32182">
        <ele>18.39999961853</ele>
        <time>2020-05-28T09:35:21.000Z</time>
      </trkpt>
      <trkpt lat="47.31811" lon="-2.32183">
        <ele>18</ele>
        <time>2020-05-28T09:35:22.000Z</time>
      </trkpt>
      <trkpt lat="47.31819" lon="-2.32185">
        <ele>17.60000038147</ele>
        <time>2020-05-28T09:35:23.000Z</time>
      </trkpt>
      <trkpt lat="47.31827" lon="-2.32187">
        <ele>17.200000762939</ele>
        <time>2020-05-28T09:35:24.000Z</time>
      </trkpt>
      <trkpt lat="47.3185" lon="-2.32193">
        <ele>17.200000762939</ele>
        <time>2020-05-28T09:35:27.000Z</time>
      </trkpt>
      <trkpt lat="47.31858" lon="-2.32195">
        <ele>16.60000038147</ele>
        <time>2020-05-28T09:35:28.000Z</time>
      </trkpt>
      <trkpt lat="47.31865" lon="-2.32197">
        <ele>16.200000762939</ele>
        <time>2020-05-28T09:35:29.000Z</time>
      </trkpt>
      <trkpt lat="47.31871" lon="-2.32198">
        <ele>15.800000190735</ele>
        <time>2020-05-28T09:35:30.000Z</time>
      </trkpt>
      <trkpt lat="47.31877" lon="-2.32198">
        <ele>15.39999961853</ele>
        <time>2020-05-28T09:35:31.000Z</time>
      </trkpt>
      <trkpt lat="47.31883" lon="-2.32199">
        <ele>14.800000190735</ele>
        <time>2020-05-28T09:35:32.000Z</time>
      </trkpt>
      <trkpt lat="47.31887" lon="-2.32199">
        <ele>14.39999961853</ele>
        <time>2020-05-28T09:35:33.000Z</time>
      </trkpt>
      <trkpt lat="47.31891" lon="-2.322">
        <ele>14</ele>
        <time>2020-05-28T09:35:34.000Z</time>
      </trkpt>
      <trkpt lat="47.31893" lon="-2.32203">
        <ele>13.60000038147</ele>
        <time>2020-05-28T09:35:35.000Z</time>
      </trkpt>
      <trkpt lat="47.31894" lon="-2.32206">
        <ele>13</ele>
        <time>2020-05-28T09:35:36.000Z</time>
      </trkpt>
      <trkpt lat="47.31893" lon="-2.32209">
        <ele>12.60000038147</ele>
        <time>2020-05-28T09:35:37.000Z</time>
      </trkpt>
      <trkpt lat="47.31891" lon="-2.32211">
        <ele>12</ele>
        <time>2020-05-28T09:35:38.000Z</time>
      </trkpt>
      <trkpt lat="47.31888" lon="-2.32213">
        <ele>10.800000190735</ele>
        <time>2020-05-28T09:35:39.000Z</time>
      </trkpt>
      <trkpt lat="47.31871" lon="-2.32217">
        <ele>10.800000190735</ele>
        <time>2020-05-28T09:35:43.000Z</time>
      </trkpt>
      <trkpt lat="47.31863" lon="-2.32219">
        <ele>10.800000190735</ele>
        <time>2020-05-28T09:35:45.000Z</time>
      </trkpt>
      <trkpt lat="47.3184" lon="-2.32225">
        <ele>10.800000190735</ele>
        <time>2020-05-28T09:35:50.000Z</time>
      </trkpt>
      <trkpt lat="47.31831" lon="-2.32226">
        <ele>11.199999809265</ele>
        <time>2020-05-28T09:35:52.000Z</time>
      </trkpt>
      <trkpt lat="47.31827" lon="-2.32227">
        <ele>11.60000038147</ele>
        <time>2020-05-28T09:35:53.000Z</time>
      </trkpt>
      <trkpt lat="47.31822" lon="-2.32227">
        <ele>12</ele>
        <time>2020-05-28T09:35:54.000Z</time>
      </trkpt>
      <trkpt lat="47.31817" lon="-2.32227">
        <ele>12.39999961853</ele>
        <time>2020-05-28T09:35:55.000Z</time>
      </trkpt>
      <trkpt lat="47.31812" lon="-2.32228">
        <ele>13</ele>
        <time>2020-05-28T09:35:56.000Z</time>
      </trkpt>
      <trkpt lat="47.31803" lon="-2.32229">
        <ele>13</ele>
        <time>2020-05-28T09:35:58.000Z</time>
      </trkpt>
      <trkpt lat="47.31798" lon="-2.32229">
        <ele>13.39999961853</ele>
        <time>2020-05-28T09:35:59.000Z</time>
      </trkpt>
      <trkpt lat="47.31792" lon="-2.3223">
        <ele>13.800000190735</ele>
        <time>2020-05-28T09:36:00.000Z</time>
      </trkpt>
      <trkpt lat="47.31788" lon="-2.3223">
        <ele>14.199999809265</ele>
        <time>2020-05-28T09:36:01.000Z</time>
      </trkpt>
      <trkpt lat="47.31783" lon="-2.3223">
        <ele>14.60000038147</ele>
        <time>2020-05-28T09:36:02.000Z</time>
      </trkpt>
      <trkpt lat="47.31778" lon="-2.32231">
        <ele>15</ele>
        <time>2020-05-28T09:36:03.000Z</time>
      </trkpt>
      <trkpt lat="47.31769" lon="-2.32232">
        <ele>15</ele>
        <time>2020-05-28T09:36:05.000Z</time>
      </trkpt>
      <trkpt lat="47.31756" lon="-2.32233">
        <ele>15</ele>
        <time>2020-05-28T09:36:08.000Z</time>
      </trkpt>
      <trkpt lat="47.31752" lon="-2.32243">
        <ele>15</ele>
        <time>2020-05-28T09:36:10.000Z</time>
      </trkpt>
      <trkpt lat="47.31756" lon="-2.32262">
        <ele>15</ele>
        <time>2020-05-28T09:36:13.000Z</time>
      </trkpt>
      <trkpt lat="47.31757" lon="-2.32269">
        <ele>15.39999961853</ele>
        <time>2020-05-28T09:36:14.000Z</time>
      </trkpt>
      <trkpt lat="47.31758" lon="-2.32277">
        <ele>15.800000190735</ele>
        <time>2020-05-28T09:36:15.000Z</time>
      </trkpt>
      <trkpt lat="47.31759" lon="-2.32284">
        <ele>16.200000762939</ele>
        <time>2020-05-28T09:36:16.000Z</time>
      </trkpt>
      <trkpt lat="47.31761" lon="-2.32292">
        <ele>16.60000038147</ele>
        <time>2020-05-28T09:36:17.000Z</time>
      </trkpt>
      <trkpt lat="47.31762" lon="-2.32301">
        <ele>17</ele>
        <time>2020-05-28T09:36:18.000Z</time>
      </trkpt>
      <trkpt lat="47.31764" lon="-2.3231">
        <ele>17</ele>
        <time>2020-05-28T09:36:19.000Z</time>
      </trkpt>
      <trkpt lat="47.31776" lon="-2.32374">
        <ele>17</ele>
        <time>2020-05-28T09:36:26.000Z</time>
      </trkpt>
      <trkpt lat="47.31779" lon="-2.32393">
        <ele>16.60000038147</ele>
        <time>2020-05-28T09:36:28.000Z</time>
      </trkpt>
      <trkpt lat="47.31781" lon="-2.32403">
        <ele>16</ele>
        <time>2020-05-28T09:36:29.000Z</time>
      </trkpt>
      <trkpt lat="47.31783" lon="-2.32413">
        <ele>15.60000038147</ele>
        <time>2020-05-28T09:36:30.000Z</time>
      </trkpt>
      <trkpt lat="47.31784" lon="-2.32424">
        <ele>15.199999809265</ele>
        <time>2020-05-28T09:36:31.000Z</time>
      </trkpt>
      <trkpt lat="47.31785" lon="-2.32436">
        <ele>14.800000190735</ele>
        <time>2020-05-28T09:36:32.000Z</time>
      </trkpt>
      <trkpt lat="47.31789" lon="-2.32463">
        <ele>14.800000190735</ele>
        <time>2020-05-28T09:36:35.000Z</time>
      </trkpt>
      <trkpt lat="47.31791" lon="-2.3247">
        <ele>14.800000190735</ele>
        <time>2020-05-28T09:36:36.000Z</time>
      </trkpt>
      <trkpt lat="47.31793" lon="-2.32478">
        <ele>14.39999961853</ele>
        <time>2020-05-28T09:36:37.000Z</time>
      </trkpt>
      <trkpt lat="47.31795" lon="-2.32486">
        <ele>14</ele>
        <time>2020-05-28T09:36:38.000Z</time>
      </trkpt>
      <trkpt lat="47.31798" lon="-2.32494">
        <ele>13.39999961853</ele>
        <time>2020-05-28T09:36:39.000Z</time>
      </trkpt>
      <trkpt lat="47.31801" lon="-2.32503">
        <ele>13</ele>
        <time>2020-05-28T09:36:40.000Z</time>
      </trkpt>
      <trkpt lat="47.31803" lon="-2.32511">
        <ele>12.60000038147</ele>
        <time>2020-05-28T09:36:41.000Z</time>
      </trkpt>
      <trkpt lat="47.31805" lon="-2.3252">
        <ele>12</ele>
        <time>2020-05-28T09:36:42.000Z</time>
      </trkpt>
      <trkpt lat="47.31808" lon="-2.32528">
        <ele>11.39999961853</ele>
        <time>2020-05-28T09:36:43.000Z</time>
      </trkpt>
      <trkpt lat="47.3181" lon="-2.32535">
        <ele>10.800000190735</ele>
        <time>2020-05-28T09:36:44.000Z</time>
      </trkpt>
      <trkpt lat="47.31813" lon="-2.32545">
        <ele>10.199999809265</ele>
        <time>2020-05-28T09:36:45.000Z</time>
      </trkpt>
      <trkpt lat="47.31824" lon="-2.32584">
        <ele>10.199999809265</ele>
        <time>2020-05-28T09:36:49.000Z</time>
      </trkpt>
      <trkpt lat="47.31834" lon="-2.32626">
        <ele>9.3999996185303</ele>
        <time>2020-05-28T09:36:53.000Z</time>
      </trkpt>
      <trkpt lat="47.31836" lon="-2.32636">
        <ele>9</ele>
        <time>2020-05-28T09:36:54.000Z</time>
      </trkpt>
      <trkpt lat="47.31839" lon="-2.32646">
        <ele>8.6000003814697</ele>
        <time>2020-05-28T09:36:55.000Z</time>
      </trkpt>
      <trkpt lat="47.31841" lon="-2.32656">
        <ele>8.1999998092651</ele>
        <time>2020-05-28T09:36:56.000Z</time>
      </trkpt>
      <trkpt lat="47.31852" lon="-2.32687">
        <ele>7.8000001907349</ele>
        <time>2020-05-28T09:37:00.000Z</time>
      </trkpt>
      <trkpt lat="47.31855" lon="-2.32695">
        <ele>7.4000000953674</ele>
        <time>2020-05-28T09:37:01.000Z</time>
      </trkpt>
      <trkpt lat="47.31858" lon="-2.32704">
        <ele>7</ele>
        <time>2020-05-28T09:37:02.000Z</time>
      </trkpt>
      <trkpt lat="47.31862" lon="-2.32713">
        <ele>6.5999999046326</ele>
        <time>2020-05-28T09:37:03.000Z</time>
      </trkpt>
      <trkpt lat="47.31865" lon="-2.32723">
        <ele>6.1999998092651</ele>
        <time>2020-05-28T09:37:04.000Z</time>
      </trkpt>
      <trkpt lat="47.31871" lon="-2.32742">
        <ele>6.1999998092651</ele>
        <time>2020-05-28T09:37:06.000Z</time>
      </trkpt>
      <trkpt lat="47.31882" lon="-2.32796">
        <ele>6.1999998092651</ele>
        <time>2020-05-28T09:37:11.000Z</time>
      </trkpt>
      <trkpt lat="47.31887" lon="-2.32862">
        <ele>5.8000001907349</ele>
        <time>2020-05-28T09:37:17.000Z</time>
      </trkpt>
      <trkpt lat="47.31887" lon="-2.32874">
        <ele>5.1999998092651</ele>
        <time>2020-05-28T09:37:18.000Z</time>
      </trkpt>
      <trkpt lat="47.31887" lon="-2.32885">
        <ele>4.8000001907349</ele>
        <time>2020-05-28T09:37:19.000Z</time>
      </trkpt>
      <trkpt lat="47.31887" lon="-2.32897">
        <ele>4.4000000953674</ele>
        <time>2020-05-28T09:37:20.000Z</time>
      </trkpt>
      <trkpt lat="47.31886" lon="-2.32909">
        <ele>4</ele>
        <time>2020-05-28T09:37:21.000Z</time>
      </trkpt>
      <trkpt lat="47.31886" lon="-2.32937">
        <ele>4</ele>
        <time>2020-05-28T09:37:24.000Z</time>
      </trkpt>
      <trkpt lat="47.31886" lon="-2.32955">
        <ele>4</ele>
        <time>2020-05-28T09:37:26.000Z</time>
      </trkpt>
      <trkpt lat="47.31879" lon="-2.32989">
        <ele>4</ele>
        <time>2020-05-28T09:37:29.000Z</time>
      </trkpt>
      <trkpt lat="47.31879" lon="-2.33023">
        <ele>4</ele>
        <time>2020-05-28T09:37:32.000Z</time>
      </trkpt>
      <trkpt lat="47.31879" lon="-2.33033">
        <ele>4</ele>
        <time>2020-05-28T09:37:33.000Z</time>
      </trkpt>
      <trkpt lat="47.31879" lon="-2.33096">
        <ele>4</ele>
        <time>2020-05-28T09:37:40.000Z</time>
      </trkpt>
      <trkpt lat="47.31875" lon="-2.33139">
        <ele>4</ele>
        <time>2020-05-28T09:37:46.000Z</time>
      </trkpt>
      <trkpt lat="47.31871" lon="-2.3317">
        <ele>4</ele>
        <time>2020-05-28T09:37:51.000Z</time>
      </trkpt>
      <trkpt lat="47.31871" lon="-2.33176">
        <ele>4.4000000953674</ele>
        <time>2020-05-28T09:37:52.000Z</time>
      </trkpt>
      <trkpt lat="47.3187" lon="-2.33184">
        <ele>5</ele>
        <time>2020-05-28T09:37:53.000Z</time>
      </trkpt>
      <trkpt lat="47.31869" lon="-2.33191">
        <ele>5.4000000953674</ele>
        <time>2020-05-28T09:37:54.000Z</time>
      </trkpt>
      <trkpt lat="47.31868" lon="-2.33198">
        <ele>5.8000001907349</ele>
        <time>2020-05-28T09:37:55.000Z</time>
      </trkpt>
      <trkpt lat="47.31867" lon="-2.33204">
        <ele>6.1999998092651</ele>
        <time>2020-05-28T09:37:56.000Z</time>
      </trkpt>
      <trkpt lat="47.31866" lon="-2.33211">
        <ele>6.1999998092651</ele>
        <time>2020-05-28T09:37:57.000Z</time>
      </trkpt>
      <trkpt lat="47.31858" lon="-2.3324">
        <ele>6.5999999046326</ele>
        <time>2020-05-28T09:38:02.000Z</time>
      </trkpt>
      <trkpt lat="47.31855" lon="-2.33246">
        <ele>7.1999998092651</ele>
        <time>2020-05-28T09:38:03.000Z</time>
      </trkpt>
      <trkpt lat="47.31853" lon="-2.33251">
        <ele>7.5999999046326</ele>
        <time>2020-05-28T09:38:04.000Z</time>
      </trkpt>
      <trkpt lat="47.3185" lon="-2.33257">
        <ele>8</ele>
        <time>2020-05-28T09:38:05.000Z</time>
      </trkpt>
      <trkpt lat="47.31847" lon="-2.33263">
        <ele>8.6000003814697</ele>
        <time>2020-05-28T09:38:06.000Z</time>
      </trkpt>
      <trkpt lat="47.31835" lon="-2.33278">
        <ele>8.6000003814697</ele>
        <time>2020-05-28T09:38:09.000Z</time>
      </trkpt>
      <trkpt lat="47.31832" lon="-2.33281">
        <ele>8.6000003814697</ele>
        <time>2020-05-28T09:38:10.000Z</time>
      </trkpt>
      <trkpt lat="47.31822" lon="-2.33292">
        <ele>8.6000003814697</ele>
        <time>2020-05-28T09:38:13.000Z</time>
      </trkpt>
      <trkpt lat="47.31818" lon="-2.33294">
        <ele>8.6000003814697</ele>
        <time>2020-05-28T09:38:14.000Z</time>
      </trkpt>
      <trkpt lat="47.31807" lon="-2.33306">
        <ele>9</ele>
        <time>2020-05-28T09:38:18.000Z</time>
      </trkpt>
      <trkpt lat="47.31803" lon="-2.33309">
        <ele>9.3999996185303</ele>
        <time>2020-05-28T09:38:19.000Z</time>
      </trkpt>
      <trkpt lat="47.318" lon="-2.33311">
        <ele>9.8000001907349</ele>
        <time>2020-05-28T09:38:20.000Z</time>
      </trkpt>
      <trkpt lat="47.31797" lon="-2.33314">
        <ele>10.199999809265</ele>
        <time>2020-05-28T09:38:21.000Z</time>
      </trkpt>
      <trkpt lat="47.31795" lon="-2.33315">
        <ele>10.800000190735</ele>
        <time>2020-05-28T09:38:22.000Z</time>
      </trkpt>
      <trkpt lat="47.31785" lon="-2.33321">
        <ele>11.199999809265</ele>
        <time>2020-05-28T09:38:25.000Z</time>
      </trkpt>
      <trkpt lat="47.31782" lon="-2.33324">
        <ele>11.60000038147</ele>
        <time>2020-05-28T09:38:26.000Z</time>
      </trkpt>
      <trkpt lat="47.31779" lon="-2.33324">
        <ele>12</ele>
        <time>2020-05-28T09:38:27.000Z</time>
      </trkpt>
      <trkpt lat="47.31775" lon="-2.33323">
        <ele>12.39999961853</ele>
        <time>2020-05-28T09:38:28.000Z</time>
      </trkpt>
      <trkpt lat="47.31773" lon="-2.33322">
        <ele>12.800000190735</ele>
        <time>2020-05-28T09:38:29.000Z</time>
      </trkpt>
      <trkpt lat="47.31771" lon="-2.33319">
        <ele>12.800000190735</ele>
        <time>2020-05-28T09:38:30.000Z</time>
      </trkpt>
      <trkpt lat="47.3176" lon="-2.33299">
        <ele>13.199999809265</ele>
        <time>2020-05-28T09:38:36.000Z</time>
      </trkpt>
      <trkpt lat="47.31758" lon="-2.33294">
        <ele>13.60000038147</ele>
        <time>2020-05-28T09:38:37.000Z</time>
      </trkpt>
      <trkpt lat="47.31756" lon="-2.33289">
        <ele>14</ele>
        <time>2020-05-28T09:38:38.000Z</time>
      </trkpt>
      <trkpt lat="47.31755" lon="-2.33286">
        <ele>14.39999961853</ele>
        <time>2020-05-28T09:38:39.000Z</time>
      </trkpt>
      <trkpt lat="47.31754" lon="-2.33282">
        <ele>14.800000190735</ele>
        <time>2020-05-28T09:38:40.000Z</time>
      </trkpt>
      <trkpt lat="47.31752" lon="-2.33271">
        <ele>14.800000190735</ele>
        <time>2020-05-28T09:38:42.000Z</time>
      </trkpt>
      <trkpt lat="47.31741" lon="-2.33256">
        <ele>14.800000190735</ele>
        <time>2020-05-28T09:38:45.000Z</time>
      </trkpt>
      <trkpt lat="47.31736" lon="-2.33255">
        <ele>14.800000190735</ele>
        <time>2020-05-28T09:38:46.000Z</time>
      </trkpt>
      <trkpt lat="47.31723" lon="-2.33257">
        <ele>14.800000190735</ele>
        <time>2020-05-28T09:38:49.000Z</time>
      </trkpt>
      <trkpt lat="47.31712" lon="-2.33261">
        <ele>14.800000190735</ele>
        <time>2020-05-28T09:38:52.000Z</time>
      </trkpt>
      <trkpt lat="47.31702" lon="-2.33265">
        <ele>15.199999809265</ele>
        <time>2020-05-28T09:38:55.000Z</time>
      </trkpt>
      <trkpt lat="47.31699" lon="-2.33266">
        <ele>15.800000190735</ele>
        <time>2020-05-28T09:38:56.000Z</time>
      </trkpt>
      <trkpt lat="47.31695" lon="-2.33268">
        <ele>16.60000038147</ele>
        <time>2020-05-28T09:38:57.000Z</time>
      </trkpt>
      <trkpt lat="47.31691" lon="-2.33269">
        <ele>17</ele>
        <time>2020-05-28T09:38:58.000Z</time>
      </trkpt>
      <trkpt lat="47.31686" lon="-2.33271">
        <ele>17</ele>
        <time>2020-05-28T09:38:59.000Z</time>
      </trkpt>
      <trkpt lat="47.31667" lon="-2.33278">
        <ele>17.39999961853</ele>
        <time>2020-05-28T09:39:03.000Z</time>
      </trkpt>
      <trkpt lat="47.31662" lon="-2.3328">
        <ele>17.799999237061</ele>
        <time>2020-05-28T09:39:04.000Z</time>
      </trkpt>
      <trkpt lat="47.31658" lon="-2.33283">
        <ele>18.200000762939</ele>
        <time>2020-05-28T09:39:05.000Z</time>
      </trkpt>
      <trkpt lat="47.31654" lon="-2.33285">
        <ele>18.60000038147</ele>
        <time>2020-05-28T09:39:06.000Z</time>
      </trkpt>
      <trkpt lat="47.31649" lon="-2.33288">
        <ele>19</ele>
        <time>2020-05-28T09:39:07.000Z</time>
      </trkpt>
      <trkpt lat="47.31621" lon="-2.333">
        <ele>19</ele>
        <time>2020-05-28T09:39:13.000Z</time>
      </trkpt>
      <trkpt lat="47.31589" lon="-2.3332">
        <ele>19</ele>
        <time>2020-05-28T09:39:20.000Z</time>
      </trkpt>
      <trkpt lat="47.31559" lon="-2.33334">
        <ele>19</ele>
        <time>2020-05-28T09:39:26.000Z</time>
      </trkpt>
      <trkpt lat="47.31515" lon="-2.33356">
        <ele>19</ele>
        <time>2020-05-28T09:39:34.000Z</time>
      </trkpt>
      <trkpt lat="47.31482" lon="-2.3337">
        <ele>19</ele>
        <time>2020-05-28T09:39:40.000Z</time>
      </trkpt>
      <trkpt lat="47.31477" lon="-2.33364">
        <ele>19</ele>
        <time>2020-05-28T09:39:41.000Z</time>
      </trkpt>
      <trkpt lat="47.31464" lon="-2.33342">
        <ele>19</ele>
        <time>2020-05-28T09:39:44.000Z</time>
      </trkpt>
      <trkpt lat="47.3146" lon="-2.33333">
        <ele>19</ele>
        <time>2020-05-28T09:39:45.000Z</time>
      </trkpt>
      <trkpt lat="47.31441" lon="-2.33295">
        <ele>19</ele>
        <time>2020-05-28T09:39:50.000Z</time>
      </trkpt>
      <trkpt lat="47.31436" lon="-2.33289">
        <ele>19</ele>
        <time>2020-05-28T09:39:51.000Z</time>
      </trkpt>
      <trkpt lat="47.3142" lon="-2.33273">
        <ele>19</ele>
        <time>2020-05-28T09:39:54.000Z</time>
      </trkpt>
      <trkpt lat="47.31414" lon="-2.33268">
        <ele>19</ele>
        <time>2020-05-28T09:39:55.000Z</time>
      </trkpt>
      <trkpt lat="47.31407" lon="-2.33263">
        <ele>19.60000038147</ele>
        <time>2020-05-28T09:39:56.000Z</time>
      </trkpt>
      <trkpt lat="47.314" lon="-2.33258">
        <ele>20</ele>
        <time>2020-05-28T09:39:57.000Z</time>
      </trkpt>
      <trkpt lat="47.31394" lon="-2.33254">
        <ele>20.39999961853</ele>
        <time>2020-05-28T09:39:58.000Z</time>
      </trkpt>
      <trkpt lat="47.31387" lon="-2.3325">
        <ele>20.799999237061</ele>
        <time>2020-05-28T09:39:59.000Z</time>
      </trkpt>
      <trkpt lat="47.31381" lon="-2.33245">
        <ele>21.39999961853</ele>
        <time>2020-05-28T09:40:00.000Z</time>
      </trkpt>
      <trkpt lat="47.31351" lon="-2.33225">
        <ele>21</ele>
        <time>2020-05-28T09:40:05.000Z</time>
      </trkpt>
      <trkpt lat="47.31345" lon="-2.3322">
        <ele>20.60000038147</ele>
        <time>2020-05-28T09:40:06.000Z</time>
      </trkpt>
      <trkpt lat="47.31339" lon="-2.33215">
        <ele>20.200000762939</ele>
        <time>2020-05-28T09:40:07.000Z</time>
      </trkpt>
      <trkpt lat="47.31334" lon="-2.33209">
        <ele>19.799999237061</ele>
        <time>2020-05-28T09:40:08.000Z</time>
      </trkpt>
      <trkpt lat="47.31328" lon="-2.33204">
        <ele>19.39999961853</ele>
        <time>2020-05-28T09:40:09.000Z</time>
      </trkpt>
      <trkpt lat="47.31316" lon="-2.33193">
        <ele>19.39999961853</ele>
        <time>2020-05-28T09:40:11.000Z</time>
      </trkpt>
      <trkpt lat="47.31279" lon="-2.33165">
        <ele>19.39999961853</ele>
        <time>2020-05-28T09:40:17.000Z</time>
      </trkpt>
      <trkpt lat="47.31257" lon="-2.33155">
        <ele>19.39999961853</ele>
        <time>2020-05-28T09:40:20.000Z</time>
      </trkpt>
      <trkpt lat="47.31242" lon="-2.33152">
        <ele>19.39999961853</ele>
        <time>2020-05-28T09:40:22.000Z</time>
      </trkpt>
      <trkpt lat="47.31214" lon="-2.3315">
        <ele>19.39999961853</ele>
        <time>2020-05-28T09:40:26.000Z</time>
      </trkpt>
      <trkpt lat="47.31202" lon="-2.33155">
        <ele>19.39999961853</ele>
        <time>2020-05-28T09:40:28.000Z</time>
      </trkpt>
      <trkpt lat="47.3119" lon="-2.33161">
        <ele>19.39999961853</ele>
        <time>2020-05-28T09:40:30.000Z</time>
      </trkpt>
      <trkpt lat="47.31173" lon="-2.33172">
        <ele>19.39999961853</ele>
        <time>2020-05-28T09:40:33.000Z</time>
      </trkpt>
      <trkpt lat="47.31136" lon="-2.33198">
        <ele>19.39999961853</ele>
        <time>2020-05-28T09:40:40.000Z</time>
      </trkpt>
      <trkpt lat="47.31109" lon="-2.33219">
        <ele>19.39999961853</ele>
        <time>2020-05-28T09:40:45.000Z</time>
      </trkpt>
      <trkpt lat="47.31106" lon="-2.33228">
        <ele>19.39999961853</ele>
        <time>2020-05-28T09:40:46.000Z</time>
      </trkpt>
      <trkpt lat="47.31101" lon="-2.33264">
        <ele>19.39999961853</ele>
        <time>2020-05-28T09:40:50.000Z</time>
      </trkpt>
      <trkpt lat="47.311" lon="-2.33274">
        <ele>19.39999961853</ele>
        <time>2020-05-28T09:40:51.000Z</time>
      </trkpt>
      <trkpt lat="47.31096" lon="-2.33347">
        <ele>19.39999961853</ele>
        <time>2020-05-28T09:40:59.000Z</time>
      </trkpt>
      <trkpt lat="47.31094" lon="-2.33408">
        <ele>19.39999961853</ele>
        <time>2020-05-28T09:41:06.000Z</time>
      </trkpt>
      <trkpt lat="47.31095" lon="-2.33434">
        <ele>19.799999237061</ele>
        <time>2020-05-28T09:41:09.000Z</time>
      </trkpt>
      <trkpt lat="47.31095" lon="-2.33442">
        <ele>20.200000762939</ele>
        <time>2020-05-28T09:41:10.000Z</time>
      </trkpt>
      <trkpt lat="47.31095" lon="-2.33451">
        <ele>20.60000038147</ele>
        <time>2020-05-28T09:41:11.000Z</time>
      </trkpt>
      <trkpt lat="47.31096" lon="-2.3346">
        <ele>21.200000762939</ele>
        <time>2020-05-28T09:41:12.000Z</time>
      </trkpt>
      <trkpt lat="47.31096" lon="-2.33469">
        <ele>21.60000038147</ele>
        <time>2020-05-28T09:41:13.000Z</time>
      </trkpt>
      <trkpt lat="47.31097" lon="-2.33477">
        <ele>21.60000038147</ele>
        <time>2020-05-28T09:41:14.000Z</time>
      </trkpt>
      <trkpt lat="47.31104" lon="-2.33521">
        <ele>21.60000038147</ele>
        <time>2020-05-28T09:41:20.000Z</time>
      </trkpt>
      <trkpt lat="47.31112" lon="-2.33576">
        <ele>21.60000038147</ele>
        <time>2020-05-28T09:41:27.000Z</time>
      </trkpt>
      <trkpt lat="47.31111" lon="-2.3361">
        <ele>21.60000038147</ele>
        <time>2020-05-28T09:41:31.000Z</time>
      </trkpt>
      <trkpt lat="47.31107" lon="-2.33626">
        <ele>21.60000038147</ele>
        <time>2020-05-28T09:41:33.000Z</time>
      </trkpt>
      <trkpt lat="47.31097" lon="-2.33681">
        <ele>21.60000038147</ele>
        <time>2020-05-28T09:41:41.000Z</time>
      </trkpt>
      <trkpt lat="47.31091" lon="-2.33735">
        <ele>21.60000038147</ele>
        <time>2020-05-28T09:41:48.000Z</time>
      </trkpt>
      <trkpt lat="47.31088" lon="-2.33748">
        <ele>21.60000038147</ele>
        <time>2020-05-28T09:41:50.000Z</time>
      </trkpt>
      <trkpt lat="47.31082" lon="-2.33768">
        <ele>21.60000038147</ele>
        <time>2020-05-28T09:41:53.000Z</time>
      </trkpt>
      <trkpt lat="47.3108" lon="-2.33774">
        <ele>21.60000038147</ele>
        <time>2020-05-28T09:41:54.000Z</time>
      </trkpt>
      <trkpt lat="47.31068" lon="-2.33805">
        <ele>21.60000038147</ele>
        <time>2020-05-28T09:41:59.000Z</time>
      </trkpt>
      <trkpt lat="47.31066" lon="-2.33812">
        <ele>21.60000038147</ele>
        <time>2020-05-28T09:42:00.000Z</time>
      </trkpt>
      <trkpt lat="47.31064" lon="-2.33834">
        <ele>21.60000038147</ele>
        <time>2020-05-28T09:42:03.000Z</time>
      </trkpt>
      <trkpt lat="47.31063" lon="-2.33857">
        <ele>21.60000038147</ele>
        <time>2020-05-28T09:42:06.000Z</time>
      </trkpt>
      <trkpt lat="47.31061" lon="-2.33905">
        <ele>21.60000038147</ele>
        <time>2020-05-28T09:42:12.000Z</time>
      </trkpt>
      <trkpt lat="47.31062" lon="-2.33911">
        <ele>21.60000038147</ele>
        <time>2020-05-28T09:42:13.000Z</time>
      </trkpt>
      <trkpt lat="47.31062" lon="-2.33933">
        <ele>21.60000038147</ele>
        <time>2020-05-28T09:42:17.000Z</time>
      </trkpt>
      <trkpt lat="47.31057" lon="-2.33945">
        <ele>21.60000038147</ele>
        <time>2020-05-28T09:42:20.000Z</time>
      </trkpt>
      <trkpt lat="47.31054" lon="-2.33948">
        <ele>21.60000038147</ele>
        <time>2020-05-28T09:42:21.000Z</time>
      </trkpt>
      <trkpt lat="47.31044" lon="-2.33951">
        <ele>21.60000038147</ele>
        <time>2020-05-28T09:42:25.000Z</time>
      </trkpt>
      <trkpt lat="47.31029" lon="-2.33951">
        <ele>21.60000038147</ele>
        <time>2020-05-28T09:42:31.000Z</time>
      </trkpt>
      <trkpt lat="47.31018" lon="-2.33951">
        <ele>21.60000038147</ele>
        <time>2020-05-28T09:42:36.000Z</time>
      </trkpt>
      <trkpt lat="47.31005" lon="-2.33952">
        <ele>21.60000038147</ele>
        <time>2020-05-28T09:42:42.000Z</time>
      </trkpt>
      <trkpt lat="47.30995" lon="-2.33954">
        <ele>22</ele>
        <time>2020-05-28T09:42:47.000Z</time>
      </trkpt>
      <trkpt lat="47.30993" lon="-2.33954">
        <ele>22.39999961853</ele>
        <time>2020-05-28T09:42:48.000Z</time>
      </trkpt>
      <trkpt lat="47.3099" lon="-2.33954">
        <ele>22.799999237061</ele>
        <time>2020-05-28T09:42:49.000Z</time>
      </trkpt>
      <trkpt lat="47.30988" lon="-2.33954">
        <ele>23.200000762939</ele>
        <time>2020-05-28T09:42:50.000Z</time>
      </trkpt>
      <trkpt lat="47.30986" lon="-2.33954">
        <ele>23.60000038147</ele>
        <time>2020-05-28T09:42:51.000Z</time>
      </trkpt>
      <trkpt lat="47.30972" lon="-2.33956">
        <ele>23.60000038147</ele>
        <time>2020-05-28T09:42:57.000Z</time>
      </trkpt>
      <trkpt lat="47.30966" lon="-2.33953">
        <ele>23.60000038147</ele>
        <time>2020-05-28T09:43:00.000Z</time>
      </trkpt>
      <trkpt lat="47.30962" lon="-2.33955">
        <ele>23.60000038147</ele>
        <time>2020-05-28T09:43:02.000Z</time>
      </trkpt>
      <trkpt lat="47.30953" lon="-2.33953">
        <ele>23.60000038147</ele>
        <time>2020-05-28T09:43:08.000Z</time>
      </trkpt>
      <trkpt lat="47.30938" lon="-2.33948">
        <ele>23.60000038147</ele>
        <time>2020-05-28T09:43:15.000Z</time>
      </trkpt>
      <trkpt lat="47.3092" lon="-2.33944">
        <ele>23.60000038147</ele>
        <time>2020-05-28T09:43:22.000Z</time>
      </trkpt>
      <trkpt lat="47.30917" lon="-2.33944">
        <ele>24</ele>
        <time>2020-05-28T09:43:23.000Z</time>
      </trkpt>
      <trkpt lat="47.30915" lon="-2.33943">
        <ele>24.39999961853</ele>
        <time>2020-05-28T09:43:24.000Z</time>
      </trkpt>
      <trkpt lat="47.30912" lon="-2.33944">
        <ele>25</ele>
        <time>2020-05-28T09:43:25.000Z</time>
      </trkpt>
      <trkpt lat="47.30909" lon="-2.33944">
        <ele>25.799999237061</ele>
        <time>2020-05-28T09:43:26.000Z</time>
      </trkpt>
      <trkpt lat="47.30898" lon="-2.33944">
        <ele>25.799999237061</ele>
        <time>2020-05-28T09:43:30.000Z</time>
      </trkpt>
      <trkpt lat="47.30881" lon="-2.33948">
        <ele>25.799999237061</ele>
        <time>2020-05-28T09:43:36.000Z</time>
      </trkpt>
      <trkpt lat="47.30857" lon="-2.33954">
        <ele>25.799999237061</ele>
        <time>2020-05-28T09:43:42.000Z</time>
      </trkpt>
      <trkpt lat="47.30828" lon="-2.33959">
        <ele>25.799999237061</ele>
        <time>2020-05-28T09:43:50.000Z</time>
      </trkpt>
      <trkpt lat="47.30798" lon="-2.33967">
        <ele>25.799999237061</ele>
        <time>2020-05-28T09:43:58.000Z</time>
      </trkpt>
      <trkpt lat="47.30787" lon="-2.3397">
        <ele>25.799999237061</ele>
        <time>2020-05-28T09:44:01.000Z</time>
      </trkpt>
      <trkpt lat="47.30779" lon="-2.33976">
        <ele>25.799999237061</ele>
        <time>2020-05-28T09:44:03.000Z</time>
      </trkpt>
      <trkpt lat="47.30767" lon="-2.33997">
        <ele>25.799999237061</ele>
        <time>2020-05-28T09:44:08.000Z</time>
      </trkpt>
      <trkpt lat="47.30769" lon="-2.34021">
        <ele>25.799999237061</ele>
        <time>2020-05-28T09:44:11.000Z</time>
      </trkpt>
      <trkpt lat="47.3077" lon="-2.34036">
        <ele>25.799999237061</ele>
        <time>2020-05-28T09:44:13.000Z</time>
      </trkpt>
      <trkpt lat="47.30771" lon="-2.34055">
        <ele>25.799999237061</ele>
        <time>2020-05-28T09:44:16.000Z</time>
      </trkpt>
      <trkpt lat="47.30771" lon="-2.34062">
        <ele>25.799999237061</ele>
        <time>2020-05-28T09:44:17.000Z</time>
      </trkpt>
      <trkpt lat="47.3077" lon="-2.341">
        <ele>25.799999237061</ele>
        <time>2020-05-28T09:44:23.000Z</time>
      </trkpt>
      <trkpt lat="47.30768" lon="-2.34149">
        <ele>25.799999237061</ele>
        <time>2020-05-28T09:44:30.000Z</time>
      </trkpt>
      <trkpt lat="47.30766" lon="-2.34168">
        <ele>25.799999237061</ele>
        <time>2020-05-28T09:44:33.000Z</time>
      </trkpt>
      <trkpt lat="47.30766" lon="-2.3419">
        <ele>25.799999237061</ele>
        <time>2020-05-28T09:44:36.000Z</time>
      </trkpt>
      <trkpt lat="47.30762" lon="-2.34205">
        <ele>25.799999237061</ele>
        <time>2020-05-28T09:44:38.000Z</time>
      </trkpt>
      <trkpt lat="47.30759" lon="-2.3421">
        <ele>25.799999237061</ele>
        <time>2020-05-28T09:44:39.000Z</time>
      </trkpt>
      <trkpt lat="47.30754" lon="-2.34212">
        <ele>25.799999237061</ele>
        <time>2020-05-28T09:44:40.000Z</time>
      </trkpt>
      <trkpt lat="47.30734" lon="-2.34222">
        <ele>25.799999237061</ele>
        <time>2020-05-28T09:44:45.000Z</time>
      </trkpt>
      <trkpt lat="47.30732" lon="-2.34225">
        <ele>25.799999237061</ele>
        <time>2020-05-28T09:44:46.000Z</time>
      </trkpt>
      <trkpt lat="47.30727" lon="-2.34234">
        <ele>25.799999237061</ele>
        <time>2020-05-28T09:44:49.000Z</time>
      </trkpt>
      <trkpt lat="47.30727" lon="-2.34238">
        <ele>25.799999237061</ele>
        <time>2020-05-28T09:44:50.000Z</time>
      </trkpt>
      <trkpt lat="47.30726" lon="-2.34254">
        <ele>25.799999237061</ele>
        <time>2020-05-28T09:44:53.000Z</time>
      </trkpt>
      <trkpt lat="47.30724" lon="-2.34261">
        <ele>25.799999237061</ele>
        <time>2020-05-28T09:44:54.000Z</time>
      </trkpt>
      <trkpt lat="47.30722" lon="-2.34267">
        <ele>25.799999237061</ele>
        <time>2020-05-28T09:44:55.000Z</time>
      </trkpt>
      <trkpt lat="47.30713" lon="-2.34287">
        <ele>25.799999237061</ele>
        <time>2020-05-28T09:44:58.000Z</time>
      </trkpt>
      <trkpt lat="47.30704" lon="-2.34306">
        <ele>25.799999237061</ele>
        <time>2020-05-28T09:45:01.000Z</time>
      </trkpt>
      <trkpt lat="47.30693" lon="-2.34324">
        <ele>25.799999237061</ele>
        <time>2020-05-28T09:45:04.000Z</time>
      </trkpt>
      <trkpt lat="47.30681" lon="-2.34353">
        <ele>25.799999237061</ele>
        <time>2020-05-28T09:45:08.000Z</time>
      </trkpt>
      <trkpt lat="47.30677" lon="-2.3436">
        <ele>26.200000762939</ele>
        <time>2020-05-28T09:45:09.000Z</time>
      </trkpt>
      <trkpt lat="47.30673" lon="-2.34367">
        <ele>26.60000038147</ele>
        <time>2020-05-28T09:45:10.000Z</time>
      </trkpt>
      <trkpt lat="47.3067" lon="-2.34373">
        <ele>27</ele>
        <time>2020-05-28T09:45:11.000Z</time>
      </trkpt>
      <trkpt lat="47.30666" lon="-2.3438">
        <ele>27.39999961853</ele>
        <time>2020-05-28T09:45:12.000Z</time>
      </trkpt>
      <trkpt lat="47.30663" lon="-2.34386">
        <ele>27.799999237061</ele>
        <time>2020-05-28T09:45:13.000Z</time>
      </trkpt>
      <trkpt lat="47.30651" lon="-2.34406">
        <ele>27.799999237061</ele>
        <time>2020-05-28T09:45:16.000Z</time>
      </trkpt>
      <trkpt lat="47.30643" lon="-2.34418">
        <ele>27.799999237061</ele>
        <time>2020-05-28T09:45:18.000Z</time>
      </trkpt>
      <trkpt lat="47.30626" lon="-2.3444">
        <ele>27.799999237061</ele>
        <time>2020-05-28T09:45:22.000Z</time>
      </trkpt>
      <trkpt lat="47.30602" lon="-2.34476">
        <ele>27.799999237061</ele>
        <time>2020-05-28T09:45:28.000Z</time>
      </trkpt>
      <trkpt lat="47.30581" lon="-2.34517">
        <ele>27.799999237061</ele>
        <time>2020-05-28T09:45:34.000Z</time>
      </trkpt>
      <trkpt lat="47.30578" lon="-2.34524">
        <ele>27.799999237061</ele>
        <time>2020-05-28T09:45:35.000Z</time>
      </trkpt>
      <trkpt lat="47.30562" lon="-2.34554">
        <ele>27.799999237061</ele>
        <time>2020-05-28T09:45:39.000Z</time>
      </trkpt>
      <trkpt lat="47.30549" lon="-2.34575">
        <ele>27.799999237061</ele>
        <time>2020-05-28T09:45:42.000Z</time>
      </trkpt>
      <trkpt lat="47.30535" lon="-2.34595">
        <ele>27.799999237061</ele>
        <time>2020-05-28T09:45:45.000Z</time>
      </trkpt>
      <trkpt lat="47.3053" lon="-2.346">
        <ele>27.799999237061</ele>
        <time>2020-05-28T09:45:46.000Z</time>
      </trkpt>
      <trkpt lat="47.30518" lon="-2.34617">
        <ele>27.799999237061</ele>
        <time>2020-05-28T09:45:49.000Z</time>
      </trkpt>
      <trkpt lat="47.30501" lon="-2.34646">
        <ele>27.799999237061</ele>
        <time>2020-05-28T09:45:54.000Z</time>
      </trkpt>
      <trkpt lat="47.30497" lon="-2.34651">
        <ele>27.799999237061</ele>
        <time>2020-05-28T09:45:55.000Z</time>
      </trkpt>
      <trkpt lat="47.30487" lon="-2.34662">
        <ele>27.39999961853</ele>
        <time>2020-05-28T09:45:57.000Z</time>
      </trkpt>
      <trkpt lat="47.30481" lon="-2.34669">
        <ele>27</ele>
        <time>2020-05-28T09:45:58.000Z</time>
      </trkpt>
      <trkpt lat="47.30475" lon="-2.34675">
        <ele>26.60000038147</ele>
        <time>2020-05-28T09:45:59.000Z</time>
      </trkpt>
      <trkpt lat="47.3047" lon="-2.34681">
        <ele>26.200000762939</ele>
        <time>2020-05-28T09:46:00.000Z</time>
      </trkpt>
      <trkpt lat="47.30464" lon="-2.34686">
        <ele>25.799999237061</ele>
        <time>2020-05-28T09:46:01.000Z</time>
      </trkpt>
      <trkpt lat="47.30448" lon="-2.347">
        <ele>25.799999237061</ele>
        <time>2020-05-28T09:46:04.000Z</time>
      </trkpt>
      <trkpt lat="47.30439" lon="-2.3471">
        <ele>25.799999237061</ele>
        <time>2020-05-28T09:46:06.000Z</time>
      </trkpt>
      <trkpt lat="47.30423" lon="-2.34722">
        <ele>25.799999237061</ele>
        <time>2020-05-28T09:46:09.000Z</time>
      </trkpt>
      <trkpt lat="47.30414" lon="-2.34728">
        <ele>25.799999237061</ele>
        <time>2020-05-28T09:46:11.000Z</time>
      </trkpt>
      <trkpt lat="47.30397" lon="-2.34741">
        <ele>25.799999237061</ele>
        <time>2020-05-28T09:46:15.000Z</time>
      </trkpt>
      <trkpt lat="47.30393" lon="-2.34744">
        <ele>25.799999237061</ele>
        <time>2020-05-28T09:46:16.000Z</time>
      </trkpt>
      <trkpt lat="47.30389" lon="-2.34747">
        <ele>25.799999237061</ele>
        <time>2020-05-28T09:46:17.000Z</time>
      </trkpt>
      <trkpt lat="47.30372" lon="-2.34759">
        <ele>25.799999237061</ele>
        <time>2020-05-28T09:46:21.000Z</time>
      </trkpt>
      <trkpt lat="47.30351" lon="-2.34777">
        <ele>25.799999237061</ele>
        <time>2020-05-28T09:46:26.000Z</time>
      </trkpt>
      <trkpt lat="47.30347" lon="-2.34782">
        <ele>25.799999237061</ele>
        <time>2020-05-28T09:46:27.000Z</time>
      </trkpt>
      <trkpt lat="47.30329" lon="-2.34813">
        <ele>25.799999237061</ele>
        <time>2020-05-28T09:46:32.000Z</time>
      </trkpt>
      <trkpt lat="47.30325" lon="-2.34818">
        <ele>25.799999237061</ele>
        <time>2020-05-28T09:46:33.000Z</time>
      </trkpt>
      <trkpt lat="47.30313" lon="-2.34834">
        <ele>25.799999237061</ele>
        <time>2020-05-28T09:46:36.000Z</time>
      </trkpt>
      <trkpt lat="47.30303" lon="-2.34843">
        <ele>25.799999237061</ele>
        <time>2020-05-28T09:46:38.000Z</time>
      </trkpt>
      <trkpt lat="47.30299" lon="-2.34847">
        <ele>25.799999237061</ele>
        <time>2020-05-28T09:46:39.000Z</time>
      </trkpt>
      <trkpt lat="47.3027" lon="-2.34865">
        <ele>25.799999237061</ele>
        <time>2020-05-28T09:46:45.000Z</time>
      </trkpt>
      <trkpt lat="47.30238" lon="-2.34886">
        <ele>25.799999237061</ele>
        <time>2020-05-28T09:46:51.000Z</time>
      </trkpt>
      <trkpt lat="47.30218" lon="-2.34906">
        <ele>25.799999237061</ele>
        <time>2020-05-28T09:46:55.000Z</time>
      </trkpt>
      <trkpt lat="47.30215" lon="-2.34913">
        <ele>25.799999237061</ele>
        <time>2020-05-28T09:46:56.000Z</time>
      </trkpt>
      <trkpt lat="47.30212" lon="-2.3495">
        <ele>25.799999237061</ele>
        <time>2020-05-28T09:47:00.000Z</time>
      </trkpt>
      <trkpt lat="47.30209" lon="-2.35015">
        <ele>25.799999237061</ele>
        <time>2020-05-28T09:47:06.000Z</time>
      </trkpt>
      <trkpt lat="47.3021" lon="-2.35059">
        <ele>25.39999961853</ele>
        <time>2020-05-28T09:47:10.000Z</time>
      </trkpt>
      <trkpt lat="47.30209" lon="-2.3507">
        <ele>25</ele>
        <time>2020-05-28T09:47:11.000Z</time>
      </trkpt>
      <trkpt lat="47.30209" lon="-2.3508">
        <ele>24.60000038147</ele>
        <time>2020-05-28T09:47:12.000Z</time>
      </trkpt>
      <trkpt lat="47.30209" lon="-2.3509">
        <ele>24.200000762939</ele>
        <time>2020-05-28T09:47:13.000Z</time>
      </trkpt>
      <trkpt lat="47.30209" lon="-2.35099">
        <ele>23.799999237061</ele>
        <time>2020-05-28T09:47:14.000Z</time>
      </trkpt>
      <trkpt lat="47.30209" lon="-2.35109">
        <ele>23.799999237061</ele>
        <time>2020-05-28T09:47:15.000Z</time>
      </trkpt>
      <trkpt lat="47.30208" lon="-2.35125">
        <ele>23.799999237061</ele>
        <time>2020-05-28T09:47:17.000Z</time>
      </trkpt>
      <trkpt lat="47.30207" lon="-2.35141">
        <ele>23.200000762939</ele>
        <time>2020-05-28T09:47:19.000Z</time>
      </trkpt>
      <trkpt lat="47.30207" lon="-2.35149">
        <ele>22.799999237061</ele>
        <time>2020-05-28T09:47:20.000Z</time>
      </trkpt>
      <trkpt lat="47.30207" lon="-2.35157">
        <ele>22.39999961853</ele>
        <time>2020-05-28T09:47:21.000Z</time>
      </trkpt>
      <trkpt lat="47.30206" lon="-2.35163">
        <ele>22</ele>
        <time>2020-05-28T09:47:22.000Z</time>
      </trkpt>
      <trkpt lat="47.30204" lon="-2.35167">
        <ele>21.39999961853</ele>
        <time>2020-05-28T09:47:23.000Z</time>
      </trkpt>
      <trkpt lat="47.30193" lon="-2.35171">
        <ele>21.39999961853</ele>
        <time>2020-05-28T09:47:27.000Z</time>
      </trkpt>
      <trkpt lat="47.30176" lon="-2.35176">
        <ele>21.39999961853</ele>
        <time>2020-05-28T09:47:32.000Z</time>
      </trkpt>
      <trkpt lat="47.3017" lon="-2.3518">
        <ele>21.39999961853</ele>
        <time>2020-05-28T09:47:35.000Z</time>
      </trkpt>
      <trkpt lat="47.30169" lon="-2.35182">
        <ele>21.39999961853</ele>
        <time>2020-05-28T09:47:36.000Z</time>
      </trkpt>
      <trkpt lat="47.30161" lon="-2.35188">
        <ele>21</ele>
        <time>2020-05-28T09:47:41.000Z</time>
      </trkpt>
      <trkpt lat="47.3016" lon="-2.3519">
        <ele>20.60000038147</ele>
        <time>2020-05-28T09:47:42.000Z</time>
      </trkpt>
      <trkpt lat="47.30159" lon="-2.35191">
        <ele>20.200000762939</ele>
        <time>2020-05-28T09:47:43.000Z</time>
      </trkpt>
      <trkpt lat="47.30157" lon="-2.35192">
        <ele>19.799999237061</ele>
        <time>2020-05-28T09:47:44.000Z</time>
      </trkpt>
      <trkpt lat="47.30156" lon="-2.35193">
        <ele>19.39999961853</ele>
        <time>2020-05-28T09:47:45.000Z</time>
      </trkpt>
      <trkpt lat="47.30152" lon="-2.35194">
        <ele>19.39999961853</ele>
        <time>2020-05-28T09:47:47.000Z</time>
      </trkpt>
      <trkpt lat="47.30135" lon="-2.35198">
        <ele>19.39999961853</ele>
        <time>2020-05-28T09:47:52.000Z</time>
      </trkpt>
      <trkpt lat="47.30115" lon="-2.35209">
        <ele>19.39999961853</ele>
        <time>2020-05-28T09:47:56.000Z</time>
      </trkpt>
      <trkpt lat="47.3011" lon="-2.35211">
        <ele>19.39999961853</ele>
        <time>2020-05-28T09:47:57.000Z</time>
      </trkpt>
      <trkpt lat="47.30097" lon="-2.35216">
        <ele>19.39999961853</ele>
        <time>2020-05-28T09:47:59.000Z</time>
      </trkpt>
      <trkpt lat="47.30084" lon="-2.35219">
        <ele>19.39999961853</ele>
        <time>2020-05-28T09:48:01.000Z</time>
      </trkpt>
      <trkpt lat="47.30079" lon="-2.35222">
        <ele>19.39999961853</ele>
        <time>2020-05-28T09:48:02.000Z</time>
      </trkpt>
      <trkpt lat="47.30066" lon="-2.35231">
        <ele>19.39999961853</ele>
        <time>2020-05-28T09:48:05.000Z</time>
      </trkpt>
      <trkpt lat="47.30038" lon="-2.35246">
        <ele>19.39999961853</ele>
        <time>2020-05-28T09:48:11.000Z</time>
      </trkpt>
      <trkpt lat="47.30033" lon="-2.35248">
        <ele>19.39999961853</ele>
        <time>2020-05-28T09:48:13.000Z</time>
      </trkpt>
      <trkpt lat="47.3003" lon="-2.35248">
        <ele>19.39999961853</ele>
        <time>2020-05-28T09:48:14.000Z</time>
      </trkpt>
      <trkpt lat="47.30022" lon="-2.35253">
        <ele>19.39999961853</ele>
        <time>2020-05-28T09:48:17.000Z</time>
      </trkpt>
      <trkpt lat="47.30018" lon="-2.35255">
        <ele>19.39999961853</ele>
        <time>2020-05-28T09:48:18.000Z</time>
      </trkpt>
      <trkpt lat="47.30003" lon="-2.35256">
        <ele>19.39999961853</ele>
        <time>2020-05-28T09:48:23.000Z</time>
      </trkpt>
      <trkpt lat="47.3" lon="-2.35256">
        <ele>19.39999961853</ele>
        <time>2020-05-28T09:48:26.000Z</time>
      </trkpt>
      <trkpt lat="47.29996" lon="-2.35259">
        <ele>19.39999961853</ele>
        <time>2020-05-28T09:51:27.000Z</time>
      </trkpt>
      <trkpt lat="47.29987" lon="-2.35273">
        <ele>19.39999961853</ele>
        <time>2020-05-28T09:51:32.000Z</time>
      </trkpt>
      <trkpt lat="47.29967" lon="-2.35297">
        <ele>19.39999961853</ele>
        <time>2020-05-28T09:51:40.000Z</time>
      </trkpt>
      <trkpt lat="47.29952" lon="-2.35316">
        <ele>19.39999961853</ele>
        <time>2020-05-28T09:51:46.000Z</time>
      </trkpt>
      <trkpt lat="47.29936" lon="-2.35336">
        <ele>19.39999961853</ele>
        <time>2020-05-28T09:51:52.000Z</time>
      </trkpt>
      <trkpt lat="47.29913" lon="-2.35366">
        <ele>19.39999961853</ele>
        <time>2020-05-28T09:51:59.000Z</time>
      </trkpt>
      <trkpt lat="47.29909" lon="-2.3537">
        <ele>19.39999961853</ele>
        <time>2020-05-28T09:52:00.000Z</time>
      </trkpt>
      <trkpt lat="47.29897" lon="-2.35385">
        <ele>19.39999961853</ele>
        <time>2020-05-28T09:52:04.000Z</time>
      </trkpt>
      <trkpt lat="47.2987" lon="-2.35412">
        <ele>19.39999961853</ele>
        <time>2020-05-28T09:52:11.000Z</time>
      </trkpt>
      <trkpt lat="47.29856" lon="-2.35427">
        <ele>19.39999961853</ele>
        <time>2020-05-28T09:52:15.000Z</time>
      </trkpt>
      <trkpt lat="47.29852" lon="-2.35431">
        <ele>19.39999961853</ele>
        <time>2020-05-28T09:52:16.000Z</time>
      </trkpt>
      <trkpt lat="47.29828" lon="-2.35462">
        <ele>19.39999961853</ele>
        <time>2020-05-28T09:52:22.000Z</time>
      </trkpt>
      <trkpt lat="47.29826" lon="-2.35468">
        <ele>19.39999961853</ele>
        <time>2020-05-28T09:52:23.000Z</time>
      </trkpt>
      <trkpt lat="47.29824" lon="-2.35473">
        <ele>19.799999237061</ele>
        <time>2020-05-28T09:52:24.000Z</time>
      </trkpt>
      <trkpt lat="47.29823" lon="-2.35479">
        <ele>20.200000762939</ele>
        <time>2020-05-28T09:52:25.000Z</time>
      </trkpt>
      <trkpt lat="47.29822" lon="-2.35486">
        <ele>20.60000038147</ele>
        <time>2020-05-28T09:52:26.000Z</time>
      </trkpt>
      <trkpt lat="47.29822" lon="-2.35492">
        <ele>21</ele>
        <time>2020-05-28T09:52:27.000Z</time>
      </trkpt>
      <trkpt lat="47.29822" lon="-2.35499">
        <ele>21.39999961853</ele>
        <time>2020-05-28T09:52:28.000Z</time>
      </trkpt>
      <trkpt lat="47.29835" lon="-2.35533">
        <ele>21.39999961853</ele>
        <time>2020-05-28T09:52:32.000Z</time>
      </trkpt>
      <trkpt lat="47.29845" lon="-2.35566">
        <ele>21.799999237061</ele>
        <time>2020-05-28T09:52:36.000Z</time>
      </trkpt>
      <trkpt lat="47.29848" lon="-2.35575">
        <ele>22.200000762939</ele>
        <time>2020-05-28T09:52:37.000Z</time>
      </trkpt>
      <trkpt lat="47.29851" lon="-2.35583">
        <ele>22.60000038147</ele>
        <time>2020-05-28T09:52:38.000Z</time>
      </trkpt>
      <trkpt lat="47.29853" lon="-2.3559">
        <ele>23.200000762939</ele>
        <time>2020-05-28T09:52:39.000Z</time>
      </trkpt>
      <trkpt lat="47.29856" lon="-2.35598">
        <ele>23.60000038147</ele>
        <time>2020-05-28T09:52:40.000Z</time>
      </trkpt>
      <trkpt lat="47.29869" lon="-2.35655">
        <ele>23.60000038147</ele>
        <time>2020-05-28T09:52:47.000Z</time>
      </trkpt>
      <trkpt lat="47.29878" lon="-2.35699">
        <ele>23.60000038147</ele>
        <time>2020-05-28T09:52:53.000Z</time>
      </trkpt>
      <trkpt lat="47.29891" lon="-2.35743">
        <ele>23.60000038147</ele>
        <time>2020-05-28T09:53:01.000Z</time>
      </trkpt>
      <trkpt lat="47.29891" lon="-2.35754">
        <ele>23.60000038147</ele>
        <time>2020-05-28T09:53:04.000Z</time>
      </trkpt>
      <trkpt lat="47.29888" lon="-2.35758">
        <ele>23.60000038147</ele>
        <time>2020-05-28T09:53:05.000Z</time>
      </trkpt>
      <trkpt lat="47.29876" lon="-2.35769">
        <ele>23.60000038147</ele>
        <time>2020-05-28T09:53:09.000Z</time>
      </trkpt>
      <trkpt lat="47.29871" lon="-2.35771">
        <ele>23.60000038147</ele>
        <time>2020-05-28T09:53:10.000Z</time>
      </trkpt>
      <trkpt lat="47.29832" lon="-2.35786">
        <ele>23.60000038147</ele>
        <time>2020-05-28T09:53:19.000Z</time>
      </trkpt>
      <trkpt lat="47.29824" lon="-2.35789">
        <ele>24</ele>
        <time>2020-05-28T09:53:21.000Z</time>
      </trkpt>
      <trkpt lat="47.2982" lon="-2.3579">
        <ele>24.799999237061</ele>
        <time>2020-05-28T09:53:22.000Z</time>
      </trkpt>
      <trkpt lat="47.29816" lon="-2.35791">
        <ele>25.200000762939</ele>
        <time>2020-05-28T09:53:23.000Z</time>
      </trkpt>
      <trkpt lat="47.29812" lon="-2.35793">
        <ele>25.799999237061</ele>
        <time>2020-05-28T09:53:24.000Z</time>
      </trkpt>
      <trkpt lat="47.29795" lon="-2.35799">
        <ele>25.799999237061</ele>
        <time>2020-05-28T09:53:28.000Z</time>
      </trkpt>
      <trkpt lat="47.29744" lon="-2.35818">
        <ele>25.799999237061</ele>
        <time>2020-05-28T09:53:39.000Z</time>
      </trkpt>
      <trkpt lat="47.29738" lon="-2.3582">
        <ele>25.799999237061</ele>
        <time>2020-05-28T09:53:40.000Z</time>
      </trkpt>
      <trkpt lat="47.29714" lon="-2.35835">
        <ele>25.799999237061</ele>
        <time>2020-05-28T09:53:44.000Z</time>
      </trkpt>
      <trkpt lat="47.29689" lon="-2.35846">
        <ele>25.39999961853</ele>
        <time>2020-05-28T09:53:48.000Z</time>
      </trkpt>
      <trkpt lat="47.29683" lon="-2.35847">
        <ele>24.799999237061</ele>
        <time>2020-05-28T09:53:49.000Z</time>
      </trkpt>
      <trkpt lat="47.29677" lon="-2.35849">
        <ele>24.39999961853</ele>
        <time>2020-05-28T09:53:50.000Z</time>
      </trkpt>
      <trkpt lat="47.29672" lon="-2.35852">
        <ele>24</ele>
        <time>2020-05-28T09:53:51.000Z</time>
      </trkpt>
      <trkpt lat="47.29667" lon="-2.35856">
        <ele>23.60000038147</ele>
        <time>2020-05-28T09:53:52.000Z</time>
      </trkpt>
      <trkpt lat="47.29657" lon="-2.35864">
        <ele>23.60000038147</ele>
        <time>2020-05-28T09:53:54.000Z</time>
      </trkpt>
      <trkpt lat="47.29622" lon="-2.35885">
        <ele>23.60000038147</ele>
        <time>2020-05-28T09:54:00.000Z</time>
      </trkpt>
      <trkpt lat="47.29588" lon="-2.35905">
        <ele>23.60000038147</ele>
        <time>2020-05-28T09:54:06.000Z</time>
      </trkpt>
      <trkpt lat="47.29571" lon="-2.35913">
        <ele>23.60000038147</ele>
        <time>2020-05-28T09:54:09.000Z</time>
      </trkpt>
      <trkpt lat="47.2956" lon="-2.3592">
        <ele>23.60000038147</ele>
        <time>2020-05-28T09:54:11.000Z</time>
      </trkpt>
      <trkpt lat="47.29516" lon="-2.35948">
        <ele>23.60000038147</ele>
        <time>2020-05-28T09:54:19.000Z</time>
      </trkpt>
      <trkpt lat="47.29478" lon="-2.35976">
        <ele>23.60000038147</ele>
        <time>2020-05-28T09:54:28.000Z</time>
      </trkpt>
      <trkpt lat="47.29471" lon="-2.35995">
        <ele>23.60000038147</ele>
        <time>2020-05-28T09:54:32.000Z</time>
      </trkpt>
      <trkpt lat="47.29469" lon="-2.35998">
        <ele>23.60000038147</ele>
        <time>2020-05-28T09:54:33.000Z</time>
      </trkpt>
      <trkpt lat="47.29464" lon="-2.36">
        <ele>23.60000038147</ele>
        <time>2020-05-28T09:54:35.000Z</time>
      </trkpt>
      <trkpt lat="47.29449" lon="-2.3601">
        <ele>23.200000762939</ele>
        <time>2020-05-28T09:54:40.000Z</time>
      </trkpt>
      <trkpt lat="47.29446" lon="-2.36013">
        <ele>22.799999237061</ele>
        <time>2020-05-28T09:54:41.000Z</time>
      </trkpt>
      <trkpt lat="47.29443" lon="-2.36017">
        <ele>22.39999961853</ele>
        <time>2020-05-28T09:54:42.000Z</time>
      </trkpt>
      <trkpt lat="47.29439" lon="-2.3602">
        <ele>22</ele>
        <time>2020-05-28T09:54:43.000Z</time>
      </trkpt>
      <trkpt lat="47.29435" lon="-2.36023">
        <ele>21.60000038147</ele>
        <time>2020-05-28T09:54:44.000Z</time>
      </trkpt>
      <trkpt lat="47.29424" lon="-2.36032">
        <ele>21.60000038147</ele>
        <time>2020-05-28T09:54:47.000Z</time>
      </trkpt>
      <trkpt lat="47.29417" lon="-2.36039">
        <ele>21.60000038147</ele>
        <time>2020-05-28T09:54:49.000Z</time>
      </trkpt>
      <trkpt lat="47.29398" lon="-2.36055">
        <ele>21.60000038147</ele>
        <time>2020-05-28T09:54:54.000Z</time>
      </trkpt>
      <trkpt lat="47.29373" lon="-2.36077">
        <ele>21.60000038147</ele>
        <time>2020-05-28T09:55:00.000Z</time>
      </trkpt>
      <trkpt lat="47.29332" lon="-2.36109">
        <ele>21.60000038147</ele>
        <time>2020-05-28T09:55:08.000Z</time>
      </trkpt>
      <trkpt lat="47.29289" lon="-2.36133">
        <ele>21.60000038147</ele>
        <time>2020-05-28T09:55:16.000Z</time>
      </trkpt>
      <trkpt lat="47.29243" lon="-2.36154">
        <ele>21.60000038147</ele>
        <time>2020-05-28T09:55:25.000Z</time>
      </trkpt>
      <trkpt lat="47.29189" lon="-2.36177">
        <ele>21.60000038147</ele>
        <time>2020-05-28T09:55:35.000Z</time>
      </trkpt>
      <trkpt lat="47.29184" lon="-2.36179">
        <ele>21.60000038147</ele>
        <time>2020-05-28T09:55:36.000Z</time>
      </trkpt>
      <trkpt lat="47.29144" lon="-2.36196">
        <ele>21.60000038147</ele>
        <time>2020-05-28T09:55:44.000Z</time>
      </trkpt>
      <trkpt lat="47.29095" lon="-2.36216">
        <ele>21.60000038147</ele>
        <time>2020-05-28T09:55:53.000Z</time>
      </trkpt>
      <trkpt lat="47.29046" lon="-2.36237">
        <ele>21.200000762939</ele>
        <time>2020-05-28T09:56:02.000Z</time>
      </trkpt>
      <trkpt lat="47.2904" lon="-2.36239">
        <ele>20.60000038147</ele>
        <time>2020-05-28T09:56:03.000Z</time>
      </trkpt>
      <trkpt lat="47.29035" lon="-2.36242">
        <ele>20.200000762939</ele>
        <time>2020-05-28T09:56:04.000Z</time>
      </trkpt>
      <trkpt lat="47.2903" lon="-2.36245">
        <ele>19.799999237061</ele>
        <time>2020-05-28T09:56:05.000Z</time>
      </trkpt>
      <trkpt lat="47.29025" lon="-2.36247">
        <ele>19.39999961853</ele>
        <time>2020-05-28T09:56:06.000Z</time>
      </trkpt>
      <trkpt lat="47.28999" lon="-2.36259">
        <ele>19.39999961853</ele>
        <time>2020-05-28T09:56:11.000Z</time>
      </trkpt>
      <trkpt lat="47.28956" lon="-2.36278">
        <ele>19.39999961853</ele>
        <time>2020-05-28T09:56:19.000Z</time>
      </trkpt>
      <trkpt lat="47.28912" lon="-2.36297">
        <ele>19.39999961853</ele>
        <time>2020-05-28T09:56:27.000Z</time>
      </trkpt>
      <trkpt lat="47.28864" lon="-2.36318">
        <ele>19.39999961853</ele>
        <time>2020-05-28T09:56:36.000Z</time>
      </trkpt>
      <trkpt lat="47.28851" lon="-2.36326">
        <ele>19.39999961853</ele>
        <time>2020-05-28T09:56:39.000Z</time>
      </trkpt>
      <trkpt lat="47.28843" lon="-2.36333">
        <ele>19.39999961853</ele>
        <time>2020-05-28T09:56:41.000Z</time>
      </trkpt>
      <trkpt lat="47.2884" lon="-2.36337">
        <ele>19.39999961853</ele>
        <time>2020-05-28T09:56:42.000Z</time>
      </trkpt>
      <trkpt lat="47.28832" lon="-2.36349">
        <ele>19.799999237061</ele>
        <time>2020-05-28T09:56:45.000Z</time>
      </trkpt>
      <trkpt lat="47.28829" lon="-2.36353">
        <ele>20.200000762939</ele>
        <time>2020-05-28T09:56:46.000Z</time>
      </trkpt>
      <trkpt lat="47.28826" lon="-2.36358">
        <ele>20.60000038147</ele>
        <time>2020-05-28T09:56:47.000Z</time>
      </trkpt>
      <trkpt lat="47.28823" lon="-2.36362">
        <ele>21</ele>
        <time>2020-05-28T09:56:48.000Z</time>
      </trkpt>
      <trkpt lat="47.2882" lon="-2.36366">
        <ele>21.39999961853</ele>
        <time>2020-05-28T09:56:49.000Z</time>
      </trkpt>
      <trkpt lat="47.28813" lon="-2.36377">
        <ele>21.799999237061</ele>
        <time>2020-05-28T09:56:52.000Z</time>
      </trkpt>
      <trkpt lat="47.28811" lon="-2.36382">
        <ele>22.200000762939</ele>
        <time>2020-05-28T09:56:53.000Z</time>
      </trkpt>
      <trkpt lat="47.28808" lon="-2.36386">
        <ele>22.60000038147</ele>
        <time>2020-05-28T09:56:54.000Z</time>
      </trkpt>
      <trkpt lat="47.28806" lon="-2.36391">
        <ele>23</ele>
        <time>2020-05-28T09:56:55.000Z</time>
      </trkpt>
      <trkpt lat="47.28803" lon="-2.36395">
        <ele>23.39999961853</ele>
        <time>2020-05-28T09:56:56.000Z</time>
      </trkpt>
      <trkpt lat="47.28796" lon="-2.36411">
        <ele>23.39999961853</ele>
        <time>2020-05-28T09:56:59.000Z</time>
      </trkpt>
      <trkpt lat="47.2879" lon="-2.36422">
        <ele>23.39999961853</ele>
        <time>2020-05-28T09:57:01.000Z</time>
      </trkpt>
      <trkpt lat="47.28769" lon="-2.36461">
        <ele>23.39999961853</ele>
        <time>2020-05-28T09:57:08.000Z</time>
      </trkpt>
      <trkpt lat="47.28749" lon="-2.36508">
        <ele>23.39999961853</ele>
        <time>2020-05-28T09:57:15.000Z</time>
      </trkpt>
      <trkpt lat="47.28727" lon="-2.36562">
        <ele>23.39999961853</ele>
        <time>2020-05-28T09:57:23.000Z</time>
      </trkpt>
      <trkpt lat="47.28702" lon="-2.36608">
        <ele>23.39999961853</ele>
        <time>2020-05-28T09:57:31.000Z</time>
      </trkpt>
      <trkpt lat="47.28672" lon="-2.3664">
        <ele>23</ele>
        <time>2020-05-28T09:57:37.000Z</time>
      </trkpt>
      <trkpt lat="47.28665" lon="-2.36646">
        <ele>22.60000038147</ele>
        <time>2020-05-28T09:57:38.000Z</time>
      </trkpt>
      <trkpt lat="47.28658" lon="-2.36652">
        <ele>22.200000762939</ele>
        <time>2020-05-28T09:57:39.000Z</time>
      </trkpt>
      <trkpt lat="47.28651" lon="-2.36658">
        <ele>21.799999237061</ele>
        <time>2020-05-28T09:57:40.000Z</time>
      </trkpt>
      <trkpt lat="47.28643" lon="-2.36664">
        <ele>21.39999961853</ele>
        <time>2020-05-28T09:57:41.000Z</time>
      </trkpt>
      <trkpt lat="47.28627" lon="-2.36673">
        <ele>21.39999961853</ele>
        <time>2020-05-28T09:57:43.000Z</time>
      </trkpt>
      <trkpt lat="47.28601" lon="-2.3668">
        <ele>21</ele>
        <time>2020-05-28T09:57:46.000Z</time>
      </trkpt>
      <trkpt lat="47.28592" lon="-2.3668">
        <ele>20.60000038147</ele>
        <time>2020-05-28T09:57:47.000Z</time>
      </trkpt>
      <trkpt lat="47.28582" lon="-2.3668">
        <ele>20</ele>
        <time>2020-05-28T09:57:48.000Z</time>
      </trkpt>
      <trkpt lat="47.28574" lon="-2.36681">
        <ele>18.799999237061</ele>
        <time>2020-05-28T09:57:49.000Z</time>
      </trkpt>
      <trkpt lat="47.28566" lon="-2.36681">
        <ele>18.200000762939</ele>
        <time>2020-05-28T09:57:50.000Z</time>
      </trkpt>
      <trkpt lat="47.28558" lon="-2.36681">
        <ele>17.60000038147</ele>
        <time>2020-05-28T09:57:51.000Z</time>
      </trkpt>
      <trkpt lat="47.2855" lon="-2.3668">
        <ele>17</ele>
        <time>2020-05-28T09:57:52.000Z</time>
      </trkpt>
      <trkpt lat="47.28544" lon="-2.36678">
        <ele>17</ele>
        <time>2020-05-28T09:57:53.000Z</time>
      </trkpt>
      <trkpt lat="47.28524" lon="-2.36677">
        <ele>17</ele>
        <time>2020-05-28T09:57:56.000Z</time>
      </trkpt>
      <trkpt lat="47.28517" lon="-2.36679">
        <ele>16.60000038147</ele>
        <time>2020-05-28T09:57:57.000Z</time>
      </trkpt>
      <trkpt lat="47.28511" lon="-2.36682">
        <ele>16.200000762939</ele>
        <time>2020-05-28T09:57:58.000Z</time>
      </trkpt>
      <trkpt lat="47.28505" lon="-2.36684">
        <ele>15.800000190735</ele>
        <time>2020-05-28T09:57:59.000Z</time>
      </trkpt>
      <trkpt lat="47.28498" lon="-2.36687">
        <ele>15.199999809265</ele>
        <time>2020-05-28T09:58:00.000Z</time>
      </trkpt>
      <trkpt lat="47.28491" lon="-2.36691">
        <ele>14.800000190735</ele>
        <time>2020-05-28T09:58:01.000Z</time>
      </trkpt>
      <trkpt lat="47.28485" lon="-2.36696">
        <ele>14.800000190735</ele>
        <time>2020-05-28T09:58:02.000Z</time>
      </trkpt>
      <trkpt lat="47.28478" lon="-2.36701">
        <ele>14.800000190735</ele>
        <time>2020-05-28T09:58:03.000Z</time>
      </trkpt>
      <trkpt lat="47.28468" lon="-2.36709">
        <ele>14.800000190735</ele>
        <time>2020-05-28T09:58:05.000Z</time>
      </trkpt>
      <trkpt lat="47.28455" lon="-2.36719">
        <ele>14.800000190735</ele>
        <time>2020-05-28T09:58:08.000Z</time>
      </trkpt>
      <trkpt lat="47.28452" lon="-2.36721">
        <ele>14.39999961853</ele>
        <time>2020-05-28T09:58:09.000Z</time>
      </trkpt>
      <trkpt lat="47.28449" lon="-2.36721">
        <ele>14</ele>
        <time>2020-05-28T09:58:10.000Z</time>
      </trkpt>
      <trkpt lat="47.28446" lon="-2.3672">
        <ele>13.60000038147</ele>
        <time>2020-05-28T09:58:11.000Z</time>
      </trkpt>
      <trkpt lat="47.28443" lon="-2.36716">
        <ele>13</ele>
        <time>2020-05-28T09:58:12.000Z</time>
      </trkpt>
      <trkpt lat="47.28441" lon="-2.36712">
        <ele>12.60000038147</ele>
        <time>2020-05-28T09:58:13.000Z</time>
      </trkpt>
      <trkpt lat="47.28437" lon="-2.36703">
        <ele>12.60000038147</ele>
        <time>2020-05-28T09:58:15.000Z</time>
      </trkpt>
      <trkpt lat="47.28435" lon="-2.36698">
        <ele>12.60000038147</ele>
        <time>2020-05-28T09:58:16.000Z</time>
      </trkpt>
      <trkpt lat="47.28419" lon="-2.3666">
        <ele>12.60000038147</ele>
        <time>2020-05-28T09:58:23.000Z</time>
      </trkpt>
      <trkpt lat="47.28409" lon="-2.36642">
        <ele>12.60000038147</ele>
        <time>2020-05-28T09:58:26.000Z</time>
      </trkpt>
      <trkpt lat="47.284" lon="-2.36629">
        <ele>12.60000038147</ele>
        <time>2020-05-28T09:58:28.000Z</time>
      </trkpt>
      <trkpt lat="47.28372" lon="-2.36582">
        <ele>12</ele>
        <time>2020-05-28T09:58:34.000Z</time>
      </trkpt>
      <trkpt lat="47.28367" lon="-2.36576">
        <ele>11.39999961853</ele>
        <time>2020-05-28T09:58:35.000Z</time>
      </trkpt>
      <trkpt lat="47.28362" lon="-2.36573">
        <ele>10.800000190735</ele>
        <time>2020-05-28T09:58:36.000Z</time>
      </trkpt>
      <trkpt lat="47.28357" lon="-2.36571">
        <ele>10</ele>
        <time>2020-05-28T09:58:37.000Z</time>
      </trkpt>
      <trkpt lat="47.28348" lon="-2.36575">
        <ele>8.3999996185303</ele>
        <time>2020-05-28T09:58:38.000Z</time>
      </trkpt>
      <trkpt lat="47.28342" lon="-2.36584">
        <ele>7.8000001907349</ele>
        <time>2020-05-28T09:58:39.000Z</time>
      </trkpt>
      <trkpt lat="47.28336" lon="-2.36592">
        <ele>7</ele>
        <time>2020-05-28T09:58:40.000Z</time>
      </trkpt>
      <trkpt lat="47.28329" lon="-2.36602">
        <ele>6.4000000953674</ele>
        <time>2020-05-28T09:58:41.000Z</time>
      </trkpt>
      <trkpt lat="47.28323" lon="-2.3661">
        <ele>6</ele>
        <time>2020-05-28T09:58:42.000Z</time>
      </trkpt>
      <trkpt lat="47.28317" lon="-2.36617">
        <ele>5.4000000953674</ele>
        <time>2020-05-28T09:58:43.000Z</time>
      </trkpt>
      <trkpt lat="47.28311" lon="-2.36624">
        <ele>4.8000001907349</ele>
        <time>2020-05-28T09:58:44.000Z</time>
      </trkpt>
      <trkpt lat="47.28305" lon="-2.3663">
        <ele>4</ele>
        <time>2020-05-28T09:58:45.000Z</time>
      </trkpt>
      <trkpt lat="47.28298" lon="-2.36636">
        <ele>3.4000000953674</ele>
        <time>2020-05-28T09:58:46.000Z</time>
      </trkpt>
      <trkpt lat="47.28292" lon="-2.36643">
        <ele>2.5999999046326</ele>
        <time>2020-05-28T09:58:47.000Z</time>
      </trkpt>
      <trkpt lat="47.28287" lon="-2.36653">
        <ele>2</ele>
        <time>2020-05-28T09:58:48.000Z</time>
      </trkpt>
      <trkpt lat="47.28274" lon="-2.3667">
        <ele>2</ele>
        <time>2020-05-28T09:58:50.000Z</time>
      </trkpt>
      <trkpt lat="47.28267" lon="-2.36678">
        <ele>1.3999999761581</ele>
        <time>2020-05-28T09:58:51.000Z</time>
      </trkpt>
      <trkpt lat="47.2826" lon="-2.36687">
        <ele>1</ele>
        <time>2020-05-28T09:58:52.000Z</time>
      </trkpt>
      <trkpt lat="47.28253" lon="-2.36695">
        <ele>0.60000002384186</ele>
        <time>2020-05-28T09:58:53.000Z</time>
      </trkpt>
      <trkpt lat="47.28245" lon="-2.36704">
        <ele>0.20000000298023</ele>
        <time>2020-05-28T09:58:54.000Z</time>
      </trkpt>
      <trkpt lat="47.28238" lon="-2.36712">
        <ele>-0.40000000596046</ele>
        <time>2020-05-28T09:58:55.000Z</time>
      </trkpt>
      <trkpt lat="47.2821" lon="-2.36744">
        <ele>-0.40000000596046</ele>
        <time>2020-05-28T09:58:59.000Z</time>
      </trkpt>
      <trkpt lat="47.28204" lon="-2.36751">
        <ele>-0.80000001192093</ele>
        <time>2020-05-28T09:59:00.000Z</time>
      </trkpt>
      <trkpt lat="47.28197" lon="-2.36759">
        <ele>-1.2000000476837</ele>
        <time>2020-05-28T09:59:01.000Z</time>
      </trkpt>
      <trkpt lat="47.2819" lon="-2.36767">
        <ele>-1.7999999523163</ele>
        <time>2020-05-28T09:59:02.000Z</time>
      </trkpt>
      <trkpt lat="47.28184" lon="-2.36774">
        <ele>-2.5999999046326</ele>
        <time>2020-05-28T09:59:03.000Z</time>
      </trkpt>
      <trkpt lat="47.28163" lon="-2.36798">
        <ele>-2.5999999046326</ele>
        <time>2020-05-28T09:59:06.000Z</time>
      </trkpt>
      <trkpt lat="47.28151" lon="-2.36813">
        <ele>-3.2000000476837</ele>
        <time>2020-05-28T09:59:08.000Z</time>
      </trkpt>
      <trkpt lat="47.28145" lon="-2.36822">
        <ele>-3.5999999046326</ele>
        <time>2020-05-28T09:59:09.000Z</time>
      </trkpt>
      <trkpt lat="47.28142" lon="-2.36832">
        <ele>-4</ele>
        <time>2020-05-28T09:59:10.000Z</time>
      </trkpt>
      <trkpt lat="47.28141" lon="-2.36843">
        <ele>-4.4000000953674</ele>
        <time>2020-05-28T09:59:11.000Z</time>
      </trkpt>
      <trkpt lat="47.28139" lon="-2.36854">
        <ele>-4.8000001907349</ele>
        <time>2020-05-28T09:59:12.000Z</time>
      </trkpt>
      <trkpt lat="47.28131" lon="-2.3688">
        <ele>-4.8000001907349</ele>
        <time>2020-05-28T09:59:15.000Z</time>
      </trkpt>
      <trkpt lat="47.28118" lon="-2.36886">
        <ele>-4.8000001907349</ele>
        <time>2020-05-28T09:59:17.000Z</time>
      </trkpt>
      <trkpt lat="47.281" lon="-2.36879">
        <ele>-4.8000001907349</ele>
        <time>2020-05-28T09:59:20.000Z</time>
      </trkpt>
      <trkpt lat="47.28087" lon="-2.36856">
        <ele>-4.8000001907349</ele>
        <time>2020-05-28T09:59:23.000Z</time>
      </trkpt>
      <trkpt lat="47.28084" lon="-2.36849">
        <ele>-4.8000001907349</ele>
        <time>2020-05-28T09:59:24.000Z</time>
      </trkpt>
      <trkpt lat="47.28077" lon="-2.36832">
        <ele>-4.8000001907349</ele>
        <time>2020-05-28T09:59:27.000Z</time>
      </trkpt>
      <trkpt lat="47.28073" lon="-2.36829">
        <ele>-5.5999999046326</ele>
        <time>2020-05-28T09:59:28.000Z</time>
      </trkpt>
      <trkpt lat="47.28069" lon="-2.36827">
        <ele>-6</ele>
        <time>2020-05-28T09:59:29.000Z</time>
      </trkpt>
      <trkpt lat="47.28065" lon="-2.36826">
        <ele>-6.4000000953674</ele>
        <time>2020-05-28T09:59:30.000Z</time>
      </trkpt>
      <trkpt lat="47.2806" lon="-2.36825">
        <ele>-6.8000001907349</ele>
        <time>2020-05-28T09:59:31.000Z</time>
      </trkpt>
      <trkpt lat="47.28033" lon="-2.36824">
        <ele>-6.8000001907349</ele>
        <time>2020-05-28T09:59:36.000Z</time>
      </trkpt>
      <trkpt lat="47.28004" lon="-2.36821">
        <ele>-6.8000001907349</ele>
        <time>2020-05-28T09:59:41.000Z</time>
      </trkpt>
      <trkpt lat="47.27971" lon="-2.36817">
        <ele>-6.8000001907349</ele>
        <time>2020-05-28T09:59:47.000Z</time>
      </trkpt>
      <trkpt lat="47.27928" lon="-2.3681">
        <ele>-6.8000001907349</ele>
        <time>2020-05-28T09:59:53.000Z</time>
      </trkpt>
      <trkpt lat="47.27881" lon="-2.36802">
        <ele>-6.4000000953674</ele>
        <time>2020-05-28T10:00:00.000Z</time>
      </trkpt>
      <trkpt lat="47.27875" lon="-2.36801">
        <ele>-6</ele>
        <time>2020-05-28T10:00:01.000Z</time>
      </trkpt>
      <trkpt lat="47.2787" lon="-2.368">
        <ele>-5.5999999046326</ele>
        <time>2020-05-28T10:00:02.000Z</time>
      </trkpt>
      <trkpt lat="47.27863" lon="-2.36798">
        <ele>-5</ele>
        <time>2020-05-28T10:00:03.000Z</time>
      </trkpt>
      <trkpt lat="47.27857" lon="-2.36797">
        <ele>-4.5999999046326</ele>
        <time>2020-05-28T10:00:04.000Z</time>
      </trkpt>
      <trkpt lat="47.27839" lon="-2.36795">
        <ele>-4.5999999046326</ele>
        <time>2020-05-28T10:00:07.000Z</time>
      </trkpt>
      <trkpt lat="47.27796" lon="-2.36789">
        <ele>-4.5999999046326</ele>
        <time>2020-05-28T10:00:14.000Z</time>
      </trkpt>
      <trkpt lat="47.27791" lon="-2.36787">
        <ele>-4.5999999046326</ele>
        <time>2020-05-28T10:00:15.000Z</time>
      </trkpt>
      <trkpt lat="47.2777" lon="-2.36782">
        <ele>-4.5999999046326</ele>
        <time>2020-05-28T10:00:19.000Z</time>
      </trkpt>
      <trkpt lat="47.27751" lon="-2.36779">
        <ele>-4.5999999046326</ele>
        <time>2020-05-28T10:00:23.000Z</time>
      </trkpt>
      <trkpt lat="47.27743" lon="-2.36778">
        <ele>-4.5999999046326</ele>
        <time>2020-05-28T10:00:25.000Z</time>
      </trkpt>
      <trkpt lat="47.27739" lon="-2.36776">
        <ele>-4.5999999046326</ele>
        <time>2020-05-28T10:00:26.000Z</time>
      </trkpt>
      <trkpt lat="47.27729" lon="-2.36775">
        <ele>-4.5999999046326</ele>
        <time>2020-05-28T10:00:28.000Z</time>
      </trkpt>
      <trkpt lat="47.27721" lon="-2.36775">
        <ele>-4.5999999046326</ele>
        <time>2020-05-28T10:00:30.000Z</time>
      </trkpt>
      <trkpt lat="47.27709" lon="-2.36778">
        <ele>-4.5999999046326</ele>
        <time>2020-05-28T10:00:33.000Z</time>
      </trkpt>
      <trkpt lat="47.27702" lon="-2.36781">
        <ele>-4.5999999046326</ele>
        <time>2020-05-28T10:00:35.000Z</time>
      </trkpt>
      <trkpt lat="47.27696" lon="-2.36776">
        <ele>-4.5999999046326</ele>
        <time>2020-05-28T10:00:37.000Z</time>
      </trkpt>
      <trkpt lat="47.27694" lon="-2.36772">
        <ele>-4.5999999046326</ele>
        <time>2020-05-28T10:00:38.000Z</time>
      </trkpt>
      <trkpt lat="47.27687" lon="-2.3675">
        <ele>-4.5999999046326</ele>
        <time>2020-05-28T10:00:43.000Z</time>
      </trkpt>
      <trkpt lat="47.2768" lon="-2.36719">
        <ele>-4.5999999046326</ele>
        <time>2020-05-28T10:00:50.000Z</time>
      </trkpt>
      <trkpt lat="47.27678" lon="-2.36714">
        <ele>-4.1999998092651</ele>
        <time>2020-05-28T10:00:51.000Z</time>
      </trkpt>
      <trkpt lat="47.27677" lon="-2.36709">
        <ele>-3.7999999523163</ele>
        <time>2020-05-28T10:00:52.000Z</time>
      </trkpt>
      <trkpt lat="47.27675" lon="-2.36703">
        <ele>-3.2000000476837</ele>
        <time>2020-05-28T10:00:53.000Z</time>
      </trkpt>
      <trkpt lat="47.27674" lon="-2.36698">
        <ele>-2.7999999523163</ele>
        <time>2020-05-28T10:00:54.000Z</time>
      </trkpt>
      <trkpt lat="47.27672" lon="-2.36692">
        <ele>-2.4000000953674</ele>
        <time>2020-05-28T10:00:55.000Z</time>
      </trkpt>
      <trkpt lat="47.27668" lon="-2.36679">
        <ele>-2.4000000953674</ele>
        <time>2020-05-28T10:00:57.000Z</time>
      </trkpt>
      <trkpt lat="47.27648" lon="-2.36621">
        <ele>-2.4000000953674</ele>
        <time>2020-05-28T10:01:06.000Z</time>
      </trkpt>
      <trkpt lat="47.27626" lon="-2.36558">
        <ele>-2.4000000953674</ele>
        <time>2020-05-28T10:01:15.000Z</time>
      </trkpt>
      <trkpt lat="47.27619" lon="-2.36538">
        <ele>-2</ele>
        <time>2020-05-28T10:01:18.000Z</time>
      </trkpt>
      <trkpt lat="47.27617" lon="-2.36531">
        <ele>-1.6000000238419</ele>
        <time>2020-05-28T10:01:19.000Z</time>
      </trkpt>
      <trkpt lat="47.27614" lon="-2.36525">
        <ele>-1</ele>
        <time>2020-05-28T10:01:20.000Z</time>
      </trkpt>
      <trkpt lat="47.27612" lon="-2.36518">
        <ele>-0.60000002384186</ele>
        <time>2020-05-28T10:01:21.000Z</time>
      </trkpt>
      <trkpt lat="47.27609" lon="-2.36511">
        <ele>-0.20000000298023</ele>
        <time>2020-05-28T10:01:22.000Z</time>
      </trkpt>
      <trkpt lat="47.27604" lon="-2.36498">
        <ele>-0.20000000298023</ele>
        <time>2020-05-28T10:01:24.000Z</time>
      </trkpt>
      <trkpt lat="47.27581" lon="-2.36429">
        <ele>-0.20000000298023</ele>
        <time>2020-05-28T10:01:34.000Z</time>
      </trkpt>
      <trkpt lat="47.27563" lon="-2.36386">
        <ele>-0.60000002384186</ele>
        <time>2020-05-28T10:01:40.000Z</time>
      </trkpt>
      <trkpt lat="47.2756" lon="-2.36379">
        <ele>-1</ele>
        <time>2020-05-28T10:01:41.000Z</time>
      </trkpt>
      <trkpt lat="47.27557" lon="-2.36372">
        <ele>-1.3999999761581</ele>
        <time>2020-05-28T10:01:42.000Z</time>
      </trkpt>
      <trkpt lat="47.27555" lon="-2.36364">
        <ele>-2</ele>
        <time>2020-05-28T10:01:43.000Z</time>
      </trkpt>
      <trkpt lat="47.27552" lon="-2.36357">
        <ele>-2.4000000953674</ele>
        <time>2020-05-28T10:01:44.000Z</time>
      </trkpt>
      <trkpt lat="47.27532" lon="-2.36301">
        <ele>-2.4000000953674</ele>
        <time>2020-05-28T10:01:52.000Z</time>
      </trkpt>
      <trkpt lat="47.27509" lon="-2.36238">
        <ele>-2.4000000953674</ele>
        <time>2020-05-28T10:02:01.000Z</time>
      </trkpt>
      <trkpt lat="47.27493" lon="-2.36187">
        <ele>-2.4000000953674</ele>
        <time>2020-05-28T10:02:08.000Z</time>
      </trkpt>
      <trkpt lat="47.27482" lon="-2.36158">
        <ele>-2</ele>
        <time>2020-05-28T10:02:12.000Z</time>
      </trkpt>
      <trkpt lat="47.27479" lon="-2.36151">
        <ele>-1.6000000238419</ele>
        <time>2020-05-28T10:02:13.000Z</time>
      </trkpt>
      <trkpt lat="47.27476" lon="-2.36145">
        <ele>-1.2000000476837</ele>
        <time>2020-05-28T10:02:14.000Z</time>
      </trkpt>
      <trkpt lat="47.27473" lon="-2.36137">
        <ele>-0.80000001192093</ele>
        <time>2020-05-28T10:02:15.000Z</time>
      </trkpt>
      <trkpt lat="47.27471" lon="-2.3613">
        <ele>-0.40000000596046</ele>
        <time>2020-05-28T10:02:16.000Z</time>
      </trkpt>
      <trkpt lat="47.27469" lon="-2.36123">
        <ele>-0.40000000596046</ele>
        <time>2020-05-28T10:02:17.000Z</time>
      </trkpt>
      <trkpt lat="47.27455" lon="-2.36092">
        <ele>-0.40000000596046</ele>
        <time>2020-05-28T10:02:22.000Z</time>
      </trkpt>
      <trkpt lat="47.27452" lon="-2.36085">
        <ele>-0.40000000596046</ele>
        <time>2020-05-28T10:02:23.000Z</time>
      </trkpt>
      <trkpt lat="47.27434" lon="-2.36043">
        <ele>-0.40000000596046</ele>
        <time>2020-05-28T10:02:29.000Z</time>
      </trkpt>
      <trkpt lat="47.27417" lon="-2.36008">
        <ele>-0.80000001192093</ele>
        <time>2020-05-28T10:02:34.000Z</time>
      </trkpt>
      <trkpt lat="47.27414" lon="-2.36">
        <ele>-1.2000000476837</ele>
        <time>2020-05-28T10:02:35.000Z</time>
      </trkpt>
      <trkpt lat="47.27412" lon="-2.35993">
        <ele>-1.6000000238419</ele>
        <time>2020-05-28T10:02:36.000Z</time>
      </trkpt>
      <trkpt lat="47.27409" lon="-2.35985">
        <ele>-2</ele>
        <time>2020-05-28T10:02:37.000Z</time>
      </trkpt>
      <trkpt lat="47.27406" lon="-2.35978">
        <ele>-2.4000000953674</ele>
        <time>2020-05-28T10:02:38.000Z</time>
      </trkpt>
      <trkpt lat="47.27387" lon="-2.35932">
        <ele>-2.4000000953674</ele>
        <time>2020-05-28T10:02:44.000Z</time>
      </trkpt>
      <trkpt lat="47.27367" lon="-2.35879">
        <ele>-2</ele>
        <time>2020-05-28T10:02:51.000Z</time>
      </trkpt>
      <trkpt lat="47.27365" lon="-2.35871">
        <ele>-1.6000000238419</ele>
        <time>2020-05-28T10:02:52.000Z</time>
      </trkpt>
      <trkpt lat="47.27362" lon="-2.35863">
        <ele>-1.2000000476837</ele>
        <time>2020-05-28T10:02:53.000Z</time>
      </trkpt>
      <trkpt lat="47.27359" lon="-2.35856">
        <ele>-0.80000001192093</ele>
        <time>2020-05-28T10:02:54.000Z</time>
      </trkpt>
      <trkpt lat="47.27356" lon="-2.35848">
        <ele>-0.40000000596046</ele>
        <time>2020-05-28T10:02:55.000Z</time>
      </trkpt>
      <trkpt lat="47.27339" lon="-2.35806">
        <ele>-0.80000001192093</ele>
        <time>2020-05-28T10:03:01.000Z</time>
      </trkpt>
      <trkpt lat="47.27336" lon="-2.35799">
        <ele>-1.2000000476837</ele>
        <time>2020-05-28T10:03:02.000Z</time>
      </trkpt>
      <trkpt lat="47.27333" lon="-2.35792">
        <ele>-1.7999999523163</ele>
        <time>2020-05-28T10:03:03.000Z</time>
      </trkpt>
      <trkpt lat="47.27331" lon="-2.35785">
        <ele>-2.2000000476837</ele>
        <time>2020-05-28T10:03:04.000Z</time>
      </trkpt>
      <trkpt lat="47.27328" lon="-2.35778">
        <ele>-2.5999999046326</ele>
        <time>2020-05-28T10:03:05.000Z</time>
      </trkpt>
      <trkpt lat="47.27321" lon="-2.35757">
        <ele>-2.5999999046326</ele>
        <time>2020-05-28T10:03:08.000Z</time>
      </trkpt>
      <trkpt lat="47.27311" lon="-2.35739">
        <ele>-2.5999999046326</ele>
        <time>2020-05-28T10:03:11.000Z</time>
      </trkpt>
      <trkpt lat="47.27307" lon="-2.35732">
        <ele>-2.5999999046326</ele>
        <time>2020-05-28T10:03:12.000Z</time>
      </trkpt>
      <trkpt lat="47.27297" lon="-2.35702">
        <ele>-2.5999999046326</ele>
        <time>2020-05-28T10:03:16.000Z</time>
      </trkpt>
      <trkpt lat="47.27294" lon="-2.35695">
        <ele>-2.5999999046326</ele>
        <time>2020-05-28T10:03:17.000Z</time>
      </trkpt>
      <trkpt lat="47.27281" lon="-2.35666">
        <ele>-2.5999999046326</ele>
        <time>2020-05-28T10:03:21.000Z</time>
      </trkpt>
      <trkpt lat="47.27256" lon="-2.3561">
        <ele>-2.5999999046326</ele>
        <time>2020-05-28T10:03:29.000Z</time>
      </trkpt>
      <trkpt lat="47.27232" lon="-2.35554">
        <ele>-2.5999999046326</ele>
        <time>2020-05-28T10:03:37.000Z</time>
      </trkpt>
      <trkpt lat="47.27208" lon="-2.355">
        <ele>-2.5999999046326</ele>
        <time>2020-05-28T10:03:45.000Z</time>
      </trkpt>
      <trkpt lat="47.27181" lon="-2.35447">
        <ele>-2.5999999046326</ele>
        <time>2020-05-28T10:03:53.000Z</time>
      </trkpt>
      <trkpt lat="47.27159" lon="-2.35395">
        <ele>-2.5999999046326</ele>
        <time>2020-05-28T10:04:01.000Z</time>
      </trkpt>
      <trkpt lat="47.2713" lon="-2.35349">
        <ele>-2.5999999046326</ele>
        <time>2020-05-28T10:04:08.000Z</time>
      </trkpt>
      <trkpt lat="47.27099" lon="-2.35304">
        <ele>-2.5999999046326</ele>
        <time>2020-05-28T10:04:15.000Z</time>
      </trkpt>
      <trkpt lat="47.27058" lon="-2.35244">
        <ele>-2.5999999046326</ele>
        <time>2020-05-28T10:04:24.000Z</time>
      </trkpt>
      <trkpt lat="47.27053" lon="-2.35237">
        <ele>-2.5999999046326</ele>
        <time>2020-05-28T10:04:25.000Z</time>
      </trkpt>
      <trkpt lat="47.27017" lon="-2.35182">
        <ele>-2.5999999046326</ele>
        <time>2020-05-28T10:04:33.000Z</time>
      </trkpt>
      <trkpt lat="47.26977" lon="-2.35122">
        <ele>-2.5999999046326</ele>
        <time>2020-05-28T10:04:42.000Z</time>
      </trkpt>
      <trkpt lat="47.26937" lon="-2.35062">
        <ele>-2.5999999046326</ele>
        <time>2020-05-28T10:04:51.000Z</time>
      </trkpt>
      <trkpt lat="47.269" lon="-2.35006">
        <ele>-2.5999999046326</ele>
        <time>2020-05-28T10:04:59.000Z</time>
      </trkpt>
      <trkpt lat="47.26864" lon="-2.34952">
        <ele>-2.5999999046326</ele>
        <time>2020-05-28T10:05:07.000Z</time>
      </trkpt>
      <trkpt lat="47.2683" lon="-2.349">
        <ele>-2.5999999046326</ele>
        <time>2020-05-28T10:05:15.000Z</time>
      </trkpt>
      <trkpt lat="47.26803" lon="-2.34861">
        <ele>-2.5999999046326</ele>
        <time>2020-05-28T10:05:21.000Z</time>
      </trkpt>
      <trkpt lat="47.26772" lon="-2.34816">
        <ele>-2.5999999046326</ele>
        <time>2020-05-28T10:05:28.000Z</time>
      </trkpt>
      <trkpt lat="47.26743" lon="-2.3478">
        <ele>-2.5999999046326</ele>
        <time>2020-05-28T10:05:34.000Z</time>
      </trkpt>
      <trkpt lat="47.26699" lon="-2.34726">
        <ele>-2.5999999046326</ele>
        <time>2020-05-28T10:05:43.000Z</time>
      </trkpt>
      <trkpt lat="47.26694" lon="-2.3472">
        <ele>-2.5999999046326</ele>
        <time>2020-05-28T10:05:44.000Z</time>
      </trkpt>
      <trkpt lat="47.26665" lon="-2.34685">
        <ele>-2.5999999046326</ele>
        <time>2020-05-28T10:05:50.000Z</time>
      </trkpt>
      <trkpt lat="47.2663" lon="-2.34641">
        <ele>-2.5999999046326</ele>
        <time>2020-05-28T10:05:57.000Z</time>
      </trkpt>
      <trkpt lat="47.26603" lon="-2.34607">
        <ele>-2.5999999046326</ele>
        <time>2020-05-28T10:06:03.000Z</time>
      </trkpt>
      <trkpt lat="47.2656" lon="-2.34557">
        <ele>-2.5999999046326</ele>
        <time>2020-05-28T10:06:12.000Z</time>
      </trkpt>
      <trkpt lat="47.26518" lon="-2.34519">
        <ele>-2.5999999046326</ele>
        <time>2020-05-28T10:06:20.000Z</time>
      </trkpt>
      <trkpt lat="47.26477" lon="-2.34491">
        <ele>-2.5999999046326</ele>
        <time>2020-05-28T10:06:27.000Z</time>
      </trkpt>
      <trkpt lat="47.26444" lon="-2.34468">
        <ele>-2.5999999046326</ele>
        <time>2020-05-28T10:06:33.000Z</time>
      </trkpt>
      <trkpt lat="47.264" lon="-2.34435">
        <ele>-2.5999999046326</ele>
        <time>2020-05-28T10:06:41.000Z</time>
      </trkpt>
      <trkpt lat="47.26354" lon="-2.34392">
        <ele>-2.5999999046326</ele>
        <time>2020-05-28T10:06:50.000Z</time>
      </trkpt>
      <trkpt lat="47.26334" lon="-2.34378">
        <ele>-2.5999999046326</ele>
        <time>2020-05-28T10:06:54.000Z</time>
      </trkpt>
      <trkpt lat="47.26323" lon="-2.34372">
        <ele>-2.5999999046326</ele>
        <time>2020-05-28T10:06:56.000Z</time>
      </trkpt>
      <trkpt lat="47.26312" lon="-2.34354">
        <ele>-2.5999999046326</ele>
        <time>2020-05-28T10:06:59.000Z</time>
      </trkpt>
      <trkpt lat="47.26295" lon="-2.34336">
        <ele>-2.5999999046326</ele>
        <time>2020-05-28T10:07:03.000Z</time>
      </trkpt>
      <trkpt lat="47.2629" lon="-2.34331">
        <ele>-2.5999999046326</ele>
        <time>2020-05-28T10:07:04.000Z</time>
      </trkpt>
      <trkpt lat="47.26286" lon="-2.34325">
        <ele>-2.5999999046326</ele>
        <time>2020-05-28T10:07:05.000Z</time>
      </trkpt>
      <trkpt lat="47.2627" lon="-2.34308">
        <ele>-2.5999999046326</ele>
        <time>2020-05-28T10:07:09.000Z</time>
      </trkpt>
      <trkpt lat="47.26255" lon="-2.34293">
        <ele>-2.5999999046326</ele>
        <time>2020-05-28T10:07:13.000Z</time>
      </trkpt>
      <trkpt lat="47.26251" lon="-2.34289">
        <ele>-3</ele>
        <time>2020-05-28T10:07:14.000Z</time>
      </trkpt>
      <trkpt lat="47.26248" lon="-2.34285">
        <ele>-3.4000000953674</ele>
        <time>2020-05-28T10:07:15.000Z</time>
      </trkpt>
      <trkpt lat="47.26245" lon="-2.34281">
        <ele>-3.7999999523163</ele>
        <time>2020-05-28T10:07:16.000Z</time>
      </trkpt>
      <trkpt lat="47.26241" lon="-2.34278">
        <ele>-4.5999999046326</ele>
        <time>2020-05-28T10:07:17.000Z</time>
      </trkpt>
      <trkpt lat="47.26222" lon="-2.34256">
        <ele>-4.5999999046326</ele>
        <time>2020-05-28T10:07:22.000Z</time>
      </trkpt>
      <trkpt lat="47.2619" lon="-2.34225">
        <ele>-4.5999999046326</ele>
        <time>2020-05-28T10:07:30.000Z</time>
      </trkpt>
      <trkpt lat="47.26165" lon="-2.342">
        <ele>-4.5999999046326</ele>
        <time>2020-05-28T10:07:38.000Z</time>
      </trkpt>
      <trkpt lat="47.26143" lon="-2.34183">
        <ele>-4.5999999046326</ele>
        <time>2020-05-28T10:07:45.000Z</time>
      </trkpt>
      <trkpt lat="47.26131" lon="-2.34179">
        <ele>-4.5999999046326</ele>
        <time>2020-05-28T10:07:48.000Z</time>
      </trkpt>
      <trkpt lat="47.26124" lon="-2.34171">
        <ele>-4.5999999046326</ele>
        <time>2020-05-28T10:07:50.000Z</time>
      </trkpt>
      <trkpt lat="47.26104" lon="-2.3415">
        <ele>-4.5999999046326</ele>
        <time>2020-05-28T10:07:56.000Z</time>
      </trkpt>
      <trkpt lat="47.26085" lon="-2.34137">
        <ele>-4.5999999046326</ele>
        <time>2020-05-28T10:08:01.000Z</time>
      </trkpt>
      <trkpt lat="47.26053" lon="-2.34121">
        <ele>-4.5999999046326</ele>
        <time>2020-05-28T10:08:09.000Z</time>
      </trkpt>
      <trkpt lat="47.26025" lon="-2.34112">
        <ele>-4.5999999046326</ele>
        <time>2020-05-28T10:08:15.000Z</time>
      </trkpt>
      <trkpt lat="47.25983" lon="-2.34092">
        <ele>-4.5999999046326</ele>
        <time>2020-05-28T10:08:23.000Z</time>
      </trkpt>
      <trkpt lat="47.25952" lon="-2.34078">
        <ele>-4.5999999046326</ele>
        <time>2020-05-28T10:08:29.000Z</time>
      </trkpt>
      <trkpt lat="47.25914" lon="-2.34066">
        <ele>-4.5999999046326</ele>
        <time>2020-05-28T10:08:36.000Z</time>
      </trkpt>
      <trkpt lat="47.25906" lon="-2.34062">
        <ele>-4.5999999046326</ele>
        <time>2020-05-28T10:08:38.000Z</time>
      </trkpt>
      <trkpt lat="47.259" lon="-2.34052">
        <ele>-4.5999999046326</ele>
        <time>2020-05-28T10:08:40.000Z</time>
      </trkpt>
      <trkpt lat="47.25898" lon="-2.34029">
        <ele>-4.5999999046326</ele>
        <time>2020-05-28T10:08:43.000Z</time>
      </trkpt>
      <trkpt lat="47.25901" lon="-2.34007">
        <ele>-4.5999999046326</ele>
        <time>2020-05-28T10:08:46.000Z</time>
      </trkpt>
      <trkpt lat="47.25906" lon="-2.33991">
        <ele>-4.5999999046326</ele>
        <time>2020-05-28T10:08:48.000Z</time>
      </trkpt>
      <trkpt lat="47.25926" lon="-2.33941">
        <ele>-4.5999999046326</ele>
        <time>2020-05-28T10:08:55.000Z</time>
      </trkpt>
      <trkpt lat="47.25937" lon="-2.33924">
        <ele>-4.5999999046326</ele>
        <time>2020-05-28T10:08:58.000Z</time>
      </trkpt>
      <trkpt lat="47.25943" lon="-2.33909">
        <ele>-5</ele>
        <time>2020-05-28T10:09:00.000Z</time>
      </trkpt>
      <trkpt lat="47.25945" lon="-2.33901">
        <ele>-5.4000000953674</ele>
        <time>2020-05-28T10:09:01.000Z</time>
      </trkpt>
      <trkpt lat="47.25948" lon="-2.33894">
        <ele>-5.8000001907349</ele>
        <time>2020-05-28T10:09:02.000Z</time>
      </trkpt>
      <trkpt lat="47.25952" lon="-2.33886">
        <ele>-6.1999998092651</ele>
        <time>2020-05-28T10:09:03.000Z</time>
      </trkpt>
      <trkpt lat="47.25954" lon="-2.33879">
        <ele>-6.5999999046326</ele>
        <time>2020-05-28T10:09:04.000Z</time>
      </trkpt>
      <trkpt lat="47.2596" lon="-2.33863">
        <ele>-6.5999999046326</ele>
        <time>2020-05-28T10:09:06.000Z</time>
      </trkpt>
      <trkpt lat="47.25978" lon="-2.33808">
        <ele>-6.5999999046326</ele>
        <time>2020-05-28T10:09:13.000Z</time>
      </trkpt>
      <trkpt lat="47.25997" lon="-2.33739">
        <ele>-6.5999999046326</ele>
        <time>2020-05-28T10:09:22.000Z</time>
      </trkpt>
      <trkpt lat="47.26015" lon="-2.33683">
        <ele>-6.5999999046326</ele>
        <time>2020-05-28T10:09:29.000Z</time>
      </trkpt>
      <trkpt lat="47.26022" lon="-2.33624">
        <ele>-6.5999999046326</ele>
        <time>2020-05-28T10:09:36.000Z</time>
      </trkpt>
      <trkpt lat="47.26017" lon="-2.33583">
        <ele>-6.5999999046326</ele>
        <time>2020-05-28T10:09:41.000Z</time>
      </trkpt>
      <trkpt lat="47.26014" lon="-2.33575">
        <ele>-6.5999999046326</ele>
        <time>2020-05-28T10:09:42.000Z</time>
      </trkpt>
      <trkpt lat="47.26004" lon="-2.33552">
        <ele>-6.5999999046326</ele>
        <time>2020-05-28T10:09:45.000Z</time>
      </trkpt>
      <trkpt lat="47.25983" lon="-2.33518">
        <ele>-6.5999999046326</ele>
        <time>2020-05-28T10:09:51.000Z</time>
      </trkpt>
      <trkpt lat="47.25977" lon="-2.33509">
        <ele>-6.5999999046326</ele>
        <time>2020-05-28T10:09:55.000Z</time>
      </trkpt>
      <trkpt lat="47.25967" lon="-2.33495">
        <ele>-6.5999999046326</ele>
        <time>2020-05-28T10:09:59.000Z</time>
      </trkpt>
      <trkpt lat="47.25962" lon="-2.33483">
        <ele>-6.5999999046326</ele>
        <time>2020-05-28T10:10:01.000Z</time>
      </trkpt>
      <trkpt lat="47.25959" lon="-2.33478">
        <ele>-6.5999999046326</ele>
        <time>2020-05-28T10:10:02.000Z</time>
      </trkpt>
      <trkpt lat="47.2594" lon="-2.33435">
        <ele>-6.5999999046326</ele>
        <time>2020-05-28T10:10:08.000Z</time>
      </trkpt>
      <trkpt lat="47.25922" lon="-2.33381">
        <ele>-6.5999999046326</ele>
        <time>2020-05-28T10:10:15.000Z</time>
      </trkpt>
      <trkpt lat="47.25913" lon="-2.33347">
        <ele>-6.5999999046326</ele>
        <time>2020-05-28T10:10:19.000Z</time>
      </trkpt>
      <trkpt lat="47.2591" lon="-2.33331">
        <ele>-6.5999999046326</ele>
        <time>2020-05-28T10:10:21.000Z</time>
      </trkpt>
      <trkpt lat="47.25906" lon="-2.33271">
        <ele>-6.5999999046326</ele>
        <time>2020-05-28T10:10:28.000Z</time>
      </trkpt>
      <trkpt lat="47.25903" lon="-2.33186">
        <ele>-6.5999999046326</ele>
        <time>2020-05-28T10:10:38.000Z</time>
      </trkpt>
      <trkpt lat="47.25896" lon="-2.33123">
        <ele>-6.5999999046326</ele>
        <time>2020-05-28T10:10:46.000Z</time>
      </trkpt>
      <trkpt lat="47.2589" lon="-2.33101">
        <ele>-6.5999999046326</ele>
        <time>2020-05-28T10:10:49.000Z</time>
      </trkpt>
      <trkpt lat="47.25879" lon="-2.33072">
        <ele>-6.5999999046326</ele>
        <time>2020-05-28T10:10:53.000Z</time>
      </trkpt>
      <trkpt lat="47.25865" lon="-2.33023">
        <ele>-6.1999998092651</ele>
        <time>2020-05-28T10:11:00.000Z</time>
      </trkpt>
      <trkpt lat="47.25863" lon="-2.33016">
        <ele>-5.8000001907349</ele>
        <time>2020-05-28T10:11:01.000Z</time>
      </trkpt>
      <trkpt lat="47.25861" lon="-2.33009">
        <ele>-5.4000000953674</ele>
        <time>2020-05-28T10:11:02.000Z</time>
      </trkpt>
      <trkpt lat="47.25858" lon="-2.33003">
        <ele>-5</ele>
        <time>2020-05-28T10:11:03.000Z</time>
      </trkpt>
      <trkpt lat="47.25856" lon="-2.32997">
        <ele>-4.5999999046326</ele>
        <time>2020-05-28T10:11:04.000Z</time>
      </trkpt>
      <trkpt lat="47.25846" lon="-2.3298">
        <ele>-4.5999999046326</ele>
        <time>2020-05-28T10:11:07.000Z</time>
      </trkpt>
      <trkpt lat="47.25819" lon="-2.3295">
        <ele>-4.5999999046326</ele>
        <time>2020-05-28T10:11:13.000Z</time>
      </trkpt>
      <trkpt lat="47.25799" lon="-2.32925">
        <ele>-4.1999998092651</ele>
        <time>2020-05-28T10:11:18.000Z</time>
      </trkpt>
      <trkpt lat="47.25795" lon="-2.3292">
        <ele>-3.7999999523163</ele>
        <time>2020-05-28T10:11:19.000Z</time>
      </trkpt>
      <trkpt lat="47.25791" lon="-2.32915">
        <ele>-3.4000000953674</ele>
        <time>2020-05-28T10:11:20.000Z</time>
      </trkpt>
      <trkpt lat="47.25787" lon="-2.3291">
        <ele>-3</ele>
        <time>2020-05-28T10:11:21.000Z</time>
      </trkpt>
      <trkpt lat="47.25784" lon="-2.32905">
        <ele>-2.5999999046326</ele>
        <time>2020-05-28T10:11:22.000Z</time>
      </trkpt>
      <trkpt lat="47.25776" lon="-2.32894">
        <ele>-2.5999999046326</ele>
        <time>2020-05-28T10:11:24.000Z</time>
      </trkpt>
      <trkpt lat="47.25764" lon="-2.32873">
        <ele>-2.5999999046326</ele>
        <time>2020-05-28T10:11:28.000Z</time>
      </trkpt>
      <trkpt lat="47.25744" lon="-2.32832">
        <ele>-2.5999999046326</ele>
        <time>2020-05-28T10:11:35.000Z</time>
      </trkpt>
      <trkpt lat="47.25742" lon="-2.32825">
        <ele>-2.2000000476837</ele>
        <time>2020-05-28T10:11:36.000Z</time>
      </trkpt>
      <trkpt lat="47.2574" lon="-2.32819">
        <ele>-1.7999999523163</ele>
        <time>2020-05-28T10:11:37.000Z</time>
      </trkpt>
      <trkpt lat="47.25738" lon="-2.32812">
        <ele>-1.3999999761581</ele>
        <time>2020-05-28T10:11:38.000Z</time>
      </trkpt>
      <trkpt lat="47.25737" lon="-2.32805">
        <ele>-1</ele>
        <time>2020-05-28T10:11:39.000Z</time>
      </trkpt>
      <trkpt lat="47.25735" lon="-2.32798">
        <ele>-0.60000002384186</ele>
        <time>2020-05-28T10:11:40.000Z</time>
      </trkpt>
      <trkpt lat="47.25734" lon="-2.32791">
        <ele>-0.60000002384186</ele>
        <time>2020-05-28T10:11:41.000Z</time>
      </trkpt>
      <trkpt lat="47.25724" lon="-2.32738">
        <ele>-0.60000002384186</ele>
        <time>2020-05-28T10:11:48.000Z</time>
      </trkpt>
      <trkpt lat="47.25718" lon="-2.32663">
        <ele>-0.60000002384186</ele>
        <time>2020-05-28T10:11:56.000Z</time>
      </trkpt>
      <trkpt lat="47.25709" lon="-2.32608">
        <ele>-0.60000002384186</ele>
        <time>2020-05-28T10:12:02.000Z</time>
      </trkpt>
      <trkpt lat="47.25688" lon="-2.32532">
        <ele>-0.60000002384186</ele>
        <time>2020-05-28T10:12:11.000Z</time>
      </trkpt>
      <trkpt lat="47.25686" lon="-2.32524">
        <ele>-0.60000002384186</ele>
        <time>2020-05-28T10:12:12.000Z</time>
      </trkpt>
      <trkpt lat="47.25678" lon="-2.32489">
        <ele>-1</ele>
        <time>2020-05-28T10:12:16.000Z</time>
      </trkpt>
      <trkpt lat="47.25676" lon="-2.32481">
        <ele>-1.6000000238419</ele>
        <time>2020-05-28T10:12:17.000Z</time>
      </trkpt>
      <trkpt lat="47.25673" lon="-2.32472">
        <ele>-2</ele>
        <time>2020-05-28T10:12:18.000Z</time>
      </trkpt>
      <trkpt lat="47.25671" lon="-2.32463">
        <ele>-2.4000000953674</ele>
        <time>2020-05-28T10:12:19.000Z</time>
      </trkpt>
      <trkpt lat="47.25668" lon="-2.32454">
        <ele>-2.7999999523163</ele>
        <time>2020-05-28T10:12:20.000Z</time>
      </trkpt>
      <trkpt lat="47.25666" lon="-2.32446">
        <ele>-2.7999999523163</ele>
        <time>2020-05-28T10:12:21.000Z</time>
      </trkpt>
      <trkpt lat="47.25664" lon="-2.32438">
        <ele>-3.2000000476837</ele>
        <time>2020-05-28T10:12:22.000Z</time>
      </trkpt>
      <trkpt lat="47.25662" lon="-2.3243">
        <ele>-3.7999999523163</ele>
        <time>2020-05-28T10:12:23.000Z</time>
      </trkpt>
      <trkpt lat="47.2566" lon="-2.32423">
        <ele>-4.1999998092651</ele>
        <time>2020-05-28T10:12:24.000Z</time>
      </trkpt>
      <trkpt lat="47.25657" lon="-2.32415">
        <ele>-4.5999999046326</ele>
        <time>2020-05-28T10:12:25.000Z</time>
      </trkpt>
      <trkpt lat="47.25655" lon="-2.32406">
        <ele>-5</ele>
        <time>2020-05-28T10:12:26.000Z</time>
      </trkpt>
      <trkpt lat="47.25656" lon="-2.32373">
        <ele>-5</ele>
        <time>2020-05-28T10:12:30.000Z</time>
      </trkpt>
      <trkpt lat="47.25655" lon="-2.32365">
        <ele>-5</ele>
        <time>2020-05-28T10:12:31.000Z</time>
      </trkpt>
      <trkpt lat="47.25652" lon="-2.32326">
        <ele>-5</ele>
        <time>2020-05-28T10:12:36.000Z</time>
      </trkpt>
      <trkpt lat="47.25643" lon="-2.32281">
        <ele>-4.5999999046326</ele>
        <time>2020-05-28T10:12:42.000Z</time>
      </trkpt>
      <trkpt lat="47.25642" lon="-2.32274">
        <ele>-4.1999998092651</ele>
        <time>2020-05-28T10:12:43.000Z</time>
      </trkpt>
      <trkpt lat="47.25641" lon="-2.32267">
        <ele>-3.7999999523163</ele>
        <time>2020-05-28T10:12:44.000Z</time>
      </trkpt>
      <trkpt lat="47.25641" lon="-2.3226">
        <ele>-3.4000000953674</ele>
        <time>2020-05-28T10:12:45.000Z</time>
      </trkpt>
      <trkpt lat="47.2564" lon="-2.32253">
        <ele>-3</ele>
        <time>2020-05-28T10:12:46.000Z</time>
      </trkpt>
      <trkpt lat="47.2564" lon="-2.32246">
        <ele>-2.5999999046326</ele>
        <time>2020-05-28T10:12:47.000Z</time>
      </trkpt>
      <trkpt lat="47.2564" lon="-2.32239">
        <ele>-2.2000000476837</ele>
        <time>2020-05-28T10:12:48.000Z</time>
      </trkpt>
      <trkpt lat="47.25639" lon="-2.32232">
        <ele>-1.6000000238419</ele>
        <time>2020-05-28T10:12:49.000Z</time>
      </trkpt>
      <trkpt lat="47.25638" lon="-2.32226">
        <ele>-1.2000000476837</ele>
        <time>2020-05-28T10:12:50.000Z</time>
      </trkpt>
      <trkpt lat="47.25637" lon="-2.3222">
        <ele>-0.80000001192093</ele>
        <time>2020-05-28T10:12:51.000Z</time>
      </trkpt>
      <trkpt lat="47.25637" lon="-2.32213">
        <ele>-0.40000000596046</ele>
        <time>2020-05-28T10:12:52.000Z</time>
      </trkpt>
      <trkpt lat="47.25637" lon="-2.32207">
        <ele>13.5</ele>
        <time>2020-05-28T10:12:53.000Z</time>
      </trkpt>
      <trkpt lat="47.25638" lon="-2.322">
        <ele>0.40000000596046</ele>
        <time>2020-05-28T10:12:54.000Z</time>
      </trkpt>
      <trkpt lat="47.25638" lon="-2.32192">
        <ele>0.80000001192093</ele>
        <time>2020-05-28T10:12:55.000Z</time>
      </trkpt>
      <trkpt lat="47.25636" lon="-2.32186">
        <ele>1.2000000476837</ele>
        <time>2020-05-28T10:12:56.000Z</time>
      </trkpt>
      <trkpt lat="47.25628" lon="-2.32144">
        <ele>1.2000000476837</ele>
        <time>2020-05-28T10:13:02.000Z</time>
      </trkpt>
      <trkpt lat="47.25623" lon="-2.32116">
        <ele>1.2000000476837</ele>
        <time>2020-05-28T10:13:06.000Z</time>
      </trkpt>
      <trkpt lat="47.25619" lon="-2.32095">
        <ele>1.2000000476837</ele>
        <time>2020-05-28T10:13:09.000Z</time>
      </trkpt>
      <trkpt lat="47.25617" lon="-2.32088">
        <ele>1.6000000238419</ele>
        <time>2020-05-28T10:13:10.000Z</time>
      </trkpt>
      <trkpt lat="47.25615" lon="-2.3208">
        <ele>2</ele>
        <time>2020-05-28T10:13:11.000Z</time>
      </trkpt>
      <trkpt lat="47.25613" lon="-2.32073">
        <ele>2.4000000953674</ele>
        <time>2020-05-28T10:13:12.000Z</time>
      </trkpt>
      <trkpt lat="47.25608" lon="-2.32066">
        <ele>3</ele>
        <time>2020-05-28T10:13:13.000Z</time>
      </trkpt>
      <trkpt lat="47.25604" lon="-2.32059">
        <ele>3.4000000953674</ele>
        <time>2020-05-28T10:13:14.000Z</time>
      </trkpt>
      <trkpt lat="47.25601" lon="-2.32052">
        <ele>3.4000000953674</ele>
        <time>2020-05-28T10:13:15.000Z</time>
      </trkpt>
      <trkpt lat="47.25581" lon="-2.31999">
        <ele>3.4000000953674</ele>
        <time>2020-05-28T10:13:23.000Z</time>
      </trkpt>
      <trkpt lat="47.25577" lon="-2.31986">
        <ele>3.4000000953674</ele>
        <time>2020-05-28T10:13:25.000Z</time>
      </trkpt>
      <trkpt lat="47.25574" lon="-2.31968">
        <ele>3.4000000953674</ele>
        <time>2020-05-28T10:13:28.000Z</time>
      </trkpt>
      <trkpt lat="47.25568" lon="-2.3195">
        <ele>3.4000000953674</ele>
        <time>2020-05-28T10:13:33.000Z</time>
      </trkpt>
      <trkpt lat="47.25565" lon="-2.31949">
        <ele>3.4000000953674</ele>
        <time>2020-05-28T10:13:36.000Z</time>
      </trkpt>
      <trkpt lat="47.25561" lon="-2.31943">
        <ele>3.4000000953674</ele>
        <time>2020-05-28T10:19:14.000Z</time>
      </trkpt>
      <trkpt lat="47.2556" lon="-2.3194">
        <ele>3.4000000953674</ele>
        <time>2020-05-28T10:19:15.000Z</time>
      </trkpt>
      <trkpt lat="47.2556" lon="-2.31911">
        <ele>3.4000000953674</ele>
        <time>2020-05-28T10:19:21.000Z</time>
      </trkpt>
      <trkpt lat="47.25562" lon="-2.31882">
        <ele>3.4000000953674</ele>
        <time>2020-05-28T10:19:26.000Z</time>
      </trkpt>
      <trkpt lat="47.25562" lon="-2.31871">
        <ele>3.7999999523163</ele>
        <time>2020-05-28T10:19:28.000Z</time>
      </trkpt>
      <trkpt lat="47.25562" lon="-2.31865">
        <ele>4.1999998092651</ele>
        <time>2020-05-28T10:19:29.000Z</time>
      </trkpt>
      <trkpt lat="47.25562" lon="-2.3186">
        <ele>4.5999999046326</ele>
        <time>2020-05-28T10:19:30.000Z</time>
      </trkpt>
      <trkpt lat="47.25562" lon="-2.31853">
        <ele>5</ele>
        <time>2020-05-28T10:19:31.000Z</time>
      </trkpt>
      <trkpt lat="47.25562" lon="-2.31847">
        <ele>5.4000000953674</ele>
        <time>2020-05-28T10:19:32.000Z</time>
      </trkpt>
      <trkpt lat="47.25561" lon="-2.31803">
        <ele>5.4000000953674</ele>
        <time>2020-05-28T10:19:39.000Z</time>
      </trkpt>
      <trkpt lat="47.25565" lon="-2.31783">
        <ele>5.4000000953674</ele>
        <time>2020-05-28T10:19:42.000Z</time>
      </trkpt>
      <trkpt lat="47.25568" lon="-2.31777">
        <ele>5.4000000953674</ele>
        <time>2020-05-28T10:19:43.000Z</time>
      </trkpt>
      <trkpt lat="47.25581" lon="-2.31757">
        <ele>5.4000000953674</ele>
        <time>2020-05-28T10:19:47.000Z</time>
      </trkpt>
      <trkpt lat="47.2559" lon="-2.3173">
        <ele>5.4000000953674</ele>
        <time>2020-05-28T10:19:51.000Z</time>
      </trkpt>
      <trkpt lat="47.25601" lon="-2.31713">
        <ele>5</ele>
        <time>2020-05-28T10:19:55.000Z</time>
      </trkpt>
      <trkpt lat="47.25605" lon="-2.31711">
        <ele>4.5999999046326</ele>
        <time>2020-05-28T10:19:56.000Z</time>
      </trkpt>
      <trkpt lat="47.25609" lon="-2.31709">
        <ele>4.1999998092651</ele>
        <time>2020-05-28T10:19:57.000Z</time>
      </trkpt>
      <trkpt lat="47.25614" lon="-2.31708">
        <ele>3.5999999046326</ele>
        <time>2020-05-28T10:19:58.000Z</time>
      </trkpt>
      <trkpt lat="47.25618" lon="-2.31708">
        <ele>3.2000000476837</ele>
        <time>2020-05-28T10:19:59.000Z</time>
      </trkpt>
      <trkpt lat="47.25623" lon="-2.31707">
        <ele>3.2000000476837</ele>
        <time>2020-05-28T10:20:00.000Z</time>
      </trkpt>
      <trkpt lat="47.25633" lon="-2.31704">
        <ele>3.2000000476837</ele>
        <time>2020-05-28T10:20:02.000Z</time>
      </trkpt>
      <trkpt lat="47.25643" lon="-2.31696">
        <ele>3.2000000476837</ele>
        <time>2020-05-28T10:20:04.000Z</time>
      </trkpt>
      <trkpt lat="47.25655" lon="-2.31671">
        <ele>3.2000000476837</ele>
        <time>2020-05-28T10:20:08.000Z</time>
      </trkpt>
      <trkpt lat="47.25658" lon="-2.31666">
        <ele>2.7999999523163</ele>
        <time>2020-05-28T10:20:09.000Z</time>
      </trkpt>
      <trkpt lat="47.25662" lon="-2.31663">
        <ele>2.4000000953674</ele>
        <time>2020-05-28T10:20:10.000Z</time>
      </trkpt>
      <trkpt lat="47.25667" lon="-2.31663">
        <ele>2</ele>
        <time>2020-05-28T10:20:11.000Z</time>
      </trkpt>
      <trkpt lat="47.25671" lon="-2.31666">
        <ele>1.6000000238419</ele>
        <time>2020-05-28T10:20:12.000Z</time>
      </trkpt>
      <trkpt lat="47.25676" lon="-2.31669">
        <ele>1.2000000476837</ele>
        <time>2020-05-28T10:20:13.000Z</time>
      </trkpt>
      <trkpt lat="47.25681" lon="-2.31672">
        <ele>1.2000000476837</ele>
        <time>2020-05-28T10:20:14.000Z</time>
      </trkpt>
      <trkpt lat="47.25686" lon="-2.31674">
        <ele>1.2000000476837</ele>
        <time>2020-05-28T10:20:15.000Z</time>
      </trkpt>
      <trkpt lat="47.25719" lon="-2.31694">
        <ele>1.2000000476837</ele>
        <time>2020-05-28T10:20:21.000Z</time>
      </trkpt>
      <trkpt lat="47.25725" lon="-2.31697">
        <ele>1.2000000476837</ele>
        <time>2020-05-28T10:20:22.000Z</time>
      </trkpt>
      <trkpt lat="47.25736" lon="-2.31695">
        <ele>1.2000000476837</ele>
        <time>2020-05-28T10:20:24.000Z</time>
      </trkpt>
      <trkpt lat="47.25754" lon="-2.3168">
        <ele>1.2000000476837</ele>
        <time>2020-05-28T10:20:28.000Z</time>
      </trkpt>
      <trkpt lat="47.25783" lon="-2.31659">
        <ele>1.2000000476837</ele>
        <time>2020-05-28T10:20:35.000Z</time>
      </trkpt>
      <trkpt lat="47.2582" lon="-2.31631">
        <ele>1.2000000476837</ele>
        <time>2020-05-28T10:20:44.000Z</time>
      </trkpt>
      <trkpt lat="47.25824" lon="-2.31627">
        <ele>1.2000000476837</ele>
        <time>2020-05-28T10:20:45.000Z</time>
      </trkpt>
      <trkpt lat="47.25831" lon="-2.3162">
        <ele>1.2000000476837</ele>
        <time>2020-05-28T10:20:47.000Z</time>
      </trkpt>
      <trkpt lat="47.25839" lon="-2.31613">
        <ele>1.2000000476837</ele>
        <time>2020-05-28T10:20:49.000Z</time>
      </trkpt>
      <trkpt lat="47.25865" lon="-2.31588">
        <ele>1.2000000476837</ele>
        <time>2020-05-28T10:20:55.000Z</time>
      </trkpt>
      <trkpt lat="47.25879" lon="-2.31572">
        <ele>1.2000000476837</ele>
        <time>2020-05-28T10:20:58.000Z</time>
      </trkpt>
      <trkpt lat="47.25887" lon="-2.31557">
        <ele>1.2000000476837</ele>
        <time>2020-05-28T10:21:00.000Z</time>
      </trkpt>
      <trkpt lat="47.25894" lon="-2.31541">
        <ele>1.2000000476837</ele>
        <time>2020-05-28T10:21:02.000Z</time>
      </trkpt>
      <trkpt lat="47.259" lon="-2.31526">
        <ele>0.80000001192093</ele>
        <time>2020-05-28T10:21:04.000Z</time>
      </trkpt>
      <trkpt lat="47.25903" lon="-2.31521">
        <ele>0.40000000596046</ele>
        <time>2020-05-28T10:21:05.000Z</time>
      </trkpt>
      <trkpt lat="47.25906" lon="-2.31518">
        <ele>8.7</ele>
        <time>2020-05-28T10:21:06.000Z</time>
      </trkpt>
      <trkpt lat="47.25909" lon="-2.31516">
        <ele>-0.40000000596046</ele>
        <time>2020-05-28T10:21:07.000Z</time>
      </trkpt>
      <trkpt lat="47.25911" lon="-2.31513">
        <ele>-0.80000001192093</ele>
        <time>2020-05-28T10:21:08.000Z</time>
      </trkpt>
      <trkpt lat="47.25912" lon="-2.3151">
        <ele>-1.2000000476837</ele>
        <time>2020-05-28T10:21:09.000Z</time>
      </trkpt>
      <trkpt lat="47.25913" lon="-2.31508">
        <ele>-1.6000000238419</ele>
        <time>2020-05-28T10:21:10.000Z</time>
      </trkpt>
      <trkpt lat="47.25913" lon="-2.31507">
        <ele>-2</ele>
        <time>2020-05-28T10:21:11.000Z</time>
      </trkpt>
      <trkpt lat="47.25912" lon="-2.31507">
        <ele>-2.4000000953674</ele>
        <time>2020-05-28T10:21:12.000Z</time>
      </trkpt>
      <trkpt lat="47.25912" lon="-2.31502">
        <ele>-2.7999999523163</ele>
        <time>2020-05-28T10:21:15.000Z</time>
      </trkpt>
      <trkpt lat="47.25913" lon="-2.31495">
        <ele>-2.7999999523163</ele>
        <time>2020-05-28T10:21:17.000Z</time>
      </trkpt>
      <trkpt lat="47.25918" lon="-2.31473">
        <ele>-2.7999999523163</ele>
        <time>2020-05-28T10:21:21.000Z</time>
      </trkpt>
      <trkpt lat="47.25925" lon="-2.3146">
        <ele>-2.7999999523163</ele>
        <time>2020-05-28T10:21:24.000Z</time>
      </trkpt>
      <trkpt lat="47.25929" lon="-2.31459">
        <ele>-2.7999999523163</ele>
        <time>2020-05-28T10:21:25.000Z</time>
      </trkpt>
      <trkpt lat="47.25942" lon="-2.31466">
        <ele>-2.7999999523163</ele>
        <time>2020-05-28T10:21:28.000Z</time>
      </trkpt>
      <trkpt lat="47.25946" lon="-2.3147">
        <ele>-2.7999999523163</ele>
        <time>2020-05-28T10:21:29.000Z</time>
      </trkpt>
      <trkpt lat="47.25963" lon="-2.31489">
        <ele>-2.7999999523163</ele>
        <time>2020-05-28T10:21:33.000Z</time>
      </trkpt>
      <trkpt lat="47.25967" lon="-2.31494">
        <ele>-2.7999999523163</ele>
        <time>2020-05-28T10:21:34.000Z</time>
      </trkpt>
      <trkpt lat="47.25989" lon="-2.31534">
        <ele>-2.7999999523163</ele>
        <time>2020-05-28T10:21:41.000Z</time>
      </trkpt>
      <trkpt lat="47.26008" lon="-2.31563">
        <ele>-2.7999999523163</ele>
        <time>2020-05-28T10:21:47.000Z</time>
      </trkpt>
      <trkpt lat="47.26013" lon="-2.31564">
        <ele>-2.7999999523163</ele>
        <time>2020-05-28T10:21:48.000Z</time>
      </trkpt>
      <trkpt lat="47.26024" lon="-2.31553">
        <ele>-2.7999999523163</ele>
        <time>2020-05-28T10:21:51.000Z</time>
      </trkpt>
      <trkpt lat="47.26032" lon="-2.31531">
        <ele>-2.7999999523163</ele>
        <time>2020-05-28T10:21:55.000Z</time>
      </trkpt>
      <trkpt lat="47.26039" lon="-2.31517">
        <ele>-2.7999999523163</ele>
        <time>2020-05-28T10:21:59.000Z</time>
      </trkpt>
      <trkpt lat="47.26042" lon="-2.31516">
        <ele>-2.7999999523163</ele>
        <time>2020-05-28T10:22:00.000Z</time>
      </trkpt>
      <trkpt lat="47.26048" lon="-2.31521">
        <ele>-3.4000000953674</ele>
        <time>2020-05-28T10:22:02.000Z</time>
      </trkpt>
      <trkpt lat="47.26052" lon="-2.31525">
        <ele>-3.7999999523163</ele>
        <time>2020-05-28T10:22:03.000Z</time>
      </trkpt>
      <trkpt lat="47.26055" lon="-2.31531">
        <ele>-4.1999998092651</ele>
        <time>2020-05-28T10:22:04.000Z</time>
      </trkpt>
      <trkpt lat="47.26058" lon="-2.31538">
        <ele>-4.5999999046326</ele>
        <time>2020-05-28T10:22:05.000Z</time>
      </trkpt>
      <trkpt lat="47.26062" lon="-2.31543">
        <ele>-5</ele>
        <time>2020-05-28T10:22:06.000Z</time>
      </trkpt>
      <trkpt lat="47.26067" lon="-2.31556">
        <ele>-5</ele>
        <time>2020-05-28T10:22:08.000Z</time>
      </trkpt>
      <trkpt lat="47.26077" lon="-2.31573">
        <ele>-5</ele>
        <time>2020-05-28T10:22:12.000Z</time>
      </trkpt>
      <trkpt lat="47.26085" lon="-2.31578">
        <ele>-5</ele>
        <time>2020-05-28T10:22:15.000Z</time>
      </trkpt>
      <trkpt lat="47.26093" lon="-2.3159">
        <ele>-5</ele>
        <time>2020-05-28T10:22:18.000Z</time>
      </trkpt>
      <trkpt lat="47.26099" lon="-2.316">
        <ele>-5</ele>
        <time>2020-05-28T10:22:20.000Z</time>
      </trkpt>
      <trkpt lat="47.26103" lon="-2.31606">
        <ele>-5</ele>
        <time>2020-05-28T10:22:21.000Z</time>
      </trkpt>
      <trkpt lat="47.26116" lon="-2.31612">
        <ele>-5</ele>
        <time>2020-05-28T10:22:24.000Z</time>
      </trkpt>
      <trkpt lat="47.26131" lon="-2.31611">
        <ele>-5</ele>
        <time>2020-05-28T10:22:27.000Z</time>
      </trkpt>
      <trkpt lat="47.2614" lon="-2.3161">
        <ele>-5</ele>
        <time>2020-05-28T10:22:29.000Z</time>
      </trkpt>
      <trkpt lat="47.2617" lon="-2.31599">
        <ele>-5</ele>
        <time>2020-05-28T10:22:36.000Z</time>
      </trkpt>
      <trkpt lat="47.26188" lon="-2.31595">
        <ele>-5.4000000953674</ele>
        <time>2020-05-28T10:22:40.000Z</time>
      </trkpt>
      <trkpt lat="47.26192" lon="-2.31593">
        <ele>-6</ele>
        <time>2020-05-28T10:22:41.000Z</time>
      </trkpt>
      <trkpt lat="47.26196" lon="-2.31592">
        <ele>-6.4000000953674</ele>
        <time>2020-05-28T10:22:42.000Z</time>
      </trkpt>
      <trkpt lat="47.26201" lon="-2.3159">
        <ele>-6.8000001907349</ele>
        <time>2020-05-28T10:22:43.000Z</time>
      </trkpt>
      <trkpt lat="47.26205" lon="-2.3159">
        <ele>-7.1999998092651</ele>
        <time>2020-05-28T10:22:44.000Z</time>
      </trkpt>
      <trkpt lat="47.26219" lon="-2.31592">
        <ele>-7.1999998092651</ele>
        <time>2020-05-28T10:22:47.000Z</time>
      </trkpt>
      <trkpt lat="47.26223" lon="-2.31594">
        <ele>-7.1999998092651</ele>
        <time>2020-05-28T10:22:48.000Z</time>
      </trkpt>
      <trkpt lat="47.26227" lon="-2.31597">
        <ele>-7.1999998092651</ele>
        <time>2020-05-28T10:22:49.000Z</time>
      </trkpt>
      <trkpt lat="47.26238" lon="-2.31606">
        <ele>-7.1999998092651</ele>
        <time>2020-05-28T10:22:52.000Z</time>
      </trkpt>
      <trkpt lat="47.26244" lon="-2.31615">
        <ele>-7.1999998092651</ele>
        <time>2020-05-28T10:22:54.000Z</time>
      </trkpt>
      <trkpt lat="47.26253" lon="-2.31631">
        <ele>-7.1999998092651</ele>
        <time>2020-05-28T10:22:57.000Z</time>
      </trkpt>
      <trkpt lat="47.26276" lon="-2.31674">
        <ele>-7.1999998092651</ele>
        <time>2020-05-28T10:23:05.000Z</time>
      </trkpt>
      <trkpt lat="47.26297" lon="-2.3171">
        <ele>-7.1999998092651</ele>
        <time>2020-05-28T10:23:11.000Z</time>
      </trkpt>
      <trkpt lat="47.26301" lon="-2.31714">
        <ele>-7.1999998092651</ele>
        <time>2020-05-28T10:23:12.000Z</time>
      </trkpt>
      <trkpt lat="47.26313" lon="-2.31712">
        <ele>-7.1999998092651</ele>
        <time>2020-05-28T10:23:15.000Z</time>
      </trkpt>
      <trkpt lat="47.26324" lon="-2.31705">
        <ele>-7.1999998092651</ele>
        <time>2020-05-28T10:23:18.000Z</time>
      </trkpt>
      <trkpt lat="47.2633" lon="-2.31698">
        <ele>-7.1999998092651</ele>
        <time>2020-05-28T10:23:20.000Z</time>
      </trkpt>
      <trkpt lat="47.26335" lon="-2.31689">
        <ele>-7.1999998092651</ele>
        <time>2020-05-28T10:23:22.000Z</time>
      </trkpt>
      <trkpt lat="47.26338" lon="-2.31687">
        <ele>-7.1999998092651</ele>
        <time>2020-05-28T10:23:23.000Z</time>
      </trkpt>
      <trkpt lat="47.26344" lon="-2.31685">
        <ele>-6.8000001907349</ele>
        <time>2020-05-28T10:23:25.000Z</time>
      </trkpt>
      <trkpt lat="47.26347" lon="-2.31684">
        <ele>-6.4000000953674</ele>
        <time>2020-05-28T10:23:26.000Z</time>
      </trkpt>
      <trkpt lat="47.26351" lon="-2.31682">
        <ele>-6</ele>
        <time>2020-05-28T10:23:27.000Z</time>
      </trkpt>
      <trkpt lat="47.26354" lon="-2.3168">
        <ele>-5.5999999046326</ele>
        <time>2020-05-28T10:23:28.000Z</time>
      </trkpt>
      <trkpt lat="47.26358" lon="-2.31679">
        <ele>-5.1999998092651</ele>
        <time>2020-05-28T10:23:29.000Z</time>
      </trkpt>
      <trkpt lat="47.2638" lon="-2.31669">
        <ele>-5.1999998092651</ele>
        <time>2020-05-28T10:23:35.000Z</time>
      </trkpt>
      <trkpt lat="47.26399" lon="-2.31658">
        <ele>-4.8000001907349</ele>
        <time>2020-05-28T10:23:41.000Z</time>
      </trkpt>
      <trkpt lat="47.26402" lon="-2.31656">
        <ele>-4.4000000953674</ele>
        <time>2020-05-28T10:23:42.000Z</time>
      </trkpt>
      <trkpt lat="47.26405" lon="-2.31654">
        <ele>-4</ele>
        <time>2020-05-28T10:23:43.000Z</time>
      </trkpt>
      <trkpt lat="47.26408" lon="-2.3165">
        <ele>-3.5999999046326</ele>
        <time>2020-05-28T10:23:44.000Z</time>
      </trkpt>
      <trkpt lat="47.2641" lon="-2.31646">
        <ele>-3</ele>
        <time>2020-05-28T10:23:45.000Z</time>
      </trkpt>
      <trkpt lat="47.26411" lon="-2.31641">
        <ele>-3</ele>
        <time>2020-05-28T10:23:46.000Z</time>
      </trkpt>
      <trkpt lat="47.2641" lon="-2.31622">
        <ele>-3</ele>
        <time>2020-05-28T10:23:51.000Z</time>
      </trkpt>
      <trkpt lat="47.2641" lon="-2.31618">
        <ele>-3</ele>
        <time>2020-05-28T10:23:52.000Z</time>
      </trkpt>
      <trkpt lat="47.2641" lon="-2.31606">
        <ele>-3</ele>
        <time>2020-05-28T10:23:55.000Z</time>
      </trkpt>
      <trkpt lat="47.26409" lon="-2.31598">
        <ele>-3</ele>
        <time>2020-05-28T10:23:57.000Z</time>
      </trkpt>
      <trkpt lat="47.26408" lon="-2.31578">
        <ele>-3</ele>
        <time>2020-05-28T10:24:01.000Z</time>
      </trkpt>
      <trkpt lat="47.26409" lon="-2.31555">
        <ele>-3</ele>
        <time>2020-05-28T10:24:07.000Z</time>
      </trkpt>
      <trkpt lat="47.26413" lon="-2.31555">
        <ele>-3</ele>
        <time>2020-05-28T10:24:10.000Z</time>
      </trkpt>
    </trkseg>
  </trk>
</gpx>